<?xml version="1.0" encoding="UTF-8" standalone="no" ?>
<gpx xmlns="http://www.topografix.com/GPX/1/1" xmlns:xsi="http://www.w3.org/2001/XMLSchema-instance" xsi:schemaLocation="http://www.topografix.com/GPX/1/1 http://www.topografix.com/GPX/1/1/gpx.xsd" version="1.1" creator="VisuGPX - https://www.visugpx.com">
  <metadata>
    <name>Tournaboup - Lienz - Ayré </name>
    <desc><![CDATA[Itineraire en passant un max dans les chemins forestiers.
Magnifique avec les arbres gorgés de neige.
Retourdepuis le Lienz par la route jusqu'à Tournaboup, la neige etait suffisante pour rentrer les skis aux pieds.]]></desc>
  </metadata>
  <trk>
    <name><![CDATA[Tournaboup - Lienz - Ayré _1]]></name>
    <trkseg>
      <trkpt lat="42.90354" lon="0.10186">
        <ele>1451</ele>
        <time>2021-11-27T08:23:03Z</time>
      </trkpt>
      <trkpt lat="42.90351" lon="0.10189">
        <ele>1451.2</ele>
        <time>2021-11-27T08:23:04Z</time>
      </trkpt>
      <trkpt lat="42.9035" lon="0.10191">
        <ele>1451.3</ele>
        <time>2021-11-27T08:23:05Z</time>
      </trkpt>
      <trkpt lat="42.90348" lon="0.10196">
        <ele>1451.6</ele>
        <time>2021-11-27T08:23:07Z</time>
      </trkpt>
      <trkpt lat="42.90347" lon="0.10198">
        <ele>1451.7</ele>
        <time>2021-11-27T08:23:08Z</time>
      </trkpt>
      <trkpt lat="42.90345" lon="0.10199">
        <ele>1451.8</ele>
        <time>2021-11-27T08:23:12Z</time>
      </trkpt>
      <trkpt lat="42.90341" lon="0.10202">
        <ele>1452.1</ele>
        <time>2021-11-27T08:23:16Z</time>
      </trkpt>
      <trkpt lat="42.9034" lon="0.10203">
        <ele>1452.1</ele>
        <time>2021-11-27T08:23:18Z</time>
      </trkpt>
      <trkpt lat="42.90339" lon="0.10206">
        <ele>1452.3</ele>
        <time>2021-11-27T08:23:22Z</time>
      </trkpt>
      <trkpt lat="42.90336" lon="0.1021">
        <ele>1452.5</ele>
        <time>2021-11-27T08:23:26Z</time>
      </trkpt>
      <trkpt lat="42.90335" lon="0.10212">
        <ele>1452.6</ele>
        <time>2021-11-27T08:23:33Z</time>
      </trkpt>
      <trkpt lat="42.90338" lon="0.10212">
        <ele>1452.6</ele>
        <time>2021-11-27T08:23:43Z</time>
      </trkpt>
      <trkpt lat="42.90336" lon="0.10214">
        <ele>1458.2</ele>
        <time>2021-11-27T08:23:49Z</time>
      </trkpt>
      <trkpt lat="42.90334" lon="0.10215">
        <ele>1458.2</ele>
        <time>2021-11-27T08:23:57Z</time>
      </trkpt>
      <trkpt lat="42.90333" lon="0.10217">
        <ele>1458.2</ele>
        <time>2021-11-27T08:24:18Z</time>
      </trkpt>
      <trkpt lat="42.90331" lon="0.10219">
        <ele>1458.2</ele>
        <time>2021-11-27T08:24:21Z</time>
      </trkpt>
      <trkpt lat="42.90324" lon="0.10216">
        <ele>1458.2</ele>
        <time>2021-11-27T08:26:55Z</time>
      </trkpt>
      <trkpt lat="42.90327" lon="0.10215">
        <ele>1458.2</ele>
        <time>2021-11-27T08:26:57Z</time>
      </trkpt>
      <trkpt lat="42.90329" lon="0.10212">
        <ele>1457.4</ele>
        <time>2021-11-27T08:26:59Z</time>
      </trkpt>
      <trkpt lat="42.90331" lon="0.1021">
        <ele>1457.4</ele>
        <time>2021-11-27T08:27:01Z</time>
      </trkpt>
      <trkpt lat="42.90332" lon="0.10207">
        <ele>1457.4</ele>
        <time>2021-11-27T08:27:03Z</time>
      </trkpt>
      <trkpt lat="42.90333" lon="0.10204">
        <ele>1457.4</ele>
        <time>2021-11-27T08:27:05Z</time>
      </trkpt>
      <trkpt lat="42.90333" lon="0.102">
        <ele>1457.4</ele>
        <time>2021-11-27T08:27:07Z</time>
      </trkpt>
      <trkpt lat="42.90332" lon="0.10197">
        <ele>1456.6</ele>
        <time>2021-11-27T08:27:09Z</time>
      </trkpt>
      <trkpt lat="42.90333" lon="0.10194">
        <ele>1456.6</ele>
        <time>2021-11-27T08:27:11Z</time>
      </trkpt>
      <trkpt lat="42.90333" lon="0.10191">
        <ele>1456.6</ele>
        <time>2021-11-27T08:27:13Z</time>
      </trkpt>
      <trkpt lat="42.90332" lon="0.10188">
        <ele>1456.6</ele>
        <time>2021-11-27T08:27:15Z</time>
      </trkpt>
      <trkpt lat="42.90332" lon="0.10185">
        <ele>1456.6</ele>
        <time>2021-11-27T08:27:17Z</time>
      </trkpt>
      <trkpt lat="42.90331" lon="0.10181">
        <ele>1455.8</ele>
        <time>2021-11-27T08:27:19Z</time>
      </trkpt>
      <trkpt lat="42.90331" lon="0.10177">
        <ele>1455.8</ele>
        <time>2021-11-27T08:27:21Z</time>
      </trkpt>
      <trkpt lat="42.90331" lon="0.10174">
        <ele>1455.8</ele>
        <time>2021-11-27T08:27:23Z</time>
      </trkpt>
      <trkpt lat="42.9033" lon="0.10171">
        <ele>1455.8</ele>
        <time>2021-11-27T08:27:25Z</time>
      </trkpt>
      <trkpt lat="42.90329" lon="0.10167">
        <ele>1455.8</ele>
        <time>2021-11-27T08:27:27Z</time>
      </trkpt>
      <trkpt lat="42.90329" lon="0.10163">
        <ele>1454.6</ele>
        <time>2021-11-27T08:27:29Z</time>
      </trkpt>
      <trkpt lat="42.90329" lon="0.1016">
        <ele>1454.6</ele>
        <time>2021-11-27T08:27:31Z</time>
      </trkpt>
      <trkpt lat="42.90329" lon="0.10157">
        <ele>1454.6</ele>
        <time>2021-11-27T08:27:33Z</time>
      </trkpt>
      <trkpt lat="42.90328" lon="0.10154">
        <ele>1454.6</ele>
        <time>2021-11-27T08:27:35Z</time>
      </trkpt>
      <trkpt lat="42.90327" lon="0.10151">
        <ele>1454.6</ele>
        <time>2021-11-27T08:27:37Z</time>
      </trkpt>
      <trkpt lat="42.90327" lon="0.10148">
        <ele>1453.8</ele>
        <time>2021-11-27T08:27:39Z</time>
      </trkpt>
      <trkpt lat="42.90327" lon="0.10145">
        <ele>1453.8</ele>
        <time>2021-11-27T08:27:41Z</time>
      </trkpt>
      <trkpt lat="42.90327" lon="0.10141">
        <ele>1453.8</ele>
        <time>2021-11-27T08:27:43Z</time>
      </trkpt>
      <trkpt lat="42.90327" lon="0.10138">
        <ele>1453.8</ele>
        <time>2021-11-27T08:27:45Z</time>
      </trkpt>
      <trkpt lat="42.90326" lon="0.10135">
        <ele>1453.8</ele>
        <time>2021-11-27T08:27:47Z</time>
      </trkpt>
      <trkpt lat="42.90325" lon="0.10131">
        <ele>1453.8</ele>
        <time>2021-11-27T08:27:49Z</time>
      </trkpt>
      <trkpt lat="42.90325" lon="0.10128">
        <ele>1453.8</ele>
        <time>2021-11-27T08:27:51Z</time>
      </trkpt>
      <trkpt lat="42.90324" lon="0.10125">
        <ele>1453.8</ele>
        <time>2021-11-27T08:27:53Z</time>
      </trkpt>
      <trkpt lat="42.90324" lon="0.10122">
        <ele>1453.8</ele>
        <time>2021-11-27T08:27:55Z</time>
      </trkpt>
      <trkpt lat="42.90324" lon="0.10119">
        <ele>1453.8</ele>
        <time>2021-11-27T08:27:57Z</time>
      </trkpt>
      <trkpt lat="42.90323" lon="0.10116">
        <ele>1453.4</ele>
        <time>2021-11-27T08:27:59Z</time>
      </trkpt>
      <trkpt lat="42.90323" lon="0.10112">
        <ele>1453.4</ele>
        <time>2021-11-27T08:28:01Z</time>
      </trkpt>
      <trkpt lat="42.90323" lon="0.10109">
        <ele>1453.4</ele>
        <time>2021-11-27T08:28:03Z</time>
      </trkpt>
      <trkpt lat="42.90322" lon="0.10105">
        <ele>1453.4</ele>
        <time>2021-11-27T08:28:05Z</time>
      </trkpt>
      <trkpt lat="42.90321" lon="0.10102">
        <ele>1453.4</ele>
        <time>2021-11-27T08:28:07Z</time>
      </trkpt>
      <trkpt lat="42.90321" lon="0.10099">
        <ele>1453.2</ele>
        <time>2021-11-27T08:28:09Z</time>
      </trkpt>
      <trkpt lat="42.9032" lon="0.10095">
        <ele>1453.2</ele>
        <time>2021-11-27T08:28:11Z</time>
      </trkpt>
      <trkpt lat="42.90318" lon="0.10093">
        <ele>1453.2</ele>
        <time>2021-11-27T08:28:13Z</time>
      </trkpt>
      <trkpt lat="42.90316" lon="0.1009">
        <ele>1453.2</ele>
        <time>2021-11-27T08:28:16Z</time>
      </trkpt>
      <trkpt lat="42.90316" lon="0.10087">
        <ele>1453.2</ele>
        <time>2021-11-27T08:28:18Z</time>
      </trkpt>
      <trkpt lat="42.90315" lon="0.10084">
        <ele>1453.2</ele>
        <time>2021-11-27T08:28:20Z</time>
      </trkpt>
      <trkpt lat="42.90314" lon="0.10081">
        <ele>1453.2</ele>
        <time>2021-11-27T08:28:22Z</time>
      </trkpt>
      <trkpt lat="42.90314" lon="0.10077">
        <ele>1453.2</ele>
        <time>2021-11-27T08:28:25Z</time>
      </trkpt>
      <trkpt lat="42.90314" lon="0.10073">
        <ele>1453.2</ele>
        <time>2021-11-27T08:28:27Z</time>
      </trkpt>
      <trkpt lat="42.90314" lon="0.1007">
        <ele>1452.4</ele>
        <time>2021-11-27T08:28:29Z</time>
      </trkpt>
      <trkpt lat="42.90315" lon="0.10067">
        <ele>1452.4</ele>
        <time>2021-11-27T08:28:31Z</time>
      </trkpt>
      <trkpt lat="42.90315" lon="0.10064">
        <ele>1452.4</ele>
        <time>2021-11-27T08:28:33Z</time>
      </trkpt>
      <trkpt lat="42.90316" lon="0.1006">
        <ele>1452.4</ele>
        <time>2021-11-27T08:28:35Z</time>
      </trkpt>
      <trkpt lat="42.90317" lon="0.10057">
        <ele>1452.4</ele>
        <time>2021-11-27T08:28:37Z</time>
      </trkpt>
      <trkpt lat="42.90319" lon="0.10053">
        <ele>1452.8</ele>
        <time>2021-11-27T08:28:39Z</time>
      </trkpt>
      <trkpt lat="42.9032" lon="0.1005">
        <ele>1452.8</ele>
        <time>2021-11-27T08:28:41Z</time>
      </trkpt>
      <trkpt lat="42.90321" lon="0.10047">
        <ele>1452.8</ele>
        <time>2021-11-27T08:28:43Z</time>
      </trkpt>
      <trkpt lat="42.90322" lon="0.10043">
        <ele>1452.8</ele>
        <time>2021-11-27T08:28:45Z</time>
      </trkpt>
      <trkpt lat="42.90324" lon="0.1004">
        <ele>1452.8</ele>
        <time>2021-11-27T08:28:48Z</time>
      </trkpt>
      <trkpt lat="42.90325" lon="0.10038">
        <ele>1452.8</ele>
        <time>2021-11-27T08:28:50Z</time>
      </trkpt>
      <trkpt lat="42.90326" lon="0.10034">
        <ele>1452.8</ele>
        <time>2021-11-27T08:28:52Z</time>
      </trkpt>
      <trkpt lat="42.90328" lon="0.10032">
        <ele>1452.8</ele>
        <time>2021-11-27T08:28:54Z</time>
      </trkpt>
      <trkpt lat="42.90329" lon="0.10029">
        <ele>1452.8</ele>
        <time>2021-11-27T08:28:55Z</time>
      </trkpt>
      <trkpt lat="42.9033" lon="0.10027">
        <ele>1452.8</ele>
        <time>2021-11-27T08:28:56Z</time>
      </trkpt>
      <trkpt lat="42.90332" lon="0.10024">
        <ele>1452.8</ele>
        <time>2021-11-27T08:28:58Z</time>
      </trkpt>
      <trkpt lat="42.90333" lon="0.1002">
        <ele>1452.8</ele>
        <time>2021-11-27T08:29:00Z</time>
      </trkpt>
      <trkpt lat="42.90334" lon="0.10018">
        <ele>1452.8</ele>
        <time>2021-11-27T08:29:02Z</time>
      </trkpt>
      <trkpt lat="42.90334" lon="0.10016">
        <ele>1452.8</ele>
        <time>2021-11-27T08:29:04Z</time>
      </trkpt>
      <trkpt lat="42.90335" lon="0.10013">
        <ele>1452.8</ele>
        <time>2021-11-27T08:29:06Z</time>
      </trkpt>
      <trkpt lat="42.90336" lon="0.1001">
        <ele>1452.8</ele>
        <time>2021-11-27T08:29:08Z</time>
      </trkpt>
      <trkpt lat="42.90336" lon="0.10007">
        <ele>1452.8</ele>
        <time>2021-11-27T08:29:10Z</time>
      </trkpt>
      <trkpt lat="42.90336" lon="0.10004">
        <ele>1452.8</ele>
        <time>2021-11-27T08:29:12Z</time>
      </trkpt>
      <trkpt lat="42.90335" lon="0.10002">
        <ele>1452.8</ele>
        <time>2021-11-27T08:29:14Z</time>
      </trkpt>
      <trkpt lat="42.90334" lon="0.1">
        <ele>1452.8</ele>
        <time>2021-11-27T08:29:16Z</time>
      </trkpt>
      <trkpt lat="42.90332" lon="0.1">
        <ele>1452.8</ele>
        <time>2021-11-27T08:29:18Z</time>
      </trkpt>
      <trkpt lat="42.90329" lon="0.10001">
        <ele>1452.8</ele>
        <time>2021-11-27T08:29:20Z</time>
      </trkpt>
      <trkpt lat="42.90327" lon="0.10003">
        <ele>1452.8</ele>
        <time>2021-11-27T08:29:23Z</time>
      </trkpt>
      <trkpt lat="42.90325" lon="0.10006">
        <ele>1452.8</ele>
        <time>2021-11-27T08:29:26Z</time>
      </trkpt>
      <trkpt lat="42.90324" lon="0.10008">
        <ele>1452.8</ele>
        <time>2021-11-27T08:29:28Z</time>
      </trkpt>
      <trkpt lat="42.90323" lon="0.10011">
        <ele>1452.8</ele>
        <time>2021-11-27T08:29:30Z</time>
      </trkpt>
      <trkpt lat="42.90321" lon="0.10013">
        <ele>1452.8</ele>
        <time>2021-11-27T08:29:32Z</time>
      </trkpt>
      <trkpt lat="42.9032" lon="0.10015">
        <ele>1452.8</ele>
        <time>2021-11-27T08:29:34Z</time>
      </trkpt>
      <trkpt lat="42.90318" lon="0.10017">
        <ele>1452.8</ele>
        <time>2021-11-27T08:29:36Z</time>
      </trkpt>
      <trkpt lat="42.90317" lon="0.1002">
        <ele>1452.8</ele>
        <time>2021-11-27T08:29:38Z</time>
      </trkpt>
      <trkpt lat="42.90316" lon="0.10023">
        <ele>1452.8</ele>
        <time>2021-11-27T08:29:40Z</time>
      </trkpt>
      <trkpt lat="42.90316" lon="0.10025">
        <ele>1452.8</ele>
        <time>2021-11-27T08:29:42Z</time>
      </trkpt>
      <trkpt lat="42.90314" lon="0.10028">
        <ele>1452.8</ele>
        <time>2021-11-27T08:29:45Z</time>
      </trkpt>
      <trkpt lat="42.90312" lon="0.1003">
        <ele>1452.8</ele>
        <time>2021-11-27T08:29:48Z</time>
      </trkpt>
      <trkpt lat="42.90311" lon="0.10033">
        <ele>1452.8</ele>
        <time>2021-11-27T08:29:50Z</time>
      </trkpt>
      <trkpt lat="42.90309" lon="0.10035">
        <ele>1452.8</ele>
        <time>2021-11-27T08:29:52Z</time>
      </trkpt>
      <trkpt lat="42.90308" lon="0.10037">
        <ele>1452.8</ele>
        <time>2021-11-27T08:29:54Z</time>
      </trkpt>
      <trkpt lat="42.90307" lon="0.1004">
        <ele>1452.8</ele>
        <time>2021-11-27T08:29:56Z</time>
      </trkpt>
      <trkpt lat="42.90307" lon="0.10043">
        <ele>1458.2</ele>
        <time>2021-11-27T08:29:59Z</time>
      </trkpt>
      <trkpt lat="42.90307" lon="0.10045">
        <ele>1458.2</ele>
        <time>2021-11-27T08:30:01Z</time>
      </trkpt>
      <trkpt lat="42.90305" lon="0.10047">
        <ele>1458.2</ele>
        <time>2021-11-27T08:30:03Z</time>
      </trkpt>
      <trkpt lat="42.90303" lon="0.10049">
        <ele>1458.2</ele>
        <time>2021-11-27T08:30:05Z</time>
      </trkpt>
      <trkpt lat="42.90301" lon="0.10052">
        <ele>1458.2</ele>
        <time>2021-11-27T08:30:08Z</time>
      </trkpt>
      <trkpt lat="42.903" lon="0.10054">
        <ele>1458.2</ele>
        <time>2021-11-27T08:30:10Z</time>
      </trkpt>
      <trkpt lat="42.90299" lon="0.10056">
        <ele>1458.2</ele>
        <time>2021-11-27T08:30:12Z</time>
      </trkpt>
      <trkpt lat="42.90297" lon="0.10059">
        <ele>1458.2</ele>
        <time>2021-11-27T08:30:14Z</time>
      </trkpt>
      <trkpt lat="42.90297" lon="0.10062">
        <ele>1458.2</ele>
        <time>2021-11-27T08:30:16Z</time>
      </trkpt>
      <trkpt lat="42.90295" lon="0.10065">
        <ele>1460.2</ele>
        <time>2021-11-27T08:30:19Z</time>
      </trkpt>
      <trkpt lat="42.90294" lon="0.10067">
        <ele>1460.2</ele>
        <time>2021-11-27T08:30:21Z</time>
      </trkpt>
      <trkpt lat="42.90293" lon="0.10069">
        <ele>1460.2</ele>
        <time>2021-11-27T08:30:23Z</time>
      </trkpt>
      <trkpt lat="42.90292" lon="0.10071">
        <ele>1460.2</ele>
        <time>2021-11-27T08:30:25Z</time>
      </trkpt>
      <trkpt lat="42.90291" lon="0.10074">
        <ele>1460.2</ele>
        <time>2021-11-27T08:30:27Z</time>
      </trkpt>
      <trkpt lat="42.90289" lon="0.10076">
        <ele>1461.8</ele>
        <time>2021-11-27T08:30:29Z</time>
      </trkpt>
      <trkpt lat="42.90288" lon="0.10078">
        <ele>1461.8</ele>
        <time>2021-11-27T08:30:31Z</time>
      </trkpt>
      <trkpt lat="42.90286" lon="0.10081">
        <ele>1461.8</ele>
        <time>2021-11-27T08:30:34Z</time>
      </trkpt>
      <trkpt lat="42.90284" lon="0.10083">
        <ele>1461.8</ele>
        <time>2021-11-27T08:30:36Z</time>
      </trkpt>
      <trkpt lat="42.90283" lon="0.10085">
        <ele>1461.8</ele>
        <time>2021-11-27T08:30:38Z</time>
      </trkpt>
      <trkpt lat="42.90281" lon="0.10088">
        <ele>1461.8</ele>
        <time>2021-11-27T08:30:40Z</time>
      </trkpt>
      <trkpt lat="42.90281" lon="0.10091">
        <ele>1461.8</ele>
        <time>2021-11-27T08:30:43Z</time>
      </trkpt>
      <trkpt lat="42.9028" lon="0.10094">
        <ele>1461.8</ele>
        <time>2021-11-27T08:30:46Z</time>
      </trkpt>
      <trkpt lat="42.90278" lon="0.10095">
        <ele>1461.8</ele>
        <time>2021-11-27T08:30:48Z</time>
      </trkpt>
      <trkpt lat="42.90276" lon="0.10098">
        <ele>1461.8</ele>
        <time>2021-11-27T08:30:50Z</time>
      </trkpt>
      <trkpt lat="42.90275" lon="0.10101">
        <ele>1461.8</ele>
        <time>2021-11-27T08:30:54Z</time>
      </trkpt>
      <trkpt lat="42.90274" lon="0.10103">
        <ele>1461.8</ele>
        <time>2021-11-27T08:31:05Z</time>
      </trkpt>
      <trkpt lat="42.90273" lon="0.10106">
        <ele>1461.8</ele>
        <time>2021-11-27T08:31:08Z</time>
      </trkpt>
      <trkpt lat="42.90271" lon="0.10108">
        <ele>1461.8</ele>
        <time>2021-11-27T08:31:10Z</time>
      </trkpt>
      <trkpt lat="42.9027" lon="0.10111">
        <ele>1461.8</ele>
        <time>2021-11-27T08:31:12Z</time>
      </trkpt>
      <trkpt lat="42.90268" lon="0.10114">
        <ele>1461.8</ele>
        <time>2021-11-27T08:31:15Z</time>
      </trkpt>
      <trkpt lat="42.90266" lon="0.10116">
        <ele>1461.8</ele>
        <time>2021-11-27T08:31:18Z</time>
      </trkpt>
      <trkpt lat="42.90263" lon="0.10118">
        <ele>1461.8</ele>
        <time>2021-11-27T08:31:20Z</time>
      </trkpt>
      <trkpt lat="42.90262" lon="0.10121">
        <ele>1461.8</ele>
        <time>2021-11-27T08:31:23Z</time>
      </trkpt>
      <trkpt lat="42.9026" lon="0.10123">
        <ele>1461.8</ele>
        <time>2021-11-27T08:31:26Z</time>
      </trkpt>
      <trkpt lat="42.90258" lon="0.10125">
        <ele>1466.6</ele>
        <time>2021-11-27T08:31:29Z</time>
      </trkpt>
      <trkpt lat="42.90257" lon="0.10128">
        <ele>1466.6</ele>
        <time>2021-11-27T08:31:32Z</time>
      </trkpt>
      <trkpt lat="42.90255" lon="0.10129">
        <ele>1466.6</ele>
        <time>2021-11-27T08:31:34Z</time>
      </trkpt>
      <trkpt lat="42.90254" lon="0.10131">
        <ele>1466.6</ele>
        <time>2021-11-27T08:31:36Z</time>
      </trkpt>
      <trkpt lat="42.90252" lon="0.10133">
        <ele>1466.6</ele>
        <time>2021-11-27T08:31:38Z</time>
      </trkpt>
      <trkpt lat="42.9025" lon="0.10135">
        <ele>1466.6</ele>
        <time>2021-11-27T08:31:40Z</time>
      </trkpt>
      <trkpt lat="42.90249" lon="0.10137">
        <ele>1466.6</ele>
        <time>2021-11-27T08:31:42Z</time>
      </trkpt>
      <trkpt lat="42.90247" lon="0.10139">
        <ele>1466.6</ele>
        <time>2021-11-27T08:31:44Z</time>
      </trkpt>
      <trkpt lat="42.90246" lon="0.10142">
        <ele>1466.6</ele>
        <time>2021-11-27T08:31:47Z</time>
      </trkpt>
      <trkpt lat="42.90244" lon="0.10144">
        <ele>1466.6</ele>
        <time>2021-11-27T08:31:50Z</time>
      </trkpt>
      <trkpt lat="42.90242" lon="0.10146">
        <ele>1466.6</ele>
        <time>2021-11-27T08:31:52Z</time>
      </trkpt>
      <trkpt lat="42.9024" lon="0.10148">
        <ele>1466.6</ele>
        <time>2021-11-27T08:31:54Z</time>
      </trkpt>
      <trkpt lat="42.90239" lon="0.10151">
        <ele>1466.6</ele>
        <time>2021-11-27T08:31:57Z</time>
      </trkpt>
      <trkpt lat="42.90238" lon="0.10153">
        <ele>1468.8</ele>
        <time>2021-11-27T08:31:59Z</time>
      </trkpt>
      <trkpt lat="42.90236" lon="0.10155">
        <ele>1468.8</ele>
        <time>2021-11-27T08:32:01Z</time>
      </trkpt>
      <trkpt lat="42.90235" lon="0.10159">
        <ele>1468.8</ele>
        <time>2021-11-27T08:32:04Z</time>
      </trkpt>
      <trkpt lat="42.90233" lon="0.10162">
        <ele>1468.8</ele>
        <time>2021-11-27T08:32:07Z</time>
      </trkpt>
      <trkpt lat="42.90232" lon="0.10164">
        <ele>1470</ele>
        <time>2021-11-27T08:32:09Z</time>
      </trkpt>
      <trkpt lat="42.90232" lon="0.10167">
        <ele>1470</ele>
        <time>2021-11-27T08:32:11Z</time>
      </trkpt>
      <trkpt lat="42.90231" lon="0.10169">
        <ele>1470</ele>
        <time>2021-11-27T08:32:13Z</time>
      </trkpt>
      <trkpt lat="42.90229" lon="0.10172">
        <ele>1470</ele>
        <time>2021-11-27T08:32:15Z</time>
      </trkpt>
      <trkpt lat="42.90228" lon="0.10174">
        <ele>1470</ele>
        <time>2021-11-27T08:32:17Z</time>
      </trkpt>
      <trkpt lat="42.90227" lon="0.10178">
        <ele>1470</ele>
        <time>2021-11-27T08:32:20Z</time>
      </trkpt>
      <trkpt lat="42.90225" lon="0.10181">
        <ele>1470</ele>
        <time>2021-11-27T08:32:22Z</time>
      </trkpt>
      <trkpt lat="42.90224" lon="0.10184">
        <ele>1470</ele>
        <time>2021-11-27T08:32:24Z</time>
      </trkpt>
      <trkpt lat="42.90222" lon="0.10186">
        <ele>1470</ele>
        <time>2021-11-27T08:32:26Z</time>
      </trkpt>
      <trkpt lat="42.90221" lon="0.10188">
        <ele>1470</ele>
        <time>2021-11-27T08:32:28Z</time>
      </trkpt>
      <trkpt lat="42.9022" lon="0.1019">
        <ele>1470</ele>
        <time>2021-11-27T08:32:30Z</time>
      </trkpt>
      <trkpt lat="42.90218" lon="0.10192">
        <ele>1470</ele>
        <time>2021-11-27T08:32:32Z</time>
      </trkpt>
      <trkpt lat="42.90216" lon="0.10195">
        <ele>1470</ele>
        <time>2021-11-27T08:32:34Z</time>
      </trkpt>
      <trkpt lat="42.90214" lon="0.10197">
        <ele>1470</ele>
        <time>2021-11-27T08:32:36Z</time>
      </trkpt>
      <trkpt lat="42.90212" lon="0.10199">
        <ele>1470</ele>
        <time>2021-11-27T08:32:38Z</time>
      </trkpt>
      <trkpt lat="42.9021" lon="0.10201">
        <ele>1470</ele>
        <time>2021-11-27T08:32:40Z</time>
      </trkpt>
      <trkpt lat="42.90208" lon="0.10203">
        <ele>1470</ele>
        <time>2021-11-27T08:32:42Z</time>
      </trkpt>
      <trkpt lat="42.90207" lon="0.10206">
        <ele>1470</ele>
        <time>2021-11-27T08:32:44Z</time>
      </trkpt>
      <trkpt lat="42.90205" lon="0.10208">
        <ele>1470</ele>
        <time>2021-11-27T08:32:46Z</time>
      </trkpt>
      <trkpt lat="42.90204" lon="0.1021">
        <ele>1470</ele>
        <time>2021-11-27T08:32:48Z</time>
      </trkpt>
      <trkpt lat="42.90202" lon="0.10212">
        <ele>1473.8</ele>
        <time>2021-11-27T08:32:49Z</time>
      </trkpt>
      <trkpt lat="42.902" lon="0.10213">
        <ele>1473.8</ele>
        <time>2021-11-27T08:32:51Z</time>
      </trkpt>
      <trkpt lat="42.90198" lon="0.10216">
        <ele>1473.8</ele>
        <time>2021-11-27T08:32:54Z</time>
      </trkpt>
      <trkpt lat="42.90197" lon="0.10218">
        <ele>1473.8</ele>
        <time>2021-11-27T08:32:57Z</time>
      </trkpt>
      <trkpt lat="42.90195" lon="0.10221">
        <ele>1473.8</ele>
        <time>2021-11-27T08:33:00Z</time>
      </trkpt>
      <trkpt lat="42.90193" lon="0.10223">
        <ele>1473.8</ele>
        <time>2021-11-27T08:33:03Z</time>
      </trkpt>
      <trkpt lat="42.90191" lon="0.10224">
        <ele>1473.8</ele>
        <time>2021-11-27T08:33:05Z</time>
      </trkpt>
      <trkpt lat="42.90189" lon="0.10227">
        <ele>1473.8</ele>
        <time>2021-11-27T08:33:07Z</time>
      </trkpt>
      <trkpt lat="42.90188" lon="0.10228">
        <ele>1476</ele>
        <time>2021-11-27T08:33:09Z</time>
      </trkpt>
      <trkpt lat="42.90186" lon="0.1023">
        <ele>1476</ele>
        <time>2021-11-27T08:33:11Z</time>
      </trkpt>
      <trkpt lat="42.90184" lon="0.10231">
        <ele>1476</ele>
        <time>2021-11-27T08:33:13Z</time>
      </trkpt>
      <trkpt lat="42.90182" lon="0.10233">
        <ele>1476</ele>
        <time>2021-11-27T08:33:15Z</time>
      </trkpt>
      <trkpt lat="42.9018" lon="0.10236">
        <ele>1476</ele>
        <time>2021-11-27T08:33:18Z</time>
      </trkpt>
      <trkpt lat="42.90178" lon="0.10238">
        <ele>1476</ele>
        <time>2021-11-27T08:33:20Z</time>
      </trkpt>
      <trkpt lat="42.90176" lon="0.1024">
        <ele>1476</ele>
        <time>2021-11-27T08:33:22Z</time>
      </trkpt>
      <trkpt lat="42.90174" lon="0.10242">
        <ele>1476</ele>
        <time>2021-11-27T08:33:24Z</time>
      </trkpt>
      <trkpt lat="42.90173" lon="0.10243">
        <ele>1476</ele>
        <time>2021-11-27T08:33:26Z</time>
      </trkpt>
      <trkpt lat="42.90171" lon="0.10246">
        <ele>1477.8</ele>
        <time>2021-11-27T08:33:29Z</time>
      </trkpt>
      <trkpt lat="42.9017" lon="0.10247">
        <ele>1477.8</ele>
        <time>2021-11-27T08:33:31Z</time>
      </trkpt>
      <trkpt lat="42.90168" lon="0.10249">
        <ele>1477.8</ele>
        <time>2021-11-27T08:33:33Z</time>
      </trkpt>
      <trkpt lat="42.90167" lon="0.10251">
        <ele>1477.8</ele>
        <time>2021-11-27T08:33:35Z</time>
      </trkpt>
      <trkpt lat="42.90166" lon="0.10253">
        <ele>1479</ele>
        <time>2021-11-27T08:33:39Z</time>
      </trkpt>
      <trkpt lat="42.90164" lon="0.10255">
        <ele>1479</ele>
        <time>2021-11-27T08:33:41Z</time>
      </trkpt>
      <trkpt lat="42.90162" lon="0.10258">
        <ele>1479</ele>
        <time>2021-11-27T08:33:43Z</time>
      </trkpt>
      <trkpt lat="42.9016" lon="0.10261">
        <ele>1479</ele>
        <time>2021-11-27T08:33:46Z</time>
      </trkpt>
      <trkpt lat="42.90158" lon="0.10263">
        <ele>1479</ele>
        <time>2021-11-27T08:33:48Z</time>
      </trkpt>
      <trkpt lat="42.90156" lon="0.10265">
        <ele>1479</ele>
        <time>2021-11-27T08:33:50Z</time>
      </trkpt>
      <trkpt lat="42.90155" lon="0.10267">
        <ele>1479</ele>
        <time>2021-11-27T08:33:52Z</time>
      </trkpt>
      <trkpt lat="42.90154" lon="0.1027">
        <ele>1479</ele>
        <time>2021-11-27T08:33:54Z</time>
      </trkpt>
      <trkpt lat="42.90152" lon="0.10272">
        <ele>1479</ele>
        <time>2021-11-27T08:33:56Z</time>
      </trkpt>
      <trkpt lat="42.90152" lon="0.10274">
        <ele>1479</ele>
        <time>2021-11-27T08:34:00Z</time>
      </trkpt>
      <trkpt lat="42.9015" lon="0.10277">
        <ele>1479</ele>
        <time>2021-11-27T08:34:03Z</time>
      </trkpt>
      <trkpt lat="42.90149" lon="0.10279">
        <ele>1479</ele>
        <time>2021-11-27T08:34:05Z</time>
      </trkpt>
      <trkpt lat="42.90147" lon="0.10282">
        <ele>1479</ele>
        <time>2021-11-27T08:34:08Z</time>
      </trkpt>
      <trkpt lat="42.90146" lon="0.10283">
        <ele>1479</ele>
        <time>2021-11-27T08:34:10Z</time>
      </trkpt>
      <trkpt lat="42.90144" lon="0.10285">
        <ele>1479</ele>
        <time>2021-11-27T08:34:12Z</time>
      </trkpt>
      <trkpt lat="42.90142" lon="0.10287">
        <ele>1479</ele>
        <time>2021-11-27T08:34:14Z</time>
      </trkpt>
      <trkpt lat="42.9014" lon="0.10288">
        <ele>1479</ele>
        <time>2021-11-27T08:34:16Z</time>
      </trkpt>
      <trkpt lat="42.90139" lon="0.10289">
        <ele>1479</ele>
        <time>2021-11-27T08:34:18Z</time>
      </trkpt>
      <trkpt lat="42.90136" lon="0.10291">
        <ele>1479</ele>
        <time>2021-11-27T08:34:20Z</time>
      </trkpt>
      <trkpt lat="42.90134" lon="0.10293">
        <ele>1479</ele>
        <time>2021-11-27T08:34:22Z</time>
      </trkpt>
      <trkpt lat="42.90132" lon="0.10295">
        <ele>1479</ele>
        <time>2021-11-27T08:34:24Z</time>
      </trkpt>
      <trkpt lat="42.9013" lon="0.10296">
        <ele>1479</ele>
        <time>2021-11-27T08:34:26Z</time>
      </trkpt>
      <trkpt lat="42.90127" lon="0.10297">
        <ele>1484.2</ele>
        <time>2021-11-27T08:34:29Z</time>
      </trkpt>
      <trkpt lat="42.90125" lon="0.10298">
        <ele>1484.2</ele>
        <time>2021-11-27T08:34:31Z</time>
      </trkpt>
      <trkpt lat="42.90122" lon="0.103">
        <ele>1484.2</ele>
        <time>2021-11-27T08:34:34Z</time>
      </trkpt>
      <trkpt lat="42.9012" lon="0.10302">
        <ele>1484.2</ele>
        <time>2021-11-27T08:34:36Z</time>
      </trkpt>
      <trkpt lat="42.90117" lon="0.10303">
        <ele>1484.2</ele>
        <time>2021-11-27T08:34:38Z</time>
      </trkpt>
      <trkpt lat="42.90115" lon="0.10303">
        <ele>1484.2</ele>
        <time>2021-11-27T08:34:40Z</time>
      </trkpt>
      <trkpt lat="42.90113" lon="0.10304">
        <ele>1484.2</ele>
        <time>2021-11-27T08:34:42Z</time>
      </trkpt>
      <trkpt lat="42.9011" lon="0.10305">
        <ele>1484.2</ele>
        <time>2021-11-27T08:34:44Z</time>
      </trkpt>
      <trkpt lat="42.90108" lon="0.10305">
        <ele>1484.2</ele>
        <time>2021-11-27T08:34:46Z</time>
      </trkpt>
      <trkpt lat="42.90106" lon="0.10305">
        <ele>1484.2</ele>
        <time>2021-11-27T08:34:48Z</time>
      </trkpt>
      <trkpt lat="42.90104" lon="0.10306">
        <ele>1484.2</ele>
        <time>2021-11-27T08:34:50Z</time>
      </trkpt>
      <trkpt lat="42.90102" lon="0.10306">
        <ele>1484.2</ele>
        <time>2021-11-27T08:34:52Z</time>
      </trkpt>
      <trkpt lat="42.90099" lon="0.10308">
        <ele>1484.2</ele>
        <time>2021-11-27T08:34:54Z</time>
      </trkpt>
      <trkpt lat="42.90097" lon="0.10309">
        <ele>1484.2</ele>
        <time>2021-11-27T08:34:55Z</time>
      </trkpt>
      <trkpt lat="42.90096" lon="0.1031">
        <ele>1484.2</ele>
        <time>2021-11-27T08:34:56Z</time>
      </trkpt>
      <trkpt lat="42.90093" lon="0.10311">
        <ele>1484.2</ele>
        <time>2021-11-27T08:34:58Z</time>
      </trkpt>
      <trkpt lat="42.90091" lon="0.10312">
        <ele>1484.2</ele>
        <time>2021-11-27T08:35:00Z</time>
      </trkpt>
      <trkpt lat="42.90088" lon="0.10313">
        <ele>1484.2</ele>
        <time>2021-11-27T08:35:02Z</time>
      </trkpt>
      <trkpt lat="42.90086" lon="0.10313">
        <ele>1484.2</ele>
        <time>2021-11-27T08:35:04Z</time>
      </trkpt>
      <trkpt lat="42.90084" lon="0.10314">
        <ele>1484.2</ele>
        <time>2021-11-27T08:35:06Z</time>
      </trkpt>
      <trkpt lat="42.90082" lon="0.10315">
        <ele>1488.6</ele>
        <time>2021-11-27T08:35:09Z</time>
      </trkpt>
      <trkpt lat="42.90079" lon="0.10315">
        <ele>1488.6</ele>
        <time>2021-11-27T08:35:11Z</time>
      </trkpt>
      <trkpt lat="42.90077" lon="0.10316">
        <ele>1488.6</ele>
        <time>2021-11-27T08:35:13Z</time>
      </trkpt>
      <trkpt lat="42.90075" lon="0.10317">
        <ele>1488.6</ele>
        <time>2021-11-27T08:35:17Z</time>
      </trkpt>
      <trkpt lat="42.90073" lon="0.10318">
        <ele>1489.4</ele>
        <time>2021-11-27T08:35:19Z</time>
      </trkpt>
      <trkpt lat="42.9007" lon="0.10319">
        <ele>1489.4</ele>
        <time>2021-11-27T08:35:22Z</time>
      </trkpt>
      <trkpt lat="42.90068" lon="0.1032">
        <ele>1489.4</ele>
        <time>2021-11-27T08:35:25Z</time>
      </trkpt>
      <trkpt lat="42.90065" lon="0.10321">
        <ele>1489.4</ele>
        <time>2021-11-27T08:35:27Z</time>
      </trkpt>
      <trkpt lat="42.90063" lon="0.10322">
        <ele>1489.4</ele>
        <time>2021-11-27T08:35:30Z</time>
      </trkpt>
      <trkpt lat="42.90061" lon="0.10323">
        <ele>1489.4</ele>
        <time>2021-11-27T08:35:33Z</time>
      </trkpt>
      <trkpt lat="42.90058" lon="0.10325">
        <ele>1489.4</ele>
        <time>2021-11-27T08:35:35Z</time>
      </trkpt>
      <trkpt lat="42.90055" lon="0.10326">
        <ele>1489.4</ele>
        <time>2021-11-27T08:35:37Z</time>
      </trkpt>
      <trkpt lat="42.90053" lon="0.10327">
        <ele>1491.4</ele>
        <time>2021-11-27T08:35:39Z</time>
      </trkpt>
      <trkpt lat="42.90051" lon="0.10329">
        <ele>1491.4</ele>
        <time>2021-11-27T08:35:41Z</time>
      </trkpt>
      <trkpt lat="42.90049" lon="0.1033">
        <ele>1491.4</ele>
        <time>2021-11-27T08:35:43Z</time>
      </trkpt>
      <trkpt lat="42.90047" lon="0.10332">
        <ele>1491.4</ele>
        <time>2021-11-27T08:35:45Z</time>
      </trkpt>
      <trkpt lat="42.90045" lon="0.10332">
        <ele>1491.4</ele>
        <time>2021-11-27T08:35:47Z</time>
      </trkpt>
      <trkpt lat="42.90043" lon="0.10332">
        <ele>1492.6</ele>
        <time>2021-11-27T08:35:49Z</time>
      </trkpt>
      <trkpt lat="42.90041" lon="0.10332">
        <ele>1492.6</ele>
        <time>2021-11-27T08:35:52Z</time>
      </trkpt>
      <trkpt lat="42.90039" lon="0.10332">
        <ele>1492.6</ele>
        <time>2021-11-27T08:35:54Z</time>
      </trkpt>
      <trkpt lat="42.90036" lon="0.10333">
        <ele>1492.6</ele>
        <time>2021-11-27T08:35:56Z</time>
      </trkpt>
      <trkpt lat="42.90035" lon="0.10333">
        <ele>1492.6</ele>
        <time>2021-11-27T08:35:58Z</time>
      </trkpt>
      <trkpt lat="42.90033" lon="0.10333">
        <ele>1492.6</ele>
        <time>2021-11-27T08:36:00Z</time>
      </trkpt>
      <trkpt lat="42.90031" lon="0.10333">
        <ele>1492.6</ele>
        <time>2021-11-27T08:36:03Z</time>
      </trkpt>
      <trkpt lat="42.90028" lon="0.10334">
        <ele>1492.6</ele>
        <time>2021-11-27T08:36:06Z</time>
      </trkpt>
      <trkpt lat="42.90025" lon="0.10334">
        <ele>1492.6</ele>
        <time>2021-11-27T08:36:10Z</time>
      </trkpt>
      <trkpt lat="42.90024" lon="0.10336">
        <ele>1492.6</ele>
        <time>2021-11-27T08:36:12Z</time>
      </trkpt>
      <trkpt lat="42.90022" lon="0.10337">
        <ele>1492.6</ele>
        <time>2021-11-27T08:36:14Z</time>
      </trkpt>
      <trkpt lat="42.90019" lon="0.10339">
        <ele>1492.6</ele>
        <time>2021-11-27T08:36:17Z</time>
      </trkpt>
      <trkpt lat="42.90017" lon="0.1034">
        <ele>1495</ele>
        <time>2021-11-27T08:36:19Z</time>
      </trkpt>
      <trkpt lat="42.90015" lon="0.10341">
        <ele>1495</ele>
        <time>2021-11-27T08:36:21Z</time>
      </trkpt>
      <trkpt lat="42.90012" lon="0.10342">
        <ele>1495</ele>
        <time>2021-11-27T08:36:24Z</time>
      </trkpt>
      <trkpt lat="42.9001" lon="0.10343">
        <ele>1495</ele>
        <time>2021-11-27T08:36:26Z</time>
      </trkpt>
      <trkpt lat="42.90007" lon="0.10343">
        <ele>1496</ele>
        <time>2021-11-27T08:36:29Z</time>
      </trkpt>
      <trkpt lat="42.90005" lon="0.10344">
        <ele>1496</ele>
        <time>2021-11-27T08:36:31Z</time>
      </trkpt>
      <trkpt lat="42.90003" lon="0.10345">
        <ele>1496</ele>
        <time>2021-11-27T08:36:33Z</time>
      </trkpt>
      <trkpt lat="42.90001" lon="0.10346">
        <ele>1496</ele>
        <time>2021-11-27T08:36:35Z</time>
      </trkpt>
      <trkpt lat="42.89998" lon="0.10348">
        <ele>1496</ele>
        <time>2021-11-27T08:36:38Z</time>
      </trkpt>
      <trkpt lat="42.89996" lon="0.10349">
        <ele>1496</ele>
        <time>2021-11-27T08:36:40Z</time>
      </trkpt>
      <trkpt lat="42.89994" lon="0.1035">
        <ele>1496</ele>
        <time>2021-11-27T08:36:42Z</time>
      </trkpt>
      <trkpt lat="42.89991" lon="0.10352">
        <ele>1496</ele>
        <time>2021-11-27T08:36:44Z</time>
      </trkpt>
      <trkpt lat="42.89989" lon="0.10353">
        <ele>1496</ele>
        <time>2021-11-27T08:36:46Z</time>
      </trkpt>
      <trkpt lat="42.89987" lon="0.10354">
        <ele>1496</ele>
        <time>2021-11-27T08:36:48Z</time>
      </trkpt>
      <trkpt lat="42.89985" lon="0.10355">
        <ele>1496</ele>
        <time>2021-11-27T08:36:50Z</time>
      </trkpt>
      <trkpt lat="42.89982" lon="0.10355">
        <ele>1496</ele>
        <time>2021-11-27T08:36:52Z</time>
      </trkpt>
      <trkpt lat="42.8998" lon="0.10355">
        <ele>1496</ele>
        <time>2021-11-27T08:36:54Z</time>
      </trkpt>
      <trkpt lat="42.89978" lon="0.10356">
        <ele>1496</ele>
        <time>2021-11-27T08:36:56Z</time>
      </trkpt>
      <trkpt lat="42.89976" lon="0.10357">
        <ele>1496</ele>
        <time>2021-11-27T08:36:58Z</time>
      </trkpt>
      <trkpt lat="42.89973" lon="0.10357">
        <ele>1496</ele>
        <time>2021-11-27T08:37:01Z</time>
      </trkpt>
      <trkpt lat="42.89971" lon="0.10359">
        <ele>1496</ele>
        <time>2021-11-27T08:37:03Z</time>
      </trkpt>
      <trkpt lat="42.89969" lon="0.1036">
        <ele>1496</ele>
        <time>2021-11-27T08:37:04Z</time>
      </trkpt>
      <trkpt lat="42.89967" lon="0.10359">
        <ele>1496</ele>
        <time>2021-11-27T08:37:07Z</time>
      </trkpt>
      <trkpt lat="42.89965" lon="0.10359">
        <ele>1500</ele>
        <time>2021-11-27T08:37:09Z</time>
      </trkpt>
      <trkpt lat="42.89963" lon="0.10361">
        <ele>1500</ele>
        <time>2021-11-27T08:37:11Z</time>
      </trkpt>
      <trkpt lat="42.8996" lon="0.10362">
        <ele>1500</ele>
        <time>2021-11-27T08:37:13Z</time>
      </trkpt>
      <trkpt lat="42.89958" lon="0.10365">
        <ele>1500</ele>
        <time>2021-11-27T08:37:15Z</time>
      </trkpt>
      <trkpt lat="42.89956" lon="0.10365">
        <ele>1500</ele>
        <time>2021-11-27T08:37:17Z</time>
      </trkpt>
      <trkpt lat="42.89954" lon="0.10366">
        <ele>1501.2</ele>
        <time>2021-11-27T08:37:19Z</time>
      </trkpt>
      <trkpt lat="42.89952" lon="0.10367">
        <ele>1501.2</ele>
        <time>2021-11-27T08:37:20Z</time>
      </trkpt>
      <trkpt lat="42.8995" lon="0.10368">
        <ele>1501.2</ele>
        <time>2021-11-27T08:37:22Z</time>
      </trkpt>
      <trkpt lat="42.89948" lon="0.10369">
        <ele>1501.2</ele>
        <time>2021-11-27T08:37:24Z</time>
      </trkpt>
      <trkpt lat="42.89945" lon="0.10369">
        <ele>1501.2</ele>
        <time>2021-11-27T08:37:27Z</time>
      </trkpt>
      <trkpt lat="42.89943" lon="0.1037">
        <ele>1502</ele>
        <time>2021-11-27T08:37:29Z</time>
      </trkpt>
      <trkpt lat="42.89941" lon="0.1037">
        <ele>1502</ele>
        <time>2021-11-27T08:37:31Z</time>
      </trkpt>
      <trkpt lat="42.8994" lon="0.10371">
        <ele>1502</ele>
        <time>2021-11-27T08:37:33Z</time>
      </trkpt>
      <trkpt lat="42.89938" lon="0.10371">
        <ele>1502</ele>
        <time>2021-11-27T08:37:35Z</time>
      </trkpt>
      <trkpt lat="42.89936" lon="0.10371">
        <ele>1502</ele>
        <time>2021-11-27T08:37:38Z</time>
      </trkpt>
      <trkpt lat="42.89934" lon="0.10372">
        <ele>1502</ele>
        <time>2021-11-27T08:37:40Z</time>
      </trkpt>
      <trkpt lat="42.89932" lon="0.10373">
        <ele>1502</ele>
        <time>2021-11-27T08:37:42Z</time>
      </trkpt>
      <trkpt lat="42.8993" lon="0.10374">
        <ele>1502</ele>
        <time>2021-11-27T08:37:45Z</time>
      </trkpt>
      <trkpt lat="42.89927" lon="0.10375">
        <ele>1502</ele>
        <time>2021-11-27T08:37:47Z</time>
      </trkpt>
      <trkpt lat="42.89925" lon="0.10376">
        <ele>1502</ele>
        <time>2021-11-27T08:37:51Z</time>
      </trkpt>
      <trkpt lat="42.89923" lon="0.10377">
        <ele>1502</ele>
        <time>2021-11-27T08:37:53Z</time>
      </trkpt>
      <trkpt lat="42.89921" lon="0.10378">
        <ele>1502</ele>
        <time>2021-11-27T08:37:55Z</time>
      </trkpt>
      <trkpt lat="42.89918" lon="0.10379">
        <ele>1502</ele>
        <time>2021-11-27T08:37:58Z</time>
      </trkpt>
      <trkpt lat="42.89916" lon="0.10381">
        <ele>1502</ele>
        <time>2021-11-27T08:38:00Z</time>
      </trkpt>
      <trkpt lat="42.89914" lon="0.10382">
        <ele>1502</ele>
        <time>2021-11-27T08:38:03Z</time>
      </trkpt>
      <trkpt lat="42.89911" lon="0.10383">
        <ele>1502</ele>
        <time>2021-11-27T08:38:05Z</time>
      </trkpt>
      <trkpt lat="42.89909" lon="0.10384">
        <ele>1502</ele>
        <time>2021-11-27T08:38:07Z</time>
      </trkpt>
      <trkpt lat="42.89908" lon="0.10385">
        <ele>1504.8</ele>
        <time>2021-11-27T08:38:09Z</time>
      </trkpt>
      <trkpt lat="42.89906" lon="0.10387">
        <ele>1504.8</ele>
        <time>2021-11-27T08:38:11Z</time>
      </trkpt>
      <trkpt lat="42.89904" lon="0.10387">
        <ele>1504.8</ele>
        <time>2021-11-27T08:38:14Z</time>
      </trkpt>
      <trkpt lat="42.89901" lon="0.10389">
        <ele>1504.8</ele>
        <time>2021-11-27T08:38:17Z</time>
      </trkpt>
      <trkpt lat="42.89899" lon="0.10389">
        <ele>1504.8</ele>
        <time>2021-11-27T08:38:20Z</time>
      </trkpt>
      <trkpt lat="42.89897" lon="0.10391">
        <ele>1504.8</ele>
        <time>2021-11-27T08:38:23Z</time>
      </trkpt>
      <trkpt lat="42.89894" lon="0.10392">
        <ele>1504.8</ele>
        <time>2021-11-27T08:38:25Z</time>
      </trkpt>
      <trkpt lat="42.89892" lon="0.10394">
        <ele>1504.8</ele>
        <time>2021-11-27T08:38:27Z</time>
      </trkpt>
      <trkpt lat="42.8989" lon="0.10395">
        <ele>1506.6</ele>
        <time>2021-11-27T08:38:29Z</time>
      </trkpt>
      <trkpt lat="42.89888" lon="0.10395">
        <ele>1506.6</ele>
        <time>2021-11-27T08:38:32Z</time>
      </trkpt>
      <trkpt lat="42.89886" lon="0.10395">
        <ele>1506.6</ele>
        <time>2021-11-27T08:38:34Z</time>
      </trkpt>
      <trkpt lat="42.89885" lon="0.10397">
        <ele>1506.6</ele>
        <time>2021-11-27T08:38:36Z</time>
      </trkpt>
      <trkpt lat="42.89883" lon="0.10398">
        <ele>1506.6</ele>
        <time>2021-11-27T08:38:38Z</time>
      </trkpt>
      <trkpt lat="42.89881" lon="0.104">
        <ele>1506.6</ele>
        <time>2021-11-27T08:38:40Z</time>
      </trkpt>
      <trkpt lat="42.89878" lon="0.10401">
        <ele>1506.6</ele>
        <time>2021-11-27T08:38:43Z</time>
      </trkpt>
      <trkpt lat="42.89876" lon="0.10402">
        <ele>1506.6</ele>
        <time>2021-11-27T08:38:45Z</time>
      </trkpt>
      <trkpt lat="42.89874" lon="0.10404">
        <ele>1506.6</ele>
        <time>2021-11-27T08:38:48Z</time>
      </trkpt>
      <trkpt lat="42.89872" lon="0.10404">
        <ele>1506.6</ele>
        <time>2021-11-27T08:38:51Z</time>
      </trkpt>
      <trkpt lat="42.8987" lon="0.10405">
        <ele>1506.6</ele>
        <time>2021-11-27T08:38:54Z</time>
      </trkpt>
      <trkpt lat="42.89868" lon="0.10406">
        <ele>1506.6</ele>
        <time>2021-11-27T08:38:56Z</time>
      </trkpt>
      <trkpt lat="42.89866" lon="0.10407">
        <ele>1506.6</ele>
        <time>2021-11-27T08:38:58Z</time>
      </trkpt>
      <trkpt lat="42.89863" lon="0.10407">
        <ele>1506.6</ele>
        <time>2021-11-27T08:39:01Z</time>
      </trkpt>
      <trkpt lat="42.89861" lon="0.10408">
        <ele>1506.6</ele>
        <time>2021-11-27T08:39:03Z</time>
      </trkpt>
      <trkpt lat="42.89859" lon="0.10409">
        <ele>1506.6</ele>
        <time>2021-11-27T08:39:05Z</time>
      </trkpt>
      <trkpt lat="42.89857" lon="0.10409">
        <ele>1506.6</ele>
        <time>2021-11-27T08:39:07Z</time>
      </trkpt>
      <trkpt lat="42.89855" lon="0.1041">
        <ele>1510.2</ele>
        <time>2021-11-27T08:39:09Z</time>
      </trkpt>
      <trkpt lat="42.89852" lon="0.10411">
        <ele>1510.2</ele>
        <time>2021-11-27T08:39:12Z</time>
      </trkpt>
      <trkpt lat="42.8985" lon="0.10412">
        <ele>1510.2</ele>
        <time>2021-11-27T08:39:14Z</time>
      </trkpt>
      <trkpt lat="42.89848" lon="0.10413">
        <ele>1510.2</ele>
        <time>2021-11-27T08:39:17Z</time>
      </trkpt>
      <trkpt lat="42.89846" lon="0.10414">
        <ele>1511</ele>
        <time>2021-11-27T08:39:19Z</time>
      </trkpt>
      <trkpt lat="42.89844" lon="0.10415">
        <ele>1511</ele>
        <time>2021-11-27T08:39:21Z</time>
      </trkpt>
      <trkpt lat="42.89841" lon="0.10416">
        <ele>1511</ele>
        <time>2021-11-27T08:39:23Z</time>
      </trkpt>
      <trkpt lat="42.89839" lon="0.10417">
        <ele>1511</ele>
        <time>2021-11-27T08:39:25Z</time>
      </trkpt>
      <trkpt lat="42.89837" lon="0.10418">
        <ele>1511</ele>
        <time>2021-11-27T08:39:28Z</time>
      </trkpt>
      <trkpt lat="42.89835" lon="0.1042">
        <ele>1511</ele>
        <time>2021-11-27T08:39:30Z</time>
      </trkpt>
      <trkpt lat="42.89833" lon="0.10422">
        <ele>1511</ele>
        <time>2021-11-27T08:39:32Z</time>
      </trkpt>
      <trkpt lat="42.8983" lon="0.10424">
        <ele>1511</ele>
        <time>2021-11-27T08:39:34Z</time>
      </trkpt>
      <trkpt lat="42.89828" lon="0.10425">
        <ele>1511</ele>
        <time>2021-11-27T08:39:36Z</time>
      </trkpt>
      <trkpt lat="42.89826" lon="0.10427">
        <ele>1511</ele>
        <time>2021-11-27T08:39:38Z</time>
      </trkpt>
      <trkpt lat="42.89824" lon="0.10429">
        <ele>1511</ele>
        <time>2021-11-27T08:39:40Z</time>
      </trkpt>
      <trkpt lat="42.89822" lon="0.1043">
        <ele>1511</ele>
        <time>2021-11-27T08:39:42Z</time>
      </trkpt>
      <trkpt lat="42.8982" lon="0.10431">
        <ele>1511</ele>
        <time>2021-11-27T08:39:45Z</time>
      </trkpt>
      <trkpt lat="42.89818" lon="0.10432">
        <ele>1511</ele>
        <time>2021-11-27T08:39:48Z</time>
      </trkpt>
      <trkpt lat="42.89816" lon="0.10433">
        <ele>1511</ele>
        <time>2021-11-27T08:39:51Z</time>
      </trkpt>
      <trkpt lat="42.89814" lon="0.10434">
        <ele>1511</ele>
        <time>2021-11-27T08:39:53Z</time>
      </trkpt>
      <trkpt lat="42.89812" lon="0.10435">
        <ele>1511</ele>
        <time>2021-11-27T08:39:55Z</time>
      </trkpt>
      <trkpt lat="42.89809" lon="0.10436">
        <ele>1511</ele>
        <time>2021-11-27T08:39:58Z</time>
      </trkpt>
      <trkpt lat="42.89807" lon="0.10437">
        <ele>1511</ele>
        <time>2021-11-27T08:40:00Z</time>
      </trkpt>
      <trkpt lat="42.89805" lon="0.10439">
        <ele>1511</ele>
        <time>2021-11-27T08:40:02Z</time>
      </trkpt>
      <trkpt lat="42.89803" lon="0.1044">
        <ele>1511</ele>
        <time>2021-11-27T08:40:04Z</time>
      </trkpt>
      <trkpt lat="42.89801" lon="0.10441">
        <ele>1511</ele>
        <time>2021-11-27T08:40:06Z</time>
      </trkpt>
      <trkpt lat="42.89799" lon="0.10443">
        <ele>1511</ele>
        <time>2021-11-27T08:40:08Z</time>
      </trkpt>
      <trkpt lat="42.89797" lon="0.10444">
        <ele>1511</ele>
        <time>2021-11-27T08:40:10Z</time>
      </trkpt>
      <trkpt lat="42.89796" lon="0.10445">
        <ele>1511</ele>
        <time>2021-11-27T08:40:12Z</time>
      </trkpt>
      <trkpt lat="42.89794" lon="0.10446">
        <ele>1511</ele>
        <time>2021-11-27T08:40:14Z</time>
      </trkpt>
      <trkpt lat="42.89792" lon="0.10447">
        <ele>1511</ele>
        <time>2021-11-27T08:40:16Z</time>
      </trkpt>
      <trkpt lat="42.8979" lon="0.10446">
        <ele>1511</ele>
        <time>2021-11-27T08:40:21Z</time>
      </trkpt>
      <trkpt lat="42.89789" lon="0.10444">
        <ele>1511</ele>
        <time>2021-11-27T08:40:26Z</time>
      </trkpt>
      <trkpt lat="42.8979" lon="0.10441">
        <ele>1511</ele>
        <time>2021-11-27T08:40:30Z</time>
      </trkpt>
      <trkpt lat="42.89791" lon="0.10438">
        <ele>1511</ele>
        <time>2021-11-27T08:40:33Z</time>
      </trkpt>
      <trkpt lat="42.89793" lon="0.10435">
        <ele>1511</ele>
        <time>2021-11-27T08:40:35Z</time>
      </trkpt>
      <trkpt lat="42.89794" lon="0.10432">
        <ele>1511</ele>
        <time>2021-11-27T08:40:37Z</time>
      </trkpt>
      <trkpt lat="42.89796" lon="0.10429">
        <ele>1511</ele>
        <time>2021-11-27T08:40:40Z</time>
      </trkpt>
      <trkpt lat="42.89797" lon="0.10426">
        <ele>1511</ele>
        <time>2021-11-27T08:40:43Z</time>
      </trkpt>
      <trkpt lat="42.89798" lon="0.10423">
        <ele>1511</ele>
        <time>2021-11-27T08:40:46Z</time>
      </trkpt>
      <trkpt lat="42.898" lon="0.10422">
        <ele>1511</ele>
        <time>2021-11-27T08:40:48Z</time>
      </trkpt>
      <trkpt lat="42.89802" lon="0.1042">
        <ele>1511</ele>
        <time>2021-11-27T08:40:51Z</time>
      </trkpt>
      <trkpt lat="42.89804" lon="0.10418">
        <ele>1511</ele>
        <time>2021-11-27T08:40:53Z</time>
      </trkpt>
      <trkpt lat="42.89805" lon="0.10416">
        <ele>1511</ele>
        <time>2021-11-27T08:40:55Z</time>
      </trkpt>
      <trkpt lat="42.89806" lon="0.10414">
        <ele>1511</ele>
        <time>2021-11-27T08:40:57Z</time>
      </trkpt>
      <trkpt lat="42.89807" lon="0.10412">
        <ele>1522.2</ele>
        <time>2021-11-27T08:40:59Z</time>
      </trkpt>
      <trkpt lat="42.89809" lon="0.1041">
        <ele>1522.2</ele>
        <time>2021-11-27T08:41:01Z</time>
      </trkpt>
      <trkpt lat="42.8981" lon="0.10408">
        <ele>1522.2</ele>
        <time>2021-11-27T08:41:03Z</time>
      </trkpt>
      <trkpt lat="42.89811" lon="0.10406">
        <ele>1522.2</ele>
        <time>2021-11-27T08:41:05Z</time>
      </trkpt>
      <trkpt lat="42.89813" lon="0.10404">
        <ele>1522.2</ele>
        <time>2021-11-27T08:41:07Z</time>
      </trkpt>
      <trkpt lat="42.89814" lon="0.10402">
        <ele>1522.2</ele>
        <time>2021-11-27T08:41:12Z</time>
      </trkpt>
      <trkpt lat="42.89814" lon="0.10399">
        <ele>1522.2</ele>
        <time>2021-11-27T08:42:44Z</time>
      </trkpt>
      <trkpt lat="42.89816" lon="0.10397">
        <ele>1522.2</ele>
        <time>2021-11-27T08:42:46Z</time>
      </trkpt>
      <trkpt lat="42.89817" lon="0.10394">
        <ele>1522.2</ele>
        <time>2021-11-27T08:42:48Z</time>
      </trkpt>
      <trkpt lat="42.89819" lon="0.10392">
        <ele>1522.2</ele>
        <time>2021-11-27T08:42:50Z</time>
      </trkpt>
      <trkpt lat="42.89821" lon="0.10389">
        <ele>1522.2</ele>
        <time>2021-11-27T08:42:52Z</time>
      </trkpt>
      <trkpt lat="42.89822" lon="0.10386">
        <ele>1522.2</ele>
        <time>2021-11-27T08:42:54Z</time>
      </trkpt>
      <trkpt lat="42.89824" lon="0.10385">
        <ele>1522.2</ele>
        <time>2021-11-27T08:42:57Z</time>
      </trkpt>
      <trkpt lat="42.89825" lon="0.10383">
        <ele>1526</ele>
        <time>2021-11-27T08:42:59Z</time>
      </trkpt>
      <trkpt lat="42.89827" lon="0.10381">
        <ele>1526</ele>
        <time>2021-11-27T08:43:01Z</time>
      </trkpt>
      <trkpt lat="42.89828" lon="0.10378">
        <ele>1526</ele>
        <time>2021-11-27T08:43:04Z</time>
      </trkpt>
      <trkpt lat="42.89829" lon="0.10376">
        <ele>1526</ele>
        <time>2021-11-27T08:43:07Z</time>
      </trkpt>
      <trkpt lat="42.89831" lon="0.10374">
        <ele>1526</ele>
        <time>2021-11-27T08:43:10Z</time>
      </trkpt>
      <trkpt lat="42.89832" lon="0.10371">
        <ele>1526</ele>
        <time>2021-11-27T08:43:12Z</time>
      </trkpt>
      <trkpt lat="42.89834" lon="0.10369">
        <ele>1526</ele>
        <time>2021-11-27T08:43:14Z</time>
      </trkpt>
      <trkpt lat="42.89835" lon="0.10367">
        <ele>1526</ele>
        <time>2021-11-27T08:43:16Z</time>
      </trkpt>
      <trkpt lat="42.89836" lon="0.10365">
        <ele>1526</ele>
        <time>2021-11-27T08:43:18Z</time>
      </trkpt>
      <trkpt lat="42.89838" lon="0.10362">
        <ele>1526</ele>
        <time>2021-11-27T08:43:22Z</time>
      </trkpt>
      <trkpt lat="42.8984" lon="0.1036">
        <ele>1526</ele>
        <time>2021-11-27T08:43:25Z</time>
      </trkpt>
      <trkpt lat="42.8984" lon="0.10357">
        <ele>1526</ele>
        <time>2021-11-27T08:43:28Z</time>
      </trkpt>
      <trkpt lat="42.89841" lon="0.10355">
        <ele>1526</ele>
        <time>2021-11-27T08:43:30Z</time>
      </trkpt>
      <trkpt lat="42.89843" lon="0.10352">
        <ele>1526</ele>
        <time>2021-11-27T08:43:33Z</time>
      </trkpt>
      <trkpt lat="42.89845" lon="0.10349">
        <ele>1526</ele>
        <time>2021-11-27T08:43:36Z</time>
      </trkpt>
      <trkpt lat="42.89846" lon="0.10347">
        <ele>1526</ele>
        <time>2021-11-27T08:43:38Z</time>
      </trkpt>
      <trkpt lat="42.89848" lon="0.10344">
        <ele>1526</ele>
        <time>2021-11-27T08:43:40Z</time>
      </trkpt>
      <trkpt lat="42.89849" lon="0.10341">
        <ele>1526</ele>
        <time>2021-11-27T08:43:43Z</time>
      </trkpt>
      <trkpt lat="42.8985" lon="0.1034">
        <ele>1526</ele>
        <time>2021-11-27T08:43:45Z</time>
      </trkpt>
      <trkpt lat="42.89852" lon="0.10337">
        <ele>1526</ele>
        <time>2021-11-27T08:43:48Z</time>
      </trkpt>
      <trkpt lat="42.89852" lon="0.10334">
        <ele>1526</ele>
        <time>2021-11-27T08:43:50Z</time>
      </trkpt>
      <trkpt lat="42.89854" lon="0.10332">
        <ele>1526</ele>
        <time>2021-11-27T08:43:52Z</time>
      </trkpt>
      <trkpt lat="42.89856" lon="0.1033">
        <ele>1526</ele>
        <time>2021-11-27T08:43:55Z</time>
      </trkpt>
      <trkpt lat="42.89857" lon="0.10328">
        <ele>1526</ele>
        <time>2021-11-27T08:43:57Z</time>
      </trkpt>
      <trkpt lat="42.89859" lon="0.10326">
        <ele>1526</ele>
        <time>2021-11-27T08:44:00Z</time>
      </trkpt>
      <trkpt lat="42.8986" lon="0.10324">
        <ele>1526</ele>
        <time>2021-11-27T08:44:02Z</time>
      </trkpt>
      <trkpt lat="42.89861" lon="0.10322">
        <ele>1526</ele>
        <time>2021-11-27T08:44:05Z</time>
      </trkpt>
      <trkpt lat="42.89862" lon="0.1032">
        <ele>1526</ele>
        <time>2021-11-27T08:44:07Z</time>
      </trkpt>
      <trkpt lat="42.89863" lon="0.10318">
        <ele>1534.6</ele>
        <time>2021-11-27T08:44:09Z</time>
      </trkpt>
      <trkpt lat="42.89864" lon="0.10316">
        <ele>1534.6</ele>
        <time>2021-11-27T08:44:11Z</time>
      </trkpt>
      <trkpt lat="42.89866" lon="0.10315">
        <ele>1534.6</ele>
        <time>2021-11-27T08:44:13Z</time>
      </trkpt>
      <trkpt lat="42.89866" lon="0.10312">
        <ele>1534.6</ele>
        <time>2021-11-27T08:44:15Z</time>
      </trkpt>
      <trkpt lat="42.89867" lon="0.10309">
        <ele>1534.6</ele>
        <time>2021-11-27T08:44:17Z</time>
      </trkpt>
      <trkpt lat="42.89868" lon="0.10307">
        <ele>1534.6</ele>
        <time>2021-11-27T08:44:20Z</time>
      </trkpt>
      <trkpt lat="42.8987" lon="0.10305">
        <ele>1534.6</ele>
        <time>2021-11-27T08:44:22Z</time>
      </trkpt>
      <trkpt lat="42.89871" lon="0.10303">
        <ele>1534.6</ele>
        <time>2021-11-27T08:44:24Z</time>
      </trkpt>
      <trkpt lat="42.89872" lon="0.10301">
        <ele>1534.6</ele>
        <time>2021-11-27T08:44:26Z</time>
      </trkpt>
      <trkpt lat="42.89873" lon="0.10298">
        <ele>1534.6</ele>
        <time>2021-11-27T08:44:28Z</time>
      </trkpt>
      <trkpt lat="42.89875" lon="0.10296">
        <ele>1534.6</ele>
        <time>2021-11-27T08:44:31Z</time>
      </trkpt>
      <trkpt lat="42.89876" lon="0.10293">
        <ele>1534.6</ele>
        <time>2021-11-27T08:44:34Z</time>
      </trkpt>
      <trkpt lat="42.89877" lon="0.10291">
        <ele>1534.6</ele>
        <time>2021-11-27T08:44:36Z</time>
      </trkpt>
      <trkpt lat="42.89878" lon="0.10288">
        <ele>1538</ele>
        <time>2021-11-27T08:44:39Z</time>
      </trkpt>
      <trkpt lat="42.8988" lon="0.10286">
        <ele>1538</ele>
        <time>2021-11-27T08:44:42Z</time>
      </trkpt>
      <trkpt lat="42.89882" lon="0.10284">
        <ele>1538</ele>
        <time>2021-11-27T08:44:45Z</time>
      </trkpt>
      <trkpt lat="42.89884" lon="0.10282">
        <ele>1538</ele>
        <time>2021-11-27T08:44:48Z</time>
      </trkpt>
      <trkpt lat="42.89886" lon="0.1028">
        <ele>1538</ele>
        <time>2021-11-27T08:44:51Z</time>
      </trkpt>
      <trkpt lat="42.89888" lon="0.10279">
        <ele>1538</ele>
        <time>2021-11-27T08:44:54Z</time>
      </trkpt>
      <trkpt lat="42.8989" lon="0.10278">
        <ele>1538</ele>
        <time>2021-11-27T08:44:57Z</time>
      </trkpt>
      <trkpt lat="42.89892" lon="0.10276">
        <ele>1538</ele>
        <time>2021-11-27T08:45:00Z</time>
      </trkpt>
      <trkpt lat="42.89894" lon="0.10275">
        <ele>1538</ele>
        <time>2021-11-27T08:45:03Z</time>
      </trkpt>
      <trkpt lat="42.89896" lon="0.10273">
        <ele>1538</ele>
        <time>2021-11-27T08:45:06Z</time>
      </trkpt>
      <trkpt lat="42.89898" lon="0.10272">
        <ele>1541.6</ele>
        <time>2021-11-27T08:45:09Z</time>
      </trkpt>
      <trkpt lat="42.899" lon="0.10269">
        <ele>1541.6</ele>
        <time>2021-11-27T08:45:12Z</time>
      </trkpt>
      <trkpt lat="42.89901" lon="0.10267">
        <ele>1541.6</ele>
        <time>2021-11-27T08:45:15Z</time>
      </trkpt>
      <trkpt lat="42.89903" lon="0.10265">
        <ele>1541.6</ele>
        <time>2021-11-27T08:45:18Z</time>
      </trkpt>
      <trkpt lat="42.89904" lon="0.10263">
        <ele>1541.6</ele>
        <time>2021-11-27T08:45:20Z</time>
      </trkpt>
      <trkpt lat="42.89905" lon="0.10261">
        <ele>1541.6</ele>
        <time>2021-11-27T08:45:22Z</time>
      </trkpt>
      <trkpt lat="42.89906" lon="0.10259">
        <ele>1541.6</ele>
        <time>2021-11-27T08:45:24Z</time>
      </trkpt>
      <trkpt lat="42.89907" lon="0.10256">
        <ele>1541.6</ele>
        <time>2021-11-27T08:45:26Z</time>
      </trkpt>
      <trkpt lat="42.89908" lon="0.10254">
        <ele>1541.6</ele>
        <time>2021-11-27T08:45:28Z</time>
      </trkpt>
      <trkpt lat="42.89909" lon="0.10252">
        <ele>1541.6</ele>
        <time>2021-11-27T08:45:30Z</time>
      </trkpt>
      <trkpt lat="42.8991" lon="0.10249">
        <ele>1541.6</ele>
        <time>2021-11-27T08:45:33Z</time>
      </trkpt>
      <trkpt lat="42.89911" lon="0.10246">
        <ele>1541.6</ele>
        <time>2021-11-27T08:45:35Z</time>
      </trkpt>
      <trkpt lat="42.89911" lon="0.10244">
        <ele>1541.6</ele>
        <time>2021-11-27T08:45:37Z</time>
      </trkpt>
      <trkpt lat="42.89912" lon="0.10241">
        <ele>1541.6</ele>
        <time>2021-11-27T08:45:40Z</time>
      </trkpt>
      <trkpt lat="42.89913" lon="0.1024">
        <ele>1541.6</ele>
        <time>2021-11-27T08:45:42Z</time>
      </trkpt>
      <trkpt lat="42.89915" lon="0.1024">
        <ele>1541.6</ele>
        <time>2021-11-27T08:46:03Z</time>
      </trkpt>
      <trkpt lat="42.89917" lon="0.10239">
        <ele>1541.6</ele>
        <time>2021-11-27T08:46:11Z</time>
      </trkpt>
      <trkpt lat="42.89919" lon="0.1024">
        <ele>1541.6</ele>
        <time>2021-11-27T08:46:15Z</time>
      </trkpt>
      <trkpt lat="42.89914" lon="0.10234">
        <ele>1541.6</ele>
        <time>2021-11-27T08:49:27Z</time>
      </trkpt>
      <trkpt lat="42.89916" lon="0.10233">
        <ele>1541.6</ele>
        <time>2021-11-27T08:49:30Z</time>
      </trkpt>
      <trkpt lat="42.89917" lon="0.1023">
        <ele>1541.6</ele>
        <time>2021-11-27T08:49:32Z</time>
      </trkpt>
      <trkpt lat="42.89919" lon="0.10229">
        <ele>1541.6</ele>
        <time>2021-11-27T08:49:34Z</time>
      </trkpt>
      <trkpt lat="42.89921" lon="0.10228">
        <ele>1541.6</ele>
        <time>2021-11-27T08:49:36Z</time>
      </trkpt>
      <trkpt lat="42.89923" lon="0.10226">
        <ele>1548.6</ele>
        <time>2021-11-27T08:49:39Z</time>
      </trkpt>
      <trkpt lat="42.89925" lon="0.10225">
        <ele>1548.6</ele>
        <time>2021-11-27T08:49:42Z</time>
      </trkpt>
      <trkpt lat="42.89927" lon="0.10224">
        <ele>1548.6</ele>
        <time>2021-11-27T08:49:45Z</time>
      </trkpt>
      <trkpt lat="42.89929" lon="0.10222">
        <ele>1548.6</ele>
        <time>2021-11-27T08:49:48Z</time>
      </trkpt>
      <trkpt lat="42.89931" lon="0.10221">
        <ele>1548.6</ele>
        <time>2021-11-27T08:49:50Z</time>
      </trkpt>
      <trkpt lat="42.89933" lon="0.1022">
        <ele>1548.6</ele>
        <time>2021-11-27T08:49:52Z</time>
      </trkpt>
      <trkpt lat="42.89935" lon="0.10219">
        <ele>1548.6</ele>
        <time>2021-11-27T08:49:55Z</time>
      </trkpt>
      <trkpt lat="42.89938" lon="0.10217">
        <ele>1548.6</ele>
        <time>2021-11-27T08:49:58Z</time>
      </trkpt>
      <trkpt lat="42.89939" lon="0.10216">
        <ele>1548.6</ele>
        <time>2021-11-27T08:50:00Z</time>
      </trkpt>
      <trkpt lat="42.8994" lon="0.10213">
        <ele>1548.6</ele>
        <time>2021-11-27T08:50:02Z</time>
      </trkpt>
      <trkpt lat="42.89942" lon="0.10211">
        <ele>1548.6</ele>
        <time>2021-11-27T08:50:04Z</time>
      </trkpt>
      <trkpt lat="42.89943" lon="0.1021">
        <ele>1548.6</ele>
        <time>2021-11-27T08:50:06Z</time>
      </trkpt>
      <trkpt lat="42.89945" lon="0.10207">
        <ele>1548.6</ele>
        <time>2021-11-27T08:50:08Z</time>
      </trkpt>
      <trkpt lat="42.89946" lon="0.10205">
        <ele>1548.6</ele>
        <time>2021-11-27T08:50:10Z</time>
      </trkpt>
      <trkpt lat="42.89947" lon="0.10203">
        <ele>1548.6</ele>
        <time>2021-11-27T08:50:12Z</time>
      </trkpt>
      <trkpt lat="42.89949" lon="0.10201">
        <ele>1548.6</ele>
        <time>2021-11-27T08:50:14Z</time>
      </trkpt>
      <trkpt lat="42.89951" lon="0.10199">
        <ele>1548.6</ele>
        <time>2021-11-27T08:50:17Z</time>
      </trkpt>
      <trkpt lat="42.89953" lon="0.10198">
        <ele>1552.2</ele>
        <time>2021-11-27T08:50:19Z</time>
      </trkpt>
      <trkpt lat="42.89955" lon="0.10197">
        <ele>1552.2</ele>
        <time>2021-11-27T08:50:21Z</time>
      </trkpt>
      <trkpt lat="42.89956" lon="0.10194">
        <ele>1552.2</ele>
        <time>2021-11-27T08:50:24Z</time>
      </trkpt>
      <trkpt lat="42.89958" lon="0.10192">
        <ele>1552.2</ele>
        <time>2021-11-27T08:50:27Z</time>
      </trkpt>
      <trkpt lat="42.8996" lon="0.1019">
        <ele>1552.2</ele>
        <time>2021-11-27T08:50:30Z</time>
      </trkpt>
      <trkpt lat="42.89963" lon="0.10188">
        <ele>1552.2</ele>
        <time>2021-11-27T08:50:33Z</time>
      </trkpt>
      <trkpt lat="42.89965" lon="0.10186">
        <ele>1552.2</ele>
        <time>2021-11-27T08:50:36Z</time>
      </trkpt>
      <trkpt lat="42.89967" lon="0.10183">
        <ele>1554.8</ele>
        <time>2021-11-27T08:50:39Z</time>
      </trkpt>
      <trkpt lat="42.89969" lon="0.10181">
        <ele>1554.8</ele>
        <time>2021-11-27T08:50:41Z</time>
      </trkpt>
      <trkpt lat="42.89971" lon="0.10179">
        <ele>1554.8</ele>
        <time>2021-11-27T08:50:43Z</time>
      </trkpt>
      <trkpt lat="42.89973" lon="0.10178">
        <ele>1554.8</ele>
        <time>2021-11-27T08:50:44Z</time>
      </trkpt>
      <trkpt lat="42.89974" lon="0.10175">
        <ele>1554.8</ele>
        <time>2021-11-27T08:50:46Z</time>
      </trkpt>
      <trkpt lat="42.89975" lon="0.10173">
        <ele>1554.8</ele>
        <time>2021-11-27T08:50:48Z</time>
      </trkpt>
      <trkpt lat="42.89977" lon="0.1017">
        <ele>1554.8</ele>
        <time>2021-11-27T08:50:51Z</time>
      </trkpt>
      <trkpt lat="42.89979" lon="0.10168">
        <ele>1554.8</ele>
        <time>2021-11-27T08:50:54Z</time>
      </trkpt>
      <trkpt lat="42.89981" lon="0.10166">
        <ele>1554.8</ele>
        <time>2021-11-27T08:50:56Z</time>
      </trkpt>
      <trkpt lat="42.89981" lon="0.10163">
        <ele>1554.8</ele>
        <time>2021-11-27T08:50:58Z</time>
      </trkpt>
      <trkpt lat="42.89983" lon="0.1016">
        <ele>1554.8</ele>
        <time>2021-11-27T08:51:03Z</time>
      </trkpt>
      <trkpt lat="42.89985" lon="0.10158">
        <ele>1554.8</ele>
        <time>2021-11-27T08:51:06Z</time>
      </trkpt>
      <trkpt lat="42.89986" lon="0.10155">
        <ele>1559.2</ele>
        <time>2021-11-27T08:51:09Z</time>
      </trkpt>
      <trkpt lat="42.89987" lon="0.10153">
        <ele>1559.2</ele>
        <time>2021-11-27T08:51:11Z</time>
      </trkpt>
      <trkpt lat="42.89988" lon="0.10151">
        <ele>1559.2</ele>
        <time>2021-11-27T08:51:14Z</time>
      </trkpt>
      <trkpt lat="42.8999" lon="0.10148">
        <ele>1559.2</ele>
        <time>2021-11-27T08:51:17Z</time>
      </trkpt>
      <trkpt lat="42.89991" lon="0.10146">
        <ele>1560.4</ele>
        <time>2021-11-27T08:51:19Z</time>
      </trkpt>
      <trkpt lat="42.89993" lon="0.10143">
        <ele>1560.4</ele>
        <time>2021-11-27T08:51:22Z</time>
      </trkpt>
      <trkpt lat="42.89994" lon="0.10141">
        <ele>1560.4</ele>
        <time>2021-11-27T08:51:25Z</time>
      </trkpt>
      <trkpt lat="42.89996" lon="0.10139">
        <ele>1560.4</ele>
        <time>2021-11-27T08:51:28Z</time>
      </trkpt>
      <trkpt lat="42.89997" lon="0.10136">
        <ele>1560.4</ele>
        <time>2021-11-27T08:51:32Z</time>
      </trkpt>
      <trkpt lat="42.89998" lon="0.10134">
        <ele>1560.4</ele>
        <time>2021-11-27T08:51:34Z</time>
      </trkpt>
      <trkpt lat="42.89999" lon="0.10131">
        <ele>1560.4</ele>
        <time>2021-11-27T08:51:37Z</time>
      </trkpt>
      <trkpt lat="42.9" lon="0.10129">
        <ele>1561.8</ele>
        <time>2021-11-27T08:51:39Z</time>
      </trkpt>
      <trkpt lat="42.90001" lon="0.10127">
        <ele>1561.8</ele>
        <time>2021-11-27T08:51:41Z</time>
      </trkpt>
      <trkpt lat="42.90002" lon="0.10125">
        <ele>1561.8</ele>
        <time>2021-11-27T08:51:43Z</time>
      </trkpt>
      <trkpt lat="42.90003" lon="0.10122">
        <ele>1561.8</ele>
        <time>2021-11-27T08:51:46Z</time>
      </trkpt>
      <trkpt lat="42.90005" lon="0.10119">
        <ele>1562.6</ele>
        <time>2021-11-27T08:51:49Z</time>
      </trkpt>
      <trkpt lat="42.90006" lon="0.10117">
        <ele>1562.6</ele>
        <time>2021-11-27T08:51:51Z</time>
      </trkpt>
      <trkpt lat="42.90007" lon="0.10115">
        <ele>1562.6</ele>
        <time>2021-11-27T08:51:53Z</time>
      </trkpt>
      <trkpt lat="42.90009" lon="0.10113">
        <ele>1562.6</ele>
        <time>2021-11-27T08:51:55Z</time>
      </trkpt>
      <trkpt lat="42.90011" lon="0.10111">
        <ele>1562.6</ele>
        <time>2021-11-27T08:51:57Z</time>
      </trkpt>
      <trkpt lat="42.90013" lon="0.1011">
        <ele>1562.6</ele>
        <time>2021-11-27T08:52:01Z</time>
      </trkpt>
      <trkpt lat="42.90014" lon="0.10107">
        <ele>1562.6</ele>
        <time>2021-11-27T08:52:04Z</time>
      </trkpt>
      <trkpt lat="42.90015" lon="0.10104">
        <ele>1562.6</ele>
        <time>2021-11-27T08:52:06Z</time>
      </trkpt>
      <trkpt lat="42.90016" lon="0.10103">
        <ele>1562.6</ele>
        <time>2021-11-27T08:52:08Z</time>
      </trkpt>
      <trkpt lat="42.90017" lon="0.10101">
        <ele>1562.6</ele>
        <time>2021-11-27T08:52:11Z</time>
      </trkpt>
      <trkpt lat="42.90019" lon="0.10099">
        <ele>1562.6</ele>
        <time>2021-11-27T08:52:14Z</time>
      </trkpt>
      <trkpt lat="42.90021" lon="0.10097">
        <ele>1562.6</ele>
        <time>2021-11-27T08:52:18Z</time>
      </trkpt>
      <trkpt lat="42.90023" lon="0.10094">
        <ele>1562.6</ele>
        <time>2021-11-27T08:52:21Z</time>
      </trkpt>
      <trkpt lat="42.90024" lon="0.10092">
        <ele>1562.6</ele>
        <time>2021-11-27T08:52:24Z</time>
      </trkpt>
      <trkpt lat="42.90025" lon="0.10089">
        <ele>1562.6</ele>
        <time>2021-11-27T08:52:27Z</time>
      </trkpt>
      <trkpt lat="42.90028" lon="0.10089">
        <ele>1562.6</ele>
        <time>2021-11-27T08:52:30Z</time>
      </trkpt>
      <trkpt lat="42.9003" lon="0.10089">
        <ele>1562.6</ele>
        <time>2021-11-27T08:52:32Z</time>
      </trkpt>
      <trkpt lat="42.90032" lon="0.10089">
        <ele>1562.6</ele>
        <time>2021-11-27T08:52:37Z</time>
      </trkpt>
      <trkpt lat="42.90033" lon="0.10086">
        <ele>1562.6</ele>
        <time>2021-11-27T08:52:41Z</time>
      </trkpt>
      <trkpt lat="42.90035" lon="0.10084">
        <ele>1562.6</ele>
        <time>2021-11-27T08:52:44Z</time>
      </trkpt>
      <trkpt lat="42.90036" lon="0.10082">
        <ele>1562.6</ele>
        <time>2021-11-27T08:52:46Z</time>
      </trkpt>
      <trkpt lat="42.90036" lon="0.10079">
        <ele>1569.8</ele>
        <time>2021-11-27T08:52:49Z</time>
      </trkpt>
      <trkpt lat="42.90037" lon="0.10076">
        <ele>1569.8</ele>
        <time>2021-11-27T08:52:52Z</time>
      </trkpt>
      <trkpt lat="42.90038" lon="0.10073">
        <ele>1569.8</ele>
        <time>2021-11-27T08:52:55Z</time>
      </trkpt>
      <trkpt lat="42.90039" lon="0.10072">
        <ele>1569.8</ele>
        <time>2021-11-27T08:52:58Z</time>
      </trkpt>
      <trkpt lat="42.90039" lon="0.10069">
        <ele>1569.8</ele>
        <time>2021-11-27T08:53:00Z</time>
      </trkpt>
      <trkpt lat="42.9004" lon="0.10066">
        <ele>1569.8</ele>
        <time>2021-11-27T08:53:02Z</time>
      </trkpt>
      <trkpt lat="42.90041" lon="0.10064">
        <ele>1569.8</ele>
        <time>2021-11-27T08:53:05Z</time>
      </trkpt>
      <trkpt lat="42.90042" lon="0.1006">
        <ele>1569.8</ele>
        <time>2021-11-27T08:53:08Z</time>
      </trkpt>
      <trkpt lat="42.90043" lon="0.10058">
        <ele>1569.8</ele>
        <time>2021-11-27T08:53:11Z</time>
      </trkpt>
      <trkpt lat="42.90044" lon="0.10054">
        <ele>1569.8</ele>
        <time>2021-11-27T08:53:14Z</time>
      </trkpt>
      <trkpt lat="42.90045" lon="0.10052">
        <ele>1569.8</ele>
        <time>2021-11-27T08:53:16Z</time>
      </trkpt>
      <trkpt lat="42.90046" lon="0.10049">
        <ele>1572.2</ele>
        <time>2021-11-27T08:53:19Z</time>
      </trkpt>
      <trkpt lat="42.90047" lon="0.10046">
        <ele>1572.2</ele>
        <time>2021-11-27T08:53:21Z</time>
      </trkpt>
      <trkpt lat="42.90048" lon="0.10044">
        <ele>1572.2</ele>
        <time>2021-11-27T08:53:24Z</time>
      </trkpt>
      <trkpt lat="42.90049" lon="0.10042">
        <ele>1572.2</ele>
        <time>2021-11-27T08:53:27Z</time>
      </trkpt>
      <trkpt lat="42.9005" lon="0.10039">
        <ele>1572.2</ele>
        <time>2021-11-27T08:53:30Z</time>
      </trkpt>
      <trkpt lat="42.90051" lon="0.10035">
        <ele>1572.2</ele>
        <time>2021-11-27T08:53:33Z</time>
      </trkpt>
      <trkpt lat="42.90051" lon="0.10032">
        <ele>1572.2</ele>
        <time>2021-11-27T08:53:36Z</time>
      </trkpt>
      <trkpt lat="42.90051" lon="0.10029">
        <ele>1574</ele>
        <time>2021-11-27T08:53:39Z</time>
      </trkpt>
      <trkpt lat="42.90052" lon="0.10025">
        <ele>1574</ele>
        <time>2021-11-27T08:53:42Z</time>
      </trkpt>
      <trkpt lat="42.90052" lon="0.10023">
        <ele>1574</ele>
        <time>2021-11-27T08:53:45Z</time>
      </trkpt>
      <trkpt lat="42.90053" lon="0.1002">
        <ele>1574</ele>
        <time>2021-11-27T08:53:48Z</time>
      </trkpt>
      <trkpt lat="42.90054" lon="0.10017">
        <ele>1574</ele>
        <time>2021-11-27T08:53:51Z</time>
      </trkpt>
      <trkpt lat="42.90055" lon="0.10014">
        <ele>1574</ele>
        <time>2021-11-27T08:53:54Z</time>
      </trkpt>
      <trkpt lat="42.90057" lon="0.10011">
        <ele>1574</ele>
        <time>2021-11-27T08:53:57Z</time>
      </trkpt>
      <trkpt lat="42.90057" lon="0.10009">
        <ele>1574</ele>
        <time>2021-11-27T08:54:00Z</time>
      </trkpt>
      <trkpt lat="42.90058" lon="0.10007">
        <ele>1574</ele>
        <time>2021-11-27T08:54:02Z</time>
      </trkpt>
      <trkpt lat="42.90059" lon="0.10003">
        <ele>1574</ele>
        <time>2021-11-27T08:54:05Z</time>
      </trkpt>
      <trkpt lat="42.90059" lon="0.10001">
        <ele>1574</ele>
        <time>2021-11-27T08:54:08Z</time>
      </trkpt>
      <trkpt lat="42.9006" lon="0.09998">
        <ele>1574</ele>
        <time>2021-11-27T08:54:11Z</time>
      </trkpt>
      <trkpt lat="42.90061" lon="0.09996">
        <ele>1574</ele>
        <time>2021-11-27T08:54:13Z</time>
      </trkpt>
      <trkpt lat="42.90061" lon="0.09992">
        <ele>1574</ele>
        <time>2021-11-27T08:54:16Z</time>
      </trkpt>
      <trkpt lat="42.90062" lon="0.09989">
        <ele>1578.6</ele>
        <time>2021-11-27T08:54:19Z</time>
      </trkpt>
      <trkpt lat="42.90062" lon="0.09987">
        <ele>1578.6</ele>
        <time>2021-11-27T08:54:22Z</time>
      </trkpt>
      <trkpt lat="42.90063" lon="0.09984">
        <ele>1578.6</ele>
        <time>2021-11-27T08:54:24Z</time>
      </trkpt>
      <trkpt lat="42.90063" lon="0.09981">
        <ele>1578.6</ele>
        <time>2021-11-27T08:54:26Z</time>
      </trkpt>
      <trkpt lat="42.90064" lon="0.09979">
        <ele>1579.2</ele>
        <time>2021-11-27T08:54:29Z</time>
      </trkpt>
      <trkpt lat="42.90065" lon="0.09976">
        <ele>1579.2</ele>
        <time>2021-11-27T08:54:32Z</time>
      </trkpt>
      <trkpt lat="42.90065" lon="0.09973">
        <ele>1579.2</ele>
        <time>2021-11-27T08:54:35Z</time>
      </trkpt>
      <trkpt lat="42.90067" lon="0.0997">
        <ele>1579.2</ele>
        <time>2021-11-27T08:55:20Z</time>
      </trkpt>
      <trkpt lat="42.90068" lon="0.09967">
        <ele>1579.2</ele>
        <time>2021-11-27T08:55:22Z</time>
      </trkpt>
      <trkpt lat="42.90069" lon="0.09964">
        <ele>1579.2</ele>
        <time>2021-11-27T08:55:24Z</time>
      </trkpt>
      <trkpt lat="42.90069" lon="0.09962">
        <ele>1579.2</ele>
        <time>2021-11-27T08:55:26Z</time>
      </trkpt>
      <trkpt lat="42.9007" lon="0.09958">
        <ele>1579.2</ele>
        <time>2021-11-27T08:55:28Z</time>
      </trkpt>
      <trkpt lat="42.90071" lon="0.09955">
        <ele>1579.2</ele>
        <time>2021-11-27T08:55:31Z</time>
      </trkpt>
      <trkpt lat="42.90071" lon="0.09952">
        <ele>1579.2</ele>
        <time>2021-11-27T08:55:33Z</time>
      </trkpt>
      <trkpt lat="42.90071" lon="0.09949">
        <ele>1579.2</ele>
        <time>2021-11-27T08:55:36Z</time>
      </trkpt>
      <trkpt lat="42.90072" lon="0.09946">
        <ele>1579.2</ele>
        <time>2021-11-27T08:55:41Z</time>
      </trkpt>
      <trkpt lat="42.90072" lon="0.09944">
        <ele>1579.2</ele>
        <time>2021-11-27T08:55:44Z</time>
      </trkpt>
      <trkpt lat="42.90072" lon="0.0994">
        <ele>1579.2</ele>
        <time>2021-11-27T08:55:48Z</time>
      </trkpt>
      <trkpt lat="42.90073" lon="0.09937">
        <ele>1579.2</ele>
        <time>2021-11-27T08:55:51Z</time>
      </trkpt>
      <trkpt lat="42.90073" lon="0.09934">
        <ele>1579.2</ele>
        <time>2021-11-27T08:55:54Z</time>
      </trkpt>
      <trkpt lat="42.90073" lon="0.09931">
        <ele>1579.2</ele>
        <time>2021-11-27T08:55:57Z</time>
      </trkpt>
      <trkpt lat="42.90074" lon="0.09928">
        <ele>1579.2</ele>
        <time>2021-11-27T08:56:00Z</time>
      </trkpt>
      <trkpt lat="42.90074" lon="0.09925">
        <ele>1579.2</ele>
        <time>2021-11-27T08:56:04Z</time>
      </trkpt>
      <trkpt lat="42.90075" lon="0.09922">
        <ele>1579.2</ele>
        <time>2021-11-27T08:56:07Z</time>
      </trkpt>
      <trkpt lat="42.90075" lon="0.09919">
        <ele>1579.2</ele>
        <time>2021-11-27T08:56:10Z</time>
      </trkpt>
      <trkpt lat="42.90075" lon="0.09916">
        <ele>1579.2</ele>
        <time>2021-11-27T08:56:12Z</time>
      </trkpt>
      <trkpt lat="42.90075" lon="0.09913">
        <ele>1579.2</ele>
        <time>2021-11-27T08:56:15Z</time>
      </trkpt>
      <trkpt lat="42.90076" lon="0.09911">
        <ele>1579.2</ele>
        <time>2021-11-27T08:56:18Z</time>
      </trkpt>
      <trkpt lat="42.90076" lon="0.09907">
        <ele>1579.2</ele>
        <time>2021-11-27T08:56:21Z</time>
      </trkpt>
      <trkpt lat="42.90077" lon="0.09904">
        <ele>1579.2</ele>
        <time>2021-11-27T08:56:24Z</time>
      </trkpt>
      <trkpt lat="42.90077" lon="0.09901">
        <ele>1579.2</ele>
        <time>2021-11-27T08:56:27Z</time>
      </trkpt>
      <trkpt lat="42.90077" lon="0.09898">
        <ele>1579.2</ele>
        <time>2021-11-27T08:56:30Z</time>
      </trkpt>
      <trkpt lat="42.90077" lon="0.09895">
        <ele>1579.2</ele>
        <time>2021-11-27T08:56:33Z</time>
      </trkpt>
      <trkpt lat="42.90077" lon="0.09892">
        <ele>1579.2</ele>
        <time>2021-11-27T08:56:36Z</time>
      </trkpt>
      <trkpt lat="42.90077" lon="0.09888">
        <ele>1589.6</ele>
        <time>2021-11-27T08:56:39Z</time>
      </trkpt>
      <trkpt lat="42.90078" lon="0.09886">
        <ele>1589.6</ele>
        <time>2021-11-27T08:56:41Z</time>
      </trkpt>
      <trkpt lat="42.90078" lon="0.09882">
        <ele>1589.6</ele>
        <time>2021-11-27T08:56:44Z</time>
      </trkpt>
      <trkpt lat="42.90079" lon="0.0988">
        <ele>1589.6</ele>
        <time>2021-11-27T08:56:47Z</time>
      </trkpt>
      <trkpt lat="42.9008" lon="0.09877">
        <ele>1590.4</ele>
        <time>2021-11-27T08:56:49Z</time>
      </trkpt>
      <trkpt lat="42.90081" lon="0.09875">
        <ele>1590.4</ele>
        <time>2021-11-27T08:56:51Z</time>
      </trkpt>
      <trkpt lat="42.90082" lon="0.09872">
        <ele>1590.4</ele>
        <time>2021-11-27T08:56:54Z</time>
      </trkpt>
      <trkpt lat="42.90083" lon="0.09869">
        <ele>1590.4</ele>
        <time>2021-11-27T08:56:58Z</time>
      </trkpt>
      <trkpt lat="42.90083" lon="0.09866">
        <ele>1590.4</ele>
        <time>2021-11-27T08:57:01Z</time>
      </trkpt>
      <trkpt lat="42.90083" lon="0.09863">
        <ele>1590.4</ele>
        <time>2021-11-27T08:57:05Z</time>
      </trkpt>
      <trkpt lat="42.90083" lon="0.09861">
        <ele>1590.4</ele>
        <time>2021-11-27T08:57:08Z</time>
      </trkpt>
      <trkpt lat="42.90083" lon="0.09858">
        <ele>1590.4</ele>
        <time>2021-11-27T08:57:11Z</time>
      </trkpt>
      <trkpt lat="42.90082" lon="0.09855">
        <ele>1590.4</ele>
        <time>2021-11-27T08:57:14Z</time>
      </trkpt>
      <trkpt lat="42.90082" lon="0.09852">
        <ele>1590.4</ele>
        <time>2021-11-27T08:57:16Z</time>
      </trkpt>
      <trkpt lat="42.90082" lon="0.0985">
        <ele>1590.4</ele>
        <time>2021-11-27T08:57:18Z</time>
      </trkpt>
      <trkpt lat="42.90082" lon="0.09847">
        <ele>1590.4</ele>
        <time>2021-11-27T08:57:20Z</time>
      </trkpt>
      <trkpt lat="42.90082" lon="0.09843">
        <ele>1590.4</ele>
        <time>2021-11-27T08:57:23Z</time>
      </trkpt>
      <trkpt lat="42.90082" lon="0.0984">
        <ele>1590.4</ele>
        <time>2021-11-27T08:57:26Z</time>
      </trkpt>
      <trkpt lat="42.90082" lon="0.09836">
        <ele>1595.2</ele>
        <time>2021-11-27T08:57:29Z</time>
      </trkpt>
      <trkpt lat="42.90082" lon="0.09833">
        <ele>1595.2</ele>
        <time>2021-11-27T08:57:31Z</time>
      </trkpt>
      <trkpt lat="42.90081" lon="0.0983">
        <ele>1595.2</ele>
        <time>2021-11-27T08:57:34Z</time>
      </trkpt>
      <trkpt lat="42.90079" lon="0.09828">
        <ele>1595.2</ele>
        <time>2021-11-27T08:57:36Z</time>
      </trkpt>
      <trkpt lat="42.90079" lon="0.09825">
        <ele>1596</ele>
        <time>2021-11-27T08:57:39Z</time>
      </trkpt>
      <trkpt lat="42.90079" lon="0.09823">
        <ele>1596</ele>
        <time>2021-11-27T08:57:42Z</time>
      </trkpt>
      <trkpt lat="42.90078" lon="0.0982">
        <ele>1596</ele>
        <time>2021-11-27T08:57:45Z</time>
      </trkpt>
      <trkpt lat="42.90077" lon="0.09816">
        <ele>1596</ele>
        <time>2021-11-27T08:57:48Z</time>
      </trkpt>
      <trkpt lat="42.90077" lon="0.09814">
        <ele>1596</ele>
        <time>2021-11-27T08:57:50Z</time>
      </trkpt>
      <trkpt lat="42.90077" lon="0.09811">
        <ele>1596</ele>
        <time>2021-11-27T08:57:52Z</time>
      </trkpt>
      <trkpt lat="42.90077" lon="0.09809">
        <ele>1596</ele>
        <time>2021-11-27T08:57:54Z</time>
      </trkpt>
      <trkpt lat="42.90076" lon="0.09806">
        <ele>1596</ele>
        <time>2021-11-27T08:57:57Z</time>
      </trkpt>
      <trkpt lat="42.90076" lon="0.09803">
        <ele>1598.4</ele>
        <time>2021-11-27T08:57:59Z</time>
      </trkpt>
      <trkpt lat="42.90077" lon="0.098">
        <ele>1598.4</ele>
        <time>2021-11-27T08:58:01Z</time>
      </trkpt>
      <trkpt lat="42.90076" lon="0.09797">
        <ele>1598.4</ele>
        <time>2021-11-27T08:58:03Z</time>
      </trkpt>
      <trkpt lat="42.90076" lon="0.09793">
        <ele>1598.4</ele>
        <time>2021-11-27T08:58:06Z</time>
      </trkpt>
      <trkpt lat="42.90076" lon="0.09791">
        <ele>1598.4</ele>
        <time>2021-11-27T08:58:08Z</time>
      </trkpt>
      <trkpt lat="42.90075" lon="0.09787">
        <ele>1598.4</ele>
        <time>2021-11-27T08:58:11Z</time>
      </trkpt>
      <trkpt lat="42.90075" lon="0.09785">
        <ele>1598.4</ele>
        <time>2021-11-27T08:58:13Z</time>
      </trkpt>
      <trkpt lat="42.90075" lon="0.09781">
        <ele>1598.4</ele>
        <time>2021-11-27T08:58:16Z</time>
      </trkpt>
      <trkpt lat="42.90076" lon="0.09778">
        <ele>1598.4</ele>
        <time>2021-11-27T08:58:18Z</time>
      </trkpt>
      <trkpt lat="42.90076" lon="0.09775">
        <ele>1598.4</ele>
        <time>2021-11-27T08:58:21Z</time>
      </trkpt>
      <trkpt lat="42.90077" lon="0.09772">
        <ele>1598.4</ele>
        <time>2021-11-27T08:58:24Z</time>
      </trkpt>
      <trkpt lat="42.90077" lon="0.09769">
        <ele>1598.4</ele>
        <time>2021-11-27T08:59:40Z</time>
      </trkpt>
      <trkpt lat="42.90077" lon="0.09765">
        <ele>1598.4</ele>
        <time>2021-11-27T08:59:42Z</time>
      </trkpt>
      <trkpt lat="42.90079" lon="0.09761">
        <ele>1598.4</ele>
        <time>2021-11-27T08:59:44Z</time>
      </trkpt>
      <trkpt lat="42.9008" lon="0.09758">
        <ele>1598.4</ele>
        <time>2021-11-27T08:59:46Z</time>
      </trkpt>
      <trkpt lat="42.90081" lon="0.09756">
        <ele>1598.4</ele>
        <time>2021-11-27T08:59:47Z</time>
      </trkpt>
      <trkpt lat="42.90081" lon="0.09753">
        <ele>1598.4</ele>
        <time>2021-11-27T08:59:48Z</time>
      </trkpt>
      <trkpt lat="42.90081" lon="0.0975">
        <ele>1598.4</ele>
        <time>2021-11-27T08:59:50Z</time>
      </trkpt>
      <trkpt lat="42.90079" lon="0.0975">
        <ele>1598.4</ele>
        <time>2021-11-27T08:59:54Z</time>
      </trkpt>
      <trkpt lat="42.90077" lon="0.0975">
        <ele>1598.4</ele>
        <time>2021-11-27T08:59:56Z</time>
      </trkpt>
      <trkpt lat="42.90075" lon="0.09751">
        <ele>1598.4</ele>
        <time>2021-11-27T08:59:58Z</time>
      </trkpt>
      <trkpt lat="42.90073" lon="0.0975">
        <ele>1598.4</ele>
        <time>2021-11-27T09:00:00Z</time>
      </trkpt>
      <trkpt lat="42.90071" lon="0.09748">
        <ele>1598.4</ele>
        <time>2021-11-27T09:00:02Z</time>
      </trkpt>
      <trkpt lat="42.90069" lon="0.09747">
        <ele>1598.4</ele>
        <time>2021-11-27T09:00:04Z</time>
      </trkpt>
      <trkpt lat="42.90067" lon="0.09747">
        <ele>1598.4</ele>
        <time>2021-11-27T09:00:07Z</time>
      </trkpt>
      <trkpt lat="42.90065" lon="0.09748">
        <ele>1607.6</ele>
        <time>2021-11-27T09:00:09Z</time>
      </trkpt>
      <trkpt lat="42.90062" lon="0.09748">
        <ele>1607.6</ele>
        <time>2021-11-27T09:00:11Z</time>
      </trkpt>
      <trkpt lat="42.9006" lon="0.09747">
        <ele>1607.6</ele>
        <time>2021-11-27T09:00:13Z</time>
      </trkpt>
      <trkpt lat="42.90057" lon="0.09744">
        <ele>1607.6</ele>
        <time>2021-11-27T09:00:16Z</time>
      </trkpt>
      <trkpt lat="42.90055" lon="0.09743">
        <ele>1607.6</ele>
        <time>2021-11-27T09:00:18Z</time>
      </trkpt>
      <trkpt lat="42.90053" lon="0.09741">
        <ele>1607.6</ele>
        <time>2021-11-27T09:00:20Z</time>
      </trkpt>
      <trkpt lat="42.90052" lon="0.09738">
        <ele>1607.6</ele>
        <time>2021-11-27T09:00:23Z</time>
      </trkpt>
      <trkpt lat="42.90049" lon="0.09737">
        <ele>1607.6</ele>
        <time>2021-11-27T09:00:26Z</time>
      </trkpt>
      <trkpt lat="42.90047" lon="0.09735">
        <ele>1609.4</ele>
        <time>2021-11-27T09:00:29Z</time>
      </trkpt>
      <trkpt lat="42.90044" lon="0.09734">
        <ele>1609.4</ele>
        <time>2021-11-27T09:00:31Z</time>
      </trkpt>
      <trkpt lat="42.90042" lon="0.09732">
        <ele>1609.4</ele>
        <time>2021-11-27T09:00:34Z</time>
      </trkpt>
      <trkpt lat="42.9004" lon="0.09731">
        <ele>1609.4</ele>
        <time>2021-11-27T09:00:36Z</time>
      </trkpt>
      <trkpt lat="42.90037" lon="0.0973">
        <ele>1609.6</ele>
        <time>2021-11-27T09:00:39Z</time>
      </trkpt>
      <trkpt lat="42.90035" lon="0.09729">
        <ele>1609.6</ele>
        <time>2021-11-27T09:00:42Z</time>
      </trkpt>
      <trkpt lat="42.90034" lon="0.09726">
        <ele>1609.6</ele>
        <time>2021-11-27T09:00:48Z</time>
      </trkpt>
      <trkpt lat="42.90032" lon="0.09726">
        <ele>1609.6</ele>
        <time>2021-11-27T09:00:51Z</time>
      </trkpt>
      <trkpt lat="42.9003" lon="0.09725">
        <ele>1609.6</ele>
        <time>2021-11-27T09:00:53Z</time>
      </trkpt>
      <trkpt lat="42.90028" lon="0.09724">
        <ele>1609.6</ele>
        <time>2021-11-27T09:00:55Z</time>
      </trkpt>
      <trkpt lat="42.90025" lon="0.09724">
        <ele>1609.6</ele>
        <time>2021-11-27T09:00:58Z</time>
      </trkpt>
      <trkpt lat="42.90023" lon="0.09724">
        <ele>1609.6</ele>
        <time>2021-11-27T09:01:01Z</time>
      </trkpt>
      <trkpt lat="42.90021" lon="0.09724">
        <ele>1609.6</ele>
        <time>2021-11-27T09:01:03Z</time>
      </trkpt>
      <trkpt lat="42.90019" lon="0.09724">
        <ele>1609.6</ele>
        <time>2021-11-27T09:01:06Z</time>
      </trkpt>
      <trkpt lat="42.90016" lon="0.09724">
        <ele>1609.6</ele>
        <time>2021-11-27T09:01:10Z</time>
      </trkpt>
      <trkpt lat="42.90014" lon="0.09722">
        <ele>1609.6</ele>
        <time>2021-11-27T09:01:15Z</time>
      </trkpt>
      <trkpt lat="42.90012" lon="0.09722">
        <ele>1609.6</ele>
        <time>2021-11-27T09:01:18Z</time>
      </trkpt>
      <trkpt lat="42.9001" lon="0.09722">
        <ele>1609.6</ele>
        <time>2021-11-27T09:01:22Z</time>
      </trkpt>
      <trkpt lat="42.90007" lon="0.09722">
        <ele>1609.6</ele>
        <time>2021-11-27T09:01:25Z</time>
      </trkpt>
      <trkpt lat="42.90005" lon="0.09722">
        <ele>1609.6</ele>
        <time>2021-11-27T09:01:28Z</time>
      </trkpt>
      <trkpt lat="42.90003" lon="0.09722">
        <ele>1609.6</ele>
        <time>2021-11-27T09:01:31Z</time>
      </trkpt>
      <trkpt lat="42.9" lon="0.09724">
        <ele>1609.6</ele>
        <time>2021-11-27T09:01:33Z</time>
      </trkpt>
      <trkpt lat="42.89997" lon="0.09725">
        <ele>1609.6</ele>
        <time>2021-11-27T09:01:37Z</time>
      </trkpt>
      <trkpt lat="42.89995" lon="0.09726">
        <ele>1609.6</ele>
        <time>2021-11-27T09:01:40Z</time>
      </trkpt>
      <trkpt lat="42.89993" lon="0.09727">
        <ele>1609.6</ele>
        <time>2021-11-27T09:01:43Z</time>
      </trkpt>
      <trkpt lat="42.89991" lon="0.09727">
        <ele>1609.6</ele>
        <time>2021-11-27T09:01:46Z</time>
      </trkpt>
      <trkpt lat="42.89989" lon="0.09727">
        <ele>1616.8</ele>
        <time>2021-11-27T09:01:49Z</time>
      </trkpt>
      <trkpt lat="42.89987" lon="0.09726">
        <ele>1616.8</ele>
        <time>2021-11-27T09:01:53Z</time>
      </trkpt>
      <trkpt lat="42.89985" lon="0.09726">
        <ele>1616.8</ele>
        <time>2021-11-27T09:01:56Z</time>
      </trkpt>
      <trkpt lat="42.89983" lon="0.09725">
        <ele>1618.8</ele>
        <time>2021-11-27T09:01:59Z</time>
      </trkpt>
      <trkpt lat="42.8998" lon="0.09725">
        <ele>1618.8</ele>
        <time>2021-11-27T09:02:02Z</time>
      </trkpt>
      <trkpt lat="42.89978" lon="0.09725">
        <ele>1618.8</ele>
        <time>2021-11-27T09:02:05Z</time>
      </trkpt>
      <trkpt lat="42.89976" lon="0.09725">
        <ele>1618.8</ele>
        <time>2021-11-27T09:02:08Z</time>
      </trkpt>
      <trkpt lat="42.89974" lon="0.09725">
        <ele>1618.8</ele>
        <time>2021-11-27T09:02:11Z</time>
      </trkpt>
      <trkpt lat="42.89972" lon="0.09724">
        <ele>1618.8</ele>
        <time>2021-11-27T09:02:15Z</time>
      </trkpt>
      <trkpt lat="42.89969" lon="0.09724">
        <ele>1618.8</ele>
        <time>2021-11-27T09:02:18Z</time>
      </trkpt>
      <trkpt lat="42.89967" lon="0.09723">
        <ele>1618.8</ele>
        <time>2021-11-27T09:02:21Z</time>
      </trkpt>
      <trkpt lat="42.89965" lon="0.09723">
        <ele>1618.8</ele>
        <time>2021-11-27T09:02:24Z</time>
      </trkpt>
      <trkpt lat="42.89962" lon="0.09722">
        <ele>1618.8</ele>
        <time>2021-11-27T09:02:28Z</time>
      </trkpt>
      <trkpt lat="42.8996" lon="0.09722">
        <ele>1618.8</ele>
        <time>2021-11-27T09:02:31Z</time>
      </trkpt>
      <trkpt lat="42.89958" lon="0.09723">
        <ele>1618.8</ele>
        <time>2021-11-27T09:02:34Z</time>
      </trkpt>
      <trkpt lat="42.89956" lon="0.09722">
        <ele>1618.8</ele>
        <time>2021-11-27T09:02:37Z</time>
      </trkpt>
      <trkpt lat="42.89954" lon="0.09721">
        <ele>1618.8</ele>
        <time>2021-11-27T09:02:41Z</time>
      </trkpt>
      <trkpt lat="42.89952" lon="0.0972">
        <ele>1618.8</ele>
        <time>2021-11-27T09:02:44Z</time>
      </trkpt>
      <trkpt lat="42.8995" lon="0.09718">
        <ele>1618.8</ele>
        <time>2021-11-27T09:02:48Z</time>
      </trkpt>
      <trkpt lat="42.89948" lon="0.09716">
        <ele>1618.8</ele>
        <time>2021-11-27T09:02:53Z</time>
      </trkpt>
      <trkpt lat="42.89947" lon="0.09714">
        <ele>1618.8</ele>
        <time>2021-11-27T09:03:01Z</time>
      </trkpt>
      <trkpt lat="42.89946" lon="0.09712">
        <ele>1618.8</ele>
        <time>2021-11-27T09:03:04Z</time>
      </trkpt>
      <trkpt lat="42.89944" lon="0.0971">
        <ele>1618.8</ele>
        <time>2021-11-27T09:03:07Z</time>
      </trkpt>
      <trkpt lat="42.89942" lon="0.09708">
        <ele>1618.8</ele>
        <time>2021-11-27T09:03:10Z</time>
      </trkpt>
      <trkpt lat="42.8994" lon="0.09707">
        <ele>1618.8</ele>
        <time>2021-11-27T09:03:14Z</time>
      </trkpt>
      <trkpt lat="42.89938" lon="0.09705">
        <ele>1618.8</ele>
        <time>2021-11-27T09:03:17Z</time>
      </trkpt>
      <trkpt lat="42.89936" lon="0.09704">
        <ele>1628.8</ele>
        <time>2021-11-27T09:03:19Z</time>
      </trkpt>
      <trkpt lat="42.89934" lon="0.09704">
        <ele>1628.8</ele>
        <time>2021-11-27T09:03:22Z</time>
      </trkpt>
      <trkpt lat="42.89932" lon="0.09702">
        <ele>1628.8</ele>
        <time>2021-11-27T09:03:25Z</time>
      </trkpt>
      <trkpt lat="42.8993" lon="0.09701">
        <ele>1628.8</ele>
        <time>2021-11-27T09:03:28Z</time>
      </trkpt>
      <trkpt lat="42.89929" lon="0.09699">
        <ele>1628.8</ele>
        <time>2021-11-27T09:03:31Z</time>
      </trkpt>
      <trkpt lat="42.89928" lon="0.09696">
        <ele>1628.8</ele>
        <time>2021-11-27T09:03:34Z</time>
      </trkpt>
      <trkpt lat="42.89928" lon="0.09693">
        <ele>1628.8</ele>
        <time>2021-11-27T09:03:37Z</time>
      </trkpt>
      <trkpt lat="42.89928" lon="0.0969">
        <ele>1628.8</ele>
        <time>2021-11-27T09:03:40Z</time>
      </trkpt>
      <trkpt lat="42.89928" lon="0.09687">
        <ele>1628.8</ele>
        <time>2021-11-27T09:03:42Z</time>
      </trkpt>
      <trkpt lat="42.89928" lon="0.09684">
        <ele>1628.8</ele>
        <time>2021-11-27T09:03:45Z</time>
      </trkpt>
      <trkpt lat="42.89928" lon="0.09681">
        <ele>1628.8</ele>
        <time>2021-11-27T09:03:48Z</time>
      </trkpt>
      <trkpt lat="42.89927" lon="0.09678">
        <ele>1628.8</ele>
        <time>2021-11-27T09:03:52Z</time>
      </trkpt>
      <trkpt lat="42.89925" lon="0.09679">
        <ele>1628.8</ele>
        <time>2021-11-27T09:03:55Z</time>
      </trkpt>
      <trkpt lat="42.89923" lon="0.0968">
        <ele>1628.8</ele>
        <time>2021-11-27T09:03:58Z</time>
      </trkpt>
      <trkpt lat="42.89921" lon="0.0968">
        <ele>1628.8</ele>
        <time>2021-11-27T09:04:01Z</time>
      </trkpt>
      <trkpt lat="42.89919" lon="0.0968">
        <ele>1628.8</ele>
        <time>2021-11-27T09:04:05Z</time>
      </trkpt>
      <trkpt lat="42.89917" lon="0.09678">
        <ele>1635.6</ele>
        <time>2021-11-27T09:04:09Z</time>
      </trkpt>
      <trkpt lat="42.89917" lon="0.09675">
        <ele>1635.6</ele>
        <time>2021-11-27T09:04:12Z</time>
      </trkpt>
      <trkpt lat="42.89918" lon="0.09672">
        <ele>1635.6</ele>
        <time>2021-11-27T09:04:14Z</time>
      </trkpt>
      <trkpt lat="42.89918" lon="0.09669">
        <ele>1635.6</ele>
        <time>2021-11-27T09:04:16Z</time>
      </trkpt>
      <trkpt lat="42.89919" lon="0.09667">
        <ele>1635.6</ele>
        <time>2021-11-27T09:04:18Z</time>
      </trkpt>
      <trkpt lat="42.8992" lon="0.09664">
        <ele>1635.6</ele>
        <time>2021-11-27T09:04:21Z</time>
      </trkpt>
      <trkpt lat="42.89919" lon="0.09661">
        <ele>1635.6</ele>
        <time>2021-11-27T09:04:25Z</time>
      </trkpt>
      <trkpt lat="42.89918" lon="0.0966">
        <ele>1635.6</ele>
        <time>2021-11-27T09:04:28Z</time>
      </trkpt>
      <trkpt lat="42.89917" lon="0.09657">
        <ele>1635.6</ele>
        <time>2021-11-27T09:04:31Z</time>
      </trkpt>
      <trkpt lat="42.89915" lon="0.09658">
        <ele>1635.6</ele>
        <time>2021-11-27T09:04:38Z</time>
      </trkpt>
      <trkpt lat="42.89912" lon="0.09659">
        <ele>1635.6</ele>
        <time>2021-11-27T09:04:41Z</time>
      </trkpt>
      <trkpt lat="42.8991" lon="0.09659">
        <ele>1635.6</ele>
        <time>2021-11-27T09:04:45Z</time>
      </trkpt>
      <trkpt lat="42.89908" lon="0.09658">
        <ele>1635.6</ele>
        <time>2021-11-27T09:04:48Z</time>
      </trkpt>
      <trkpt lat="42.89906" lon="0.09658">
        <ele>1635.6</ele>
        <time>2021-11-27T09:04:52Z</time>
      </trkpt>
      <trkpt lat="42.89904" lon="0.09658">
        <ele>1635.6</ele>
        <time>2021-11-27T09:04:55Z</time>
      </trkpt>
      <trkpt lat="42.89902" lon="0.09656">
        <ele>1642</ele>
        <time>2021-11-27T09:04:59Z</time>
      </trkpt>
      <trkpt lat="42.89902" lon="0.09653">
        <ele>1642</ele>
        <time>2021-11-27T09:05:02Z</time>
      </trkpt>
      <trkpt lat="42.89902" lon="0.09651">
        <ele>1646.2</ele>
        <time>2021-11-27T09:06:09Z</time>
      </trkpt>
      <trkpt lat="42.89902" lon="0.09647">
        <ele>1646.2</ele>
        <time>2021-11-27T09:06:11Z</time>
      </trkpt>
      <trkpt lat="42.89901" lon="0.09644">
        <ele>1646.2</ele>
        <time>2021-11-27T09:06:13Z</time>
      </trkpt>
      <trkpt lat="42.89901" lon="0.09641">
        <ele>1646.2</ele>
        <time>2021-11-27T09:06:15Z</time>
      </trkpt>
      <trkpt lat="42.89901" lon="0.09638">
        <ele>1646.2</ele>
        <time>2021-11-27T09:06:17Z</time>
      </trkpt>
      <trkpt lat="42.89899" lon="0.09637">
        <ele>1646.2</ele>
        <time>2021-11-27T09:06:20Z</time>
      </trkpt>
      <trkpt lat="42.89897" lon="0.09638">
        <ele>1646.2</ele>
        <time>2021-11-27T09:06:23Z</time>
      </trkpt>
      <trkpt lat="42.89895" lon="0.09638">
        <ele>1646.2</ele>
        <time>2021-11-27T09:06:25Z</time>
      </trkpt>
      <trkpt lat="42.89893" lon="0.09638">
        <ele>1646.2</ele>
        <time>2021-11-27T09:06:28Z</time>
      </trkpt>
      <trkpt lat="42.89892" lon="0.09636">
        <ele>1646.2</ele>
        <time>2021-11-27T09:06:30Z</time>
      </trkpt>
      <trkpt lat="42.8989" lon="0.09636">
        <ele>1646.2</ele>
        <time>2021-11-27T09:06:33Z</time>
      </trkpt>
      <trkpt lat="42.89888" lon="0.09634">
        <ele>1646.2</ele>
        <time>2021-11-27T09:06:36Z</time>
      </trkpt>
      <trkpt lat="42.89888" lon="0.09631">
        <ele>1646.2</ele>
        <time>2021-11-27T09:06:38Z</time>
      </trkpt>
      <trkpt lat="42.89888" lon="0.09629">
        <ele>1646.2</ele>
        <time>2021-11-27T09:06:40Z</time>
      </trkpt>
      <trkpt lat="42.89888" lon="0.09625">
        <ele>1646.2</ele>
        <time>2021-11-27T09:06:43Z</time>
      </trkpt>
      <trkpt lat="42.89888" lon="0.09622">
        <ele>1646.2</ele>
        <time>2021-11-27T09:06:46Z</time>
      </trkpt>
      <trkpt lat="42.89888" lon="0.09619">
        <ele>1654</ele>
        <time>2021-11-27T09:06:49Z</time>
      </trkpt>
      <trkpt lat="42.89886" lon="0.09616">
        <ele>1654</ele>
        <time>2021-11-27T09:06:53Z</time>
      </trkpt>
      <trkpt lat="42.89884" lon="0.09617">
        <ele>1654</ele>
        <time>2021-11-27T09:06:56Z</time>
      </trkpt>
      <trkpt lat="42.89883" lon="0.09616">
        <ele>1654</ele>
        <time>2021-11-27T09:06:58Z</time>
      </trkpt>
      <trkpt lat="42.89881" lon="0.09616">
        <ele>1654</ele>
        <time>2021-11-27T09:07:00Z</time>
      </trkpt>
      <trkpt lat="42.89879" lon="0.09615">
        <ele>1654</ele>
        <time>2021-11-27T09:07:03Z</time>
      </trkpt>
      <trkpt lat="42.89878" lon="0.09613">
        <ele>1654</ele>
        <time>2021-11-27T09:07:05Z</time>
      </trkpt>
      <trkpt lat="42.89877" lon="0.0961">
        <ele>1654</ele>
        <time>2021-11-27T09:07:07Z</time>
      </trkpt>
      <trkpt lat="42.89878" lon="0.09608">
        <ele>1656.4</ele>
        <time>2021-11-27T09:07:09Z</time>
      </trkpt>
      <trkpt lat="42.89879" lon="0.09604">
        <ele>1656.4</ele>
        <time>2021-11-27T09:07:12Z</time>
      </trkpt>
      <trkpt lat="42.8988" lon="0.09602">
        <ele>1656.4</ele>
        <time>2021-11-27T09:07:14Z</time>
      </trkpt>
      <trkpt lat="42.89881" lon="0.09599">
        <ele>1656.4</ele>
        <time>2021-11-27T09:07:17Z</time>
      </trkpt>
      <trkpt lat="42.89882" lon="0.09597">
        <ele>1656.4</ele>
        <time>2021-11-27T09:07:20Z</time>
      </trkpt>
      <trkpt lat="42.89883" lon="0.09594">
        <ele>1656.4</ele>
        <time>2021-11-27T09:07:25Z</time>
      </trkpt>
      <trkpt lat="42.89884" lon="0.09592">
        <ele>1656.4</ele>
        <time>2021-11-27T09:07:27Z</time>
      </trkpt>
      <trkpt lat="42.89885" lon="0.0959">
        <ele>1657.2</ele>
        <time>2021-11-27T09:07:29Z</time>
      </trkpt>
      <trkpt lat="42.89887" lon="0.09588">
        <ele>1657.2</ele>
        <time>2021-11-27T09:07:31Z</time>
      </trkpt>
      <trkpt lat="42.89889" lon="0.09586">
        <ele>1657.2</ele>
        <time>2021-11-27T09:07:34Z</time>
      </trkpt>
      <trkpt lat="42.89891" lon="0.09583">
        <ele>1657.2</ele>
        <time>2021-11-27T09:07:37Z</time>
      </trkpt>
      <trkpt lat="42.89892" lon="0.09581">
        <ele>1657.2</ele>
        <time>2021-11-27T09:07:40Z</time>
      </trkpt>
      <trkpt lat="42.89893" lon="0.09578">
        <ele>1657.2</ele>
        <time>2021-11-27T09:07:43Z</time>
      </trkpt>
      <trkpt lat="42.89893" lon="0.09575">
        <ele>1657.2</ele>
        <time>2021-11-27T09:07:46Z</time>
      </trkpt>
      <trkpt lat="42.89894" lon="0.09573">
        <ele>1657</ele>
        <time>2021-11-27T09:07:49Z</time>
      </trkpt>
      <trkpt lat="42.89895" lon="0.0957">
        <ele>1657</ele>
        <time>2021-11-27T09:07:51Z</time>
      </trkpt>
      <trkpt lat="42.89896" lon="0.09567">
        <ele>1657</ele>
        <time>2021-11-27T09:07:54Z</time>
      </trkpt>
      <trkpt lat="42.89897" lon="0.09564">
        <ele>1657</ele>
        <time>2021-11-27T09:07:57Z</time>
      </trkpt>
      <trkpt lat="42.89898" lon="0.09562">
        <ele>1657.8</ele>
        <time>2021-11-27T09:07:59Z</time>
      </trkpt>
      <trkpt lat="42.89898" lon="0.0956">
        <ele>1657.8</ele>
        <time>2021-11-27T09:08:01Z</time>
      </trkpt>
      <trkpt lat="42.89899" lon="0.09557">
        <ele>1657.8</ele>
        <time>2021-11-27T09:08:08Z</time>
      </trkpt>
      <trkpt lat="42.899" lon="0.09555">
        <ele>1657.8</ele>
        <time>2021-11-27T09:08:13Z</time>
      </trkpt>
      <trkpt lat="42.89901" lon="0.09552">
        <ele>1657.8</ele>
        <time>2021-11-27T09:08:17Z</time>
      </trkpt>
      <trkpt lat="42.89902" lon="0.0955">
        <ele>1657.8</ele>
        <time>2021-11-27T09:08:20Z</time>
      </trkpt>
      <trkpt lat="42.89904" lon="0.09549">
        <ele>1657.8</ele>
        <time>2021-11-27T09:08:23Z</time>
      </trkpt>
      <trkpt lat="42.89905" lon="0.09546">
        <ele>1657.8</ele>
        <time>2021-11-27T09:08:26Z</time>
      </trkpt>
      <trkpt lat="42.89907" lon="0.09546">
        <ele>1657.8</ele>
        <time>2021-11-27T09:08:28Z</time>
      </trkpt>
      <trkpt lat="42.89909" lon="0.09547">
        <ele>1657.8</ele>
        <time>2021-11-27T09:08:30Z</time>
      </trkpt>
      <trkpt lat="42.89912" lon="0.09547">
        <ele>1657.8</ele>
        <time>2021-11-27T09:08:32Z</time>
      </trkpt>
      <trkpt lat="42.89914" lon="0.09546">
        <ele>1657.8</ele>
        <time>2021-11-27T09:08:34Z</time>
      </trkpt>
      <trkpt lat="42.89916" lon="0.09545">
        <ele>1657.8</ele>
        <time>2021-11-27T09:08:36Z</time>
      </trkpt>
      <trkpt lat="42.89918" lon="0.09544">
        <ele>1657.8</ele>
        <time>2021-11-27T09:08:38Z</time>
      </trkpt>
      <trkpt lat="42.8992" lon="0.09541">
        <ele>1657.8</ele>
        <time>2021-11-27T09:08:40Z</time>
      </trkpt>
      <trkpt lat="42.89921" lon="0.09538">
        <ele>1657.8</ele>
        <time>2021-11-27T09:08:42Z</time>
      </trkpt>
      <trkpt lat="42.89922" lon="0.09537">
        <ele>1657.8</ele>
        <time>2021-11-27T09:08:44Z</time>
      </trkpt>
      <trkpt lat="42.89922" lon="0.09534">
        <ele>1657.8</ele>
        <time>2021-11-27T09:08:51Z</time>
      </trkpt>
      <trkpt lat="42.89923" lon="0.09532">
        <ele>1657.8</ele>
        <time>2021-11-27T09:08:54Z</time>
      </trkpt>
      <trkpt lat="42.89925" lon="0.0953">
        <ele>1657.8</ele>
        <time>2021-11-27T09:08:57Z</time>
      </trkpt>
      <trkpt lat="42.89926" lon="0.09527">
        <ele>1658.6</ele>
        <time>2021-11-27T09:08:59Z</time>
      </trkpt>
      <trkpt lat="42.89927" lon="0.09525">
        <ele>1658.6</ele>
        <time>2021-11-27T09:09:01Z</time>
      </trkpt>
      <trkpt lat="42.89928" lon="0.09523">
        <ele>1658.6</ele>
        <time>2021-11-27T09:09:03Z</time>
      </trkpt>
      <trkpt lat="42.89929" lon="0.09519">
        <ele>1658.6</ele>
        <time>2021-11-27T09:09:05Z</time>
      </trkpt>
      <trkpt lat="42.8993" lon="0.09516">
        <ele>1658.6</ele>
        <time>2021-11-27T09:09:08Z</time>
      </trkpt>
      <trkpt lat="42.89931" lon="0.09513">
        <ele>1658.6</ele>
        <time>2021-11-27T09:09:10Z</time>
      </trkpt>
      <trkpt lat="42.89931" lon="0.0951">
        <ele>1658.6</ele>
        <time>2021-11-27T09:09:13Z</time>
      </trkpt>
      <trkpt lat="42.89931" lon="0.09507">
        <ele>1658.6</ele>
        <time>2021-11-27T09:09:16Z</time>
      </trkpt>
      <trkpt lat="42.89933" lon="0.09504">
        <ele>1658.4</ele>
        <time>2021-11-27T09:09:19Z</time>
      </trkpt>
      <trkpt lat="42.89934" lon="0.09501">
        <ele>1658.4</ele>
        <time>2021-11-27T09:09:21Z</time>
      </trkpt>
      <trkpt lat="42.89936" lon="0.095">
        <ele>1658.4</ele>
        <time>2021-11-27T09:09:24Z</time>
      </trkpt>
      <trkpt lat="42.89936" lon="0.09496">
        <ele>1658.4</ele>
        <time>2021-11-27T09:09:27Z</time>
      </trkpt>
      <trkpt lat="42.89936" lon="0.09494">
        <ele>1659.2</ele>
        <time>2021-11-27T09:09:29Z</time>
      </trkpt>
      <trkpt lat="42.89935" lon="0.09491">
        <ele>1659.2</ele>
        <time>2021-11-27T09:09:31Z</time>
      </trkpt>
      <trkpt lat="42.89935" lon="0.09488">
        <ele>1659.2</ele>
        <time>2021-11-27T09:09:34Z</time>
      </trkpt>
      <trkpt lat="42.89934" lon="0.09486">
        <ele>1659.2</ele>
        <time>2021-11-27T09:09:36Z</time>
      </trkpt>
      <trkpt lat="42.89934" lon="0.09482">
        <ele>1660.6</ele>
        <time>2021-11-27T09:09:39Z</time>
      </trkpt>
      <trkpt lat="42.89934" lon="0.09479">
        <ele>1660.6</ele>
        <time>2021-11-27T09:09:42Z</time>
      </trkpt>
      <trkpt lat="42.89934" lon="0.09476">
        <ele>1660.6</ele>
        <time>2021-11-27T09:09:44Z</time>
      </trkpt>
      <trkpt lat="42.89934" lon="0.09473">
        <ele>1660.6</ele>
        <time>2021-11-27T09:09:46Z</time>
      </trkpt>
      <trkpt lat="42.89934" lon="0.09469">
        <ele>1661.4</ele>
        <time>2021-11-27T09:09:49Z</time>
      </trkpt>
      <trkpt lat="42.89934" lon="0.09466">
        <ele>1661.4</ele>
        <time>2021-11-27T09:09:52Z</time>
      </trkpt>
      <trkpt lat="42.89934" lon="0.09463">
        <ele>1661.4</ele>
        <time>2021-11-27T09:09:55Z</time>
      </trkpt>
      <trkpt lat="42.89934" lon="0.09461">
        <ele>1661.4</ele>
        <time>2021-11-27T09:09:57Z</time>
      </trkpt>
      <trkpt lat="42.89935" lon="0.09458">
        <ele>1661.4</ele>
        <time>2021-11-27T09:10:00Z</time>
      </trkpt>
      <trkpt lat="42.89934" lon="0.09455">
        <ele>1661.4</ele>
        <time>2021-11-27T09:10:02Z</time>
      </trkpt>
      <trkpt lat="42.89934" lon="0.09451">
        <ele>1661.4</ele>
        <time>2021-11-27T09:10:04Z</time>
      </trkpt>
      <trkpt lat="42.89934" lon="0.09448">
        <ele>1661.4</ele>
        <time>2021-11-27T09:10:06Z</time>
      </trkpt>
      <trkpt lat="42.89933" lon="0.09445">
        <ele>1661.4</ele>
        <time>2021-11-27T09:10:08Z</time>
      </trkpt>
      <trkpt lat="42.89932" lon="0.09443">
        <ele>1661.4</ele>
        <time>2021-11-27T09:10:10Z</time>
      </trkpt>
      <trkpt lat="42.89933" lon="0.09439">
        <ele>1661.4</ele>
        <time>2021-11-27T09:10:12Z</time>
      </trkpt>
      <trkpt lat="42.89933" lon="0.09437">
        <ele>1661.4</ele>
        <time>2021-11-27T09:10:17Z</time>
      </trkpt>
      <trkpt lat="42.89932" lon="0.09434">
        <ele>1661.4</ele>
        <time>2021-11-27T09:10:20Z</time>
      </trkpt>
      <trkpt lat="42.89932" lon="0.09429">
        <ele>1661.4</ele>
        <time>2021-11-27T09:10:22Z</time>
      </trkpt>
      <trkpt lat="42.89931" lon="0.09426">
        <ele>1661.4</ele>
        <time>2021-11-27T09:10:24Z</time>
      </trkpt>
      <trkpt lat="42.89931" lon="0.09423">
        <ele>1661.4</ele>
        <time>2021-11-27T09:10:27Z</time>
      </trkpt>
      <trkpt lat="42.89931" lon="0.0942">
        <ele>1662</ele>
        <time>2021-11-27T09:10:29Z</time>
      </trkpt>
      <trkpt lat="42.89931" lon="0.09417">
        <ele>1662</ele>
        <time>2021-11-27T09:10:31Z</time>
      </trkpt>
      <trkpt lat="42.89932" lon="0.09413">
        <ele>1662</ele>
        <time>2021-11-27T09:10:34Z</time>
      </trkpt>
      <trkpt lat="42.89932" lon="0.0941">
        <ele>1662</ele>
        <time>2021-11-27T09:10:36Z</time>
      </trkpt>
      <trkpt lat="42.89933" lon="0.09407">
        <ele>1662</ele>
        <time>2021-11-27T09:10:38Z</time>
      </trkpt>
      <trkpt lat="42.89934" lon="0.09403">
        <ele>1662</ele>
        <time>2021-11-27T09:10:41Z</time>
      </trkpt>
      <trkpt lat="42.89934" lon="0.094">
        <ele>1662</ele>
        <time>2021-11-27T09:10:43Z</time>
      </trkpt>
      <trkpt lat="42.89934" lon="0.09397">
        <ele>1662</ele>
        <time>2021-11-27T09:10:45Z</time>
      </trkpt>
      <trkpt lat="42.89935" lon="0.09394">
        <ele>1662</ele>
        <time>2021-11-27T09:10:48Z</time>
      </trkpt>
      <trkpt lat="42.89936" lon="0.09392">
        <ele>1662</ele>
        <time>2021-11-27T09:10:50Z</time>
      </trkpt>
      <trkpt lat="42.89936" lon="0.09389">
        <ele>1662</ele>
        <time>2021-11-27T09:10:53Z</time>
      </trkpt>
      <trkpt lat="42.89936" lon="0.09385">
        <ele>1662</ele>
        <time>2021-11-27T09:10:56Z</time>
      </trkpt>
      <trkpt lat="42.89936" lon="0.09383">
        <ele>1662</ele>
        <time>2021-11-27T09:10:59Z</time>
      </trkpt>
      <trkpt lat="42.89936" lon="0.0938">
        <ele>1662</ele>
        <time>2021-11-27T09:11:02Z</time>
      </trkpt>
      <trkpt lat="42.89936" lon="0.09377">
        <ele>1662</ele>
        <time>2021-11-27T09:11:05Z</time>
      </trkpt>
      <trkpt lat="42.89937" lon="0.09374">
        <ele>1662</ele>
        <time>2021-11-27T09:11:07Z</time>
      </trkpt>
      <trkpt lat="42.89937" lon="0.0937">
        <ele>1662.6</ele>
        <time>2021-11-27T09:11:09Z</time>
      </trkpt>
      <trkpt lat="42.89936" lon="0.09368">
        <ele>1662.6</ele>
        <time>2021-11-27T09:11:11Z</time>
      </trkpt>
      <trkpt lat="42.89936" lon="0.09365">
        <ele>1662.6</ele>
        <time>2021-11-27T09:11:23Z</time>
      </trkpt>
      <trkpt lat="42.8994" lon="0.09355">
        <ele>1662.6</ele>
        <time>2021-11-27T09:14:27Z</time>
      </trkpt>
      <trkpt lat="42.89939" lon="0.09351">
        <ele>1663.2</ele>
        <time>2021-11-27T09:14:29Z</time>
      </trkpt>
      <trkpt lat="42.89938" lon="0.09349">
        <ele>1663.2</ele>
        <time>2021-11-27T09:14:31Z</time>
      </trkpt>
      <trkpt lat="42.89937" lon="0.09346">
        <ele>1663.2</ele>
        <time>2021-11-27T09:14:33Z</time>
      </trkpt>
      <trkpt lat="42.89937" lon="0.09344">
        <ele>1663.2</ele>
        <time>2021-11-27T09:14:35Z</time>
      </trkpt>
      <trkpt lat="42.89936" lon="0.0934">
        <ele>1663.2</ele>
        <time>2021-11-27T09:14:37Z</time>
      </trkpt>
      <trkpt lat="42.89936" lon="0.09338">
        <ele>1663.6</ele>
        <time>2021-11-27T09:14:39Z</time>
      </trkpt>
      <trkpt lat="42.89935" lon="0.09334">
        <ele>1663.6</ele>
        <time>2021-11-27T09:14:41Z</time>
      </trkpt>
      <trkpt lat="42.89934" lon="0.09331">
        <ele>1663.6</ele>
        <time>2021-11-27T09:14:44Z</time>
      </trkpt>
      <trkpt lat="42.89934" lon="0.09328">
        <ele>1663.6</ele>
        <time>2021-11-27T09:14:46Z</time>
      </trkpt>
      <trkpt lat="42.89934" lon="0.09325">
        <ele>1663.8</ele>
        <time>2021-11-27T09:14:49Z</time>
      </trkpt>
      <trkpt lat="42.89933" lon="0.09322">
        <ele>1663.8</ele>
        <time>2021-11-27T09:14:51Z</time>
      </trkpt>
      <trkpt lat="42.89934" lon="0.09319">
        <ele>1663.8</ele>
        <time>2021-11-27T09:14:54Z</time>
      </trkpt>
      <trkpt lat="42.89934" lon="0.09317">
        <ele>1663.8</ele>
        <time>2021-11-27T09:14:57Z</time>
      </trkpt>
      <trkpt lat="42.89933" lon="0.09313">
        <ele>1663.2</ele>
        <time>2021-11-27T09:14:59Z</time>
      </trkpt>
      <trkpt lat="42.89932" lon="0.0931">
        <ele>1663.2</ele>
        <time>2021-11-27T09:15:01Z</time>
      </trkpt>
      <trkpt lat="42.89932" lon="0.09307">
        <ele>1663.2</ele>
        <time>2021-11-27T09:15:03Z</time>
      </trkpt>
      <trkpt lat="42.89932" lon="0.09303">
        <ele>1663.2</ele>
        <time>2021-11-27T09:15:05Z</time>
      </trkpt>
      <trkpt lat="42.89933" lon="0.093">
        <ele>1663.2</ele>
        <time>2021-11-27T09:15:08Z</time>
      </trkpt>
      <trkpt lat="42.89934" lon="0.09297">
        <ele>1663.2</ele>
        <time>2021-11-27T09:15:11Z</time>
      </trkpt>
      <trkpt lat="42.89934" lon="0.09294">
        <ele>1663.2</ele>
        <time>2021-11-27T09:15:13Z</time>
      </trkpt>
      <trkpt lat="42.89934" lon="0.09292">
        <ele>1663.2</ele>
        <time>2021-11-27T09:15:15Z</time>
      </trkpt>
      <trkpt lat="42.89934" lon="0.09289">
        <ele>1663.2</ele>
        <time>2021-11-27T09:15:17Z</time>
      </trkpt>
      <trkpt lat="42.89934" lon="0.09285">
        <ele>1662.8</ele>
        <time>2021-11-27T09:15:19Z</time>
      </trkpt>
      <trkpt lat="42.89934" lon="0.09282">
        <ele>1662.8</ele>
        <time>2021-11-27T09:15:21Z</time>
      </trkpt>
      <trkpt lat="42.89933" lon="0.09279">
        <ele>1662.8</ele>
        <time>2021-11-27T09:15:23Z</time>
      </trkpt>
      <trkpt lat="42.89934" lon="0.09275">
        <ele>1662.8</ele>
        <time>2021-11-27T09:15:25Z</time>
      </trkpt>
      <trkpt lat="42.89934" lon="0.09273">
        <ele>1662.8</ele>
        <time>2021-11-27T09:15:27Z</time>
      </trkpt>
      <trkpt lat="42.89934" lon="0.0927">
        <ele>1662.6</ele>
        <time>2021-11-27T09:15:29Z</time>
      </trkpt>
      <trkpt lat="42.89934" lon="0.09267">
        <ele>1662.6</ele>
        <time>2021-11-27T09:15:31Z</time>
      </trkpt>
      <trkpt lat="42.89934" lon="0.09264">
        <ele>1662.6</ele>
        <time>2021-11-27T09:15:34Z</time>
      </trkpt>
      <trkpt lat="42.89934" lon="0.09261">
        <ele>1662.6</ele>
        <time>2021-11-27T09:15:36Z</time>
      </trkpt>
      <trkpt lat="42.89934" lon="0.09258">
        <ele>1662.6</ele>
        <time>2021-11-27T09:15:41Z</time>
      </trkpt>
      <trkpt lat="42.89936" lon="0.09254">
        <ele>1662.6</ele>
        <time>2021-11-27T09:17:34Z</time>
      </trkpt>
      <trkpt lat="42.89936" lon="0.09252">
        <ele>1662.6</ele>
        <time>2021-11-27T09:17:35Z</time>
      </trkpt>
      <trkpt lat="42.89936" lon="0.09248">
        <ele>1662.6</ele>
        <time>2021-11-27T09:17:36Z</time>
      </trkpt>
      <trkpt lat="42.89934" lon="0.09245">
        <ele>1662.6</ele>
        <time>2021-11-27T09:17:37Z</time>
      </trkpt>
      <trkpt lat="42.89934" lon="0.09242">
        <ele>1662.6</ele>
        <time>2021-11-27T09:17:38Z</time>
      </trkpt>
      <trkpt lat="42.89933" lon="0.09239">
        <ele>1664.4</ele>
        <time>2021-11-27T09:17:39Z</time>
      </trkpt>
      <trkpt lat="42.89932" lon="0.09236">
        <ele>1664.4</ele>
        <time>2021-11-27T09:17:40Z</time>
      </trkpt>
      <trkpt lat="42.89932" lon="0.09234">
        <ele>1664.4</ele>
        <time>2021-11-27T09:17:41Z</time>
      </trkpt>
      <trkpt lat="42.89932" lon="0.09229">
        <ele>1664.4</ele>
        <time>2021-11-27T09:17:43Z</time>
      </trkpt>
      <trkpt lat="42.89932" lon="0.09227">
        <ele>1664.4</ele>
        <time>2021-11-27T09:17:45Z</time>
      </trkpt>
      <trkpt lat="42.89932" lon="0.09224">
        <ele>1664.4</ele>
        <time>2021-11-27T09:17:47Z</time>
      </trkpt>
      <trkpt lat="42.89932" lon="0.0922">
        <ele>1665.4</ele>
        <time>2021-11-27T09:17:49Z</time>
      </trkpt>
      <trkpt lat="42.89931" lon="0.09217">
        <ele>1665.4</ele>
        <time>2021-11-27T09:17:51Z</time>
      </trkpt>
      <trkpt lat="42.89931" lon="0.09213">
        <ele>1665.4</ele>
        <time>2021-11-27T09:17:53Z</time>
      </trkpt>
      <trkpt lat="42.89931" lon="0.09211">
        <ele>1665.4</ele>
        <time>2021-11-27T09:17:55Z</time>
      </trkpt>
      <trkpt lat="42.89931" lon="0.09208">
        <ele>1665.4</ele>
        <time>2021-11-27T09:17:57Z</time>
      </trkpt>
      <trkpt lat="42.89931" lon="0.09205">
        <ele>1667.2</ele>
        <time>2021-11-27T09:17:59Z</time>
      </trkpt>
      <trkpt lat="42.8993" lon="0.09203">
        <ele>1667.2</ele>
        <time>2021-11-27T09:18:00Z</time>
      </trkpt>
      <trkpt lat="42.89929" lon="0.09199">
        <ele>1667.2</ele>
        <time>2021-11-27T09:18:02Z</time>
      </trkpt>
      <trkpt lat="42.89929" lon="0.09196">
        <ele>1667.2</ele>
        <time>2021-11-27T09:18:04Z</time>
      </trkpt>
      <trkpt lat="42.89929" lon="0.09193">
        <ele>1667.2</ele>
        <time>2021-11-27T09:18:07Z</time>
      </trkpt>
      <trkpt lat="42.89928" lon="0.0919">
        <ele>1667.2</ele>
        <time>2021-11-27T09:18:18Z</time>
      </trkpt>
      <trkpt lat="42.89928" lon="0.09187">
        <ele>1667.2</ele>
        <time>2021-11-27T09:18:20Z</time>
      </trkpt>
      <trkpt lat="42.89929" lon="0.09184">
        <ele>1667.2</ele>
        <time>2021-11-27T09:18:22Z</time>
      </trkpt>
      <trkpt lat="42.89929" lon="0.0918">
        <ele>1667.2</ele>
        <time>2021-11-27T09:18:25Z</time>
      </trkpt>
      <trkpt lat="42.8993" lon="0.09178">
        <ele>1667.2</ele>
        <time>2021-11-27T09:18:27Z</time>
      </trkpt>
      <trkpt lat="42.8993" lon="0.09175">
        <ele>1667.8</ele>
        <time>2021-11-27T09:18:29Z</time>
      </trkpt>
      <trkpt lat="42.8993" lon="0.09171">
        <ele>1667.8</ele>
        <time>2021-11-27T09:18:31Z</time>
      </trkpt>
      <trkpt lat="42.8993" lon="0.09168">
        <ele>1667.8</ele>
        <time>2021-11-27T09:18:33Z</time>
      </trkpt>
      <trkpt lat="42.8993" lon="0.09165">
        <ele>1667.8</ele>
        <time>2021-11-27T09:18:35Z</time>
      </trkpt>
      <trkpt lat="42.8993" lon="0.09163">
        <ele>1667.8</ele>
        <time>2021-11-27T09:18:37Z</time>
      </trkpt>
      <trkpt lat="42.8993" lon="0.0916">
        <ele>1667.8</ele>
        <time>2021-11-27T09:18:38Z</time>
      </trkpt>
      <trkpt lat="42.89929" lon="0.09156">
        <ele>1666.8</ele>
        <time>2021-11-27T09:18:39Z</time>
      </trkpt>
      <trkpt lat="42.89929" lon="0.09154">
        <ele>1666.8</ele>
        <time>2021-11-27T09:18:40Z</time>
      </trkpt>
      <trkpt lat="42.89929" lon="0.0915">
        <ele>1666.8</ele>
        <time>2021-11-27T09:18:42Z</time>
      </trkpt>
      <trkpt lat="42.89929" lon="0.09146">
        <ele>1666.8</ele>
        <time>2021-11-27T09:18:44Z</time>
      </trkpt>
      <trkpt lat="42.89928" lon="0.09143">
        <ele>1666.8</ele>
        <time>2021-11-27T09:18:46Z</time>
      </trkpt>
      <trkpt lat="42.89928" lon="0.0914">
        <ele>1666.8</ele>
        <time>2021-11-27T09:18:48Z</time>
      </trkpt>
      <trkpt lat="42.89927" lon="0.09137">
        <ele>1666.8</ele>
        <time>2021-11-27T09:18:49Z</time>
      </trkpt>
      <trkpt lat="42.89928" lon="0.09133">
        <ele>1666.8</ele>
        <time>2021-11-27T09:18:51Z</time>
      </trkpt>
      <trkpt lat="42.89927" lon="0.0913">
        <ele>1666.8</ele>
        <time>2021-11-27T09:18:53Z</time>
      </trkpt>
      <trkpt lat="42.89926" lon="0.09128">
        <ele>1666.8</ele>
        <time>2021-11-27T09:18:55Z</time>
      </trkpt>
      <trkpt lat="42.89927" lon="0.09126">
        <ele>1666.8</ele>
        <time>2021-11-27T09:18:57Z</time>
      </trkpt>
      <trkpt lat="42.89928" lon="0.09122">
        <ele>1666.8</ele>
        <time>2021-11-27T09:19:00Z</time>
      </trkpt>
      <trkpt lat="42.89927" lon="0.09118">
        <ele>1666.8</ele>
        <time>2021-11-27T09:19:02Z</time>
      </trkpt>
      <trkpt lat="42.89926" lon="0.09113">
        <ele>1666.8</ele>
        <time>2021-11-27T09:19:04Z</time>
      </trkpt>
      <trkpt lat="42.89926" lon="0.0911">
        <ele>1666.8</ele>
        <time>2021-11-27T09:19:06Z</time>
      </trkpt>
      <trkpt lat="42.89926" lon="0.09107">
        <ele>1666.8</ele>
        <time>2021-11-27T09:19:08Z</time>
      </trkpt>
      <trkpt lat="42.89926" lon="0.09104">
        <ele>1663.8</ele>
        <time>2021-11-27T09:19:09Z</time>
      </trkpt>
      <trkpt lat="42.89924" lon="0.091">
        <ele>1663.8</ele>
        <time>2021-11-27T09:19:11Z</time>
      </trkpt>
      <trkpt lat="42.89924" lon="0.09097">
        <ele>1663.8</ele>
        <time>2021-11-27T09:19:14Z</time>
      </trkpt>
      <trkpt lat="42.89924" lon="0.09094">
        <ele>1663.8</ele>
        <time>2021-11-27T09:19:16Z</time>
      </trkpt>
      <trkpt lat="42.89924" lon="0.0909">
        <ele>1663.8</ele>
        <time>2021-11-27T09:19:18Z</time>
      </trkpt>
      <trkpt lat="42.89924" lon="0.09087">
        <ele>1663.8</ele>
        <time>2021-11-27T09:19:21Z</time>
      </trkpt>
      <trkpt lat="42.89923" lon="0.09083">
        <ele>1663.8</ele>
        <time>2021-11-27T09:19:24Z</time>
      </trkpt>
      <trkpt lat="42.89922" lon="0.0908">
        <ele>1663.8</ele>
        <time>2021-11-27T09:19:26Z</time>
      </trkpt>
      <trkpt lat="42.89922" lon="0.09076">
        <ele>1663.8</ele>
        <time>2021-11-27T09:19:28Z</time>
      </trkpt>
      <trkpt lat="42.89922" lon="0.09074">
        <ele>1663.8</ele>
        <time>2021-11-27T09:19:30Z</time>
      </trkpt>
      <trkpt lat="42.89921" lon="0.09071">
        <ele>1663.8</ele>
        <time>2021-11-27T09:19:32Z</time>
      </trkpt>
      <trkpt lat="42.8992" lon="0.09067">
        <ele>1663.8</ele>
        <time>2021-11-27T09:19:34Z</time>
      </trkpt>
      <trkpt lat="42.89919" lon="0.09064">
        <ele>1663.8</ele>
        <time>2021-11-27T09:19:36Z</time>
      </trkpt>
      <trkpt lat="42.89918" lon="0.09062">
        <ele>1663.8</ele>
        <time>2021-11-27T09:19:38Z</time>
      </trkpt>
      <trkpt lat="42.89917" lon="0.09059">
        <ele>1663.8</ele>
        <time>2021-11-27T09:19:40Z</time>
      </trkpt>
      <trkpt lat="42.89917" lon="0.09056">
        <ele>1663.8</ele>
        <time>2021-11-27T09:19:43Z</time>
      </trkpt>
      <trkpt lat="42.89918" lon="0.09051">
        <ele>1663.8</ele>
        <time>2021-11-27T09:19:46Z</time>
      </trkpt>
      <trkpt lat="42.89916" lon="0.09048">
        <ele>1663.8</ele>
        <time>2021-11-27T09:19:48Z</time>
      </trkpt>
      <trkpt lat="42.89917" lon="0.09045">
        <ele>1663.8</ele>
        <time>2021-11-27T09:19:50Z</time>
      </trkpt>
      <trkpt lat="42.89917" lon="0.09042">
        <ele>1663.8</ele>
        <time>2021-11-27T09:19:52Z</time>
      </trkpt>
      <trkpt lat="42.89917" lon="0.09039">
        <ele>1663.8</ele>
        <time>2021-11-27T09:19:54Z</time>
      </trkpt>
      <trkpt lat="42.89916" lon="0.09037">
        <ele>1663.8</ele>
        <time>2021-11-27T09:19:56Z</time>
      </trkpt>
      <trkpt lat="42.89916" lon="0.09034">
        <ele>1663.8</ele>
        <time>2021-11-27T09:19:58Z</time>
      </trkpt>
      <trkpt lat="42.89916" lon="0.09031">
        <ele>1663.8</ele>
        <time>2021-11-27T09:20:00Z</time>
      </trkpt>
      <trkpt lat="42.89915" lon="0.09028">
        <ele>1663.8</ele>
        <time>2021-11-27T09:20:02Z</time>
      </trkpt>
      <trkpt lat="42.89914" lon="0.09025">
        <ele>1663.8</ele>
        <time>2021-11-27T09:20:04Z</time>
      </trkpt>
      <trkpt lat="42.89914" lon="0.09022">
        <ele>1663.8</ele>
        <time>2021-11-27T09:20:06Z</time>
      </trkpt>
      <trkpt lat="42.89914" lon="0.09019">
        <ele>1663.8</ele>
        <time>2021-11-27T09:20:08Z</time>
      </trkpt>
      <trkpt lat="42.89913" lon="0.09017">
        <ele>1663.8</ele>
        <time>2021-11-27T09:20:10Z</time>
      </trkpt>
      <trkpt lat="42.89912" lon="0.09014">
        <ele>1663.8</ele>
        <time>2021-11-27T09:20:12Z</time>
      </trkpt>
      <trkpt lat="42.89911" lon="0.09011">
        <ele>1663.8</ele>
        <time>2021-11-27T09:20:14Z</time>
      </trkpt>
      <trkpt lat="42.89911" lon="0.09008">
        <ele>1663.8</ele>
        <time>2021-11-27T09:20:16Z</time>
      </trkpt>
      <trkpt lat="42.89911" lon="0.09006">
        <ele>1663.8</ele>
        <time>2021-11-27T09:20:18Z</time>
      </trkpt>
      <trkpt lat="42.89911" lon="0.09003">
        <ele>1663.8</ele>
        <time>2021-11-27T09:20:20Z</time>
      </trkpt>
      <trkpt lat="42.89911" lon="0.09">
        <ele>1663.8</ele>
        <time>2021-11-27T09:20:22Z</time>
      </trkpt>
      <trkpt lat="42.89911" lon="0.08996">
        <ele>1663.8</ele>
        <time>2021-11-27T09:20:24Z</time>
      </trkpt>
      <trkpt lat="42.8991" lon="0.08992">
        <ele>1663.8</ele>
        <time>2021-11-27T09:20:26Z</time>
      </trkpt>
      <trkpt lat="42.8991" lon="0.08989">
        <ele>1663.8</ele>
        <time>2021-11-27T09:20:28Z</time>
      </trkpt>
      <trkpt lat="42.89909" lon="0.08987">
        <ele>1663.8</ele>
        <time>2021-11-27T09:20:38Z</time>
      </trkpt>
      <trkpt lat="42.89908" lon="0.08985">
        <ele>1663.8</ele>
        <time>2021-11-27T09:21:16Z</time>
      </trkpt>
      <trkpt lat="42.89906" lon="0.08982">
        <ele>1663.8</ele>
        <time>2021-11-27T09:21:18Z</time>
      </trkpt>
      <trkpt lat="42.89905" lon="0.08979">
        <ele>1663.8</ele>
        <time>2021-11-27T09:21:20Z</time>
      </trkpt>
      <trkpt lat="42.89904" lon="0.08976">
        <ele>1663.8</ele>
        <time>2021-11-27T09:21:22Z</time>
      </trkpt>
      <trkpt lat="42.89902" lon="0.08973">
        <ele>1663.8</ele>
        <time>2021-11-27T09:21:24Z</time>
      </trkpt>
      <trkpt lat="42.89901" lon="0.08971">
        <ele>1663.8</ele>
        <time>2021-11-27T09:21:26Z</time>
      </trkpt>
      <trkpt lat="42.89899" lon="0.08969">
        <ele>1663.8</ele>
        <time>2021-11-27T09:21:28Z</time>
      </trkpt>
      <trkpt lat="42.89897" lon="0.08967">
        <ele>1663.8</ele>
        <time>2021-11-27T09:21:31Z</time>
      </trkpt>
      <trkpt lat="42.89896" lon="0.08965">
        <ele>1663.8</ele>
        <time>2021-11-27T09:21:34Z</time>
      </trkpt>
      <trkpt lat="42.89894" lon="0.08962">
        <ele>1663.8</ele>
        <time>2021-11-27T09:21:36Z</time>
      </trkpt>
      <trkpt lat="42.89893" lon="0.0896">
        <ele>1663.8</ele>
        <time>2021-11-27T09:21:38Z</time>
      </trkpt>
      <trkpt lat="42.89892" lon="0.08958">
        <ele>1663.8</ele>
        <time>2021-11-27T09:21:40Z</time>
      </trkpt>
      <trkpt lat="42.89892" lon="0.08955">
        <ele>1663.8</ele>
        <time>2021-11-27T09:21:42Z</time>
      </trkpt>
      <trkpt lat="42.89891" lon="0.08953">
        <ele>1663.8</ele>
        <time>2021-11-27T09:21:44Z</time>
      </trkpt>
      <trkpt lat="42.89889" lon="0.08951">
        <ele>1663.8</ele>
        <time>2021-11-27T09:21:47Z</time>
      </trkpt>
      <trkpt lat="42.89888" lon="0.08949">
        <ele>1663.8</ele>
        <time>2021-11-27T09:21:50Z</time>
      </trkpt>
      <trkpt lat="42.89886" lon="0.08946">
        <ele>1663.8</ele>
        <time>2021-11-27T09:22:58Z</time>
      </trkpt>
      <trkpt lat="42.89884" lon="0.08945">
        <ele>1663.8</ele>
        <time>2021-11-27T09:23:00Z</time>
      </trkpt>
      <trkpt lat="42.8988" lon="0.08941">
        <ele>1663.8</ele>
        <time>2021-11-27T09:23:07Z</time>
      </trkpt>
      <trkpt lat="42.89878" lon="0.08939">
        <ele>1668</ele>
        <time>2021-11-27T09:23:09Z</time>
      </trkpt>
      <trkpt lat="42.89878" lon="0.08936">
        <ele>1668</ele>
        <time>2021-11-27T09:23:13Z</time>
      </trkpt>
      <trkpt lat="42.89877" lon="0.08931">
        <ele>1669.4</ele>
        <time>2021-11-27T09:24:59Z</time>
      </trkpt>
      <trkpt lat="42.89876" lon="0.08928">
        <ele>1669.4</ele>
        <time>2021-11-27T09:25:02Z</time>
      </trkpt>
      <trkpt lat="42.89875" lon="0.08926">
        <ele>1669.4</ele>
        <time>2021-11-27T09:25:04Z</time>
      </trkpt>
      <trkpt lat="42.89874" lon="0.08923">
        <ele>1669.4</ele>
        <time>2021-11-27T09:25:06Z</time>
      </trkpt>
      <trkpt lat="42.89872" lon="0.08921">
        <ele>1669.4</ele>
        <time>2021-11-27T09:25:08Z</time>
      </trkpt>
      <trkpt lat="42.89871" lon="0.08919">
        <ele>1669.4</ele>
        <time>2021-11-27T09:25:11Z</time>
      </trkpt>
      <trkpt lat="42.8987" lon="0.08916">
        <ele>1669.4</ele>
        <time>2021-11-27T09:25:14Z</time>
      </trkpt>
      <trkpt lat="42.89868" lon="0.08914">
        <ele>1669.4</ele>
        <time>2021-11-27T09:25:17Z</time>
      </trkpt>
      <trkpt lat="42.89867" lon="0.08914">
        <ele>1670.8</ele>
        <time>2021-11-27T09:25:19Z</time>
      </trkpt>
      <trkpt lat="42.89866" lon="0.0891">
        <ele>1670.8</ele>
        <time>2021-11-27T09:25:21Z</time>
      </trkpt>
      <trkpt lat="42.89865" lon="0.08908">
        <ele>1670.8</ele>
        <time>2021-11-27T09:25:23Z</time>
      </trkpt>
      <trkpt lat="42.89862" lon="0.08905">
        <ele>1670.8</ele>
        <time>2021-11-27T09:25:26Z</time>
      </trkpt>
      <trkpt lat="42.89861" lon="0.08903">
        <ele>1670.8</ele>
        <time>2021-11-27T09:25:28Z</time>
      </trkpt>
      <trkpt lat="42.8986" lon="0.089">
        <ele>1670.8</ele>
        <time>2021-11-27T09:25:30Z</time>
      </trkpt>
      <trkpt lat="42.89859" lon="0.08898">
        <ele>1670.8</ele>
        <time>2021-11-27T09:25:32Z</time>
      </trkpt>
      <trkpt lat="42.89857" lon="0.08896">
        <ele>1670.8</ele>
        <time>2021-11-27T09:25:34Z</time>
      </trkpt>
      <trkpt lat="42.89855" lon="0.08894">
        <ele>1670.8</ele>
        <time>2021-11-27T09:25:36Z</time>
      </trkpt>
      <trkpt lat="42.89854" lon="0.08891">
        <ele>1672.2</ele>
        <time>2021-11-27T09:25:39Z</time>
      </trkpt>
      <trkpt lat="42.89852" lon="0.0889">
        <ele>1672.2</ele>
        <time>2021-11-27T09:25:41Z</time>
      </trkpt>
      <trkpt lat="42.89852" lon="0.08888">
        <ele>1672.2</ele>
        <time>2021-11-27T09:25:43Z</time>
      </trkpt>
      <trkpt lat="42.8985" lon="0.08885">
        <ele>1672.2</ele>
        <time>2021-11-27T09:25:45Z</time>
      </trkpt>
      <trkpt lat="42.8985" lon="0.08882">
        <ele>1672.2</ele>
        <time>2021-11-27T09:25:47Z</time>
      </trkpt>
      <trkpt lat="42.89848" lon="0.08879">
        <ele>1673.2</ele>
        <time>2021-11-27T09:25:49Z</time>
      </trkpt>
      <trkpt lat="42.89847" lon="0.08877">
        <ele>1673.2</ele>
        <time>2021-11-27T09:25:51Z</time>
      </trkpt>
      <trkpt lat="42.89846" lon="0.08875">
        <ele>1673.2</ele>
        <time>2021-11-27T09:25:54Z</time>
      </trkpt>
      <trkpt lat="42.89844" lon="0.08873">
        <ele>1673.2</ele>
        <time>2021-11-27T09:25:56Z</time>
      </trkpt>
      <trkpt lat="42.89843" lon="0.08871">
        <ele>1673.2</ele>
        <time>2021-11-27T09:25:58Z</time>
      </trkpt>
      <trkpt lat="42.89842" lon="0.08868">
        <ele>1673.2</ele>
        <time>2021-11-27T09:26:00Z</time>
      </trkpt>
      <trkpt lat="42.89841" lon="0.08866">
        <ele>1673.2</ele>
        <time>2021-11-27T09:26:02Z</time>
      </trkpt>
      <trkpt lat="42.8984" lon="0.08863">
        <ele>1673.2</ele>
        <time>2021-11-27T09:26:05Z</time>
      </trkpt>
      <trkpt lat="42.89839" lon="0.08861">
        <ele>1673.2</ele>
        <time>2021-11-27T09:26:07Z</time>
      </trkpt>
      <trkpt lat="42.89838" lon="0.08858">
        <ele>1673.2</ele>
        <time>2021-11-27T09:26:10Z</time>
      </trkpt>
      <trkpt lat="42.89836" lon="0.08855">
        <ele>1673.2</ele>
        <time>2021-11-27T09:26:13Z</time>
      </trkpt>
      <trkpt lat="42.89835" lon="0.08852">
        <ele>1673.2</ele>
        <time>2021-11-27T09:26:16Z</time>
      </trkpt>
      <trkpt lat="42.89834" lon="0.0885">
        <ele>1673.2</ele>
        <time>2021-11-27T09:26:18Z</time>
      </trkpt>
      <trkpt lat="42.89833" lon="0.08848">
        <ele>1673.2</ele>
        <time>2021-11-27T09:26:20Z</time>
      </trkpt>
      <trkpt lat="42.89832" lon="0.08845">
        <ele>1673.2</ele>
        <time>2021-11-27T09:26:23Z</time>
      </trkpt>
      <trkpt lat="42.89831" lon="0.08841">
        <ele>1673.2</ele>
        <time>2021-11-27T09:26:27Z</time>
      </trkpt>
      <trkpt lat="42.8983" lon="0.08838">
        <ele>1673.2</ele>
        <time>2021-11-27T09:26:30Z</time>
      </trkpt>
      <trkpt lat="42.89828" lon="0.08836">
        <ele>1673.2</ele>
        <time>2021-11-27T09:26:33Z</time>
      </trkpt>
      <trkpt lat="42.89827" lon="0.08834">
        <ele>1673.2</ele>
        <time>2021-11-27T09:26:36Z</time>
      </trkpt>
      <trkpt lat="42.89827" lon="0.08831">
        <ele>1677.6</ele>
        <time>2021-11-27T09:26:39Z</time>
      </trkpt>
      <trkpt lat="42.89825" lon="0.08829">
        <ele>1677.6</ele>
        <time>2021-11-27T09:26:42Z</time>
      </trkpt>
      <trkpt lat="42.89822" lon="0.08829">
        <ele>1677.6</ele>
        <time>2021-11-27T09:26:44Z</time>
      </trkpt>
      <trkpt lat="42.89821" lon="0.08826">
        <ele>1677.6</ele>
        <time>2021-11-27T09:26:47Z</time>
      </trkpt>
      <trkpt lat="42.89819" lon="0.08825">
        <ele>1677.6</ele>
        <time>2021-11-27T09:26:50Z</time>
      </trkpt>
      <trkpt lat="42.89817" lon="0.08822">
        <ele>1677.6</ele>
        <time>2021-11-27T09:26:54Z</time>
      </trkpt>
      <trkpt lat="42.89816" lon="0.08819">
        <ele>1677.6</ele>
        <time>2021-11-27T09:26:57Z</time>
      </trkpt>
      <trkpt lat="42.89814" lon="0.08818">
        <ele>1680.6</ele>
        <time>2021-11-27T09:26:59Z</time>
      </trkpt>
      <trkpt lat="42.89813" lon="0.08816">
        <ele>1680.6</ele>
        <time>2021-11-27T09:27:02Z</time>
      </trkpt>
      <trkpt lat="42.89811" lon="0.08813">
        <ele>1680.6</ele>
        <time>2021-11-27T09:27:05Z</time>
      </trkpt>
      <trkpt lat="42.89809" lon="0.08811">
        <ele>1682.4</ele>
        <time>2021-11-27T09:27:09Z</time>
      </trkpt>
      <trkpt lat="42.89809" lon="0.08809">
        <ele>1682.4</ele>
        <time>2021-11-27T09:27:11Z</time>
      </trkpt>
      <trkpt lat="42.89807" lon="0.08807">
        <ele>1682.4</ele>
        <time>2021-11-27T09:27:13Z</time>
      </trkpt>
      <trkpt lat="42.89806" lon="0.08805">
        <ele>1682.4</ele>
        <time>2021-11-27T09:27:16Z</time>
      </trkpt>
      <trkpt lat="42.89804" lon="0.08803">
        <ele>1682.4</ele>
        <time>2021-11-27T09:27:18Z</time>
      </trkpt>
      <trkpt lat="42.89803" lon="0.088">
        <ele>1682.4</ele>
        <time>2021-11-27T09:27:21Z</time>
      </trkpt>
      <trkpt lat="42.89802" lon="0.08798">
        <ele>1682.4</ele>
        <time>2021-11-27T09:27:23Z</time>
      </trkpt>
      <trkpt lat="42.89801" lon="0.08796">
        <ele>1682.4</ele>
        <time>2021-11-27T09:27:25Z</time>
      </trkpt>
      <trkpt lat="42.89799" lon="0.08793">
        <ele>1682.4</ele>
        <time>2021-11-27T09:27:28Z</time>
      </trkpt>
      <trkpt lat="42.89797" lon="0.08791">
        <ele>1682.4</ele>
        <time>2021-11-27T09:27:31Z</time>
      </trkpt>
      <trkpt lat="42.89796" lon="0.08788">
        <ele>1682.4</ele>
        <time>2021-11-27T09:27:34Z</time>
      </trkpt>
      <trkpt lat="42.89795" lon="0.08785">
        <ele>1682.4</ele>
        <time>2021-11-27T09:27:37Z</time>
      </trkpt>
      <trkpt lat="42.89793" lon="0.08783">
        <ele>1685.4</ele>
        <time>2021-11-27T09:27:39Z</time>
      </trkpt>
      <trkpt lat="42.89792" lon="0.0878">
        <ele>1685.4</ele>
        <time>2021-11-27T09:27:42Z</time>
      </trkpt>
      <trkpt lat="42.8979" lon="0.08778">
        <ele>1685.4</ele>
        <time>2021-11-27T09:27:45Z</time>
      </trkpt>
      <trkpt lat="42.89789" lon="0.08776">
        <ele>1685.4</ele>
        <time>2021-11-27T09:27:47Z</time>
      </trkpt>
      <trkpt lat="42.89788" lon="0.08773">
        <ele>1685.4</ele>
        <time>2021-11-27T09:27:50Z</time>
      </trkpt>
      <trkpt lat="42.89786" lon="0.08771">
        <ele>1685.4</ele>
        <time>2021-11-27T09:27:53Z</time>
      </trkpt>
      <trkpt lat="42.89784" lon="0.08768">
        <ele>1685.4</ele>
        <time>2021-11-27T09:27:56Z</time>
      </trkpt>
      <trkpt lat="42.89782" lon="0.08767">
        <ele>1687.8</ele>
        <time>2021-11-27T09:27:59Z</time>
      </trkpt>
      <trkpt lat="42.89781" lon="0.08765">
        <ele>1687.8</ele>
        <time>2021-11-27T09:28:14Z</time>
      </trkpt>
      <trkpt lat="42.8978" lon="0.08763">
        <ele>1687.8</ele>
        <time>2021-11-27T09:28:18Z</time>
      </trkpt>
      <trkpt lat="42.89781" lon="0.08753">
        <ele>1687.8</ele>
        <time>2021-11-27T09:31:27Z</time>
      </trkpt>
      <trkpt lat="42.89778" lon="0.08751">
        <ele>1689.4</ele>
        <time>2021-11-27T09:31:29Z</time>
      </trkpt>
      <trkpt lat="42.89775" lon="0.08748">
        <ele>1689.4</ele>
        <time>2021-11-27T09:31:31Z</time>
      </trkpt>
      <trkpt lat="42.89773" lon="0.08747">
        <ele>1689.4</ele>
        <time>2021-11-27T09:31:33Z</time>
      </trkpt>
      <trkpt lat="42.8977" lon="0.08745">
        <ele>1689.4</ele>
        <time>2021-11-27T09:31:35Z</time>
      </trkpt>
      <trkpt lat="42.89768" lon="0.08744">
        <ele>1689.4</ele>
        <time>2021-11-27T09:31:37Z</time>
      </trkpt>
      <trkpt lat="42.89766" lon="0.08741">
        <ele>1689.4</ele>
        <time>2021-11-27T09:31:40Z</time>
      </trkpt>
      <trkpt lat="42.89764" lon="0.0874">
        <ele>1689.4</ele>
        <time>2021-11-27T09:31:42Z</time>
      </trkpt>
      <trkpt lat="42.89762" lon="0.08739">
        <ele>1689.4</ele>
        <time>2021-11-27T09:31:44Z</time>
      </trkpt>
      <trkpt lat="42.89759" lon="0.08738">
        <ele>1689.4</ele>
        <time>2021-11-27T09:31:47Z</time>
      </trkpt>
      <trkpt lat="42.89757" lon="0.08737">
        <ele>1690</ele>
        <time>2021-11-27T09:31:49Z</time>
      </trkpt>
      <trkpt lat="42.89755" lon="0.08736">
        <ele>1690</ele>
        <time>2021-11-27T09:31:52Z</time>
      </trkpt>
      <trkpt lat="42.89752" lon="0.08736">
        <ele>1690</ele>
        <time>2021-11-27T09:31:54Z</time>
      </trkpt>
      <trkpt lat="42.8975" lon="0.08735">
        <ele>1690</ele>
        <time>2021-11-27T09:31:56Z</time>
      </trkpt>
      <trkpt lat="42.89748" lon="0.08734">
        <ele>1690</ele>
        <time>2021-11-27T09:31:58Z</time>
      </trkpt>
      <trkpt lat="42.89746" lon="0.08735">
        <ele>1690</ele>
        <time>2021-11-27T09:32:00Z</time>
      </trkpt>
      <trkpt lat="42.89744" lon="0.08736">
        <ele>1690</ele>
        <time>2021-11-27T09:32:06Z</time>
      </trkpt>
      <trkpt lat="42.89742" lon="0.08736">
        <ele>1690</ele>
        <time>2021-11-27T09:32:08Z</time>
      </trkpt>
      <trkpt lat="42.8974" lon="0.08737">
        <ele>1690</ele>
        <time>2021-11-27T09:32:10Z</time>
      </trkpt>
      <trkpt lat="42.89737" lon="0.08738">
        <ele>1690</ele>
        <time>2021-11-27T09:32:13Z</time>
      </trkpt>
      <trkpt lat="42.89736" lon="0.0874">
        <ele>1690</ele>
        <time>2021-11-27T09:32:15Z</time>
      </trkpt>
      <trkpt lat="42.89734" lon="0.08739">
        <ele>1690</ele>
        <time>2021-11-27T09:32:17Z</time>
      </trkpt>
      <trkpt lat="42.89732" lon="0.08741">
        <ele>1690.8</ele>
        <time>2021-11-27T09:32:19Z</time>
      </trkpt>
      <trkpt lat="42.89731" lon="0.08744">
        <ele>1690.8</ele>
        <time>2021-11-27T09:32:22Z</time>
      </trkpt>
      <trkpt lat="42.8973" lon="0.08746">
        <ele>1690.8</ele>
        <time>2021-11-27T09:32:24Z</time>
      </trkpt>
      <trkpt lat="42.89728" lon="0.08747">
        <ele>1690.8</ele>
        <time>2021-11-27T09:32:32Z</time>
      </trkpt>
      <trkpt lat="42.89725" lon="0.08748">
        <ele>1690.8</ele>
        <time>2021-11-27T09:32:34Z</time>
      </trkpt>
      <trkpt lat="42.89724" lon="0.08751">
        <ele>1690.8</ele>
        <time>2021-11-27T09:32:38Z</time>
      </trkpt>
      <trkpt lat="42.89722" lon="0.08754">
        <ele>1690.8</ele>
        <time>2021-11-27T09:32:40Z</time>
      </trkpt>
      <trkpt lat="42.89721" lon="0.08756">
        <ele>1690.8</ele>
        <time>2021-11-27T09:32:41Z</time>
      </trkpt>
      <trkpt lat="42.89718" lon="0.08757">
        <ele>1690.8</ele>
        <time>2021-11-27T09:32:43Z</time>
      </trkpt>
      <trkpt lat="42.89717" lon="0.08759">
        <ele>1690.8</ele>
        <time>2021-11-27T09:32:45Z</time>
      </trkpt>
      <trkpt lat="42.89714" lon="0.08761">
        <ele>1690.8</ele>
        <time>2021-11-27T09:33:25Z</time>
      </trkpt>
      <trkpt lat="42.89713" lon="0.08763">
        <ele>1690.8</ele>
        <time>2021-11-27T09:33:26Z</time>
      </trkpt>
      <trkpt lat="42.89711" lon="0.08765">
        <ele>1690.8</ele>
        <time>2021-11-27T09:33:27Z</time>
      </trkpt>
      <trkpt lat="42.89709" lon="0.08767">
        <ele>1690.8</ele>
        <time>2021-11-27T09:33:28Z</time>
      </trkpt>
      <trkpt lat="42.89708" lon="0.08769">
        <ele>1690.8</ele>
        <time>2021-11-27T09:33:29Z</time>
      </trkpt>
      <trkpt lat="42.89706" lon="0.0877">
        <ele>1690.8</ele>
        <time>2021-11-27T09:33:30Z</time>
      </trkpt>
      <trkpt lat="42.89703" lon="0.08774">
        <ele>1690.8</ele>
        <time>2021-11-27T09:33:32Z</time>
      </trkpt>
      <trkpt lat="42.89701" lon="0.08776">
        <ele>1690.8</ele>
        <time>2021-11-27T09:33:33Z</time>
      </trkpt>
      <trkpt lat="42.89699" lon="0.08778">
        <ele>1690.8</ele>
        <time>2021-11-27T09:33:35Z</time>
      </trkpt>
      <trkpt lat="42.89698" lon="0.0878">
        <ele>1690.8</ele>
        <time>2021-11-27T09:33:41Z</time>
      </trkpt>
      <trkpt lat="42.89697" lon="0.08783">
        <ele>1690.8</ele>
        <time>2021-11-27T09:33:44Z</time>
      </trkpt>
      <trkpt lat="42.89695" lon="0.08786">
        <ele>1690.8</ele>
        <time>2021-11-27T09:33:46Z</time>
      </trkpt>
      <trkpt lat="42.89694" lon="0.08788">
        <ele>1690.8</ele>
        <time>2021-11-27T09:33:48Z</time>
      </trkpt>
      <trkpt lat="42.89692" lon="0.08789">
        <ele>1690.8</ele>
        <time>2021-11-27T09:33:50Z</time>
      </trkpt>
      <trkpt lat="42.8969" lon="0.08791">
        <ele>1690.8</ele>
        <time>2021-11-27T09:33:52Z</time>
      </trkpt>
      <trkpt lat="42.8969" lon="0.08794">
        <ele>1690.8</ele>
        <time>2021-11-27T09:33:58Z</time>
      </trkpt>
      <trkpt lat="42.89688" lon="0.08796">
        <ele>1690.8</ele>
        <time>2021-11-27T09:34:01Z</time>
      </trkpt>
      <trkpt lat="42.89686" lon="0.08798">
        <ele>1690.8</ele>
        <time>2021-11-27T09:34:03Z</time>
      </trkpt>
      <trkpt lat="42.89684" lon="0.088">
        <ele>1690.8</ele>
        <time>2021-11-27T09:34:05Z</time>
      </trkpt>
      <trkpt lat="42.89683" lon="0.08802">
        <ele>1690.8</ele>
        <time>2021-11-27T09:34:07Z</time>
      </trkpt>
      <trkpt lat="42.89681" lon="0.08804">
        <ele>1692.4</ele>
        <time>2021-11-27T09:34:09Z</time>
      </trkpt>
      <trkpt lat="42.89679" lon="0.08806">
        <ele>1692.4</ele>
        <time>2021-11-27T09:34:11Z</time>
      </trkpt>
      <trkpt lat="42.89677" lon="0.08808">
        <ele>1692.4</ele>
        <time>2021-11-27T09:34:13Z</time>
      </trkpt>
      <trkpt lat="42.89675" lon="0.08809">
        <ele>1692.4</ele>
        <time>2021-11-27T09:34:16Z</time>
      </trkpt>
      <trkpt lat="42.89673" lon="0.08809">
        <ele>1692.4</ele>
        <time>2021-11-27T09:34:18Z</time>
      </trkpt>
      <trkpt lat="42.89671" lon="0.08809">
        <ele>1692.4</ele>
        <time>2021-11-27T09:34:20Z</time>
      </trkpt>
      <trkpt lat="42.89669" lon="0.08808">
        <ele>1692.4</ele>
        <time>2021-11-27T09:34:24Z</time>
      </trkpt>
      <trkpt lat="42.89667" lon="0.08809">
        <ele>1692.4</ele>
        <time>2021-11-27T09:34:27Z</time>
      </trkpt>
      <trkpt lat="42.89665" lon="0.08809">
        <ele>1692.4</ele>
        <time>2021-11-27T09:34:37Z</time>
      </trkpt>
      <trkpt lat="42.89662" lon="0.08809">
        <ele>1692.4</ele>
        <time>2021-11-27T09:34:41Z</time>
      </trkpt>
      <trkpt lat="42.8966" lon="0.0881">
        <ele>1692.4</ele>
        <time>2021-11-27T09:34:44Z</time>
      </trkpt>
      <trkpt lat="42.89658" lon="0.08811">
        <ele>1692.4</ele>
        <time>2021-11-27T09:34:46Z</time>
      </trkpt>
      <trkpt lat="42.89656" lon="0.08812">
        <ele>1692.4</ele>
        <time>2021-11-27T09:34:48Z</time>
      </trkpt>
      <trkpt lat="42.89653" lon="0.08812">
        <ele>1692.4</ele>
        <time>2021-11-27T09:34:50Z</time>
      </trkpt>
      <trkpt lat="42.89651" lon="0.08812">
        <ele>1692.4</ele>
        <time>2021-11-27T09:34:52Z</time>
      </trkpt>
      <trkpt lat="42.89649" lon="0.08813">
        <ele>1692.4</ele>
        <time>2021-11-27T09:34:54Z</time>
      </trkpt>
      <trkpt lat="42.89646" lon="0.08813">
        <ele>1692.4</ele>
        <time>2021-11-27T09:34:56Z</time>
      </trkpt>
      <trkpt lat="42.89644" lon="0.08814">
        <ele>1692.4</ele>
        <time>2021-11-27T09:34:58Z</time>
      </trkpt>
      <trkpt lat="42.89642" lon="0.08814">
        <ele>1692.4</ele>
        <time>2021-11-27T09:35:00Z</time>
      </trkpt>
      <trkpt lat="42.8964" lon="0.08814">
        <ele>1692.4</ele>
        <time>2021-11-27T09:35:04Z</time>
      </trkpt>
      <trkpt lat="42.89638" lon="0.08814">
        <ele>1696.2</ele>
        <time>2021-11-27T09:35:29Z</time>
      </trkpt>
      <trkpt lat="42.89636" lon="0.08814">
        <ele>1696.2</ele>
        <time>2021-11-27T09:35:30Z</time>
      </trkpt>
      <trkpt lat="42.89633" lon="0.08814">
        <ele>1696.2</ele>
        <time>2021-11-27T09:35:32Z</time>
      </trkpt>
      <trkpt lat="42.89631" lon="0.08814">
        <ele>1696.2</ele>
        <time>2021-11-27T09:35:33Z</time>
      </trkpt>
      <trkpt lat="42.89629" lon="0.08814">
        <ele>1696.2</ele>
        <time>2021-11-27T09:35:34Z</time>
      </trkpt>
      <trkpt lat="42.89628" lon="0.08814">
        <ele>1696.2</ele>
        <time>2021-11-27T09:35:35Z</time>
      </trkpt>
      <trkpt lat="42.89624" lon="0.08814">
        <ele>1696.2</ele>
        <time>2021-11-27T09:35:37Z</time>
      </trkpt>
      <trkpt lat="42.89622" lon="0.08813">
        <ele>1694.8</ele>
        <time>2021-11-27T09:35:39Z</time>
      </trkpt>
      <trkpt lat="42.89619" lon="0.08814">
        <ele>1694.8</ele>
        <time>2021-11-27T09:35:41Z</time>
      </trkpt>
      <trkpt lat="42.89616" lon="0.08812">
        <ele>1694.8</ele>
        <time>2021-11-27T09:35:43Z</time>
      </trkpt>
      <trkpt lat="42.89614" lon="0.08812">
        <ele>1694.8</ele>
        <time>2021-11-27T09:35:45Z</time>
      </trkpt>
      <trkpt lat="42.89612" lon="0.0881">
        <ele>1694.8</ele>
        <time>2021-11-27T09:35:47Z</time>
      </trkpt>
      <trkpt lat="42.8961" lon="0.08808">
        <ele>1693.2</ele>
        <time>2021-11-27T09:35:49Z</time>
      </trkpt>
      <trkpt lat="42.89608" lon="0.08805">
        <ele>1693.2</ele>
        <time>2021-11-27T09:35:51Z</time>
      </trkpt>
      <trkpt lat="42.89605" lon="0.08803">
        <ele>1693.2</ele>
        <time>2021-11-27T09:35:53Z</time>
      </trkpt>
      <trkpt lat="42.89604" lon="0.08801">
        <ele>1693.2</ele>
        <time>2021-11-27T09:35:58Z</time>
      </trkpt>
      <trkpt lat="42.89602" lon="0.08799">
        <ele>1693.2</ele>
        <time>2021-11-27T09:36:01Z</time>
      </trkpt>
      <trkpt lat="42.89601" lon="0.08798">
        <ele>1693.2</ele>
        <time>2021-11-27T09:36:03Z</time>
      </trkpt>
      <trkpt lat="42.89599" lon="0.08795">
        <ele>1693.2</ele>
        <time>2021-11-27T09:36:05Z</time>
      </trkpt>
      <trkpt lat="42.89598" lon="0.08794">
        <ele>1693.2</ele>
        <time>2021-11-27T09:36:06Z</time>
      </trkpt>
      <trkpt lat="42.89596" lon="0.08792">
        <ele>1693.2</ele>
        <time>2021-11-27T09:36:08Z</time>
      </trkpt>
      <trkpt lat="42.89594" lon="0.08791">
        <ele>1693.2</ele>
        <time>2021-11-27T09:36:10Z</time>
      </trkpt>
      <trkpt lat="42.89592" lon="0.08791">
        <ele>1693.2</ele>
        <time>2021-11-27T09:36:12Z</time>
      </trkpt>
      <trkpt lat="42.89589" lon="0.08789">
        <ele>1693.2</ele>
        <time>2021-11-27T09:36:14Z</time>
      </trkpt>
      <trkpt lat="42.89587" lon="0.08788">
        <ele>1693.2</ele>
        <time>2021-11-27T09:36:16Z</time>
      </trkpt>
      <trkpt lat="42.89585" lon="0.08787">
        <ele>1693.2</ele>
        <time>2021-11-27T09:36:18Z</time>
      </trkpt>
      <trkpt lat="42.89582" lon="0.08786">
        <ele>1693.2</ele>
        <time>2021-11-27T09:36:20Z</time>
      </trkpt>
      <trkpt lat="42.8958" lon="0.08786">
        <ele>1693.2</ele>
        <time>2021-11-27T09:36:22Z</time>
      </trkpt>
      <trkpt lat="42.89578" lon="0.08785">
        <ele>1693.2</ele>
        <time>2021-11-27T09:36:24Z</time>
      </trkpt>
      <trkpt lat="42.89575" lon="0.08784">
        <ele>1693.2</ele>
        <time>2021-11-27T09:36:26Z</time>
      </trkpt>
      <trkpt lat="42.89572" lon="0.08784">
        <ele>1693.2</ele>
        <time>2021-11-27T09:36:28Z</time>
      </trkpt>
      <trkpt lat="42.8957" lon="0.08785">
        <ele>1693.2</ele>
        <time>2021-11-27T09:36:30Z</time>
      </trkpt>
      <trkpt lat="42.89567" lon="0.08786">
        <ele>1693.2</ele>
        <time>2021-11-27T09:36:32Z</time>
      </trkpt>
      <trkpt lat="42.89565" lon="0.08787">
        <ele>1693.2</ele>
        <time>2021-11-27T09:36:34Z</time>
      </trkpt>
      <trkpt lat="42.89563" lon="0.08788">
        <ele>1693.2</ele>
        <time>2021-11-27T09:36:36Z</time>
      </trkpt>
      <trkpt lat="42.8956" lon="0.08788">
        <ele>1693.2</ele>
        <time>2021-11-27T09:36:39Z</time>
      </trkpt>
      <trkpt lat="42.89558" lon="0.08787">
        <ele>1693.2</ele>
        <time>2021-11-27T09:36:41Z</time>
      </trkpt>
      <trkpt lat="42.89555" lon="0.08785">
        <ele>1693.2</ele>
        <time>2021-11-27T09:36:43Z</time>
      </trkpt>
      <trkpt lat="42.89553" lon="0.08784">
        <ele>1693.2</ele>
        <time>2021-11-27T09:36:45Z</time>
      </trkpt>
      <trkpt lat="42.8955" lon="0.08783">
        <ele>1693.2</ele>
        <time>2021-11-27T09:36:48Z</time>
      </trkpt>
      <trkpt lat="42.89547" lon="0.08784">
        <ele>1693.2</ele>
        <time>2021-11-27T09:36:51Z</time>
      </trkpt>
      <trkpt lat="42.89545" lon="0.08785">
        <ele>1693.2</ele>
        <time>2021-11-27T09:36:55Z</time>
      </trkpt>
      <trkpt lat="42.89544" lon="0.08788">
        <ele>1685.4</ele>
        <time>2021-11-27T09:36:59Z</time>
      </trkpt>
      <trkpt lat="42.89542" lon="0.0879">
        <ele>1685.4</ele>
        <time>2021-11-27T09:37:02Z</time>
      </trkpt>
      <trkpt lat="42.8954" lon="0.08791">
        <ele>1685.4</ele>
        <time>2021-11-27T09:37:05Z</time>
      </trkpt>
      <trkpt lat="42.89539" lon="0.08792">
        <ele>1685.4</ele>
        <time>2021-11-27T09:37:07Z</time>
      </trkpt>
      <trkpt lat="42.89538" lon="0.08795">
        <ele>1685.4</ele>
        <time>2021-11-27T09:37:10Z</time>
      </trkpt>
      <trkpt lat="42.89537" lon="0.08797">
        <ele>1685.4</ele>
        <time>2021-11-27T09:37:12Z</time>
      </trkpt>
      <trkpt lat="42.89536" lon="0.088">
        <ele>1685.4</ele>
        <time>2021-11-27T09:37:15Z</time>
      </trkpt>
      <trkpt lat="42.89534" lon="0.08802">
        <ele>1685.4</ele>
        <time>2021-11-27T09:37:18Z</time>
      </trkpt>
      <trkpt lat="42.89534" lon="0.08805">
        <ele>1685.4</ele>
        <time>2021-11-27T09:37:21Z</time>
      </trkpt>
      <trkpt lat="42.89533" lon="0.08807">
        <ele>1685.4</ele>
        <time>2021-11-27T09:37:23Z</time>
      </trkpt>
      <trkpt lat="42.89532" lon="0.08809">
        <ele>1685.4</ele>
        <time>2021-11-27T09:37:26Z</time>
      </trkpt>
      <trkpt lat="42.89531" lon="0.08812">
        <ele>1685.4</ele>
        <time>2021-11-27T09:37:28Z</time>
      </trkpt>
      <trkpt lat="42.89529" lon="0.08814">
        <ele>1685.4</ele>
        <time>2021-11-27T09:37:31Z</time>
      </trkpt>
      <trkpt lat="42.89527" lon="0.08815">
        <ele>1685.4</ele>
        <time>2021-11-27T09:37:35Z</time>
      </trkpt>
      <trkpt lat="42.89525" lon="0.08815">
        <ele>1685.4</ele>
        <time>2021-11-27T09:37:38Z</time>
      </trkpt>
      <trkpt lat="42.89523" lon="0.08815">
        <ele>1685.4</ele>
        <time>2021-11-27T09:37:40Z</time>
      </trkpt>
      <trkpt lat="42.89521" lon="0.08816">
        <ele>1685.4</ele>
        <time>2021-11-27T09:37:42Z</time>
      </trkpt>
      <trkpt lat="42.89519" lon="0.08818">
        <ele>1685.4</ele>
        <time>2021-11-27T09:37:45Z</time>
      </trkpt>
      <trkpt lat="42.89518" lon="0.0882">
        <ele>1689.6</ele>
        <time>2021-11-27T09:37:49Z</time>
      </trkpt>
      <trkpt lat="42.89522" lon="0.08821">
        <ele>1689.6</ele>
        <time>2021-11-27T09:39:17Z</time>
      </trkpt>
      <trkpt lat="42.8952" lon="0.08816">
        <ele>1689.6</ele>
        <time>2021-11-27T09:41:44Z</time>
      </trkpt>
      <trkpt lat="42.89521" lon="0.08819">
        <ele>1689.6</ele>
        <time>2021-11-27T09:42:05Z</time>
      </trkpt>
      <trkpt lat="42.89519" lon="0.0882">
        <ele>1689.6</ele>
        <time>2021-11-27T09:43:05Z</time>
      </trkpt>
      <trkpt lat="42.89516" lon="0.08822">
        <ele>1689.6</ele>
        <time>2021-11-27T09:48:34Z</time>
      </trkpt>
      <trkpt lat="42.89514" lon="0.08823">
        <ele>1689.6</ele>
        <time>2021-11-27T09:48:35Z</time>
      </trkpt>
      <trkpt lat="42.89512" lon="0.08824">
        <ele>1689.6</ele>
        <time>2021-11-27T09:48:36Z</time>
      </trkpt>
      <trkpt lat="42.8951" lon="0.08825">
        <ele>1689.6</ele>
        <time>2021-11-27T09:48:37Z</time>
      </trkpt>
      <trkpt lat="42.89508" lon="0.08826">
        <ele>1689.6</ele>
        <time>2021-11-27T09:48:38Z</time>
      </trkpt>
      <trkpt lat="42.89505" lon="0.08828">
        <ele>1689.4</ele>
        <time>2021-11-27T09:48:39Z</time>
      </trkpt>
      <trkpt lat="42.89502" lon="0.08829">
        <ele>1689.4</ele>
        <time>2021-11-27T09:48:40Z</time>
      </trkpt>
      <trkpt lat="42.89499" lon="0.08831">
        <ele>1689.4</ele>
        <time>2021-11-27T09:48:41Z</time>
      </trkpt>
      <trkpt lat="42.89494" lon="0.08832">
        <ele>1689.4</ele>
        <time>2021-11-27T09:48:42Z</time>
      </trkpt>
      <trkpt lat="42.89491" lon="0.08833">
        <ele>1689.4</ele>
        <time>2021-11-27T09:48:43Z</time>
      </trkpt>
      <trkpt lat="42.89488" lon="0.08833">
        <ele>1689.4</ele>
        <time>2021-11-27T09:48:44Z</time>
      </trkpt>
      <trkpt lat="42.89485" lon="0.08834">
        <ele>1689.4</ele>
        <time>2021-11-27T09:48:45Z</time>
      </trkpt>
      <trkpt lat="42.89482" lon="0.08834">
        <ele>1689.4</ele>
        <time>2021-11-27T09:48:46Z</time>
      </trkpt>
      <trkpt lat="42.89479" lon="0.08834">
        <ele>1689.4</ele>
        <time>2021-11-27T09:48:47Z</time>
      </trkpt>
      <trkpt lat="42.89477" lon="0.08834">
        <ele>1689.4</ele>
        <time>2021-11-27T09:48:48Z</time>
      </trkpt>
      <trkpt lat="42.89476" lon="0.08832">
        <ele>1689.4</ele>
        <time>2021-11-27T09:49:00Z</time>
      </trkpt>
      <trkpt lat="42.89473" lon="0.08828">
        <ele>1689.4</ele>
        <time>2021-11-27T09:49:33Z</time>
      </trkpt>
      <trkpt lat="42.89471" lon="0.08823">
        <ele>1689.4</ele>
        <time>2021-11-27T09:49:34Z</time>
      </trkpt>
      <trkpt lat="42.89469" lon="0.08818">
        <ele>1689.4</ele>
        <time>2021-11-27T09:49:35Z</time>
      </trkpt>
      <trkpt lat="42.89468" lon="0.08813">
        <ele>1689.4</ele>
        <time>2021-11-27T09:49:36Z</time>
      </trkpt>
      <trkpt lat="42.89469" lon="0.08808">
        <ele>1689.4</ele>
        <time>2021-11-27T09:49:37Z</time>
      </trkpt>
      <trkpt lat="42.89471" lon="0.08803">
        <ele>1689.4</ele>
        <time>2021-11-27T09:49:38Z</time>
      </trkpt>
      <trkpt lat="42.89469" lon="0.08799">
        <ele>1680.2</ele>
        <time>2021-11-27T09:49:39Z</time>
      </trkpt>
      <trkpt lat="42.89467" lon="0.08795">
        <ele>1680.2</ele>
        <time>2021-11-27T09:49:40Z</time>
      </trkpt>
      <trkpt lat="42.89463" lon="0.08792">
        <ele>1680.2</ele>
        <time>2021-11-27T09:49:41Z</time>
      </trkpt>
      <trkpt lat="42.89461" lon="0.08791">
        <ele>1680.2</ele>
        <time>2021-11-27T09:49:42Z</time>
      </trkpt>
      <trkpt lat="42.89459" lon="0.08791">
        <ele>1680.2</ele>
        <time>2021-11-27T09:49:43Z</time>
      </trkpt>
      <trkpt lat="42.89457" lon="0.0879">
        <ele>1680.2</ele>
        <time>2021-11-27T09:49:44Z</time>
      </trkpt>
      <trkpt lat="42.89454" lon="0.0879">
        <ele>1680.2</ele>
        <time>2021-11-27T09:49:45Z</time>
      </trkpt>
      <trkpt lat="42.89451" lon="0.08788">
        <ele>1680.2</ele>
        <time>2021-11-27T09:49:46Z</time>
      </trkpt>
      <trkpt lat="42.8945" lon="0.08784">
        <ele>1680.2</ele>
        <time>2021-11-27T09:49:47Z</time>
      </trkpt>
      <trkpt lat="42.89449" lon="0.08779">
        <ele>1680.2</ele>
        <time>2021-11-27T09:49:48Z</time>
      </trkpt>
      <trkpt lat="42.89447" lon="0.08775">
        <ele>1672</ele>
        <time>2021-11-27T09:49:49Z</time>
      </trkpt>
      <trkpt lat="42.89445" lon="0.08774">
        <ele>1672</ele>
        <time>2021-11-27T09:49:50Z</time>
      </trkpt>
      <trkpt lat="42.89444" lon="0.08773">
        <ele>1672</ele>
        <time>2021-11-27T09:50:00Z</time>
      </trkpt>
      <trkpt lat="42.89441" lon="0.08773">
        <ele>1672</ele>
        <time>2021-11-27T09:50:06Z</time>
      </trkpt>
      <trkpt lat="42.89439" lon="0.08772">
        <ele>1672</ele>
        <time>2021-11-27T09:50:08Z</time>
      </trkpt>
      <trkpt lat="42.89437" lon="0.08772">
        <ele>1672</ele>
        <time>2021-11-27T09:50:10Z</time>
      </trkpt>
      <trkpt lat="42.89435" lon="0.08767">
        <ele>1672</ele>
        <time>2021-11-27T09:50:12Z</time>
      </trkpt>
      <trkpt lat="42.89435" lon="0.08763">
        <ele>1672</ele>
        <time>2021-11-27T09:50:13Z</time>
      </trkpt>
      <trkpt lat="42.89434" lon="0.08759">
        <ele>1672</ele>
        <time>2021-11-27T09:50:14Z</time>
      </trkpt>
      <trkpt lat="42.89435" lon="0.08755">
        <ele>1672</ele>
        <time>2021-11-27T09:50:15Z</time>
      </trkpt>
      <trkpt lat="42.89436" lon="0.0875">
        <ele>1672</ele>
        <time>2021-11-27T09:50:16Z</time>
      </trkpt>
      <trkpt lat="42.89435" lon="0.08746">
        <ele>1672</ele>
        <time>2021-11-27T09:50:17Z</time>
      </trkpt>
      <trkpt lat="42.89433" lon="0.08743">
        <ele>1672</ele>
        <time>2021-11-27T09:50:18Z</time>
      </trkpt>
      <trkpt lat="42.89431" lon="0.08742">
        <ele>1658.6</ele>
        <time>2021-11-27T09:50:19Z</time>
      </trkpt>
      <trkpt lat="42.8943" lon="0.08741">
        <ele>1658.6</ele>
        <time>2021-11-27T09:50:27Z</time>
      </trkpt>
      <trkpt lat="42.89429" lon="0.08736">
        <ele>1658.6</ele>
        <time>2021-11-27T09:50:31Z</time>
      </trkpt>
      <trkpt lat="42.89429" lon="0.08731">
        <ele>1658.6</ele>
        <time>2021-11-27T09:50:32Z</time>
      </trkpt>
      <trkpt lat="42.89428" lon="0.08727">
        <ele>1658.6</ele>
        <time>2021-11-27T09:50:33Z</time>
      </trkpt>
      <trkpt lat="42.89427" lon="0.08724">
        <ele>1658.6</ele>
        <time>2021-11-27T09:50:34Z</time>
      </trkpt>
      <trkpt lat="42.89423" lon="0.08723">
        <ele>1658.6</ele>
        <time>2021-11-27T09:50:35Z</time>
      </trkpt>
      <trkpt lat="42.89419" lon="0.08721">
        <ele>1658.6</ele>
        <time>2021-11-27T09:50:36Z</time>
      </trkpt>
      <trkpt lat="42.89415" lon="0.08719">
        <ele>1658.6</ele>
        <time>2021-11-27T09:50:37Z</time>
      </trkpt>
      <trkpt lat="42.89412" lon="0.08718">
        <ele>1658.6</ele>
        <time>2021-11-27T09:50:38Z</time>
      </trkpt>
      <trkpt lat="42.89408" lon="0.08716">
        <ele>1649.6</ele>
        <time>2021-11-27T09:50:39Z</time>
      </trkpt>
      <trkpt lat="42.89404" lon="0.08715">
        <ele>1649.6</ele>
        <time>2021-11-27T09:50:40Z</time>
      </trkpt>
      <trkpt lat="42.894" lon="0.08713">
        <ele>1649.6</ele>
        <time>2021-11-27T09:50:41Z</time>
      </trkpt>
      <trkpt lat="42.89396" lon="0.08712">
        <ele>1649.6</ele>
        <time>2021-11-27T09:50:42Z</time>
      </trkpt>
      <trkpt lat="42.89392" lon="0.08711">
        <ele>1649.6</ele>
        <time>2021-11-27T09:50:43Z</time>
      </trkpt>
      <trkpt lat="42.89388" lon="0.0871">
        <ele>1649.6</ele>
        <time>2021-11-27T09:50:44Z</time>
      </trkpt>
      <trkpt lat="42.89384" lon="0.08709">
        <ele>1649.6</ele>
        <time>2021-11-27T09:50:45Z</time>
      </trkpt>
      <trkpt lat="42.89381" lon="0.08707">
        <ele>1649.6</ele>
        <time>2021-11-27T09:50:46Z</time>
      </trkpt>
      <trkpt lat="42.89378" lon="0.08705">
        <ele>1649.6</ele>
        <time>2021-11-27T09:50:47Z</time>
      </trkpt>
      <trkpt lat="42.89374" lon="0.08702">
        <ele>1649.6</ele>
        <time>2021-11-27T09:50:48Z</time>
      </trkpt>
      <trkpt lat="42.89372" lon="0.087">
        <ele>1644.4</ele>
        <time>2021-11-27T09:50:49Z</time>
      </trkpt>
      <trkpt lat="42.8937" lon="0.08698">
        <ele>1644.4</ele>
        <time>2021-11-27T09:50:50Z</time>
      </trkpt>
      <trkpt lat="42.89368" lon="0.08697">
        <ele>1644.4</ele>
        <time>2021-11-27T09:50:51Z</time>
      </trkpt>
      <trkpt lat="42.89366" lon="0.08697">
        <ele>1644.4</ele>
        <time>2021-11-27T09:50:52Z</time>
      </trkpt>
      <trkpt lat="42.89364" lon="0.08696">
        <ele>1644.4</ele>
        <time>2021-11-27T09:50:53Z</time>
      </trkpt>
      <trkpt lat="42.8936" lon="0.08696">
        <ele>1644.4</ele>
        <time>2021-11-27T09:50:54Z</time>
      </trkpt>
      <trkpt lat="42.89356" lon="0.08696">
        <ele>1644.4</ele>
        <time>2021-11-27T09:50:55Z</time>
      </trkpt>
      <trkpt lat="42.89352" lon="0.08696">
        <ele>1644.4</ele>
        <time>2021-11-27T09:50:56Z</time>
      </trkpt>
      <trkpt lat="42.89348" lon="0.08695">
        <ele>1644.4</ele>
        <time>2021-11-27T09:50:57Z</time>
      </trkpt>
      <trkpt lat="42.89342" lon="0.08693">
        <ele>1644.4</ele>
        <time>2021-11-27T09:50:58Z</time>
      </trkpt>
      <trkpt lat="42.89336" lon="0.08691">
        <ele>1639.6</ele>
        <time>2021-11-27T09:50:59Z</time>
      </trkpt>
      <trkpt lat="42.89332" lon="0.08689">
        <ele>1639.6</ele>
        <time>2021-11-27T09:51:00Z</time>
      </trkpt>
      <trkpt lat="42.89327" lon="0.08687">
        <ele>1639.6</ele>
        <time>2021-11-27T09:51:01Z</time>
      </trkpt>
      <trkpt lat="42.89324" lon="0.08684">
        <ele>1639.6</ele>
        <time>2021-11-27T09:51:02Z</time>
      </trkpt>
      <trkpt lat="42.89321" lon="0.08679">
        <ele>1639.6</ele>
        <time>2021-11-27T09:51:03Z</time>
      </trkpt>
      <trkpt lat="42.89318" lon="0.08673">
        <ele>1639.6</ele>
        <time>2021-11-27T09:51:04Z</time>
      </trkpt>
      <trkpt lat="42.89316" lon="0.08668">
        <ele>1639.6</ele>
        <time>2021-11-27T09:51:05Z</time>
      </trkpt>
      <trkpt lat="42.89313" lon="0.08664">
        <ele>1639.6</ele>
        <time>2021-11-27T09:51:06Z</time>
      </trkpt>
      <trkpt lat="42.8931" lon="0.0866">
        <ele>1639.6</ele>
        <time>2021-11-27T09:51:07Z</time>
      </trkpt>
      <trkpt lat="42.89307" lon="0.08657">
        <ele>1639.6</ele>
        <time>2021-11-27T09:51:08Z</time>
      </trkpt>
      <trkpt lat="42.89304" lon="0.08654">
        <ele>1629.4</ele>
        <time>2021-11-27T09:51:09Z</time>
      </trkpt>
      <trkpt lat="42.89302" lon="0.08651">
        <ele>1629.4</ele>
        <time>2021-11-27T09:51:10Z</time>
      </trkpt>
      <trkpt lat="42.893" lon="0.08649">
        <ele>1629.4</ele>
        <time>2021-11-27T09:51:12Z</time>
      </trkpt>
      <trkpt lat="42.89302" lon="0.08645">
        <ele>1629.4</ele>
        <time>2021-11-27T09:51:31Z</time>
      </trkpt>
      <trkpt lat="42.89304" lon="0.08641">
        <ele>1629.4</ele>
        <time>2021-11-27T09:51:32Z</time>
      </trkpt>
      <trkpt lat="42.89307" lon="0.08637">
        <ele>1629.4</ele>
        <time>2021-11-27T09:51:33Z</time>
      </trkpt>
      <trkpt lat="42.8931" lon="0.08632">
        <ele>1629.4</ele>
        <time>2021-11-27T09:51:34Z</time>
      </trkpt>
      <trkpt lat="42.89313" lon="0.08627">
        <ele>1629.4</ele>
        <time>2021-11-27T09:51:35Z</time>
      </trkpt>
      <trkpt lat="42.89315" lon="0.08621">
        <ele>1629.4</ele>
        <time>2021-11-27T09:51:36Z</time>
      </trkpt>
      <trkpt lat="42.89317" lon="0.08614">
        <ele>1629.4</ele>
        <time>2021-11-27T09:51:37Z</time>
      </trkpt>
      <trkpt lat="42.89319" lon="0.08607">
        <ele>1629.4</ele>
        <time>2021-11-27T09:51:38Z</time>
      </trkpt>
      <trkpt lat="42.8932" lon="0.086">
        <ele>1616.4</ele>
        <time>2021-11-27T09:51:39Z</time>
      </trkpt>
      <trkpt lat="42.8932" lon="0.08594">
        <ele>1616.4</ele>
        <time>2021-11-27T09:51:40Z</time>
      </trkpt>
      <trkpt lat="42.89319" lon="0.08588">
        <ele>1616.4</ele>
        <time>2021-11-27T09:51:41Z</time>
      </trkpt>
      <trkpt lat="42.8932" lon="0.08583">
        <ele>1616.4</ele>
        <time>2021-11-27T09:51:42Z</time>
      </trkpt>
      <trkpt lat="42.8932" lon="0.08577">
        <ele>1616.4</ele>
        <time>2021-11-27T09:51:43Z</time>
      </trkpt>
      <trkpt lat="42.89322" lon="0.08572">
        <ele>1616.4</ele>
        <time>2021-11-27T09:51:44Z</time>
      </trkpt>
      <trkpt lat="42.89324" lon="0.08567">
        <ele>1616.4</ele>
        <time>2021-11-27T09:51:45Z</time>
      </trkpt>
      <trkpt lat="42.89326" lon="0.08561">
        <ele>1616.4</ele>
        <time>2021-11-27T09:51:46Z</time>
      </trkpt>
      <trkpt lat="42.89328" lon="0.08555">
        <ele>1616.4</ele>
        <time>2021-11-27T09:51:47Z</time>
      </trkpt>
      <trkpt lat="42.8933" lon="0.08548">
        <ele>1616.4</ele>
        <time>2021-11-27T09:51:48Z</time>
      </trkpt>
      <trkpt lat="42.89332" lon="0.08542">
        <ele>1599.6</ele>
        <time>2021-11-27T09:51:49Z</time>
      </trkpt>
      <trkpt lat="42.89334" lon="0.08534">
        <ele>1599.6</ele>
        <time>2021-11-27T09:51:50Z</time>
      </trkpt>
      <trkpt lat="42.89337" lon="0.08527">
        <ele>1599.6</ele>
        <time>2021-11-27T09:51:51Z</time>
      </trkpt>
      <trkpt lat="42.89338" lon="0.0852">
        <ele>1599.6</ele>
        <time>2021-11-27T09:51:52Z</time>
      </trkpt>
      <trkpt lat="42.89337" lon="0.08514">
        <ele>1599.6</ele>
        <time>2021-11-27T09:51:53Z</time>
      </trkpt>
      <trkpt lat="42.89336" lon="0.08511">
        <ele>1599.6</ele>
        <time>2021-11-27T09:51:54Z</time>
      </trkpt>
      <trkpt lat="42.89335" lon="0.08509">
        <ele>1582.4</ele>
        <time>2021-11-27T09:51:59Z</time>
      </trkpt>
      <trkpt lat="42.89338" lon="0.08508">
        <ele>1580.2</ele>
        <time>2021-11-27T09:52:29Z</time>
      </trkpt>
      <trkpt lat="42.8934" lon="0.08507">
        <ele>1580.2</ele>
        <time>2021-11-27T09:52:30Z</time>
      </trkpt>
      <trkpt lat="42.89343" lon="0.08503">
        <ele>1580.2</ele>
        <time>2021-11-27T09:52:31Z</time>
      </trkpt>
      <trkpt lat="42.89345" lon="0.08499">
        <ele>1580.2</ele>
        <time>2021-11-27T09:52:32Z</time>
      </trkpt>
      <trkpt lat="42.89347" lon="0.08493">
        <ele>1580.2</ele>
        <time>2021-11-27T09:52:33Z</time>
      </trkpt>
      <trkpt lat="42.89349" lon="0.08486">
        <ele>1580.2</ele>
        <time>2021-11-27T09:52:34Z</time>
      </trkpt>
      <trkpt lat="42.8935" lon="0.08478">
        <ele>1580.2</ele>
        <time>2021-11-27T09:52:35Z</time>
      </trkpt>
      <trkpt lat="42.89351" lon="0.08471">
        <ele>1580.2</ele>
        <time>2021-11-27T09:52:36Z</time>
      </trkpt>
      <trkpt lat="42.89352" lon="0.08464">
        <ele>1580.2</ele>
        <time>2021-11-27T09:52:37Z</time>
      </trkpt>
      <trkpt lat="42.89351" lon="0.08458">
        <ele>1580.2</ele>
        <time>2021-11-27T09:52:38Z</time>
      </trkpt>
      <trkpt lat="42.89351" lon="0.08452">
        <ele>1570</ele>
        <time>2021-11-27T09:52:39Z</time>
      </trkpt>
      <trkpt lat="42.89351" lon="0.08446">
        <ele>1570</ele>
        <time>2021-11-27T09:52:40Z</time>
      </trkpt>
      <trkpt lat="42.89352" lon="0.0844">
        <ele>1570</ele>
        <time>2021-11-27T09:52:41Z</time>
      </trkpt>
      <trkpt lat="42.89353" lon="0.08433">
        <ele>1570</ele>
        <time>2021-11-27T09:52:42Z</time>
      </trkpt>
      <trkpt lat="42.89353" lon="0.08427">
        <ele>1570</ele>
        <time>2021-11-27T09:52:43Z</time>
      </trkpt>
      <trkpt lat="42.89352" lon="0.08419">
        <ele>1570</ele>
        <time>2021-11-27T09:52:44Z</time>
      </trkpt>
      <trkpt lat="42.89354" lon="0.08412">
        <ele>1570</ele>
        <time>2021-11-27T09:52:45Z</time>
      </trkpt>
      <trkpt lat="42.89354" lon="0.08404">
        <ele>1570</ele>
        <time>2021-11-27T09:52:46Z</time>
      </trkpt>
      <trkpt lat="42.89356" lon="0.08397">
        <ele>1570</ele>
        <time>2021-11-27T09:52:47Z</time>
      </trkpt>
      <trkpt lat="42.89358" lon="0.08389">
        <ele>1570</ele>
        <time>2021-11-27T09:52:48Z</time>
      </trkpt>
      <trkpt lat="42.8936" lon="0.08382">
        <ele>1554</ele>
        <time>2021-11-27T09:52:49Z</time>
      </trkpt>
      <trkpt lat="42.89362" lon="0.08375">
        <ele>1554</ele>
        <time>2021-11-27T09:52:50Z</time>
      </trkpt>
      <trkpt lat="42.89364" lon="0.08367">
        <ele>1554</ele>
        <time>2021-11-27T09:52:51Z</time>
      </trkpt>
      <trkpt lat="42.89366" lon="0.0836">
        <ele>1554</ele>
        <time>2021-11-27T09:52:52Z</time>
      </trkpt>
      <trkpt lat="42.89368" lon="0.08353">
        <ele>1554</ele>
        <time>2021-11-27T09:52:53Z</time>
      </trkpt>
      <trkpt lat="42.89369" lon="0.08345">
        <ele>1554</ele>
        <time>2021-11-27T09:52:54Z</time>
      </trkpt>
      <trkpt lat="42.89369" lon="0.08337">
        <ele>1554</ele>
        <time>2021-11-27T09:52:55Z</time>
      </trkpt>
      <trkpt lat="42.89369" lon="0.0833">
        <ele>1554</ele>
        <time>2021-11-27T09:52:56Z</time>
      </trkpt>
      <trkpt lat="42.8937" lon="0.08323">
        <ele>1554</ele>
        <time>2021-11-27T09:52:57Z</time>
      </trkpt>
      <trkpt lat="42.89371" lon="0.08317">
        <ele>1554</ele>
        <time>2021-11-27T09:52:58Z</time>
      </trkpt>
      <trkpt lat="42.89372" lon="0.0831">
        <ele>1534.2</ele>
        <time>2021-11-27T09:52:59Z</time>
      </trkpt>
      <trkpt lat="42.89372" lon="0.08303">
        <ele>1534.2</ele>
        <time>2021-11-27T09:53:00Z</time>
      </trkpt>
      <trkpt lat="42.89373" lon="0.08295">
        <ele>1534.2</ele>
        <time>2021-11-27T09:53:01Z</time>
      </trkpt>
      <trkpt lat="42.89375" lon="0.08285">
        <ele>1534.2</ele>
        <time>2021-11-27T09:53:02Z</time>
      </trkpt>
      <trkpt lat="42.89377" lon="0.08274">
        <ele>1534.2</ele>
        <time>2021-11-27T09:53:03Z</time>
      </trkpt>
      <trkpt lat="42.8938" lon="0.08262">
        <ele>1534.2</ele>
        <time>2021-11-27T09:53:04Z</time>
      </trkpt>
      <trkpt lat="42.89383" lon="0.0825">
        <ele>1534.2</ele>
        <time>2021-11-27T09:53:05Z</time>
      </trkpt>
      <trkpt lat="42.89388" lon="0.08237">
        <ele>1534.2</ele>
        <time>2021-11-27T09:53:06Z</time>
      </trkpt>
      <trkpt lat="42.89392" lon="0.08227">
        <ele>1534.2</ele>
        <time>2021-11-27T09:53:07Z</time>
      </trkpt>
      <trkpt lat="42.89396" lon="0.08217">
        <ele>1534.2</ele>
        <time>2021-11-27T09:53:08Z</time>
      </trkpt>
      <trkpt lat="42.89399" lon="0.08209">
        <ele>1518</ele>
        <time>2021-11-27T09:53:09Z</time>
      </trkpt>
      <trkpt lat="42.89402" lon="0.08201">
        <ele>1518</ele>
        <time>2021-11-27T09:53:10Z</time>
      </trkpt>
      <trkpt lat="42.89405" lon="0.08195">
        <ele>1518</ele>
        <time>2021-11-27T09:53:11Z</time>
      </trkpt>
      <trkpt lat="42.89407" lon="0.08189">
        <ele>1518</ele>
        <time>2021-11-27T09:53:12Z</time>
      </trkpt>
      <trkpt lat="42.89409" lon="0.08185">
        <ele>1518</ele>
        <time>2021-11-27T09:53:13Z</time>
      </trkpt>
      <trkpt lat="42.89411" lon="0.08181">
        <ele>1518</ele>
        <time>2021-11-27T09:53:14Z</time>
      </trkpt>
      <trkpt lat="42.89413" lon="0.08178">
        <ele>1518</ele>
        <time>2021-11-27T09:53:15Z</time>
      </trkpt>
      <trkpt lat="42.89415" lon="0.08175">
        <ele>1518</ele>
        <time>2021-11-27T09:53:16Z</time>
      </trkpt>
      <trkpt lat="42.89417" lon="0.08172">
        <ele>1518</ele>
        <time>2021-11-27T09:53:17Z</time>
      </trkpt>
      <trkpt lat="42.89419" lon="0.0817">
        <ele>1518</ele>
        <time>2021-11-27T09:53:18Z</time>
      </trkpt>
      <trkpt lat="42.8942" lon="0.08166">
        <ele>1518</ele>
        <time>2021-11-27T09:53:20Z</time>
      </trkpt>
      <trkpt lat="42.89421" lon="0.08164">
        <ele>1518</ele>
        <time>2021-11-27T09:53:21Z</time>
      </trkpt>
      <trkpt lat="42.89423" lon="0.08162">
        <ele>1518</ele>
        <time>2021-11-27T09:53:22Z</time>
      </trkpt>
      <trkpt lat="42.89423" lon="0.08159">
        <ele>1518</ele>
        <time>2021-11-27T09:53:23Z</time>
      </trkpt>
      <trkpt lat="42.89425" lon="0.08157">
        <ele>1518</ele>
        <time>2021-11-27T09:53:24Z</time>
      </trkpt>
      <trkpt lat="42.89426" lon="0.08154">
        <ele>1518</ele>
        <time>2021-11-27T09:53:25Z</time>
      </trkpt>
      <trkpt lat="42.89427" lon="0.08151">
        <ele>1518</ele>
        <time>2021-11-27T09:53:26Z</time>
      </trkpt>
      <trkpt lat="42.89428" lon="0.08149">
        <ele>1518</ele>
        <time>2021-11-27T09:53:27Z</time>
      </trkpt>
      <trkpt lat="42.89429" lon="0.08146">
        <ele>1518</ele>
        <time>2021-11-27T09:53:28Z</time>
      </trkpt>
      <trkpt lat="42.89431" lon="0.08143">
        <ele>1510</ele>
        <time>2021-11-27T09:53:29Z</time>
      </trkpt>
      <trkpt lat="42.89432" lon="0.0814">
        <ele>1510</ele>
        <time>2021-11-27T09:53:30Z</time>
      </trkpt>
      <trkpt lat="42.89433" lon="0.08137">
        <ele>1510</ele>
        <time>2021-11-27T09:53:31Z</time>
      </trkpt>
      <trkpt lat="42.89432" lon="0.08134">
        <ele>1510</ele>
        <time>2021-11-27T09:53:33Z</time>
      </trkpt>
      <trkpt lat="42.89433" lon="0.08132">
        <ele>1510</ele>
        <time>2021-11-27T09:54:02Z</time>
      </trkpt>
      <trkpt lat="42.89436" lon="0.08131">
        <ele>1510</ele>
        <time>2021-11-27T09:54:04Z</time>
      </trkpt>
      <trkpt lat="42.89439" lon="0.08129">
        <ele>1510</ele>
        <time>2021-11-27T09:54:05Z</time>
      </trkpt>
      <trkpt lat="42.89441" lon="0.08128">
        <ele>1510</ele>
        <time>2021-11-27T09:54:06Z</time>
      </trkpt>
      <trkpt lat="42.89443" lon="0.08126">
        <ele>1510</ele>
        <time>2021-11-27T09:54:07Z</time>
      </trkpt>
      <trkpt lat="42.89445" lon="0.08124">
        <ele>1510</ele>
        <time>2021-11-27T09:54:08Z</time>
      </trkpt>
      <trkpt lat="42.89447" lon="0.08123">
        <ele>1508.8</ele>
        <time>2021-11-27T09:54:09Z</time>
      </trkpt>
      <trkpt lat="42.8945" lon="0.08121">
        <ele>1508.8</ele>
        <time>2021-11-27T09:54:10Z</time>
      </trkpt>
      <trkpt lat="42.89453" lon="0.08119">
        <ele>1508.8</ele>
        <time>2021-11-27T09:54:12Z</time>
      </trkpt>
      <trkpt lat="42.89455" lon="0.08118">
        <ele>1508.8</ele>
        <time>2021-11-27T09:54:13Z</time>
      </trkpt>
      <trkpt lat="42.89457" lon="0.08117">
        <ele>1508.8</ele>
        <time>2021-11-27T09:54:14Z</time>
      </trkpt>
      <trkpt lat="42.89459" lon="0.08116">
        <ele>1508.8</ele>
        <time>2021-11-27T09:54:15Z</time>
      </trkpt>
      <trkpt lat="42.89461" lon="0.08116">
        <ele>1508.8</ele>
        <time>2021-11-27T09:54:16Z</time>
      </trkpt>
      <trkpt lat="42.89464" lon="0.08115">
        <ele>1508.8</ele>
        <time>2021-11-27T09:54:17Z</time>
      </trkpt>
      <trkpt lat="42.89467" lon="0.08115">
        <ele>1508.8</ele>
        <time>2021-11-27T09:54:18Z</time>
      </trkpt>
      <trkpt lat="42.89469" lon="0.08114">
        <ele>1507.2</ele>
        <time>2021-11-27T09:54:19Z</time>
      </trkpt>
      <trkpt lat="42.89471" lon="0.08113">
        <ele>1507.2</ele>
        <time>2021-11-27T09:54:20Z</time>
      </trkpt>
      <trkpt lat="42.89473" lon="0.08112">
        <ele>1507.2</ele>
        <time>2021-11-27T09:54:21Z</time>
      </trkpt>
      <trkpt lat="42.89476" lon="0.08112">
        <ele>1507.2</ele>
        <time>2021-11-27T09:54:22Z</time>
      </trkpt>
      <trkpt lat="42.89478" lon="0.08112">
        <ele>1507.2</ele>
        <time>2021-11-27T09:54:23Z</time>
      </trkpt>
      <trkpt lat="42.89481" lon="0.0811">
        <ele>1507.2</ele>
        <time>2021-11-27T09:54:25Z</time>
      </trkpt>
      <trkpt lat="42.89483" lon="0.08109">
        <ele>1507.2</ele>
        <time>2021-11-27T09:54:27Z</time>
      </trkpt>
      <trkpt lat="42.89485" lon="0.08107">
        <ele>1506</ele>
        <time>2021-11-27T09:54:29Z</time>
      </trkpt>
      <trkpt lat="42.89488" lon="0.08105">
        <ele>1506</ele>
        <time>2021-11-27T09:54:31Z</time>
      </trkpt>
      <trkpt lat="42.8949" lon="0.08103">
        <ele>1506</ele>
        <time>2021-11-27T09:54:32Z</time>
      </trkpt>
      <trkpt lat="42.89493" lon="0.08102">
        <ele>1506</ele>
        <time>2021-11-27T09:54:34Z</time>
      </trkpt>
      <trkpt lat="42.89493" lon="0.08105">
        <ele>1506</ele>
        <time>2021-11-27T09:55:17Z</time>
      </trkpt>
      <trkpt lat="42.89495" lon="0.08105">
        <ele>1506</ele>
        <time>2021-11-27T09:55:24Z</time>
      </trkpt>
      <trkpt lat="42.89495" lon="0.08109">
        <ele>1506</ele>
        <time>2021-11-27T09:55:35Z</time>
      </trkpt>
      <trkpt lat="42.89494" lon="0.08111">
        <ele>1506</ele>
        <time>2021-11-27T09:55:38Z</time>
      </trkpt>
      <trkpt lat="42.89492" lon="0.08113">
        <ele>1506</ele>
        <time>2021-11-27T09:55:46Z</time>
      </trkpt>
      <trkpt lat="42.89493" lon="0.0811">
        <ele>1506</ele>
        <time>2021-11-27T09:55:53Z</time>
      </trkpt>
      <trkpt lat="42.89495" lon="0.08109">
        <ele>1506</ele>
        <time>2021-11-27T09:56:06Z</time>
      </trkpt>
      <trkpt lat="42.89495" lon="0.08112">
        <ele>1505.8</ele>
        <time>2021-11-27T09:56:09Z</time>
      </trkpt>
      <trkpt lat="42.89493" lon="0.08116">
        <ele>1505.8</ele>
        <time>2021-11-27T09:56:22Z</time>
      </trkpt>
      <trkpt lat="42.89492" lon="0.08119">
        <ele>1505.8</ele>
        <time>2021-11-27T09:56:23Z</time>
      </trkpt>
      <trkpt lat="42.89491" lon="0.08121">
        <ele>1505.8</ele>
        <time>2021-11-27T09:56:24Z</time>
      </trkpt>
      <trkpt lat="42.89489" lon="0.08124">
        <ele>1505.8</ele>
        <time>2021-11-27T09:56:25Z</time>
      </trkpt>
      <trkpt lat="42.89488" lon="0.08127">
        <ele>1505.8</ele>
        <time>2021-11-27T09:56:27Z</time>
      </trkpt>
      <trkpt lat="42.89485" lon="0.08129">
        <ele>1505.8</ele>
        <time>2021-11-27T09:56:36Z</time>
      </trkpt>
      <trkpt lat="42.89483" lon="0.0813">
        <ele>1506.6</ele>
        <time>2021-11-27T09:56:39Z</time>
      </trkpt>
      <trkpt lat="42.89481" lon="0.0813">
        <ele>1506.6</ele>
        <time>2021-11-27T09:56:42Z</time>
      </trkpt>
      <trkpt lat="42.89483" lon="0.08131">
        <ele>1506.6</ele>
        <time>2021-11-27T09:56:46Z</time>
      </trkpt>
      <trkpt lat="42.89485" lon="0.08133">
        <ele>1506.6</ele>
        <time>2021-11-27T09:56:53Z</time>
      </trkpt>
      <trkpt lat="42.89484" lon="0.0813">
        <ele>1506.6</ele>
        <time>2021-11-27T09:57:14Z</time>
      </trkpt>
      <trkpt lat="42.89484" lon="0.08127">
        <ele>1506.6</ele>
        <time>2021-11-27T09:57:17Z</time>
      </trkpt>
      <trkpt lat="42.89484" lon="0.0813">
        <ele>1506.6</ele>
        <time>2021-11-27T09:57:18Z</time>
      </trkpt>
      <trkpt lat="42.89486" lon="0.08133">
        <ele>1506.6</ele>
        <time>2021-11-27T09:57:28Z</time>
      </trkpt>
      <trkpt lat="42.89488" lon="0.08132">
        <ele>1506.6</ele>
        <time>2021-11-27T09:57:33Z</time>
      </trkpt>
      <trkpt lat="42.89489" lon="0.0813">
        <ele>1506.6</ele>
        <time>2021-11-27T09:57:39Z</time>
      </trkpt>
      <trkpt lat="42.89491" lon="0.08128">
        <ele>1506.6</ele>
        <time>2021-11-27T09:57:41Z</time>
      </trkpt>
      <trkpt lat="42.89493" lon="0.08128">
        <ele>1506.6</ele>
        <time>2021-11-27T09:57:44Z</time>
      </trkpt>
      <trkpt lat="42.89495" lon="0.08126">
        <ele>1506.6</ele>
        <time>2021-11-27T09:57:46Z</time>
      </trkpt>
      <trkpt lat="42.89495" lon="0.08124">
        <ele>1506.6</ele>
        <time>2021-11-27T09:57:49Z</time>
      </trkpt>
      <trkpt lat="42.89497" lon="0.08122">
        <ele>1506.6</ele>
        <time>2021-11-27T09:57:54Z</time>
      </trkpt>
      <trkpt lat="42.89497" lon="0.08119">
        <ele>1506.6</ele>
        <time>2021-11-27T09:58:02Z</time>
      </trkpt>
      <trkpt lat="42.89498" lon="0.08122">
        <ele>1506.6</ele>
        <time>2021-11-27T09:58:10Z</time>
      </trkpt>
      <trkpt lat="42.89496" lon="0.08123">
        <ele>1506.6</ele>
        <time>2021-11-27T09:58:14Z</time>
      </trkpt>
      <trkpt lat="42.89494" lon="0.08125">
        <ele>1506.6</ele>
        <time>2021-11-27T09:58:17Z</time>
      </trkpt>
      <trkpt lat="42.89491" lon="0.08126">
        <ele>1506.6</ele>
        <time>2021-11-27T09:58:22Z</time>
      </trkpt>
      <trkpt lat="42.8949" lon="0.08129">
        <ele>1506.6</ele>
        <time>2021-11-27T09:58:23Z</time>
      </trkpt>
      <trkpt lat="42.89488" lon="0.08131">
        <ele>1506.6</ele>
        <time>2021-11-27T09:58:26Z</time>
      </trkpt>
      <trkpt lat="42.8949" lon="0.0813">
        <ele>1506.6</ele>
        <time>2021-11-27T09:58:30Z</time>
      </trkpt>
      <trkpt lat="42.89492" lon="0.08129">
        <ele>1506.6</ele>
        <time>2021-11-27T09:58:32Z</time>
      </trkpt>
      <trkpt lat="42.89493" lon="0.08126">
        <ele>1506.6</ele>
        <time>2021-11-27T09:58:37Z</time>
      </trkpt>
      <trkpt lat="42.89493" lon="0.08123">
        <ele>1506.6</ele>
        <time>2021-11-27T09:58:38Z</time>
      </trkpt>
      <trkpt lat="42.89493" lon="0.0812">
        <ele>1506.8</ele>
        <time>2021-11-27T09:58:39Z</time>
      </trkpt>
      <trkpt lat="42.89491" lon="0.08125">
        <ele>1506.8</ele>
        <time>2021-11-27T09:58:45Z</time>
      </trkpt>
      <trkpt lat="42.89489" lon="0.08127">
        <ele>1506.8</ele>
        <time>2021-11-27T09:58:47Z</time>
      </trkpt>
      <trkpt lat="42.89488" lon="0.08129">
        <ele>1506.8</ele>
        <time>2021-11-27T09:58:50Z</time>
      </trkpt>
      <trkpt lat="42.89487" lon="0.08131">
        <ele>1506.8</ele>
        <time>2021-11-27T09:59:02Z</time>
      </trkpt>
      <trkpt lat="42.89487" lon="0.08134">
        <ele>1506.6</ele>
        <time>2021-11-27T09:59:09Z</time>
      </trkpt>
      <trkpt lat="42.89487" lon="0.08131">
        <ele>1506.6</ele>
        <time>2021-11-27T09:59:31Z</time>
      </trkpt>
      <trkpt lat="42.89486" lon="0.08135">
        <ele>1506.6</ele>
        <time>2021-11-27T09:59:38Z</time>
      </trkpt>
      <trkpt lat="42.89485" lon="0.08137">
        <ele>1506.6</ele>
        <time>2021-11-27T09:59:41Z</time>
      </trkpt>
      <trkpt lat="42.89484" lon="0.08138">
        <ele>1506.6</ele>
        <time>2021-11-27T09:59:44Z</time>
      </trkpt>
      <trkpt lat="42.89482" lon="0.08142">
        <ele>1506.6</ele>
        <time>2021-11-27T09:59:46Z</time>
      </trkpt>
      <trkpt lat="42.89481" lon="0.08139">
        <ele>1506.6</ele>
        <time>2021-11-27T09:59:52Z</time>
      </trkpt>
      <trkpt lat="42.8948" lon="0.08137">
        <ele>1506.6</ele>
        <time>2021-11-27T09:59:58Z</time>
      </trkpt>
      <trkpt lat="42.89482" lon="0.08133">
        <ele>1506.4</ele>
        <time>2021-11-27T09:59:59Z</time>
      </trkpt>
      <trkpt lat="42.89483" lon="0.08129">
        <ele>1506.4</ele>
        <time>2021-11-27T10:00:01Z</time>
      </trkpt>
      <trkpt lat="42.89484" lon="0.08126">
        <ele>1506.4</ele>
        <time>2021-11-27T10:00:03Z</time>
      </trkpt>
      <trkpt lat="42.89484" lon="0.08129">
        <ele>1506</ele>
        <time>2021-11-27T10:00:09Z</time>
      </trkpt>
      <trkpt lat="42.89484" lon="0.08131">
        <ele>1506</ele>
        <time>2021-11-27T10:00:11Z</time>
      </trkpt>
      <trkpt lat="42.89483" lon="0.08135">
        <ele>1506</ele>
        <time>2021-11-27T10:00:15Z</time>
      </trkpt>
      <trkpt lat="42.89484" lon="0.08132">
        <ele>1506</ele>
        <time>2021-11-27T10:00:18Z</time>
      </trkpt>
      <trkpt lat="42.89486" lon="0.0813">
        <ele>1506</ele>
        <time>2021-11-27T10:00:22Z</time>
      </trkpt>
      <trkpt lat="42.89488" lon="0.08127">
        <ele>1506</ele>
        <time>2021-11-27T10:00:24Z</time>
      </trkpt>
      <trkpt lat="42.89488" lon="0.08124">
        <ele>1506</ele>
        <time>2021-11-27T10:00:26Z</time>
      </trkpt>
      <trkpt lat="42.89488" lon="0.08117">
        <ele>1506</ele>
        <time>2021-11-27T10:00:27Z</time>
      </trkpt>
      <trkpt lat="42.89488" lon="0.08121">
        <ele>1506</ele>
        <time>2021-11-27T10:00:35Z</time>
      </trkpt>
      <trkpt lat="42.89487" lon="0.08123">
        <ele>1506</ele>
        <time>2021-11-27T10:00:41Z</time>
      </trkpt>
      <trkpt lat="42.89489" lon="0.08125">
        <ele>1506</ele>
        <time>2021-11-27T10:00:56Z</time>
      </trkpt>
      <trkpt lat="42.89491" lon="0.08124">
        <ele>1506</ele>
        <time>2021-11-27T10:00:59Z</time>
      </trkpt>
      <trkpt lat="42.89489" lon="0.08133">
        <ele>1506</ele>
        <time>2021-11-27T10:01:03Z</time>
      </trkpt>
      <trkpt lat="42.89488" lon="0.08135">
        <ele>1506</ele>
        <time>2021-11-27T10:01:06Z</time>
      </trkpt>
      <trkpt lat="42.8949" lon="0.08133">
        <ele>1506</ele>
        <time>2021-11-27T10:01:11Z</time>
      </trkpt>
      <trkpt lat="42.89492" lon="0.0813">
        <ele>1506</ele>
        <time>2021-11-27T10:01:22Z</time>
      </trkpt>
      <trkpt lat="42.89489" lon="0.0813">
        <ele>1506</ele>
        <time>2021-11-27T10:01:44Z</time>
      </trkpt>
      <trkpt lat="42.89487" lon="0.08132">
        <ele>1506</ele>
        <time>2021-11-27T10:01:53Z</time>
      </trkpt>
      <trkpt lat="42.89489" lon="0.08128">
        <ele>1506</ele>
        <time>2021-11-27T10:02:33Z</time>
      </trkpt>
      <trkpt lat="42.89491" lon="0.08125">
        <ele>1506</ele>
        <time>2021-11-27T10:02:36Z</time>
      </trkpt>
      <trkpt lat="42.89493" lon="0.08121">
        <ele>1506</ele>
        <time>2021-11-27T10:02:41Z</time>
      </trkpt>
      <trkpt lat="42.89494" lon="0.08117">
        <ele>1506</ele>
        <time>2021-11-27T10:04:53Z</time>
      </trkpt>
      <trkpt lat="42.89495" lon="0.08115">
        <ele>1506</ele>
        <time>2021-11-27T10:04:56Z</time>
      </trkpt>
      <trkpt lat="42.89495" lon="0.08112">
        <ele>1506.4</ele>
        <time>2021-11-27T10:04:59Z</time>
      </trkpt>
      <trkpt lat="42.89496" lon="0.08114">
        <ele>1506.4</ele>
        <time>2021-11-27T10:05:07Z</time>
      </trkpt>
      <trkpt lat="42.89493" lon="0.08117">
        <ele>1506.4</ele>
        <time>2021-11-27T10:06:04Z</time>
      </trkpt>
      <trkpt lat="42.89491" lon="0.08119">
        <ele>1506.4</ele>
        <time>2021-11-27T10:06:06Z</time>
      </trkpt>
      <trkpt lat="42.89489" lon="0.08121">
        <ele>1506.4</ele>
        <time>2021-11-27T10:06:07Z</time>
      </trkpt>
      <trkpt lat="42.89486" lon="0.08123">
        <ele>1507.4</ele>
        <time>2021-11-27T10:06:09Z</time>
      </trkpt>
      <trkpt lat="42.89485" lon="0.08125">
        <ele>1507.4</ele>
        <time>2021-11-27T10:06:10Z</time>
      </trkpt>
      <trkpt lat="42.89482" lon="0.08126">
        <ele>1507.4</ele>
        <time>2021-11-27T10:06:12Z</time>
      </trkpt>
      <trkpt lat="42.89479" lon="0.08126">
        <ele>1507.4</ele>
        <time>2021-11-27T10:06:14Z</time>
      </trkpt>
      <trkpt lat="42.89477" lon="0.08126">
        <ele>1507.4</ele>
        <time>2021-11-27T10:06:16Z</time>
      </trkpt>
      <trkpt lat="42.89475" lon="0.08126">
        <ele>1507.4</ele>
        <time>2021-11-27T10:06:18Z</time>
      </trkpt>
      <trkpt lat="42.89473" lon="0.08125">
        <ele>1507.4</ele>
        <time>2021-11-27T10:06:20Z</time>
      </trkpt>
      <trkpt lat="42.89471" lon="0.08125">
        <ele>1507.4</ele>
        <time>2021-11-27T10:06:23Z</time>
      </trkpt>
      <trkpt lat="42.89469" lon="0.08125">
        <ele>1507.4</ele>
        <time>2021-11-27T10:06:34Z</time>
      </trkpt>
      <trkpt lat="42.89467" lon="0.08124">
        <ele>1507.4</ele>
        <time>2021-11-27T10:06:37Z</time>
      </trkpt>
      <trkpt lat="42.89465" lon="0.08124">
        <ele>1507.8</ele>
        <time>2021-11-27T10:06:39Z</time>
      </trkpt>
      <trkpt lat="42.89462" lon="0.08124">
        <ele>1507.8</ele>
        <time>2021-11-27T10:06:41Z</time>
      </trkpt>
      <trkpt lat="42.8946" lon="0.08123">
        <ele>1507.8</ele>
        <time>2021-11-27T10:06:43Z</time>
      </trkpt>
      <trkpt lat="42.89457" lon="0.08123">
        <ele>1507.8</ele>
        <time>2021-11-27T10:07:30Z</time>
      </trkpt>
      <trkpt lat="42.89454" lon="0.08122">
        <ele>1507.8</ele>
        <time>2021-11-27T10:07:32Z</time>
      </trkpt>
      <trkpt lat="42.89452" lon="0.0812">
        <ele>1507.8</ele>
        <time>2021-11-27T10:07:34Z</time>
      </trkpt>
      <trkpt lat="42.89449" lon="0.08119">
        <ele>1507.8</ele>
        <time>2021-11-27T10:07:36Z</time>
      </trkpt>
      <trkpt lat="42.89446" lon="0.08117">
        <ele>1507.8</ele>
        <time>2021-11-27T10:07:38Z</time>
      </trkpt>
      <trkpt lat="42.89444" lon="0.08116">
        <ele>1507.8</ele>
        <time>2021-11-27T10:07:40Z</time>
      </trkpt>
      <trkpt lat="42.89443" lon="0.08116">
        <ele>1507.8</ele>
        <time>2021-11-27T10:07:42Z</time>
      </trkpt>
      <trkpt lat="42.8944" lon="0.08116">
        <ele>1507.8</ele>
        <time>2021-11-27T10:08:03Z</time>
      </trkpt>
      <trkpt lat="42.89437" lon="0.08115">
        <ele>1507.8</ele>
        <time>2021-11-27T10:08:05Z</time>
      </trkpt>
      <trkpt lat="42.89435" lon="0.08114">
        <ele>1507.8</ele>
        <time>2021-11-27T10:08:07Z</time>
      </trkpt>
      <trkpt lat="42.89432" lon="0.08113">
        <ele>1508.8</ele>
        <time>2021-11-27T10:08:09Z</time>
      </trkpt>
      <trkpt lat="42.89429" lon="0.08112">
        <ele>1508.8</ele>
        <time>2021-11-27T10:08:11Z</time>
      </trkpt>
      <trkpt lat="42.89427" lon="0.08112">
        <ele>1508.8</ele>
        <time>2021-11-27T10:08:13Z</time>
      </trkpt>
      <trkpt lat="42.89425" lon="0.08111">
        <ele>1508.8</ele>
        <time>2021-11-27T10:08:15Z</time>
      </trkpt>
      <trkpt lat="42.89423" lon="0.0811">
        <ele>1508.8</ele>
        <time>2021-11-27T10:08:17Z</time>
      </trkpt>
      <trkpt lat="42.8942" lon="0.0811">
        <ele>1509</ele>
        <time>2021-11-27T10:08:19Z</time>
      </trkpt>
      <trkpt lat="42.89418" lon="0.0811">
        <ele>1509</ele>
        <time>2021-11-27T10:08:22Z</time>
      </trkpt>
      <trkpt lat="42.89415" lon="0.0811">
        <ele>1509</ele>
        <time>2021-11-27T10:08:25Z</time>
      </trkpt>
      <trkpt lat="42.89413" lon="0.0811">
        <ele>1509</ele>
        <time>2021-11-27T10:08:27Z</time>
      </trkpt>
      <trkpt lat="42.89411" lon="0.0811">
        <ele>1510</ele>
        <time>2021-11-27T10:08:29Z</time>
      </trkpt>
      <trkpt lat="42.89409" lon="0.08109">
        <ele>1510</ele>
        <time>2021-11-27T10:08:31Z</time>
      </trkpt>
      <trkpt lat="42.89407" lon="0.08107">
        <ele>1510</ele>
        <time>2021-11-27T10:08:34Z</time>
      </trkpt>
      <trkpt lat="42.89405" lon="0.08106">
        <ele>1510</ele>
        <time>2021-11-27T10:08:38Z</time>
      </trkpt>
      <trkpt lat="42.89404" lon="0.08104">
        <ele>1510</ele>
        <time>2021-11-27T10:08:46Z</time>
      </trkpt>
      <trkpt lat="42.89402" lon="0.08103">
        <ele>1513</ele>
        <time>2021-11-27T10:08:49Z</time>
      </trkpt>
      <trkpt lat="42.894" lon="0.08103">
        <ele>1513</ele>
        <time>2021-11-27T10:08:52Z</time>
      </trkpt>
      <trkpt lat="42.89397" lon="0.08105">
        <ele>1513</ele>
        <time>2021-11-27T10:08:55Z</time>
      </trkpt>
      <trkpt lat="42.89396" lon="0.08106">
        <ele>1513</ele>
        <time>2021-11-27T10:08:57Z</time>
      </trkpt>
      <trkpt lat="42.89394" lon="0.08107">
        <ele>1513</ele>
        <time>2021-11-27T10:09:00Z</time>
      </trkpt>
      <trkpt lat="42.89392" lon="0.08109">
        <ele>1513</ele>
        <time>2021-11-27T10:09:02Z</time>
      </trkpt>
      <trkpt lat="42.8939" lon="0.08111">
        <ele>1513</ele>
        <time>2021-11-27T10:09:05Z</time>
      </trkpt>
      <trkpt lat="42.89388" lon="0.08111">
        <ele>1513</ele>
        <time>2021-11-27T10:09:07Z</time>
      </trkpt>
      <trkpt lat="42.89386" lon="0.0811">
        <ele>1516</ele>
        <time>2021-11-27T10:09:09Z</time>
      </trkpt>
      <trkpt lat="42.89384" lon="0.08107">
        <ele>1516</ele>
        <time>2021-11-27T10:09:12Z</time>
      </trkpt>
      <trkpt lat="42.89382" lon="0.08104">
        <ele>1516</ele>
        <time>2021-11-27T10:09:15Z</time>
      </trkpt>
      <trkpt lat="42.89381" lon="0.08102">
        <ele>1516</ele>
        <time>2021-11-27T10:09:17Z</time>
      </trkpt>
      <trkpt lat="42.8938" lon="0.08099">
        <ele>1516</ele>
        <time>2021-11-27T10:09:20Z</time>
      </trkpt>
      <trkpt lat="42.89378" lon="0.08098">
        <ele>1516</ele>
        <time>2021-11-27T10:09:22Z</time>
      </trkpt>
      <trkpt lat="42.89376" lon="0.08096">
        <ele>1516</ele>
        <time>2021-11-27T10:09:24Z</time>
      </trkpt>
      <trkpt lat="42.89374" lon="0.08095">
        <ele>1516</ele>
        <time>2021-11-27T10:09:26Z</time>
      </trkpt>
      <trkpt lat="42.89372" lon="0.08093">
        <ele>1519.4</ele>
        <time>2021-11-27T10:09:29Z</time>
      </trkpt>
      <trkpt lat="42.8937" lon="0.08091">
        <ele>1519.4</ele>
        <time>2021-11-27T10:09:31Z</time>
      </trkpt>
      <trkpt lat="42.89369" lon="0.0809">
        <ele>1519.4</ele>
        <time>2021-11-27T10:09:33Z</time>
      </trkpt>
      <trkpt lat="42.89367" lon="0.08088">
        <ele>1519.4</ele>
        <time>2021-11-27T10:09:35Z</time>
      </trkpt>
      <trkpt lat="42.89365" lon="0.08087">
        <ele>1519.4</ele>
        <time>2021-11-27T10:09:37Z</time>
      </trkpt>
      <trkpt lat="42.89363" lon="0.08086">
        <ele>1519.4</ele>
        <time>2021-11-27T10:09:40Z</time>
      </trkpt>
      <trkpt lat="42.89361" lon="0.08086">
        <ele>1519.4</ele>
        <time>2021-11-27T10:09:43Z</time>
      </trkpt>
      <trkpt lat="42.89359" lon="0.08085">
        <ele>1519.4</ele>
        <time>2021-11-27T10:09:45Z</time>
      </trkpt>
      <trkpt lat="42.89356" lon="0.08085">
        <ele>1519.4</ele>
        <time>2021-11-27T10:09:48Z</time>
      </trkpt>
      <trkpt lat="42.89354" lon="0.08084">
        <ele>1519.4</ele>
        <time>2021-11-27T10:09:51Z</time>
      </trkpt>
      <trkpt lat="42.89353" lon="0.08082">
        <ele>1519.4</ele>
        <time>2021-11-27T10:09:53Z</time>
      </trkpt>
      <trkpt lat="42.89352" lon="0.0808">
        <ele>1519.4</ele>
        <time>2021-11-27T10:09:55Z</time>
      </trkpt>
      <trkpt lat="42.89352" lon="0.08077">
        <ele>1519.4</ele>
        <time>2021-11-27T10:09:57Z</time>
      </trkpt>
      <trkpt lat="42.89352" lon="0.08074">
        <ele>1524</ele>
        <time>2021-11-27T10:09:59Z</time>
      </trkpt>
      <trkpt lat="42.89352" lon="0.08071">
        <ele>1524</ele>
        <time>2021-11-27T10:10:01Z</time>
      </trkpt>
      <trkpt lat="42.89352" lon="0.08068">
        <ele>1524</ele>
        <time>2021-11-27T10:10:04Z</time>
      </trkpt>
      <trkpt lat="42.89352" lon="0.08065">
        <ele>1524</ele>
        <time>2021-11-27T10:10:07Z</time>
      </trkpt>
      <trkpt lat="42.89352" lon="0.08061">
        <ele>1524</ele>
        <time>2021-11-27T10:10:10Z</time>
      </trkpt>
      <trkpt lat="42.89352" lon="0.08058">
        <ele>1524</ele>
        <time>2021-11-27T10:10:13Z</time>
      </trkpt>
      <trkpt lat="42.89351" lon="0.08055">
        <ele>1524</ele>
        <time>2021-11-27T10:10:15Z</time>
      </trkpt>
      <trkpt lat="42.8935" lon="0.08053">
        <ele>1524</ele>
        <time>2021-11-27T10:10:18Z</time>
      </trkpt>
      <trkpt lat="42.89348" lon="0.0805">
        <ele>1524</ele>
        <time>2021-11-27T10:10:21Z</time>
      </trkpt>
      <trkpt lat="42.89347" lon="0.08048">
        <ele>1524</ele>
        <time>2021-11-27T10:10:23Z</time>
      </trkpt>
      <trkpt lat="42.89344" lon="0.08047">
        <ele>1524</ele>
        <time>2021-11-27T10:10:26Z</time>
      </trkpt>
      <trkpt lat="42.89342" lon="0.08046">
        <ele>1524</ele>
        <time>2021-11-27T10:10:28Z</time>
      </trkpt>
      <trkpt lat="42.8934" lon="0.08045">
        <ele>1524</ele>
        <time>2021-11-27T10:10:31Z</time>
      </trkpt>
      <trkpt lat="42.89338" lon="0.08044">
        <ele>1524</ele>
        <time>2021-11-27T10:10:33Z</time>
      </trkpt>
      <trkpt lat="42.89336" lon="0.08044">
        <ele>1524</ele>
        <time>2021-11-27T10:10:36Z</time>
      </trkpt>
      <trkpt lat="42.89334" lon="0.08043">
        <ele>1524</ele>
        <time>2021-11-27T10:10:38Z</time>
      </trkpt>
      <trkpt lat="42.89332" lon="0.08041">
        <ele>1524</ele>
        <time>2021-11-27T10:10:40Z</time>
      </trkpt>
      <trkpt lat="42.8933" lon="0.08039">
        <ele>1524</ele>
        <time>2021-11-27T10:10:43Z</time>
      </trkpt>
      <trkpt lat="42.89329" lon="0.08038">
        <ele>1524</ele>
        <time>2021-11-27T10:10:46Z</time>
      </trkpt>
      <trkpt lat="42.89327" lon="0.08035">
        <ele>1532.8</ele>
        <time>2021-11-27T10:10:49Z</time>
      </trkpt>
      <trkpt lat="42.89325" lon="0.08034">
        <ele>1532.8</ele>
        <time>2021-11-27T10:10:52Z</time>
      </trkpt>
      <trkpt lat="42.89323" lon="0.08032">
        <ele>1532.8</ele>
        <time>2021-11-27T10:10:55Z</time>
      </trkpt>
      <trkpt lat="42.89321" lon="0.08029">
        <ele>1532.8</ele>
        <time>2021-11-27T10:10:58Z</time>
      </trkpt>
      <trkpt lat="42.8932" lon="0.08027">
        <ele>1532.8</ele>
        <time>2021-11-27T10:11:01Z</time>
      </trkpt>
      <trkpt lat="42.89317" lon="0.08025">
        <ele>1532.8</ele>
        <time>2021-11-27T10:11:04Z</time>
      </trkpt>
      <trkpt lat="42.89316" lon="0.08023">
        <ele>1532.8</ele>
        <time>2021-11-27T10:11:07Z</time>
      </trkpt>
      <trkpt lat="42.89314" lon="0.08021">
        <ele>1532.8</ele>
        <time>2021-11-27T10:11:10Z</time>
      </trkpt>
      <trkpt lat="42.89312" lon="0.08018">
        <ele>1532.8</ele>
        <time>2021-11-27T10:11:13Z</time>
      </trkpt>
      <trkpt lat="42.89311" lon="0.08017">
        <ele>1532.8</ele>
        <time>2021-11-27T10:11:15Z</time>
      </trkpt>
      <trkpt lat="42.89309" lon="0.08015">
        <ele>1532.8</ele>
        <time>2021-11-27T10:11:18Z</time>
      </trkpt>
      <trkpt lat="42.89306" lon="0.0801">
        <ele>1540.2</ele>
        <time>2021-11-27T10:12:09Z</time>
      </trkpt>
      <trkpt lat="42.89303" lon="0.0801">
        <ele>1540.2</ele>
        <time>2021-11-27T10:12:11Z</time>
      </trkpt>
      <trkpt lat="42.89301" lon="0.08011">
        <ele>1540.2</ele>
        <time>2021-11-27T10:12:14Z</time>
      </trkpt>
      <trkpt lat="42.893" lon="0.08012">
        <ele>1540.2</ele>
        <time>2021-11-27T10:12:17Z</time>
      </trkpt>
      <trkpt lat="42.89299" lon="0.08015">
        <ele>1541.4</ele>
        <time>2021-11-27T10:12:19Z</time>
      </trkpt>
      <trkpt lat="42.89298" lon="0.08018">
        <ele>1541.4</ele>
        <time>2021-11-27T10:12:21Z</time>
      </trkpt>
      <trkpt lat="42.89298" lon="0.08021">
        <ele>1541.4</ele>
        <time>2021-11-27T10:12:24Z</time>
      </trkpt>
      <trkpt lat="42.89296" lon="0.08023">
        <ele>1541.4</ele>
        <time>2021-11-27T10:12:26Z</time>
      </trkpt>
      <trkpt lat="42.89296" lon="0.08026">
        <ele>1542.6</ele>
        <time>2021-11-27T10:12:29Z</time>
      </trkpt>
      <trkpt lat="42.89294" lon="0.08029">
        <ele>1542.6</ele>
        <time>2021-11-27T10:12:32Z</time>
      </trkpt>
      <trkpt lat="42.89293" lon="0.08033">
        <ele>1542.6</ele>
        <time>2021-11-27T10:12:35Z</time>
      </trkpt>
      <trkpt lat="42.89291" lon="0.08035">
        <ele>1542.6</ele>
        <time>2021-11-27T10:12:38Z</time>
      </trkpt>
      <trkpt lat="42.8929" lon="0.08038">
        <ele>1542.6</ele>
        <time>2021-11-27T10:12:42Z</time>
      </trkpt>
      <trkpt lat="42.89288" lon="0.0804">
        <ele>1542.6</ele>
        <time>2021-11-27T10:12:44Z</time>
      </trkpt>
      <trkpt lat="42.89287" lon="0.08042">
        <ele>1542.6</ele>
        <time>2021-11-27T10:12:46Z</time>
      </trkpt>
      <trkpt lat="42.89285" lon="0.08043">
        <ele>1542.6</ele>
        <time>2021-11-27T10:12:48Z</time>
      </trkpt>
      <trkpt lat="42.89284" lon="0.08041">
        <ele>1542.6</ele>
        <time>2021-11-27T10:12:51Z</time>
      </trkpt>
      <trkpt lat="42.89282" lon="0.08038">
        <ele>1542.6</ele>
        <time>2021-11-27T10:12:54Z</time>
      </trkpt>
      <trkpt lat="42.89281" lon="0.08035">
        <ele>1542.6</ele>
        <time>2021-11-27T10:12:57Z</time>
      </trkpt>
      <trkpt lat="42.8928" lon="0.08032">
        <ele>1547</ele>
        <time>2021-11-27T10:12:59Z</time>
      </trkpt>
      <trkpt lat="42.8928" lon="0.08029">
        <ele>1547</ele>
        <time>2021-11-27T10:13:02Z</time>
      </trkpt>
      <trkpt lat="42.89278" lon="0.08027">
        <ele>1547</ele>
        <time>2021-11-27T10:13:04Z</time>
      </trkpt>
      <trkpt lat="42.89277" lon="0.08025">
        <ele>1547</ele>
        <time>2021-11-27T10:13:07Z</time>
      </trkpt>
      <trkpt lat="42.89276" lon="0.08022">
        <ele>1547</ele>
        <time>2021-11-27T10:13:10Z</time>
      </trkpt>
      <trkpt lat="42.89274" lon="0.08019">
        <ele>1547</ele>
        <time>2021-11-27T10:13:13Z</time>
      </trkpt>
      <trkpt lat="42.89272" lon="0.08017">
        <ele>1547</ele>
        <time>2021-11-27T10:13:16Z</time>
      </trkpt>
      <trkpt lat="42.89271" lon="0.08014">
        <ele>1547</ele>
        <time>2021-11-27T10:13:20Z</time>
      </trkpt>
      <trkpt lat="42.89269" lon="0.08016">
        <ele>1547</ele>
        <time>2021-11-27T10:13:34Z</time>
      </trkpt>
      <trkpt lat="42.89267" lon="0.08019">
        <ele>1547</ele>
        <time>2021-11-27T10:13:37Z</time>
      </trkpt>
      <trkpt lat="42.89266" lon="0.08022">
        <ele>1547</ele>
        <time>2021-11-27T10:13:40Z</time>
      </trkpt>
      <trkpt lat="42.89265" lon="0.08024">
        <ele>1547</ele>
        <time>2021-11-27T10:13:42Z</time>
      </trkpt>
      <trkpt lat="42.89263" lon="0.08027">
        <ele>1547</ele>
        <time>2021-11-27T10:13:45Z</time>
      </trkpt>
      <trkpt lat="42.89262" lon="0.08029">
        <ele>1547</ele>
        <time>2021-11-27T10:13:48Z</time>
      </trkpt>
      <trkpt lat="42.89261" lon="0.08031">
        <ele>1547</ele>
        <time>2021-11-27T10:13:50Z</time>
      </trkpt>
      <trkpt lat="42.89259" lon="0.08033">
        <ele>1547</ele>
        <time>2021-11-27T10:13:53Z</time>
      </trkpt>
      <trkpt lat="42.89258" lon="0.08035">
        <ele>1547</ele>
        <time>2021-11-27T10:13:56Z</time>
      </trkpt>
      <trkpt lat="42.89256" lon="0.08037">
        <ele>1555.6</ele>
        <time>2021-11-27T10:13:59Z</time>
      </trkpt>
      <trkpt lat="42.89255" lon="0.08039">
        <ele>1555.6</ele>
        <time>2021-11-27T10:14:02Z</time>
      </trkpt>
      <trkpt lat="42.89253" lon="0.08042">
        <ele>1555.6</ele>
        <time>2021-11-27T10:14:05Z</time>
      </trkpt>
      <trkpt lat="42.89251" lon="0.08041">
        <ele>1555.6</ele>
        <time>2021-11-27T10:14:08Z</time>
      </trkpt>
      <trkpt lat="42.8925" lon="0.08039">
        <ele>1555.6</ele>
        <time>2021-11-27T10:14:11Z</time>
      </trkpt>
      <trkpt lat="42.89249" lon="0.08036">
        <ele>1555.6</ele>
        <time>2021-11-27T10:14:14Z</time>
      </trkpt>
      <trkpt lat="42.89249" lon="0.08032">
        <ele>1555.6</ele>
        <time>2021-11-27T10:14:17Z</time>
      </trkpt>
      <trkpt lat="42.89249" lon="0.0803">
        <ele>1555.6</ele>
        <time>2021-11-27T10:14:21Z</time>
      </trkpt>
      <trkpt lat="42.89249" lon="0.08026">
        <ele>1555.6</ele>
        <time>2021-11-27T10:14:51Z</time>
      </trkpt>
      <trkpt lat="42.89249" lon="0.08024">
        <ele>1555.6</ele>
        <time>2021-11-27T10:14:52Z</time>
      </trkpt>
      <trkpt lat="42.8925" lon="0.0802">
        <ele>1555.6</ele>
        <time>2021-11-27T10:14:54Z</time>
      </trkpt>
      <trkpt lat="42.8925" lon="0.08016">
        <ele>1555.6</ele>
        <time>2021-11-27T10:14:56Z</time>
      </trkpt>
      <trkpt lat="42.89251" lon="0.08012">
        <ele>1555.6</ele>
        <time>2021-11-27T10:14:58Z</time>
      </trkpt>
      <trkpt lat="42.89251" lon="0.0801">
        <ele>1555.6</ele>
        <time>2021-11-27T10:15:00Z</time>
      </trkpt>
      <trkpt lat="42.89252" lon="0.08006">
        <ele>1555.6</ele>
        <time>2021-11-27T10:15:03Z</time>
      </trkpt>
      <trkpt lat="42.89252" lon="0.08003">
        <ele>1555.6</ele>
        <time>2021-11-27T10:15:06Z</time>
      </trkpt>
      <trkpt lat="42.89253" lon="0.08">
        <ele>1555.6</ele>
        <time>2021-11-27T10:15:08Z</time>
      </trkpt>
      <trkpt lat="42.89253" lon="0.07997">
        <ele>1555.6</ele>
        <time>2021-11-27T10:15:11Z</time>
      </trkpt>
      <trkpt lat="42.89254" lon="0.07995">
        <ele>1555.6</ele>
        <time>2021-11-27T10:15:13Z</time>
      </trkpt>
      <trkpt lat="42.89255" lon="0.07992">
        <ele>1555.6</ele>
        <time>2021-11-27T10:15:16Z</time>
      </trkpt>
      <trkpt lat="42.89256" lon="0.07989">
        <ele>1561</ele>
        <time>2021-11-27T10:15:19Z</time>
      </trkpt>
      <trkpt lat="42.89256" lon="0.07986">
        <ele>1561</ele>
        <time>2021-11-27T10:15:22Z</time>
      </trkpt>
      <trkpt lat="42.89256" lon="0.07984">
        <ele>1561</ele>
        <time>2021-11-27T10:15:30Z</time>
      </trkpt>
      <trkpt lat="42.89257" lon="0.0798">
        <ele>1561</ele>
        <time>2021-11-27T10:17:43Z</time>
      </trkpt>
      <trkpt lat="42.89257" lon="0.07976">
        <ele>1561</ele>
        <time>2021-11-27T10:21:01Z</time>
      </trkpt>
      <trkpt lat="42.89259" lon="0.07972">
        <ele>1561</ele>
        <time>2021-11-27T10:21:03Z</time>
      </trkpt>
      <trkpt lat="42.89259" lon="0.07968">
        <ele>1561</ele>
        <time>2021-11-27T10:21:05Z</time>
      </trkpt>
      <trkpt lat="42.8926" lon="0.07965">
        <ele>1561</ele>
        <time>2021-11-27T10:21:07Z</time>
      </trkpt>
      <trkpt lat="42.89262" lon="0.07963">
        <ele>1565.2</ele>
        <time>2021-11-27T10:21:09Z</time>
      </trkpt>
      <trkpt lat="42.89263" lon="0.07961">
        <ele>1565.2</ele>
        <time>2021-11-27T10:21:11Z</time>
      </trkpt>
      <trkpt lat="42.89264" lon="0.07958">
        <ele>1565.2</ele>
        <time>2021-11-27T10:21:13Z</time>
      </trkpt>
      <trkpt lat="42.89264" lon="0.07954">
        <ele>1565.2</ele>
        <time>2021-11-27T10:21:15Z</time>
      </trkpt>
      <trkpt lat="42.89265" lon="0.07952">
        <ele>1565.2</ele>
        <time>2021-11-27T10:21:17Z</time>
      </trkpt>
      <trkpt lat="42.89266" lon="0.07948">
        <ele>1565.2</ele>
        <time>2021-11-27T10:21:19Z</time>
      </trkpt>
      <trkpt lat="42.89267" lon="0.07945">
        <ele>1565.2</ele>
        <time>2021-11-27T10:21:21Z</time>
      </trkpt>
      <trkpt lat="42.89268" lon="0.07943">
        <ele>1565.2</ele>
        <time>2021-11-27T10:21:23Z</time>
      </trkpt>
      <trkpt lat="42.89268" lon="0.0794">
        <ele>1565.2</ele>
        <time>2021-11-27T10:21:25Z</time>
      </trkpt>
      <trkpt lat="42.89268" lon="0.07938">
        <ele>1565.2</ele>
        <time>2021-11-27T10:21:27Z</time>
      </trkpt>
      <trkpt lat="42.89269" lon="0.07934">
        <ele>1565.6</ele>
        <time>2021-11-27T10:21:29Z</time>
      </trkpt>
      <trkpt lat="42.8927" lon="0.07932">
        <ele>1565.6</ele>
        <time>2021-11-27T10:21:31Z</time>
      </trkpt>
      <trkpt lat="42.8927" lon="0.07929">
        <ele>1565.6</ele>
        <time>2021-11-27T10:21:33Z</time>
      </trkpt>
      <trkpt lat="42.89271" lon="0.07926">
        <ele>1565.6</ele>
        <time>2021-11-27T10:21:35Z</time>
      </trkpt>
      <trkpt lat="42.89271" lon="0.07923">
        <ele>1565.6</ele>
        <time>2021-11-27T10:21:37Z</time>
      </trkpt>
      <trkpt lat="42.89272" lon="0.0792">
        <ele>1566.4</ele>
        <time>2021-11-27T10:21:39Z</time>
      </trkpt>
      <trkpt lat="42.89274" lon="0.07918">
        <ele>1566.4</ele>
        <time>2021-11-27T10:21:41Z</time>
      </trkpt>
      <trkpt lat="42.89274" lon="0.07915">
        <ele>1566.4</ele>
        <time>2021-11-27T10:21:43Z</time>
      </trkpt>
      <trkpt lat="42.89274" lon="0.07912">
        <ele>1566.4</ele>
        <time>2021-11-27T10:21:46Z</time>
      </trkpt>
      <trkpt lat="42.89274" lon="0.07908">
        <ele>1566.4</ele>
        <time>2021-11-27T10:21:48Z</time>
      </trkpt>
      <trkpt lat="42.89274" lon="0.07904">
        <ele>1566.4</ele>
        <time>2021-11-27T10:21:50Z</time>
      </trkpt>
      <trkpt lat="42.89274" lon="0.07901">
        <ele>1566.4</ele>
        <time>2021-11-27T10:21:53Z</time>
      </trkpt>
      <trkpt lat="42.89274" lon="0.07898">
        <ele>1566.4</ele>
        <time>2021-11-27T10:21:55Z</time>
      </trkpt>
      <trkpt lat="42.89274" lon="0.07895">
        <ele>1566.4</ele>
        <time>2021-11-27T10:21:57Z</time>
      </trkpt>
      <trkpt lat="42.89274" lon="0.07891">
        <ele>1567.6</ele>
        <time>2021-11-27T10:21:59Z</time>
      </trkpt>
      <trkpt lat="42.89274" lon="0.07889">
        <ele>1567.6</ele>
        <time>2021-11-27T10:22:01Z</time>
      </trkpt>
      <trkpt lat="42.89275" lon="0.07886">
        <ele>1567.6</ele>
        <time>2021-11-27T10:22:03Z</time>
      </trkpt>
      <trkpt lat="42.89276" lon="0.07883">
        <ele>1567.6</ele>
        <time>2021-11-27T10:22:05Z</time>
      </trkpt>
      <trkpt lat="42.89276" lon="0.0788">
        <ele>1567.6</ele>
        <time>2021-11-27T10:22:07Z</time>
      </trkpt>
      <trkpt lat="42.89276" lon="0.07877">
        <ele>1567.8</ele>
        <time>2021-11-27T10:22:09Z</time>
      </trkpt>
      <trkpt lat="42.89276" lon="0.07873">
        <ele>1567.8</ele>
        <time>2021-11-27T10:22:12Z</time>
      </trkpt>
      <trkpt lat="42.89275" lon="0.07871">
        <ele>1567.8</ele>
        <time>2021-11-27T10:22:14Z</time>
      </trkpt>
      <trkpt lat="42.89274" lon="0.07867">
        <ele>1567.8</ele>
        <time>2021-11-27T10:22:17Z</time>
      </trkpt>
      <trkpt lat="42.89274" lon="0.07864">
        <ele>1567.8</ele>
        <time>2021-11-27T10:22:20Z</time>
      </trkpt>
      <trkpt lat="42.89273" lon="0.07861">
        <ele>1567.8</ele>
        <time>2021-11-27T10:22:22Z</time>
      </trkpt>
      <trkpt lat="42.89272" lon="0.07858">
        <ele>1567.8</ele>
        <time>2021-11-27T10:22:25Z</time>
      </trkpt>
      <trkpt lat="42.89272" lon="0.07855">
        <ele>1567.8</ele>
        <time>2021-11-27T10:22:27Z</time>
      </trkpt>
      <trkpt lat="42.89271" lon="0.07853">
        <ele>1568.4</ele>
        <time>2021-11-27T10:22:29Z</time>
      </trkpt>
      <trkpt lat="42.89271" lon="0.0785">
        <ele>1568.4</ele>
        <time>2021-11-27T10:22:31Z</time>
      </trkpt>
      <trkpt lat="42.8927" lon="0.07847">
        <ele>1568.4</ele>
        <time>2021-11-27T10:22:34Z</time>
      </trkpt>
      <trkpt lat="42.8927" lon="0.07845">
        <ele>1568.4</ele>
        <time>2021-11-27T10:22:36Z</time>
      </trkpt>
      <trkpt lat="42.8927" lon="0.07842">
        <ele>1568.4</ele>
        <time>2021-11-27T10:22:38Z</time>
      </trkpt>
      <trkpt lat="42.8927" lon="0.07839">
        <ele>1568.4</ele>
        <time>2021-11-27T10:22:41Z</time>
      </trkpt>
      <trkpt lat="42.8927" lon="0.07837">
        <ele>1568.4</ele>
        <time>2021-11-27T10:22:43Z</time>
      </trkpt>
      <trkpt lat="42.8927" lon="0.07833">
        <ele>1568.4</ele>
        <time>2021-11-27T10:22:51Z</time>
      </trkpt>
      <trkpt lat="42.8927" lon="0.0783">
        <ele>1568.4</ele>
        <time>2021-11-27T10:22:54Z</time>
      </trkpt>
      <trkpt lat="42.8927" lon="0.07827">
        <ele>1568.4</ele>
        <time>2021-11-27T10:22:56Z</time>
      </trkpt>
      <trkpt lat="42.8927" lon="0.07824">
        <ele>1568.4</ele>
        <time>2021-11-27T10:22:58Z</time>
      </trkpt>
      <trkpt lat="42.89269" lon="0.07822">
        <ele>1568.4</ele>
        <time>2021-11-27T10:23:00Z</time>
      </trkpt>
      <trkpt lat="42.89269" lon="0.07819">
        <ele>1568.4</ele>
        <time>2021-11-27T10:23:02Z</time>
      </trkpt>
      <trkpt lat="42.89268" lon="0.07816">
        <ele>1568.4</ele>
        <time>2021-11-27T10:23:04Z</time>
      </trkpt>
      <trkpt lat="42.89268" lon="0.07813">
        <ele>1568.4</ele>
        <time>2021-11-27T10:23:06Z</time>
      </trkpt>
      <trkpt lat="42.89268" lon="0.07809">
        <ele>1568.4</ele>
        <time>2021-11-27T10:23:08Z</time>
      </trkpt>
      <trkpt lat="42.89268" lon="0.07806">
        <ele>1568.4</ele>
        <time>2021-11-27T10:23:10Z</time>
      </trkpt>
      <trkpt lat="42.89269" lon="0.07804">
        <ele>1568.4</ele>
        <time>2021-11-27T10:23:12Z</time>
      </trkpt>
      <trkpt lat="42.89269" lon="0.07801">
        <ele>1568.4</ele>
        <time>2021-11-27T10:23:14Z</time>
      </trkpt>
      <trkpt lat="42.89269" lon="0.07797">
        <ele>1568.4</ele>
        <time>2021-11-27T10:23:16Z</time>
      </trkpt>
      <trkpt lat="42.89269" lon="0.07794">
        <ele>1568.4</ele>
        <time>2021-11-27T10:23:18Z</time>
      </trkpt>
      <trkpt lat="42.8927" lon="0.07791">
        <ele>1568.4</ele>
        <time>2021-11-27T10:23:20Z</time>
      </trkpt>
      <trkpt lat="42.8927" lon="0.07788">
        <ele>1568.4</ele>
        <time>2021-11-27T10:23:22Z</time>
      </trkpt>
      <trkpt lat="42.8927" lon="0.07785">
        <ele>1568.4</ele>
        <time>2021-11-27T10:23:24Z</time>
      </trkpt>
      <trkpt lat="42.8927" lon="0.07782">
        <ele>1568.4</ele>
        <time>2021-11-27T10:23:26Z</time>
      </trkpt>
      <trkpt lat="42.8927" lon="0.07779">
        <ele>1568.4</ele>
        <time>2021-11-27T10:23:28Z</time>
      </trkpt>
      <trkpt lat="42.89269" lon="0.07776">
        <ele>1568.4</ele>
        <time>2021-11-27T10:23:30Z</time>
      </trkpt>
      <trkpt lat="42.89269" lon="0.07774">
        <ele>1568.4</ele>
        <time>2021-11-27T10:23:32Z</time>
      </trkpt>
      <trkpt lat="42.89268" lon="0.0777">
        <ele>1568.4</ele>
        <time>2021-11-27T10:23:34Z</time>
      </trkpt>
      <trkpt lat="42.89268" lon="0.07766">
        <ele>1568.4</ele>
        <time>2021-11-27T10:23:37Z</time>
      </trkpt>
      <trkpt lat="42.89268" lon="0.07763">
        <ele>1573.6</ele>
        <time>2021-11-27T10:23:39Z</time>
      </trkpt>
      <trkpt lat="42.89268" lon="0.07761">
        <ele>1573.6</ele>
        <time>2021-11-27T10:23:42Z</time>
      </trkpt>
      <trkpt lat="42.89267" lon="0.07758">
        <ele>1573.6</ele>
        <time>2021-11-27T10:23:45Z</time>
      </trkpt>
      <trkpt lat="42.89267" lon="0.07755">
        <ele>1573.6</ele>
        <time>2021-11-27T10:23:48Z</time>
      </trkpt>
      <trkpt lat="42.89264" lon="0.07753">
        <ele>1573.6</ele>
        <time>2021-11-27T10:24:54Z</time>
      </trkpt>
      <trkpt lat="42.89264" lon="0.07757">
        <ele>1573.6</ele>
        <time>2021-11-27T10:24:56Z</time>
      </trkpt>
      <trkpt lat="42.89264" lon="0.0776">
        <ele>1573.6</ele>
        <time>2021-11-27T10:24:58Z</time>
      </trkpt>
      <trkpt lat="42.89264" lon="0.07763">
        <ele>1573.6</ele>
        <time>2021-11-27T10:25:00Z</time>
      </trkpt>
      <trkpt lat="42.89263" lon="0.07766">
        <ele>1573.6</ele>
        <time>2021-11-27T10:25:02Z</time>
      </trkpt>
      <trkpt lat="42.89262" lon="0.07769">
        <ele>1573.6</ele>
        <time>2021-11-27T10:25:05Z</time>
      </trkpt>
      <trkpt lat="42.8926" lon="0.07771">
        <ele>1573.6</ele>
        <time>2021-11-27T10:25:08Z</time>
      </trkpt>
      <trkpt lat="42.89259" lon="0.07773">
        <ele>1573.6</ele>
        <time>2021-11-27T10:25:11Z</time>
      </trkpt>
      <trkpt lat="42.89257" lon="0.07775">
        <ele>1573.6</ele>
        <time>2021-11-27T10:25:15Z</time>
      </trkpt>
      <trkpt lat="42.89256" lon="0.07777">
        <ele>1573.6</ele>
        <time>2021-11-27T10:25:18Z</time>
      </trkpt>
      <trkpt lat="42.89254" lon="0.0778">
        <ele>1573.6</ele>
        <time>2021-11-27T10:25:23Z</time>
      </trkpt>
      <trkpt lat="42.89253" lon="0.07781">
        <ele>1573.6</ele>
        <time>2021-11-27T10:25:26Z</time>
      </trkpt>
      <trkpt lat="42.89252" lon="0.07784">
        <ele>1573.6</ele>
        <time>2021-11-27T10:25:30Z</time>
      </trkpt>
      <trkpt lat="42.8925" lon="0.07785">
        <ele>1573.6</ele>
        <time>2021-11-27T10:25:33Z</time>
      </trkpt>
      <trkpt lat="42.89248" lon="0.07786">
        <ele>1573.6</ele>
        <time>2021-11-27T10:25:36Z</time>
      </trkpt>
      <trkpt lat="42.89246" lon="0.07785">
        <ele>1573.6</ele>
        <time>2021-11-27T10:25:38Z</time>
      </trkpt>
      <trkpt lat="42.89244" lon="0.07786">
        <ele>1583.6</ele>
        <time>2021-11-27T10:25:39Z</time>
      </trkpt>
      <trkpt lat="42.89243" lon="0.07785">
        <ele>1583.6</ele>
        <time>2021-11-27T10:25:41Z</time>
      </trkpt>
      <trkpt lat="42.89241" lon="0.07782">
        <ele>1583.6</ele>
        <time>2021-11-27T10:25:44Z</time>
      </trkpt>
      <trkpt lat="42.89239" lon="0.0778">
        <ele>1583.6</ele>
        <time>2021-11-27T10:25:47Z</time>
      </trkpt>
      <trkpt lat="42.89238" lon="0.07777">
        <ele>1583.6</ele>
        <time>2021-11-27T10:25:50Z</time>
      </trkpt>
      <trkpt lat="42.89237" lon="0.07775">
        <ele>1583.6</ele>
        <time>2021-11-27T10:25:53Z</time>
      </trkpt>
      <trkpt lat="42.89236" lon="0.07772">
        <ele>1583.6</ele>
        <time>2021-11-27T10:25:57Z</time>
      </trkpt>
      <trkpt lat="42.89235" lon="0.0777">
        <ele>1583.6</ele>
        <time>2021-11-27T10:26:18Z</time>
      </trkpt>
      <trkpt lat="42.89233" lon="0.07768">
        <ele>1583.6</ele>
        <time>2021-11-27T10:26:20Z</time>
      </trkpt>
      <trkpt lat="42.89231" lon="0.07766">
        <ele>1583.6</ele>
        <time>2021-11-27T10:26:22Z</time>
      </trkpt>
      <trkpt lat="42.8923" lon="0.07763">
        <ele>1583.6</ele>
        <time>2021-11-27T10:26:25Z</time>
      </trkpt>
      <trkpt lat="42.89228" lon="0.07761">
        <ele>1583.6</ele>
        <time>2021-11-27T10:26:27Z</time>
      </trkpt>
      <trkpt lat="42.89227" lon="0.07762">
        <ele>1587.6</ele>
        <time>2021-11-27T10:26:29Z</time>
      </trkpt>
      <trkpt lat="42.89225" lon="0.07764">
        <ele>1587.6</ele>
        <time>2021-11-27T10:26:33Z</time>
      </trkpt>
      <trkpt lat="42.89225" lon="0.07767">
        <ele>1587.6</ele>
        <time>2021-11-27T10:26:38Z</time>
      </trkpt>
      <trkpt lat="42.89225" lon="0.0777">
        <ele>1587.6</ele>
        <time>2021-11-27T10:26:42Z</time>
      </trkpt>
      <trkpt lat="42.89225" lon="0.07773">
        <ele>1587.6</ele>
        <time>2021-11-27T10:26:45Z</time>
      </trkpt>
      <trkpt lat="42.89225" lon="0.07776">
        <ele>1587.6</ele>
        <time>2021-11-27T10:26:48Z</time>
      </trkpt>
      <trkpt lat="42.89225" lon="0.07779">
        <ele>1587.6</ele>
        <time>2021-11-27T10:26:51Z</time>
      </trkpt>
      <trkpt lat="42.89224" lon="0.07782">
        <ele>1587.6</ele>
        <time>2021-11-27T10:27:13Z</time>
      </trkpt>
      <trkpt lat="42.89223" lon="0.07785">
        <ele>1587.6</ele>
        <time>2021-11-27T10:27:15Z</time>
      </trkpt>
      <trkpt lat="42.89221" lon="0.07788">
        <ele>1587.6</ele>
        <time>2021-11-27T10:27:17Z</time>
      </trkpt>
      <trkpt lat="42.8922" lon="0.07791">
        <ele>1587.6</ele>
        <time>2021-11-27T10:27:20Z</time>
      </trkpt>
      <trkpt lat="42.89219" lon="0.07795">
        <ele>1595</ele>
        <time>2021-11-27T10:28:19Z</time>
      </trkpt>
      <trkpt lat="42.89216" lon="0.07801">
        <ele>1595</ele>
        <time>2021-11-27T10:28:42Z</time>
      </trkpt>
      <trkpt lat="42.89215" lon="0.07804">
        <ele>1595</ele>
        <time>2021-11-27T10:28:44Z</time>
      </trkpt>
      <trkpt lat="42.89215" lon="0.07808">
        <ele>1595</ele>
        <time>2021-11-27T10:28:46Z</time>
      </trkpt>
      <trkpt lat="42.89214" lon="0.07812">
        <ele>1595</ele>
        <time>2021-11-27T10:28:48Z</time>
      </trkpt>
      <trkpt lat="42.89213" lon="0.07816">
        <ele>1595</ele>
        <time>2021-11-27T10:28:50Z</time>
      </trkpt>
      <trkpt lat="42.89212" lon="0.07819">
        <ele>1595</ele>
        <time>2021-11-27T10:28:52Z</time>
      </trkpt>
      <trkpt lat="42.89211" lon="0.07822">
        <ele>1595</ele>
        <time>2021-11-27T10:28:56Z</time>
      </trkpt>
      <trkpt lat="42.89209" lon="0.07824">
        <ele>1597.6</ele>
        <time>2021-11-27T10:28:59Z</time>
      </trkpt>
      <trkpt lat="42.89207" lon="0.07824">
        <ele>1597.6</ele>
        <time>2021-11-27T10:29:03Z</time>
      </trkpt>
      <trkpt lat="42.89205" lon="0.07823">
        <ele>1597.6</ele>
        <time>2021-11-27T10:29:07Z</time>
      </trkpt>
      <trkpt lat="42.89204" lon="0.07822">
        <ele>1597.6</ele>
        <time>2021-11-27T10:29:14Z</time>
      </trkpt>
      <trkpt lat="42.89202" lon="0.07823">
        <ele>1597.6</ele>
        <time>2021-11-27T10:29:20Z</time>
      </trkpt>
      <trkpt lat="42.892" lon="0.07825">
        <ele>1597.6</ele>
        <time>2021-11-27T10:29:26Z</time>
      </trkpt>
      <trkpt lat="42.89199" lon="0.07827">
        <ele>1597.6</ele>
        <time>2021-11-27T10:29:30Z</time>
      </trkpt>
      <trkpt lat="42.89197" lon="0.0783">
        <ele>1597.6</ele>
        <time>2021-11-27T10:29:35Z</time>
      </trkpt>
      <trkpt lat="42.89196" lon="0.07832">
        <ele>1597.6</ele>
        <time>2021-11-27T10:29:41Z</time>
      </trkpt>
      <trkpt lat="42.89196" lon="0.07836">
        <ele>1597.6</ele>
        <time>2021-11-27T10:29:44Z</time>
      </trkpt>
      <trkpt lat="42.89195" lon="0.07839">
        <ele>1597.6</ele>
        <time>2021-11-27T10:29:47Z</time>
      </trkpt>
      <trkpt lat="42.89195" lon="0.07841">
        <ele>1597.6</ele>
        <time>2021-11-27T10:29:50Z</time>
      </trkpt>
      <trkpt lat="42.89195" lon="0.07844">
        <ele>1597.6</ele>
        <time>2021-11-27T10:29:53Z</time>
      </trkpt>
      <trkpt lat="42.89194" lon="0.07847">
        <ele>1597.6</ele>
        <time>2021-11-27T10:29:56Z</time>
      </trkpt>
      <trkpt lat="42.89193" lon="0.0785">
        <ele>1606.6</ele>
        <time>2021-11-27T10:29:59Z</time>
      </trkpt>
      <trkpt lat="42.89194" lon="0.07853">
        <ele>1606.6</ele>
        <time>2021-11-27T10:30:02Z</time>
      </trkpt>
      <trkpt lat="42.89194" lon="0.07857">
        <ele>1606.6</ele>
        <time>2021-11-27T10:30:05Z</time>
      </trkpt>
      <trkpt lat="42.89194" lon="0.07859">
        <ele>1606.6</ele>
        <time>2021-11-27T10:30:07Z</time>
      </trkpt>
      <trkpt lat="42.89193" lon="0.07862">
        <ele>1606.6</ele>
        <time>2021-11-27T10:30:10Z</time>
      </trkpt>
      <trkpt lat="42.89191" lon="0.07865">
        <ele>1606.6</ele>
        <time>2021-11-27T10:30:13Z</time>
      </trkpt>
      <trkpt lat="42.89191" lon="0.07868">
        <ele>1606.6</ele>
        <time>2021-11-27T10:30:17Z</time>
      </trkpt>
      <trkpt lat="42.8919" lon="0.07871">
        <ele>1606.6</ele>
        <time>2021-11-27T10:30:22Z</time>
      </trkpt>
      <trkpt lat="42.8919" lon="0.07874">
        <ele>1606.6</ele>
        <time>2021-11-27T10:30:26Z</time>
      </trkpt>
      <trkpt lat="42.89188" lon="0.07877">
        <ele>1608.4</ele>
        <time>2021-11-27T10:30:29Z</time>
      </trkpt>
      <trkpt lat="42.89188" lon="0.07879">
        <ele>1608.4</ele>
        <time>2021-11-27T10:30:33Z</time>
      </trkpt>
      <trkpt lat="42.89187" lon="0.07882">
        <ele>1608.4</ele>
        <time>2021-11-27T10:30:36Z</time>
      </trkpt>
      <trkpt lat="42.89186" lon="0.07883">
        <ele>1609.6</ele>
        <time>2021-11-27T10:30:39Z</time>
      </trkpt>
      <trkpt lat="42.89184" lon="0.07886">
        <ele>1609.6</ele>
        <time>2021-11-27T10:30:44Z</time>
      </trkpt>
      <trkpt lat="42.89183" lon="0.07888">
        <ele>1609.6</ele>
        <time>2021-11-27T10:30:48Z</time>
      </trkpt>
      <trkpt lat="42.89181" lon="0.0789">
        <ele>1609.6</ele>
        <time>2021-11-27T10:30:51Z</time>
      </trkpt>
      <trkpt lat="42.8918" lon="0.07892">
        <ele>1609.6</ele>
        <time>2021-11-27T10:30:54Z</time>
      </trkpt>
      <trkpt lat="42.89178" lon="0.07893">
        <ele>1609.6</ele>
        <time>2021-11-27T10:30:57Z</time>
      </trkpt>
      <trkpt lat="42.89177" lon="0.07896">
        <ele>1609.6</ele>
        <time>2021-11-27T10:31:02Z</time>
      </trkpt>
      <trkpt lat="42.89176" lon="0.07898">
        <ele>1609.6</ele>
        <time>2021-11-27T10:31:05Z</time>
      </trkpt>
      <trkpt lat="42.89174" lon="0.079">
        <ele>1613.4</ele>
        <time>2021-11-27T10:31:09Z</time>
      </trkpt>
      <trkpt lat="42.89172" lon="0.07902">
        <ele>1613.4</ele>
        <time>2021-11-27T10:31:12Z</time>
      </trkpt>
      <trkpt lat="42.89171" lon="0.07903">
        <ele>1613.4</ele>
        <time>2021-11-27T10:31:15Z</time>
      </trkpt>
      <trkpt lat="42.89169" lon="0.07904">
        <ele>1613.4</ele>
        <time>2021-11-27T10:31:18Z</time>
      </trkpt>
      <trkpt lat="42.89169" lon="0.07906">
        <ele>1613.4</ele>
        <time>2021-11-27T10:31:23Z</time>
      </trkpt>
      <trkpt lat="42.89164" lon="0.07909">
        <ele>1618.2</ele>
        <time>2021-11-27T10:32:59Z</time>
      </trkpt>
      <trkpt lat="42.89162" lon="0.07912">
        <ele>1618.2</ele>
        <time>2021-11-27T10:33:01Z</time>
      </trkpt>
      <trkpt lat="42.89161" lon="0.07916">
        <ele>1618.2</ele>
        <time>2021-11-27T10:33:03Z</time>
      </trkpt>
      <trkpt lat="42.8916" lon="0.07919">
        <ele>1618.2</ele>
        <time>2021-11-27T10:33:05Z</time>
      </trkpt>
      <trkpt lat="42.89158" lon="0.07922">
        <ele>1618.2</ele>
        <time>2021-11-27T10:33:07Z</time>
      </trkpt>
      <trkpt lat="42.89156" lon="0.07925">
        <ele>1618.2</ele>
        <time>2021-11-27T10:33:10Z</time>
      </trkpt>
      <trkpt lat="42.89155" lon="0.07926">
        <ele>1618.2</ele>
        <time>2021-11-27T10:33:14Z</time>
      </trkpt>
      <trkpt lat="42.89154" lon="0.07929">
        <ele>1618.2</ele>
        <time>2021-11-27T10:33:27Z</time>
      </trkpt>
      <trkpt lat="42.89154" lon="0.07931">
        <ele>1618.2</ele>
        <time>2021-11-27T10:33:30Z</time>
      </trkpt>
      <trkpt lat="42.89153" lon="0.07934">
        <ele>1618.2</ele>
        <time>2021-11-27T10:33:32Z</time>
      </trkpt>
      <trkpt lat="42.89152" lon="0.07936">
        <ele>1618.2</ele>
        <time>2021-11-27T10:33:34Z</time>
      </trkpt>
      <trkpt lat="42.89151" lon="0.07939">
        <ele>1618.2</ele>
        <time>2021-11-27T10:33:37Z</time>
      </trkpt>
      <trkpt lat="42.8915" lon="0.07941">
        <ele>1618.2</ele>
        <time>2021-11-27T10:33:40Z</time>
      </trkpt>
      <trkpt lat="42.89148" lon="0.07943">
        <ele>1618.2</ele>
        <time>2021-11-27T10:33:42Z</time>
      </trkpt>
      <trkpt lat="42.89147" lon="0.07945">
        <ele>1618.2</ele>
        <time>2021-11-27T10:33:44Z</time>
      </trkpt>
      <trkpt lat="42.89147" lon="0.07948">
        <ele>1618.2</ele>
        <time>2021-11-27T10:33:47Z</time>
      </trkpt>
      <trkpt lat="42.89145" lon="0.07951">
        <ele>1618.2</ele>
        <time>2021-11-27T10:33:51Z</time>
      </trkpt>
      <trkpt lat="42.89144" lon="0.07952">
        <ele>1618.2</ele>
        <time>2021-11-27T10:33:53Z</time>
      </trkpt>
      <trkpt lat="42.89142" lon="0.07955">
        <ele>1618.2</ele>
        <time>2021-11-27T10:33:57Z</time>
      </trkpt>
      <trkpt lat="42.89141" lon="0.07957">
        <ele>1618.2</ele>
        <time>2021-11-27T10:34:00Z</time>
      </trkpt>
      <trkpt lat="42.8914" lon="0.07959">
        <ele>1618.2</ele>
        <time>2021-11-27T10:34:03Z</time>
      </trkpt>
      <trkpt lat="42.89138" lon="0.07961">
        <ele>1618.2</ele>
        <time>2021-11-27T10:34:06Z</time>
      </trkpt>
      <trkpt lat="42.89136" lon="0.07963">
        <ele>1623.4</ele>
        <time>2021-11-27T10:34:09Z</time>
      </trkpt>
      <trkpt lat="42.89135" lon="0.07965">
        <ele>1623.4</ele>
        <time>2021-11-27T10:34:12Z</time>
      </trkpt>
      <trkpt lat="42.89134" lon="0.07968">
        <ele>1623.4</ele>
        <time>2021-11-27T10:34:15Z</time>
      </trkpt>
      <trkpt lat="42.89132" lon="0.07969">
        <ele>1623.4</ele>
        <time>2021-11-27T10:34:18Z</time>
      </trkpt>
      <trkpt lat="42.89131" lon="0.07972">
        <ele>1623.4</ele>
        <time>2021-11-27T10:34:22Z</time>
      </trkpt>
      <trkpt lat="42.8913" lon="0.07974">
        <ele>1623.4</ele>
        <time>2021-11-27T10:34:25Z</time>
      </trkpt>
      <trkpt lat="42.89128" lon="0.07976">
        <ele>1623.4</ele>
        <time>2021-11-27T10:34:28Z</time>
      </trkpt>
      <trkpt lat="42.89126" lon="0.07979">
        <ele>1623.4</ele>
        <time>2021-11-27T10:34:31Z</time>
      </trkpt>
      <trkpt lat="42.89125" lon="0.07981">
        <ele>1623.4</ele>
        <time>2021-11-27T10:34:34Z</time>
      </trkpt>
      <trkpt lat="42.89123" lon="0.07982">
        <ele>1623.4</ele>
        <time>2021-11-27T10:34:38Z</time>
      </trkpt>
      <trkpt lat="42.89121" lon="0.07982">
        <ele>1623.4</ele>
        <time>2021-11-27T10:34:42Z</time>
      </trkpt>
      <trkpt lat="42.8912" lon="0.07979">
        <ele>1623.4</ele>
        <time>2021-11-27T10:34:47Z</time>
      </trkpt>
      <trkpt lat="42.89118" lon="0.07978">
        <ele>1623.4</ele>
        <time>2021-11-27T10:34:51Z</time>
      </trkpt>
      <trkpt lat="42.89117" lon="0.07975">
        <ele>1623.4</ele>
        <time>2021-11-27T10:34:55Z</time>
      </trkpt>
      <trkpt lat="42.89116" lon="0.07973">
        <ele>1631</ele>
        <time>2021-11-27T10:34:59Z</time>
      </trkpt>
      <trkpt lat="42.89114" lon="0.07975">
        <ele>1632</ele>
        <time>2021-11-27T10:35:09Z</time>
      </trkpt>
      <trkpt lat="42.89113" lon="0.07977">
        <ele>1632</ele>
        <time>2021-11-27T10:35:12Z</time>
      </trkpt>
      <trkpt lat="42.89111" lon="0.07978">
        <ele>1632</ele>
        <time>2021-11-27T10:35:15Z</time>
      </trkpt>
      <trkpt lat="42.8911" lon="0.0798">
        <ele>1632</ele>
        <time>2021-11-27T10:35:18Z</time>
      </trkpt>
      <trkpt lat="42.89108" lon="0.07981">
        <ele>1632</ele>
        <time>2021-11-27T10:35:21Z</time>
      </trkpt>
      <trkpt lat="42.89107" lon="0.07983">
        <ele>1632</ele>
        <time>2021-11-27T10:35:26Z</time>
      </trkpt>
      <trkpt lat="42.89105" lon="0.07985">
        <ele>1635.2</ele>
        <time>2021-11-27T10:35:29Z</time>
      </trkpt>
      <trkpt lat="42.89103" lon="0.07988">
        <ele>1635.2</ele>
        <time>2021-11-27T10:35:33Z</time>
      </trkpt>
      <trkpt lat="42.89101" lon="0.07989">
        <ele>1635.2</ele>
        <time>2021-11-27T10:35:36Z</time>
      </trkpt>
      <trkpt lat="42.891" lon="0.0799">
        <ele>1635.2</ele>
        <time>2021-11-27T10:35:38Z</time>
      </trkpt>
      <trkpt lat="42.89098" lon="0.07992">
        <ele>1635.2</ele>
        <time>2021-11-27T10:35:42Z</time>
      </trkpt>
      <trkpt lat="42.89096" lon="0.07994">
        <ele>1635.2</ele>
        <time>2021-11-27T10:35:46Z</time>
      </trkpt>
      <trkpt lat="42.89094" lon="0.07995">
        <ele>1638.2</ele>
        <time>2021-11-27T10:35:49Z</time>
      </trkpt>
      <trkpt lat="42.89092" lon="0.07993">
        <ele>1638.2</ele>
        <time>2021-11-27T10:35:53Z</time>
      </trkpt>
      <trkpt lat="42.89091" lon="0.07991">
        <ele>1638.2</ele>
        <time>2021-11-27T10:35:56Z</time>
      </trkpt>
      <trkpt lat="42.8909" lon="0.07988">
        <ele>1640.6</ele>
        <time>2021-11-27T10:35:59Z</time>
      </trkpt>
      <trkpt lat="42.8909" lon="0.07986">
        <ele>1640.6</ele>
        <time>2021-11-27T10:36:02Z</time>
      </trkpt>
      <trkpt lat="42.89089" lon="0.07983">
        <ele>1640.6</ele>
        <time>2021-11-27T10:36:05Z</time>
      </trkpt>
      <trkpt lat="42.89088" lon="0.07981">
        <ele>1640.6</ele>
        <time>2021-11-27T10:36:08Z</time>
      </trkpt>
      <trkpt lat="42.89087" lon="0.07978">
        <ele>1640.6</ele>
        <time>2021-11-27T10:36:11Z</time>
      </trkpt>
      <trkpt lat="42.89085" lon="0.07978">
        <ele>1643.6</ele>
        <time>2021-11-27T10:36:19Z</time>
      </trkpt>
      <trkpt lat="42.89084" lon="0.07979">
        <ele>1643.6</ele>
        <time>2021-11-27T10:36:24Z</time>
      </trkpt>
      <trkpt lat="42.89082" lon="0.0798">
        <ele>1643.6</ele>
        <time>2021-11-27T10:36:26Z</time>
      </trkpt>
      <trkpt lat="42.8908" lon="0.07981">
        <ele>1645</ele>
        <time>2021-11-27T10:36:29Z</time>
      </trkpt>
      <trkpt lat="42.89078" lon="0.07982">
        <ele>1645</ele>
        <time>2021-11-27T10:36:32Z</time>
      </trkpt>
      <trkpt lat="42.89076" lon="0.07984">
        <ele>1645</ele>
        <time>2021-11-27T10:36:36Z</time>
      </trkpt>
      <trkpt lat="42.89074" lon="0.07985">
        <ele>1645</ele>
        <time>2021-11-27T10:36:40Z</time>
      </trkpt>
      <trkpt lat="42.89072" lon="0.07987">
        <ele>1645</ele>
        <time>2021-11-27T10:36:43Z</time>
      </trkpt>
      <trkpt lat="42.8907" lon="0.07989">
        <ele>1645</ele>
        <time>2021-11-27T10:36:47Z</time>
      </trkpt>
      <trkpt lat="42.89068" lon="0.0799">
        <ele>1645</ele>
        <time>2021-11-27T10:36:50Z</time>
      </trkpt>
      <trkpt lat="42.89066" lon="0.0799">
        <ele>1645</ele>
        <time>2021-11-27T10:36:54Z</time>
      </trkpt>
      <trkpt lat="42.89064" lon="0.07991">
        <ele>1645</ele>
        <time>2021-11-27T10:36:56Z</time>
      </trkpt>
      <trkpt lat="42.89062" lon="0.07992">
        <ele>1645</ele>
        <time>2021-11-27T10:36:58Z</time>
      </trkpt>
      <trkpt lat="42.8906" lon="0.07992">
        <ele>1645</ele>
        <time>2021-11-27T10:37:01Z</time>
      </trkpt>
      <trkpt lat="42.89057" lon="0.07994">
        <ele>1645</ele>
        <time>2021-11-27T10:37:04Z</time>
      </trkpt>
      <trkpt lat="42.89054" lon="0.07994">
        <ele>1645</ele>
        <time>2021-11-27T10:37:07Z</time>
      </trkpt>
      <trkpt lat="42.89052" lon="0.07994">
        <ele>1645</ele>
        <time>2021-11-27T10:37:10Z</time>
      </trkpt>
      <trkpt lat="42.89051" lon="0.07995">
        <ele>1645</ele>
        <time>2021-11-27T10:37:13Z</time>
      </trkpt>
      <trkpt lat="42.89049" lon="0.07994">
        <ele>1645</ele>
        <time>2021-11-27T10:37:16Z</time>
      </trkpt>
      <trkpt lat="42.89047" lon="0.07995">
        <ele>1653.2</ele>
        <time>2021-11-27T10:37:19Z</time>
      </trkpt>
      <trkpt lat="42.89044" lon="0.07993">
        <ele>1653.2</ele>
        <time>2021-11-27T10:39:27Z</time>
      </trkpt>
      <trkpt lat="42.89043" lon="0.07991">
        <ele>1653.2</ele>
        <time>2021-11-27T10:39:30Z</time>
      </trkpt>
      <trkpt lat="42.89042" lon="0.0799">
        <ele>1653.2</ele>
        <time>2021-11-27T10:39:33Z</time>
      </trkpt>
      <trkpt lat="42.89042" lon="0.07987">
        <ele>1653.2</ele>
        <time>2021-11-27T10:39:36Z</time>
      </trkpt>
      <trkpt lat="42.89042" lon="0.07984">
        <ele>1653.2</ele>
        <time>2021-11-27T10:39:41Z</time>
      </trkpt>
      <trkpt lat="42.8904" lon="0.07984">
        <ele>1653.2</ele>
        <time>2021-11-27T10:39:47Z</time>
      </trkpt>
      <trkpt lat="42.89038" lon="0.07986">
        <ele>1653.2</ele>
        <time>2021-11-27T10:39:50Z</time>
      </trkpt>
      <trkpt lat="42.89036" lon="0.07987">
        <ele>1653.2</ele>
        <time>2021-11-27T10:39:52Z</time>
      </trkpt>
      <trkpt lat="42.89035" lon="0.07985">
        <ele>1653.2</ele>
        <time>2021-11-27T10:39:56Z</time>
      </trkpt>
      <trkpt lat="42.89036" lon="0.07983">
        <ele>1653.2</ele>
        <time>2021-11-27T10:40:03Z</time>
      </trkpt>
      <trkpt lat="42.89033" lon="0.07985">
        <ele>1653.2</ele>
        <time>2021-11-27T10:40:43Z</time>
      </trkpt>
      <trkpt lat="42.89031" lon="0.07987">
        <ele>1653.2</ele>
        <time>2021-11-27T10:40:45Z</time>
      </trkpt>
      <trkpt lat="42.8903" lon="0.07989">
        <ele>1653.2</ele>
        <time>2021-11-27T10:40:50Z</time>
      </trkpt>
      <trkpt lat="42.89028" lon="0.07991">
        <ele>1653.2</ele>
        <time>2021-11-27T10:41:10Z</time>
      </trkpt>
      <trkpt lat="42.89025" lon="0.07991">
        <ele>1653.2</ele>
        <time>2021-11-27T10:41:13Z</time>
      </trkpt>
      <trkpt lat="42.89023" lon="0.07993">
        <ele>1653.2</ele>
        <time>2021-11-27T10:41:15Z</time>
      </trkpt>
      <trkpt lat="42.8902" lon="0.07995">
        <ele>1653.2</ele>
        <time>2021-11-27T10:41:18Z</time>
      </trkpt>
      <trkpt lat="42.89018" lon="0.07997">
        <ele>1653.2</ele>
        <time>2021-11-27T10:41:21Z</time>
      </trkpt>
      <trkpt lat="42.89016" lon="0.07998">
        <ele>1653.2</ele>
        <time>2021-11-27T10:41:23Z</time>
      </trkpt>
      <trkpt lat="42.89015" lon="0.07999">
        <ele>1653.2</ele>
        <time>2021-11-27T10:41:24Z</time>
      </trkpt>
      <trkpt lat="42.89013" lon="0.08002">
        <ele>1653.2</ele>
        <time>2021-11-27T10:41:26Z</time>
      </trkpt>
      <trkpt lat="42.89011" lon="0.08004">
        <ele>1653.2</ele>
        <time>2021-11-27T10:41:28Z</time>
      </trkpt>
      <trkpt lat="42.89008" lon="0.08005">
        <ele>1653.2</ele>
        <time>2021-11-27T10:41:30Z</time>
      </trkpt>
      <trkpt lat="42.89005" lon="0.08007">
        <ele>1653.2</ele>
        <time>2021-11-27T10:41:32Z</time>
      </trkpt>
      <trkpt lat="42.89003" lon="0.08007">
        <ele>1653.2</ele>
        <time>2021-11-27T10:41:34Z</time>
      </trkpt>
      <trkpt lat="42.89001" lon="0.08007">
        <ele>1653.2</ele>
        <time>2021-11-27T10:41:36Z</time>
      </trkpt>
      <trkpt lat="42.88999" lon="0.08008">
        <ele>1661.8</ele>
        <time>2021-11-27T10:41:39Z</time>
      </trkpt>
      <trkpt lat="42.88996" lon="0.08009">
        <ele>1661.8</ele>
        <time>2021-11-27T10:41:42Z</time>
      </trkpt>
      <trkpt lat="42.88994" lon="0.08011">
        <ele>1661.8</ele>
        <time>2021-11-27T10:41:44Z</time>
      </trkpt>
      <trkpt lat="42.88992" lon="0.08012">
        <ele>1661.8</ele>
        <time>2021-11-27T10:41:46Z</time>
      </trkpt>
      <trkpt lat="42.8899" lon="0.08012">
        <ele>1661.8</ele>
        <time>2021-11-27T10:41:48Z</time>
      </trkpt>
      <trkpt lat="42.88987" lon="0.08015">
        <ele>1661.8</ele>
        <time>2021-11-27T10:41:50Z</time>
      </trkpt>
      <trkpt lat="42.88986" lon="0.08017">
        <ele>1661.8</ele>
        <time>2021-11-27T10:41:52Z</time>
      </trkpt>
      <trkpt lat="42.88984" lon="0.08018">
        <ele>1661.8</ele>
        <time>2021-11-27T10:41:56Z</time>
      </trkpt>
      <trkpt lat="42.88982" lon="0.08019">
        <ele>1661.8</ele>
        <time>2021-11-27T10:42:00Z</time>
      </trkpt>
      <trkpt lat="42.8898" lon="0.0802">
        <ele>1661.8</ele>
        <time>2021-11-27T10:42:10Z</time>
      </trkpt>
      <trkpt lat="42.88977" lon="0.08022">
        <ele>1661.8</ele>
        <time>2021-11-27T10:43:53Z</time>
      </trkpt>
      <trkpt lat="42.88975" lon="0.08022">
        <ele>1661.8</ele>
        <time>2021-11-27T10:43:54Z</time>
      </trkpt>
      <trkpt lat="42.88972" lon="0.08022">
        <ele>1661.8</ele>
        <time>2021-11-27T10:43:56Z</time>
      </trkpt>
      <trkpt lat="42.8897" lon="0.08022">
        <ele>1661.8</ele>
        <time>2021-11-27T10:43:58Z</time>
      </trkpt>
      <trkpt lat="42.88967" lon="0.08023">
        <ele>1661.8</ele>
        <time>2021-11-27T10:44:00Z</time>
      </trkpt>
      <trkpt lat="42.88965" lon="0.08023">
        <ele>1661.8</ele>
        <time>2021-11-27T10:44:02Z</time>
      </trkpt>
      <trkpt lat="42.88963" lon="0.08023">
        <ele>1661.8</ele>
        <time>2021-11-27T10:44:06Z</time>
      </trkpt>
      <trkpt lat="42.88961" lon="0.08022">
        <ele>1661.8</ele>
        <time>2021-11-27T10:44:30Z</time>
      </trkpt>
      <trkpt lat="42.88959" lon="0.08023">
        <ele>1661.8</ele>
        <time>2021-11-27T10:44:31Z</time>
      </trkpt>
      <trkpt lat="42.88957" lon="0.08024">
        <ele>1661.8</ele>
        <time>2021-11-27T10:44:32Z</time>
      </trkpt>
      <trkpt lat="42.88953" lon="0.08025">
        <ele>1661.8</ele>
        <time>2021-11-27T10:44:34Z</time>
      </trkpt>
      <trkpt lat="42.88951" lon="0.08026">
        <ele>1661.8</ele>
        <time>2021-11-27T10:44:35Z</time>
      </trkpt>
      <trkpt lat="42.88949" lon="0.08026">
        <ele>1661.8</ele>
        <time>2021-11-27T10:44:36Z</time>
      </trkpt>
      <trkpt lat="42.88948" lon="0.08027">
        <ele>1661.8</ele>
        <time>2021-11-27T10:44:37Z</time>
      </trkpt>
      <trkpt lat="42.88944" lon="0.08028">
        <ele>1666</ele>
        <time>2021-11-27T10:44:39Z</time>
      </trkpt>
      <trkpt lat="42.88942" lon="0.08029">
        <ele>1666</ele>
        <time>2021-11-27T10:44:42Z</time>
      </trkpt>
      <trkpt lat="42.8894" lon="0.0803">
        <ele>1666</ele>
        <time>2021-11-27T10:44:44Z</time>
      </trkpt>
      <trkpt lat="42.88938" lon="0.08031">
        <ele>1666</ele>
        <time>2021-11-27T10:44:46Z</time>
      </trkpt>
      <trkpt lat="42.88936" lon="0.08031">
        <ele>1666.8</ele>
        <time>2021-11-27T10:44:49Z</time>
      </trkpt>
      <trkpt lat="42.88935" lon="0.08033">
        <ele>1666.8</ele>
        <time>2021-11-27T10:44:53Z</time>
      </trkpt>
      <trkpt lat="42.88933" lon="0.08035">
        <ele>1666.8</ele>
        <time>2021-11-27T10:44:55Z</time>
      </trkpt>
      <trkpt lat="42.88931" lon="0.08036">
        <ele>1666.8</ele>
        <time>2021-11-27T10:44:57Z</time>
      </trkpt>
      <trkpt lat="42.88929" lon="0.08037">
        <ele>1667.4</ele>
        <time>2021-11-27T10:44:59Z</time>
      </trkpt>
      <trkpt lat="42.88927" lon="0.08037">
        <ele>1667.4</ele>
        <time>2021-11-27T10:45:02Z</time>
      </trkpt>
      <trkpt lat="42.88925" lon="0.08038">
        <ele>1667.4</ele>
        <time>2021-11-27T10:45:04Z</time>
      </trkpt>
      <trkpt lat="42.88923" lon="0.0804">
        <ele>1667.4</ele>
        <time>2021-11-27T10:45:07Z</time>
      </trkpt>
      <trkpt lat="42.88921" lon="0.08041">
        <ele>1667.4</ele>
        <time>2021-11-27T10:45:10Z</time>
      </trkpt>
      <trkpt lat="42.88919" lon="0.08042">
        <ele>1667.4</ele>
        <time>2021-11-27T10:45:14Z</time>
      </trkpt>
      <trkpt lat="42.88917" lon="0.08044">
        <ele>1667.4</ele>
        <time>2021-11-27T10:45:16Z</time>
      </trkpt>
      <trkpt lat="42.88915" lon="0.08045">
        <ele>1668.8</ele>
        <time>2021-11-27T10:45:19Z</time>
      </trkpt>
      <trkpt lat="42.88912" lon="0.08046">
        <ele>1668.8</ele>
        <time>2021-11-27T10:45:20Z</time>
      </trkpt>
      <trkpt lat="42.88909" lon="0.08048">
        <ele>1668.8</ele>
        <time>2021-11-27T10:45:22Z</time>
      </trkpt>
      <trkpt lat="42.88907" lon="0.08051">
        <ele>1668.8</ele>
        <time>2021-11-27T10:45:24Z</time>
      </trkpt>
      <trkpt lat="42.88911" lon="0.08049">
        <ele>1668.8</ele>
        <time>2021-11-27T10:45:37Z</time>
      </trkpt>
      <trkpt lat="42.88908" lon="0.0805">
        <ele>1668.8</ele>
        <time>2021-11-27T10:47:08Z</time>
      </trkpt>
      <trkpt lat="42.88906" lon="0.0805">
        <ele>1671.6</ele>
        <time>2021-11-27T10:47:09Z</time>
      </trkpt>
      <trkpt lat="42.88903" lon="0.08051">
        <ele>1671.6</ele>
        <time>2021-11-27T10:47:11Z</time>
      </trkpt>
      <trkpt lat="42.88901" lon="0.08051">
        <ele>1671.6</ele>
        <time>2021-11-27T10:47:13Z</time>
      </trkpt>
      <trkpt lat="42.88899" lon="0.08053">
        <ele>1671.6</ele>
        <time>2021-11-27T10:47:14Z</time>
      </trkpt>
      <trkpt lat="42.88898" lon="0.08054">
        <ele>1671.6</ele>
        <time>2021-11-27T10:47:15Z</time>
      </trkpt>
      <trkpt lat="42.88895" lon="0.08056">
        <ele>1671.6</ele>
        <time>2021-11-27T10:47:18Z</time>
      </trkpt>
      <trkpt lat="42.88892" lon="0.08056">
        <ele>1671.6</ele>
        <time>2021-11-27T10:47:21Z</time>
      </trkpt>
      <trkpt lat="42.88889" lon="0.08058">
        <ele>1671.6</ele>
        <time>2021-11-27T10:47:23Z</time>
      </trkpt>
      <trkpt lat="42.88887" lon="0.08058">
        <ele>1671.6</ele>
        <time>2021-11-27T10:47:25Z</time>
      </trkpt>
      <trkpt lat="42.88885" lon="0.08058">
        <ele>1671.6</ele>
        <time>2021-11-27T10:47:26Z</time>
      </trkpt>
      <trkpt lat="42.88884" lon="0.08055">
        <ele>1672.6</ele>
        <time>2021-11-27T10:47:29Z</time>
      </trkpt>
      <trkpt lat="42.88883" lon="0.08051">
        <ele>1672.6</ele>
        <time>2021-11-27T10:47:32Z</time>
      </trkpt>
      <trkpt lat="42.88883" lon="0.08048">
        <ele>1672.6</ele>
        <time>2021-11-27T10:47:34Z</time>
      </trkpt>
      <trkpt lat="42.88883" lon="0.08045">
        <ele>1672.6</ele>
        <time>2021-11-27T10:47:38Z</time>
      </trkpt>
      <trkpt lat="42.88884" lon="0.08043">
        <ele>1672.6</ele>
        <time>2021-11-27T10:47:55Z</time>
      </trkpt>
      <trkpt lat="42.88887" lon="0.08041">
        <ele>1672.6</ele>
        <time>2021-11-27T10:48:12Z</time>
      </trkpt>
      <trkpt lat="42.88888" lon="0.08038">
        <ele>1672.6</ele>
        <time>2021-11-27T10:48:14Z</time>
      </trkpt>
      <trkpt lat="42.8889" lon="0.08036">
        <ele>1672.6</ele>
        <time>2021-11-27T10:48:17Z</time>
      </trkpt>
      <trkpt lat="42.88891" lon="0.08034">
        <ele>1674.8</ele>
        <time>2021-11-27T10:48:19Z</time>
      </trkpt>
      <trkpt lat="42.88893" lon="0.08034">
        <ele>1674.8</ele>
        <time>2021-11-27T10:48:22Z</time>
      </trkpt>
      <trkpt lat="42.88895" lon="0.08032">
        <ele>1674.8</ele>
        <time>2021-11-27T10:48:25Z</time>
      </trkpt>
      <trkpt lat="42.88897" lon="0.0803">
        <ele>1674.8</ele>
        <time>2021-11-27T10:48:28Z</time>
      </trkpt>
      <trkpt lat="42.88899" lon="0.08028">
        <ele>1674.8</ele>
        <time>2021-11-27T10:48:30Z</time>
      </trkpt>
      <trkpt lat="42.88901" lon="0.08026">
        <ele>1674.8</ele>
        <time>2021-11-27T10:48:32Z</time>
      </trkpt>
      <trkpt lat="42.88903" lon="0.08025">
        <ele>1674.8</ele>
        <time>2021-11-27T10:48:34Z</time>
      </trkpt>
      <trkpt lat="42.88904" lon="0.08023">
        <ele>1674.8</ele>
        <time>2021-11-27T10:48:36Z</time>
      </trkpt>
      <trkpt lat="42.88905" lon="0.0802">
        <ele>1674.8</ele>
        <time>2021-11-27T10:48:37Z</time>
      </trkpt>
      <trkpt lat="42.88906" lon="0.08017">
        <ele>1674.8</ele>
        <time>2021-11-27T10:48:40Z</time>
      </trkpt>
      <trkpt lat="42.88907" lon="0.08014">
        <ele>1674.8</ele>
        <time>2021-11-27T10:48:45Z</time>
      </trkpt>
      <trkpt lat="42.8891" lon="0.08012">
        <ele>1674.8</ele>
        <time>2021-11-27T10:49:26Z</time>
      </trkpt>
      <trkpt lat="42.88911" lon="0.08011">
        <ele>1674.8</ele>
        <time>2021-11-27T10:49:27Z</time>
      </trkpt>
      <trkpt lat="42.88914" lon="0.08009">
        <ele>1678.2</ele>
        <time>2021-11-27T10:49:29Z</time>
      </trkpt>
      <trkpt lat="42.88915" lon="0.08007">
        <ele>1678.2</ele>
        <time>2021-11-27T10:49:31Z</time>
      </trkpt>
      <trkpt lat="42.88917" lon="0.08005">
        <ele>1678.2</ele>
        <time>2021-11-27T10:49:33Z</time>
      </trkpt>
      <trkpt lat="42.88918" lon="0.08003">
        <ele>1679</ele>
        <time>2021-11-27T10:49:39Z</time>
      </trkpt>
      <trkpt lat="42.88919" lon="0.08001">
        <ele>1679</ele>
        <time>2021-11-27T10:49:41Z</time>
      </trkpt>
      <trkpt lat="42.88921" lon="0.07999">
        <ele>1679</ele>
        <time>2021-11-27T10:49:43Z</time>
      </trkpt>
      <trkpt lat="42.88923" lon="0.07997">
        <ele>1679</ele>
        <time>2021-11-27T10:49:46Z</time>
      </trkpt>
      <trkpt lat="42.88924" lon="0.07997">
        <ele>1679</ele>
        <time>2021-11-27T10:49:48Z</time>
      </trkpt>
      <trkpt lat="42.88926" lon="0.07996">
        <ele>1679</ele>
        <time>2021-11-27T10:49:51Z</time>
      </trkpt>
      <trkpt lat="42.88928" lon="0.07995">
        <ele>1679</ele>
        <time>2021-11-27T10:49:53Z</time>
      </trkpt>
      <trkpt lat="42.8893" lon="0.07992">
        <ele>1679</ele>
        <time>2021-11-27T10:49:56Z</time>
      </trkpt>
      <trkpt lat="42.88931" lon="0.0799">
        <ele>1680.6</ele>
        <time>2021-11-27T10:49:59Z</time>
      </trkpt>
      <trkpt lat="42.88933" lon="0.07989">
        <ele>1680.6</ele>
        <time>2021-11-27T10:50:01Z</time>
      </trkpt>
      <trkpt lat="42.88935" lon="0.07987">
        <ele>1680.6</ele>
        <time>2021-11-27T10:50:04Z</time>
      </trkpt>
      <trkpt lat="42.88936" lon="0.07984">
        <ele>1680.6</ele>
        <time>2021-11-27T10:50:06Z</time>
      </trkpt>
      <trkpt lat="42.88938" lon="0.07983">
        <ele>1680.6</ele>
        <time>2021-11-27T10:50:08Z</time>
      </trkpt>
      <trkpt lat="42.88939" lon="0.07981">
        <ele>1680.6</ele>
        <time>2021-11-27T10:50:10Z</time>
      </trkpt>
      <trkpt lat="42.8894" lon="0.07979">
        <ele>1680.6</ele>
        <time>2021-11-27T10:50:12Z</time>
      </trkpt>
      <trkpt lat="42.88941" lon="0.07977">
        <ele>1680.6</ele>
        <time>2021-11-27T10:50:14Z</time>
      </trkpt>
      <trkpt lat="42.88942" lon="0.07975">
        <ele>1680.6</ele>
        <time>2021-11-27T10:50:17Z</time>
      </trkpt>
      <trkpt lat="42.88945" lon="0.07974">
        <ele>1680.6</ele>
        <time>2021-11-27T10:50:38Z</time>
      </trkpt>
      <trkpt lat="42.88947" lon="0.07971">
        <ele>1680.6</ele>
        <time>2021-11-27T10:50:40Z</time>
      </trkpt>
      <trkpt lat="42.88949" lon="0.07968">
        <ele>1680.6</ele>
        <time>2021-11-27T10:50:42Z</time>
      </trkpt>
      <trkpt lat="42.88951" lon="0.07966">
        <ele>1680.6</ele>
        <time>2021-11-27T10:50:44Z</time>
      </trkpt>
      <trkpt lat="42.88954" lon="0.07965">
        <ele>1680.6</ele>
        <time>2021-11-27T10:50:46Z</time>
      </trkpt>
      <trkpt lat="42.88956" lon="0.07963">
        <ele>1680.6</ele>
        <time>2021-11-27T10:50:48Z</time>
      </trkpt>
      <trkpt lat="42.88958" lon="0.07961">
        <ele>1680.6</ele>
        <time>2021-11-27T10:50:51Z</time>
      </trkpt>
      <trkpt lat="42.88961" lon="0.07959">
        <ele>1680.6</ele>
        <time>2021-11-27T10:50:54Z</time>
      </trkpt>
      <trkpt lat="42.88963" lon="0.07958">
        <ele>1680.6</ele>
        <time>2021-11-27T10:50:56Z</time>
      </trkpt>
      <trkpt lat="42.88964" lon="0.07958">
        <ele>1680.6</ele>
        <time>2021-11-27T10:50:58Z</time>
      </trkpt>
      <trkpt lat="42.88967" lon="0.07958">
        <ele>1680.6</ele>
        <time>2021-11-27T10:51:00Z</time>
      </trkpt>
      <trkpt lat="42.88968" lon="0.07956">
        <ele>1680.6</ele>
        <time>2021-11-27T10:51:02Z</time>
      </trkpt>
      <trkpt lat="42.88971" lon="0.07955">
        <ele>1680.6</ele>
        <time>2021-11-27T10:51:05Z</time>
      </trkpt>
      <trkpt lat="42.88973" lon="0.07954">
        <ele>1680.6</ele>
        <time>2021-11-27T10:51:15Z</time>
      </trkpt>
      <trkpt lat="42.88975" lon="0.07954">
        <ele>1680.6</ele>
        <time>2021-11-27T10:51:18Z</time>
      </trkpt>
      <trkpt lat="42.88978" lon="0.07952">
        <ele>1680.6</ele>
        <time>2021-11-27T10:51:21Z</time>
      </trkpt>
      <trkpt lat="42.88979" lon="0.07951">
        <ele>1680.6</ele>
        <time>2021-11-27T10:51:23Z</time>
      </trkpt>
      <trkpt lat="42.88981" lon="0.07949">
        <ele>1680.6</ele>
        <time>2021-11-27T10:51:26Z</time>
      </trkpt>
      <trkpt lat="42.88983" lon="0.07946">
        <ele>1686.6</ele>
        <time>2021-11-27T10:51:29Z</time>
      </trkpt>
      <trkpt lat="42.88985" lon="0.07945">
        <ele>1686.6</ele>
        <time>2021-11-27T10:51:31Z</time>
      </trkpt>
      <trkpt lat="42.88987" lon="0.07944">
        <ele>1686.6</ele>
        <time>2021-11-27T10:51:34Z</time>
      </trkpt>
      <trkpt lat="42.88988" lon="0.07942">
        <ele>1686.6</ele>
        <time>2021-11-27T10:51:37Z</time>
      </trkpt>
      <trkpt lat="42.8899" lon="0.07941">
        <ele>1687.6</ele>
        <time>2021-11-27T10:51:39Z</time>
      </trkpt>
      <trkpt lat="42.88991" lon="0.07938">
        <ele>1687.6</ele>
        <time>2021-11-27T10:51:42Z</time>
      </trkpt>
      <trkpt lat="42.88992" lon="0.07935">
        <ele>1687.6</ele>
        <time>2021-11-27T10:51:45Z</time>
      </trkpt>
      <trkpt lat="42.88994" lon="0.07932">
        <ele>1687.6</ele>
        <time>2021-11-27T10:51:48Z</time>
      </trkpt>
      <trkpt lat="42.88995" lon="0.07929">
        <ele>1687.6</ele>
        <time>2021-11-27T10:51:51Z</time>
      </trkpt>
      <trkpt lat="42.88996" lon="0.07927">
        <ele>1687.6</ele>
        <time>2021-11-27T10:51:54Z</time>
      </trkpt>
      <trkpt lat="42.88998" lon="0.07925">
        <ele>1687.6</ele>
        <time>2021-11-27T10:51:57Z</time>
      </trkpt>
      <trkpt lat="42.88999" lon="0.07922">
        <ele>1687.6</ele>
        <time>2021-11-27T10:52:00Z</time>
      </trkpt>
      <trkpt lat="42.89" lon="0.07921">
        <ele>1687.6</ele>
        <time>2021-11-27T10:52:02Z</time>
      </trkpt>
      <trkpt lat="42.89002" lon="0.07919">
        <ele>1687.6</ele>
        <time>2021-11-27T10:52:05Z</time>
      </trkpt>
      <trkpt lat="42.89003" lon="0.07916">
        <ele>1691.4</ele>
        <time>2021-11-27T10:52:09Z</time>
      </trkpt>
      <trkpt lat="42.89004" lon="0.07913">
        <ele>1691.4</ele>
        <time>2021-11-27T10:52:12Z</time>
      </trkpt>
      <trkpt lat="42.89005" lon="0.0791">
        <ele>1691.4</ele>
        <time>2021-11-27T10:52:15Z</time>
      </trkpt>
      <trkpt lat="42.89006" lon="0.07908">
        <ele>1691.4</ele>
        <time>2021-11-27T10:52:18Z</time>
      </trkpt>
      <trkpt lat="42.89008" lon="0.07906">
        <ele>1692.8</ele>
        <time>2021-11-27T10:52:29Z</time>
      </trkpt>
      <trkpt lat="42.89008" lon="0.07903">
        <ele>1692.8</ele>
        <time>2021-11-27T10:52:34Z</time>
      </trkpt>
      <trkpt lat="42.89007" lon="0.07899">
        <ele>1692.8</ele>
        <time>2021-11-27T10:56:43Z</time>
      </trkpt>
      <trkpt lat="42.89009" lon="0.07897">
        <ele>1692.8</ele>
        <time>2021-11-27T10:56:45Z</time>
      </trkpt>
      <trkpt lat="42.8901" lon="0.07894">
        <ele>1692.8</ele>
        <time>2021-11-27T10:56:47Z</time>
      </trkpt>
      <trkpt lat="42.89012" lon="0.07891">
        <ele>1692.8</ele>
        <time>2021-11-27T10:56:50Z</time>
      </trkpt>
      <trkpt lat="42.89012" lon="0.07887">
        <ele>1692.8</ele>
        <time>2021-11-27T10:56:52Z</time>
      </trkpt>
      <trkpt lat="42.89012" lon="0.07885">
        <ele>1692.8</ele>
        <time>2021-11-27T10:56:54Z</time>
      </trkpt>
      <trkpt lat="42.89012" lon="0.07882">
        <ele>1692.8</ele>
        <time>2021-11-27T10:56:56Z</time>
      </trkpt>
      <trkpt lat="42.89012" lon="0.0788">
        <ele>1692.8</ele>
        <time>2021-11-27T10:56:58Z</time>
      </trkpt>
      <trkpt lat="42.89014" lon="0.07877">
        <ele>1692.8</ele>
        <time>2021-11-27T10:57:00Z</time>
      </trkpt>
      <trkpt lat="42.89014" lon="0.07874">
        <ele>1692.8</ele>
        <time>2021-11-27T10:57:03Z</time>
      </trkpt>
      <trkpt lat="42.89015" lon="0.07872">
        <ele>1692.8</ele>
        <time>2021-11-27T10:57:06Z</time>
      </trkpt>
      <trkpt lat="42.89015" lon="0.0787">
        <ele>1692.8</ele>
        <time>2021-11-27T10:57:08Z</time>
      </trkpt>
      <trkpt lat="42.89016" lon="0.07867">
        <ele>1692.8</ele>
        <time>2021-11-27T10:57:10Z</time>
      </trkpt>
      <trkpt lat="42.89017" lon="0.07864">
        <ele>1692.8</ele>
        <time>2021-11-27T10:57:12Z</time>
      </trkpt>
      <trkpt lat="42.89017" lon="0.0786">
        <ele>1692.8</ele>
        <time>2021-11-27T10:57:14Z</time>
      </trkpt>
      <trkpt lat="42.89018" lon="0.07857">
        <ele>1692.8</ele>
        <time>2021-11-27T10:57:16Z</time>
      </trkpt>
      <trkpt lat="42.89018" lon="0.07854">
        <ele>1697</ele>
        <time>2021-11-27T10:57:19Z</time>
      </trkpt>
      <trkpt lat="42.89019" lon="0.07851">
        <ele>1697</ele>
        <time>2021-11-27T10:57:21Z</time>
      </trkpt>
      <trkpt lat="42.89019" lon="0.07849">
        <ele>1697</ele>
        <time>2021-11-27T10:57:23Z</time>
      </trkpt>
      <trkpt lat="42.89019" lon="0.07846">
        <ele>1697</ele>
        <time>2021-11-27T10:57:25Z</time>
      </trkpt>
      <trkpt lat="42.8902" lon="0.07843">
        <ele>1697</ele>
        <time>2021-11-27T10:57:28Z</time>
      </trkpt>
      <trkpt lat="42.8902" lon="0.0784">
        <ele>1697</ele>
        <time>2021-11-27T10:57:31Z</time>
      </trkpt>
      <trkpt lat="42.8902" lon="0.07837">
        <ele>1697</ele>
        <time>2021-11-27T10:57:34Z</time>
      </trkpt>
      <trkpt lat="42.89021" lon="0.07834">
        <ele>1697</ele>
        <time>2021-11-27T10:57:36Z</time>
      </trkpt>
      <trkpt lat="42.89022" lon="0.07831">
        <ele>1698.2</ele>
        <time>2021-11-27T10:57:39Z</time>
      </trkpt>
      <trkpt lat="42.89023" lon="0.07828">
        <ele>1698.2</ele>
        <time>2021-11-27T10:57:42Z</time>
      </trkpt>
      <trkpt lat="42.89023" lon="0.07825">
        <ele>1698.2</ele>
        <time>2021-11-27T10:57:45Z</time>
      </trkpt>
      <trkpt lat="42.89023" lon="0.07823">
        <ele>1698.2</ele>
        <time>2021-11-27T10:57:47Z</time>
      </trkpt>
      <trkpt lat="42.89024" lon="0.07821">
        <ele>1698.8</ele>
        <time>2021-11-27T10:57:49Z</time>
      </trkpt>
      <trkpt lat="42.89025" lon="0.07817">
        <ele>1698.8</ele>
        <time>2021-11-27T10:57:52Z</time>
      </trkpt>
      <trkpt lat="42.89024" lon="0.07814">
        <ele>1698.8</ele>
        <time>2021-11-27T10:57:54Z</time>
      </trkpt>
      <trkpt lat="42.89026" lon="0.07811">
        <ele>1698.8</ele>
        <time>2021-11-27T10:57:57Z</time>
      </trkpt>
      <trkpt lat="42.89026" lon="0.07808">
        <ele>1698.8</ele>
        <time>2021-11-27T10:58:01Z</time>
      </trkpt>
      <trkpt lat="42.89026" lon="0.07806">
        <ele>1698.8</ele>
        <time>2021-11-27T10:58:10Z</time>
      </trkpt>
      <trkpt lat="42.89026" lon="0.07803">
        <ele>1698.8</ele>
        <time>2021-11-27T10:58:30Z</time>
      </trkpt>
      <trkpt lat="42.89026" lon="0.078">
        <ele>1698.8</ele>
        <time>2021-11-27T10:58:32Z</time>
      </trkpt>
      <trkpt lat="42.89026" lon="0.07797">
        <ele>1698.8</ele>
        <time>2021-11-27T10:58:34Z</time>
      </trkpt>
      <trkpt lat="42.89026" lon="0.07794">
        <ele>1698.8</ele>
        <time>2021-11-27T10:58:36Z</time>
      </trkpt>
      <trkpt lat="42.89027" lon="0.07791">
        <ele>1698.8</ele>
        <time>2021-11-27T10:58:38Z</time>
      </trkpt>
      <trkpt lat="42.89027" lon="0.07789">
        <ele>1698.8</ele>
        <time>2021-11-27T10:58:41Z</time>
      </trkpt>
      <trkpt lat="42.89026" lon="0.07785">
        <ele>1698.8</ele>
        <time>2021-11-27T10:58:45Z</time>
      </trkpt>
      <trkpt lat="42.89026" lon="0.07782">
        <ele>1698.8</ele>
        <time>2021-11-27T10:58:47Z</time>
      </trkpt>
      <trkpt lat="42.89026" lon="0.0778">
        <ele>1701</ele>
        <time>2021-11-27T10:58:49Z</time>
      </trkpt>
      <trkpt lat="42.89026" lon="0.07777">
        <ele>1701</ele>
        <time>2021-11-27T10:58:52Z</time>
      </trkpt>
      <trkpt lat="42.89024" lon="0.07775">
        <ele>1701</ele>
        <time>2021-11-27T10:58:55Z</time>
      </trkpt>
      <trkpt lat="42.89024" lon="0.07771">
        <ele>1701</ele>
        <time>2021-11-27T10:58:58Z</time>
      </trkpt>
      <trkpt lat="42.89023" lon="0.07769">
        <ele>1701</ele>
        <time>2021-11-27T10:59:01Z</time>
      </trkpt>
      <trkpt lat="42.89023" lon="0.07772">
        <ele>1701</ele>
        <time>2021-11-27T10:59:16Z</time>
      </trkpt>
      <trkpt lat="42.89024" lon="0.07774">
        <ele>1702.8</ele>
        <time>2021-11-27T10:59:19Z</time>
      </trkpt>
      <trkpt lat="42.89024" lon="0.07777">
        <ele>1702.8</ele>
        <time>2021-11-27T10:59:23Z</time>
      </trkpt>
      <trkpt lat="42.89025" lon="0.0778">
        <ele>1702.8</ele>
        <time>2021-11-27T10:59:26Z</time>
      </trkpt>
      <trkpt lat="42.89024" lon="0.07783">
        <ele>1702.8</ele>
        <time>2021-11-27T11:00:16Z</time>
      </trkpt>
      <trkpt lat="42.89024" lon="0.07787">
        <ele>1702.8</ele>
        <time>2021-11-27T11:00:18Z</time>
      </trkpt>
      <trkpt lat="42.89022" lon="0.0779">
        <ele>1702.8</ele>
        <time>2021-11-27T11:00:20Z</time>
      </trkpt>
      <trkpt lat="42.89022" lon="0.07794">
        <ele>1702.8</ele>
        <time>2021-11-27T11:00:22Z</time>
      </trkpt>
      <trkpt lat="42.89021" lon="0.07799">
        <ele>1702.8</ele>
        <time>2021-11-27T11:00:24Z</time>
      </trkpt>
      <trkpt lat="42.8902" lon="0.07801">
        <ele>1702.8</ele>
        <time>2021-11-27T11:00:26Z</time>
      </trkpt>
      <trkpt lat="42.8902" lon="0.07805">
        <ele>1705</ele>
        <time>2021-11-27T11:00:29Z</time>
      </trkpt>
      <trkpt lat="42.8902" lon="0.07808">
        <ele>1705</ele>
        <time>2021-11-27T11:00:32Z</time>
      </trkpt>
      <trkpt lat="42.89019" lon="0.07811">
        <ele>1705</ele>
        <time>2021-11-27T11:00:34Z</time>
      </trkpt>
      <trkpt lat="42.89018" lon="0.07813">
        <ele>1705</ele>
        <time>2021-11-27T11:00:36Z</time>
      </trkpt>
      <trkpt lat="42.89017" lon="0.07815">
        <ele>1706</ele>
        <time>2021-11-27T11:00:39Z</time>
      </trkpt>
      <trkpt lat="42.89016" lon="0.07818">
        <ele>1706</ele>
        <time>2021-11-27T11:00:41Z</time>
      </trkpt>
      <trkpt lat="42.89015" lon="0.07821">
        <ele>1706</ele>
        <time>2021-11-27T11:00:44Z</time>
      </trkpt>
      <trkpt lat="42.89016" lon="0.07823">
        <ele>1706</ele>
        <time>2021-11-27T11:00:47Z</time>
      </trkpt>
      <trkpt lat="42.89015" lon="0.07825">
        <ele>1706</ele>
        <time>2021-11-27T11:00:50Z</time>
      </trkpt>
      <trkpt lat="42.89012" lon="0.07827">
        <ele>1706</ele>
        <time>2021-11-27T11:00:52Z</time>
      </trkpt>
      <trkpt lat="42.8901" lon="0.07829">
        <ele>1706</ele>
        <time>2021-11-27T11:00:54Z</time>
      </trkpt>
      <trkpt lat="42.8901" lon="0.07831">
        <ele>1706</ele>
        <time>2021-11-27T11:00:57Z</time>
      </trkpt>
      <trkpt lat="42.89008" lon="0.07833">
        <ele>1706</ele>
        <time>2021-11-27T11:01:00Z</time>
      </trkpt>
      <trkpt lat="42.89006" lon="0.07835">
        <ele>1706</ele>
        <time>2021-11-27T11:01:02Z</time>
      </trkpt>
      <trkpt lat="42.89004" lon="0.07837">
        <ele>1706</ele>
        <time>2021-11-27T11:01:17Z</time>
      </trkpt>
      <trkpt lat="42.89002" lon="0.0784">
        <ele>1706</ele>
        <time>2021-11-27T11:01:23Z</time>
      </trkpt>
      <trkpt lat="42.89001" lon="0.07841">
        <ele>1706</ele>
        <time>2021-11-27T11:01:26Z</time>
      </trkpt>
      <trkpt lat="42.89" lon="0.07843">
        <ele>1709.2</ele>
        <time>2021-11-27T11:01:29Z</time>
      </trkpt>
      <trkpt lat="42.88998" lon="0.07845">
        <ele>1709.2</ele>
        <time>2021-11-27T11:01:32Z</time>
      </trkpt>
      <trkpt lat="42.88997" lon="0.07848">
        <ele>1709.2</ele>
        <time>2021-11-27T11:01:35Z</time>
      </trkpt>
      <trkpt lat="42.88996" lon="0.07851">
        <ele>1709.2</ele>
        <time>2021-11-27T11:01:38Z</time>
      </trkpt>
      <trkpt lat="42.88994" lon="0.07853">
        <ele>1709.2</ele>
        <time>2021-11-27T11:01:41Z</time>
      </trkpt>
      <trkpt lat="42.88993" lon="0.07855">
        <ele>1709.2</ele>
        <time>2021-11-27T11:01:43Z</time>
      </trkpt>
      <trkpt lat="42.88991" lon="0.07857">
        <ele>1709.2</ele>
        <time>2021-11-27T11:01:46Z</time>
      </trkpt>
      <trkpt lat="42.8899" lon="0.0786">
        <ele>1710.4</ele>
        <time>2021-11-27T11:01:49Z</time>
      </trkpt>
      <trkpt lat="42.88988" lon="0.07862">
        <ele>1710.4</ele>
        <time>2021-11-27T11:01:52Z</time>
      </trkpt>
      <trkpt lat="42.88987" lon="0.07864">
        <ele>1710.4</ele>
        <time>2021-11-27T11:01:55Z</time>
      </trkpt>
      <trkpt lat="42.88985" lon="0.07866">
        <ele>1710.4</ele>
        <time>2021-11-27T11:01:58Z</time>
      </trkpt>
      <trkpt lat="42.88982" lon="0.07868">
        <ele>1710.4</ele>
        <time>2021-11-27T11:02:00Z</time>
      </trkpt>
      <trkpt lat="42.8898" lon="0.07869">
        <ele>1710.4</ele>
        <time>2021-11-27T11:02:02Z</time>
      </trkpt>
      <trkpt lat="42.88978" lon="0.0787">
        <ele>1710.4</ele>
        <time>2021-11-27T11:02:04Z</time>
      </trkpt>
      <trkpt lat="42.88977" lon="0.07872">
        <ele>1710.4</ele>
        <time>2021-11-27T11:02:06Z</time>
      </trkpt>
      <trkpt lat="42.88976" lon="0.07875">
        <ele>1711.8</ele>
        <time>2021-11-27T11:02:09Z</time>
      </trkpt>
      <trkpt lat="42.88974" lon="0.07876">
        <ele>1711.8</ele>
        <time>2021-11-27T11:02:12Z</time>
      </trkpt>
      <trkpt lat="42.88972" lon="0.07877">
        <ele>1711.8</ele>
        <time>2021-11-27T11:02:14Z</time>
      </trkpt>
      <trkpt lat="42.88971" lon="0.07879">
        <ele>1711.8</ele>
        <time>2021-11-27T11:02:18Z</time>
      </trkpt>
      <trkpt lat="42.88969" lon="0.0788">
        <ele>1711.8</ele>
        <time>2021-11-27T11:02:20Z</time>
      </trkpt>
      <trkpt lat="42.88967" lon="0.07882">
        <ele>1711.8</ele>
        <time>2021-11-27T11:02:22Z</time>
      </trkpt>
      <trkpt lat="42.88965" lon="0.07883">
        <ele>1711.8</ele>
        <time>2021-11-27T11:02:25Z</time>
      </trkpt>
      <trkpt lat="42.88962" lon="0.07886">
        <ele>1711.8</ele>
        <time>2021-11-27T11:02:28Z</time>
      </trkpt>
      <trkpt lat="42.8896" lon="0.07887">
        <ele>1711.8</ele>
        <time>2021-11-27T11:02:30Z</time>
      </trkpt>
      <trkpt lat="42.88957" lon="0.07888">
        <ele>1711.8</ele>
        <time>2021-11-27T11:02:32Z</time>
      </trkpt>
      <trkpt lat="42.88954" lon="0.07889">
        <ele>1711.8</ele>
        <time>2021-11-27T11:02:35Z</time>
      </trkpt>
      <trkpt lat="42.88952" lon="0.0789">
        <ele>1711.8</ele>
        <time>2021-11-27T11:02:36Z</time>
      </trkpt>
      <trkpt lat="42.8895" lon="0.07892">
        <ele>1713.6</ele>
        <time>2021-11-27T11:02:39Z</time>
      </trkpt>
      <trkpt lat="42.88948" lon="0.07893">
        <ele>1713.6</ele>
        <time>2021-11-27T11:02:41Z</time>
      </trkpt>
      <trkpt lat="42.88947" lon="0.07895">
        <ele>1713.6</ele>
        <time>2021-11-27T11:02:44Z</time>
      </trkpt>
      <trkpt lat="42.88943" lon="0.07896">
        <ele>1713.6</ele>
        <time>2021-11-27T11:02:46Z</time>
      </trkpt>
      <trkpt lat="42.88941" lon="0.07899">
        <ele>1713.6</ele>
        <time>2021-11-27T11:02:48Z</time>
      </trkpt>
      <trkpt lat="42.88938" lon="0.079">
        <ele>1713.6</ele>
        <time>2021-11-27T11:02:51Z</time>
      </trkpt>
      <trkpt lat="42.88935" lon="0.07901">
        <ele>1713.6</ele>
        <time>2021-11-27T11:02:54Z</time>
      </trkpt>
      <trkpt lat="42.88933" lon="0.079">
        <ele>1713.6</ele>
        <time>2021-11-27T11:02:56Z</time>
      </trkpt>
      <trkpt lat="42.88932" lon="0.07897">
        <ele>1713.6</ele>
        <time>2021-11-27T11:02:58Z</time>
      </trkpt>
      <trkpt lat="42.88932" lon="0.07895">
        <ele>1713.6</ele>
        <time>2021-11-27T11:03:00Z</time>
      </trkpt>
      <trkpt lat="42.88932" lon="0.07893">
        <ele>1713.6</ele>
        <time>2021-11-27T11:03:03Z</time>
      </trkpt>
      <trkpt lat="42.88934" lon="0.0789">
        <ele>1713.6</ele>
        <time>2021-11-27T11:03:06Z</time>
      </trkpt>
      <trkpt lat="42.88935" lon="0.07887">
        <ele>1713.6</ele>
        <time>2021-11-27T11:03:08Z</time>
      </trkpt>
      <trkpt lat="42.88937" lon="0.07885">
        <ele>1713.6</ele>
        <time>2021-11-27T11:03:10Z</time>
      </trkpt>
      <trkpt lat="42.88937" lon="0.07882">
        <ele>1713.6</ele>
        <time>2021-11-27T11:03:12Z</time>
      </trkpt>
      <trkpt lat="42.88937" lon="0.0788">
        <ele>1713.6</ele>
        <time>2021-11-27T11:03:14Z</time>
      </trkpt>
      <trkpt lat="42.8894" lon="0.07877">
        <ele>1713.6</ele>
        <time>2021-11-27T11:03:16Z</time>
      </trkpt>
      <trkpt lat="42.88941" lon="0.07876">
        <ele>1713.6</ele>
        <time>2021-11-27T11:03:18Z</time>
      </trkpt>
      <trkpt lat="42.88943" lon="0.07874">
        <ele>1713.6</ele>
        <time>2021-11-27T11:03:20Z</time>
      </trkpt>
      <trkpt lat="42.88943" lon="0.07871">
        <ele>1713.6</ele>
        <time>2021-11-27T11:03:22Z</time>
      </trkpt>
      <trkpt lat="42.88945" lon="0.07869">
        <ele>1713.6</ele>
        <time>2021-11-27T11:03:24Z</time>
      </trkpt>
      <trkpt lat="42.88947" lon="0.07868">
        <ele>1713.6</ele>
        <time>2021-11-27T11:03:26Z</time>
      </trkpt>
      <trkpt lat="42.88948" lon="0.07864">
        <ele>1713.6</ele>
        <time>2021-11-27T11:03:30Z</time>
      </trkpt>
      <trkpt lat="42.88949" lon="0.07862">
        <ele>1713.6</ele>
        <time>2021-11-27T11:03:32Z</time>
      </trkpt>
      <trkpt lat="42.8895" lon="0.0786">
        <ele>1713.6</ele>
        <time>2021-11-27T11:03:34Z</time>
      </trkpt>
      <trkpt lat="42.88952" lon="0.07858">
        <ele>1713.6</ele>
        <time>2021-11-27T11:03:36Z</time>
      </trkpt>
      <trkpt lat="42.88953" lon="0.07854">
        <ele>1718.2</ele>
        <time>2021-11-27T11:03:39Z</time>
      </trkpt>
      <trkpt lat="42.88954" lon="0.07852">
        <ele>1718.2</ele>
        <time>2021-11-27T11:03:41Z</time>
      </trkpt>
      <trkpt lat="42.88955" lon="0.07849">
        <ele>1718.2</ele>
        <time>2021-11-27T11:03:43Z</time>
      </trkpt>
      <trkpt lat="42.88957" lon="0.07848">
        <ele>1718.2</ele>
        <time>2021-11-27T11:03:45Z</time>
      </trkpt>
      <trkpt lat="42.88957" lon="0.07845">
        <ele>1718.2</ele>
        <time>2021-11-27T11:03:47Z</time>
      </trkpt>
      <trkpt lat="42.88959" lon="0.07843">
        <ele>1718.2</ele>
        <time>2021-11-27T11:03:50Z</time>
      </trkpt>
      <trkpt lat="42.8896" lon="0.0784">
        <ele>1718.2</ele>
        <time>2021-11-27T11:03:54Z</time>
      </trkpt>
      <trkpt lat="42.88962" lon="0.07838">
        <ele>1718.2</ele>
        <time>2021-11-27T11:03:57Z</time>
      </trkpt>
      <trkpt lat="42.88962" lon="0.07835">
        <ele>1718.2</ele>
        <time>2021-11-27T11:04:00Z</time>
      </trkpt>
      <trkpt lat="42.88963" lon="0.07832">
        <ele>1718.2</ele>
        <time>2021-11-27T11:04:03Z</time>
      </trkpt>
      <trkpt lat="42.88963" lon="0.07829">
        <ele>1718.2</ele>
        <time>2021-11-27T11:04:06Z</time>
      </trkpt>
      <trkpt lat="42.88964" lon="0.07827">
        <ele>1718.2</ele>
        <time>2021-11-27T11:04:08Z</time>
      </trkpt>
      <trkpt lat="42.88965" lon="0.07824">
        <ele>1718.2</ele>
        <time>2021-11-27T11:04:10Z</time>
      </trkpt>
      <trkpt lat="42.88966" lon="0.07821">
        <ele>1718.2</ele>
        <time>2021-11-27T11:04:13Z</time>
      </trkpt>
      <trkpt lat="42.88967" lon="0.07817">
        <ele>1718.2</ele>
        <time>2021-11-27T11:04:16Z</time>
      </trkpt>
      <trkpt lat="42.88968" lon="0.07815">
        <ele>1721.2</ele>
        <time>2021-11-27T11:04:19Z</time>
      </trkpt>
      <trkpt lat="42.88969" lon="0.07813">
        <ele>1721.2</ele>
        <time>2021-11-27T11:04:26Z</time>
      </trkpt>
      <trkpt lat="42.8897" lon="0.07811">
        <ele>1721.2</ele>
        <time>2021-11-27T11:04:48Z</time>
      </trkpt>
      <trkpt lat="42.8897" lon="0.07807">
        <ele>1721.2</ele>
        <time>2021-11-27T11:04:50Z</time>
      </trkpt>
      <trkpt lat="42.88971" lon="0.07804">
        <ele>1721.2</ele>
        <time>2021-11-27T11:04:52Z</time>
      </trkpt>
      <trkpt lat="42.88971" lon="0.07801">
        <ele>1721.2</ele>
        <time>2021-11-27T11:04:54Z</time>
      </trkpt>
      <trkpt lat="42.88971" lon="0.07797">
        <ele>1721.2</ele>
        <time>2021-11-27T11:04:56Z</time>
      </trkpt>
      <trkpt lat="42.88971" lon="0.07794">
        <ele>1722.8</ele>
        <time>2021-11-27T11:04:59Z</time>
      </trkpt>
      <trkpt lat="42.88971" lon="0.07791">
        <ele>1722.8</ele>
        <time>2021-11-27T11:05:02Z</time>
      </trkpt>
      <trkpt lat="42.88971" lon="0.07788">
        <ele>1722.8</ele>
        <time>2021-11-27T11:05:05Z</time>
      </trkpt>
      <trkpt lat="42.88971" lon="0.07785">
        <ele>1722.8</ele>
        <time>2021-11-27T11:05:07Z</time>
      </trkpt>
      <trkpt lat="42.88971" lon="0.07781">
        <ele>1722.8</ele>
        <time>2021-11-27T11:05:10Z</time>
      </trkpt>
      <trkpt lat="42.88971" lon="0.07778">
        <ele>1722.8</ele>
        <time>2021-11-27T11:05:13Z</time>
      </trkpt>
      <trkpt lat="42.88971" lon="0.07775">
        <ele>1722.8</ele>
        <time>2021-11-27T11:05:16Z</time>
      </trkpt>
      <trkpt lat="42.88971" lon="0.07772">
        <ele>1722.8</ele>
        <time>2021-11-27T11:05:18Z</time>
      </trkpt>
      <trkpt lat="42.88971" lon="0.0777">
        <ele>1722.8</ele>
        <time>2021-11-27T11:05:20Z</time>
      </trkpt>
      <trkpt lat="42.8897" lon="0.07766">
        <ele>1722.8</ele>
        <time>2021-11-27T11:05:23Z</time>
      </trkpt>
      <trkpt lat="42.8897" lon="0.07763">
        <ele>1722.8</ele>
        <time>2021-11-27T11:05:25Z</time>
      </trkpt>
      <trkpt lat="42.8897" lon="0.0776">
        <ele>1722.8</ele>
        <time>2021-11-27T11:05:28Z</time>
      </trkpt>
      <trkpt lat="42.88969" lon="0.07756">
        <ele>1722.8</ele>
        <time>2021-11-27T11:05:31Z</time>
      </trkpt>
      <trkpt lat="42.88969" lon="0.07754">
        <ele>1722.8</ele>
        <time>2021-11-27T11:05:33Z</time>
      </trkpt>
      <trkpt lat="42.88968" lon="0.07751">
        <ele>1722.8</ele>
        <time>2021-11-27T11:05:35Z</time>
      </trkpt>
      <trkpt lat="42.88967" lon="0.07749">
        <ele>1722.8</ele>
        <time>2021-11-27T11:05:37Z</time>
      </trkpt>
      <trkpt lat="42.88967" lon="0.07746">
        <ele>1722.8</ele>
        <time>2021-11-27T11:05:40Z</time>
      </trkpt>
      <trkpt lat="42.88967" lon="0.07743">
        <ele>1722.8</ele>
        <time>2021-11-27T11:05:42Z</time>
      </trkpt>
      <trkpt lat="42.88966" lon="0.0774">
        <ele>1722.8</ele>
        <time>2021-11-27T11:05:45Z</time>
      </trkpt>
      <trkpt lat="42.88966" lon="0.07736">
        <ele>1722.8</ele>
        <time>2021-11-27T11:05:48Z</time>
      </trkpt>
      <trkpt lat="42.88966" lon="0.07733">
        <ele>1722.8</ele>
        <time>2021-11-27T11:05:51Z</time>
      </trkpt>
      <trkpt lat="42.88966" lon="0.0773">
        <ele>1722.8</ele>
        <time>2021-11-27T11:05:54Z</time>
      </trkpt>
      <trkpt lat="42.88964" lon="0.07729">
        <ele>1722.8</ele>
        <time>2021-11-27T11:05:56Z</time>
      </trkpt>
      <trkpt lat="42.88963" lon="0.07726">
        <ele>1722.8</ele>
        <time>2021-11-27T11:05:58Z</time>
      </trkpt>
      <trkpt lat="42.88963" lon="0.07723">
        <ele>1722.8</ele>
        <time>2021-11-27T11:06:00Z</time>
      </trkpt>
      <trkpt lat="42.88963" lon="0.0772">
        <ele>1722.8</ele>
        <time>2021-11-27T11:06:03Z</time>
      </trkpt>
      <trkpt lat="42.88962" lon="0.07716">
        <ele>1722.8</ele>
        <time>2021-11-27T11:06:07Z</time>
      </trkpt>
      <trkpt lat="42.88962" lon="0.07713">
        <ele>1722.8</ele>
        <time>2021-11-27T11:06:10Z</time>
      </trkpt>
      <trkpt lat="42.88963" lon="0.0771">
        <ele>1722.8</ele>
        <time>2021-11-27T11:06:13Z</time>
      </trkpt>
      <trkpt lat="42.88962" lon="0.07707">
        <ele>1722.8</ele>
        <time>2021-11-27T11:06:16Z</time>
      </trkpt>
      <trkpt lat="42.88961" lon="0.07704">
        <ele>1725.6</ele>
        <time>2021-11-27T11:06:19Z</time>
      </trkpt>
      <trkpt lat="42.8896" lon="0.07701">
        <ele>1725.6</ele>
        <time>2021-11-27T11:06:22Z</time>
      </trkpt>
      <trkpt lat="42.88961" lon="0.07698">
        <ele>1725.6</ele>
        <time>2021-11-27T11:06:28Z</time>
      </trkpt>
      <trkpt lat="42.8896" lon="0.07694">
        <ele>1725.6</ele>
        <time>2021-11-27T11:07:15Z</time>
      </trkpt>
      <trkpt lat="42.88959" lon="0.0769">
        <ele>1725.6</ele>
        <time>2021-11-27T11:07:17Z</time>
      </trkpt>
      <trkpt lat="42.88958" lon="0.07686">
        <ele>1726.6</ele>
        <time>2021-11-27T11:07:19Z</time>
      </trkpt>
      <trkpt lat="42.88957" lon="0.07684">
        <ele>1726.6</ele>
        <time>2021-11-27T11:07:20Z</time>
      </trkpt>
      <trkpt lat="42.88956" lon="0.0768">
        <ele>1726.6</ele>
        <time>2021-11-27T11:07:22Z</time>
      </trkpt>
      <trkpt lat="42.88955" lon="0.07677">
        <ele>1726.6</ele>
        <time>2021-11-27T11:07:24Z</time>
      </trkpt>
      <trkpt lat="42.88954" lon="0.07675">
        <ele>1726.6</ele>
        <time>2021-11-27T11:07:27Z</time>
      </trkpt>
      <trkpt lat="42.88954" lon="0.07672">
        <ele>1726.6</ele>
        <time>2021-11-27T11:07:30Z</time>
      </trkpt>
      <trkpt lat="42.88954" lon="0.07669">
        <ele>1726.6</ele>
        <time>2021-11-27T11:07:32Z</time>
      </trkpt>
      <trkpt lat="42.88953" lon="0.07666">
        <ele>1726.6</ele>
        <time>2021-11-27T11:07:35Z</time>
      </trkpt>
      <trkpt lat="42.88953" lon="0.07663">
        <ele>1726.6</ele>
        <time>2021-11-27T11:07:38Z</time>
      </trkpt>
      <trkpt lat="42.88952" lon="0.0766">
        <ele>1726.6</ele>
        <time>2021-11-27T11:07:41Z</time>
      </trkpt>
      <trkpt lat="42.88951" lon="0.07658">
        <ele>1726.6</ele>
        <time>2021-11-27T11:07:44Z</time>
      </trkpt>
      <trkpt lat="42.88951" lon="0.07656">
        <ele>1726.6</ele>
        <time>2021-11-27T11:07:46Z</time>
      </trkpt>
      <trkpt lat="42.88949" lon="0.07652">
        <ele>1728.2</ele>
        <time>2021-11-27T11:07:49Z</time>
      </trkpt>
      <trkpt lat="42.88949" lon="0.07649">
        <ele>1728.2</ele>
        <time>2021-11-27T11:07:52Z</time>
      </trkpt>
      <trkpt lat="42.88949" lon="0.07646">
        <ele>1728.2</ele>
        <time>2021-11-27T11:07:55Z</time>
      </trkpt>
      <trkpt lat="42.88947" lon="0.07644">
        <ele>1728.2</ele>
        <time>2021-11-27T11:07:58Z</time>
      </trkpt>
      <trkpt lat="42.88946" lon="0.07641">
        <ele>1728.2</ele>
        <time>2021-11-27T11:08:01Z</time>
      </trkpt>
      <trkpt lat="42.88945" lon="0.07638">
        <ele>1728.2</ele>
        <time>2021-11-27T11:08:04Z</time>
      </trkpt>
      <trkpt lat="42.88945" lon="0.07634">
        <ele>1728.2</ele>
        <time>2021-11-27T11:08:07Z</time>
      </trkpt>
      <trkpt lat="42.88945" lon="0.07631">
        <ele>1728.2</ele>
        <time>2021-11-27T11:08:10Z</time>
      </trkpt>
      <trkpt lat="42.88944" lon="0.07629">
        <ele>1728.2</ele>
        <time>2021-11-27T11:08:13Z</time>
      </trkpt>
      <trkpt lat="42.88944" lon="0.07626">
        <ele>1728.2</ele>
        <time>2021-11-27T11:08:15Z</time>
      </trkpt>
      <trkpt lat="42.88943" lon="0.07623">
        <ele>1728.2</ele>
        <time>2021-11-27T11:08:18Z</time>
      </trkpt>
      <trkpt lat="42.88942" lon="0.0762">
        <ele>1728.2</ele>
        <time>2021-11-27T11:08:21Z</time>
      </trkpt>
      <trkpt lat="42.88942" lon="0.07617">
        <ele>1728.2</ele>
        <time>2021-11-27T11:08:23Z</time>
      </trkpt>
      <trkpt lat="42.88941" lon="0.07615">
        <ele>1728.2</ele>
        <time>2021-11-27T11:08:25Z</time>
      </trkpt>
      <trkpt lat="42.88941" lon="0.07612">
        <ele>1728.2</ele>
        <time>2021-11-27T11:08:28Z</time>
      </trkpt>
      <trkpt lat="42.88941" lon="0.07609">
        <ele>1728.2</ele>
        <time>2021-11-27T11:08:31Z</time>
      </trkpt>
      <trkpt lat="42.8894" lon="0.07606">
        <ele>1728.2</ele>
        <time>2021-11-27T11:08:34Z</time>
      </trkpt>
      <trkpt lat="42.8894" lon="0.07603">
        <ele>1728.2</ele>
        <time>2021-11-27T11:08:38Z</time>
      </trkpt>
      <trkpt lat="42.8894" lon="0.076">
        <ele>1728.2</ele>
        <time>2021-11-27T11:08:41Z</time>
      </trkpt>
      <trkpt lat="42.88939" lon="0.07598">
        <ele>1728.2</ele>
        <time>2021-11-27T11:08:43Z</time>
      </trkpt>
      <trkpt lat="42.88939" lon="0.07594">
        <ele>1728.2</ele>
        <time>2021-11-27T11:08:46Z</time>
      </trkpt>
      <trkpt lat="42.88938" lon="0.07592">
        <ele>1731.2</ele>
        <time>2021-11-27T11:08:49Z</time>
      </trkpt>
      <trkpt lat="42.88939" lon="0.07588">
        <ele>1731.2</ele>
        <time>2021-11-27T11:08:52Z</time>
      </trkpt>
      <trkpt lat="42.88939" lon="0.07585">
        <ele>1731.2</ele>
        <time>2021-11-27T11:08:55Z</time>
      </trkpt>
      <trkpt lat="42.8894" lon="0.07582">
        <ele>1731.2</ele>
        <time>2021-11-27T11:08:58Z</time>
      </trkpt>
      <trkpt lat="42.88939" lon="0.0758">
        <ele>1731.2</ele>
        <time>2021-11-27T11:09:01Z</time>
      </trkpt>
      <trkpt lat="42.8894" lon="0.07576">
        <ele>1731.2</ele>
        <time>2021-11-27T11:09:04Z</time>
      </trkpt>
      <trkpt lat="42.88939" lon="0.07574">
        <ele>1731.2</ele>
        <time>2021-11-27T11:09:07Z</time>
      </trkpt>
      <trkpt lat="42.88938" lon="0.07572">
        <ele>1731.2</ele>
        <time>2021-11-27T11:09:10Z</time>
      </trkpt>
      <trkpt lat="42.88938" lon="0.07568">
        <ele>1731.2</ele>
        <time>2021-11-27T11:09:13Z</time>
      </trkpt>
      <trkpt lat="42.88938" lon="0.07565">
        <ele>1731.2</ele>
        <time>2021-11-27T11:09:17Z</time>
      </trkpt>
      <trkpt lat="42.88937" lon="0.07563">
        <ele>1731.2</ele>
        <time>2021-11-27T11:09:20Z</time>
      </trkpt>
      <trkpt lat="42.88937" lon="0.0756">
        <ele>1731.2</ele>
        <time>2021-11-27T11:09:22Z</time>
      </trkpt>
      <trkpt lat="42.88937" lon="0.07557">
        <ele>1731.2</ele>
        <time>2021-11-27T11:09:25Z</time>
      </trkpt>
      <trkpt lat="42.88937" lon="0.07554">
        <ele>1731.2</ele>
        <time>2021-11-27T11:09:27Z</time>
      </trkpt>
      <trkpt lat="42.88937" lon="0.07551">
        <ele>1731.2</ele>
        <time>2021-11-27T11:09:30Z</time>
      </trkpt>
      <trkpt lat="42.88938" lon="0.07549">
        <ele>1731.2</ele>
        <time>2021-11-27T11:09:32Z</time>
      </trkpt>
      <trkpt lat="42.88939" lon="0.07546">
        <ele>1731.2</ele>
        <time>2021-11-27T11:09:34Z</time>
      </trkpt>
      <trkpt lat="42.88939" lon="0.07542">
        <ele>1731.2</ele>
        <time>2021-11-27T11:09:37Z</time>
      </trkpt>
      <trkpt lat="42.8894" lon="0.07539">
        <ele>1734.6</ele>
        <time>2021-11-27T11:09:39Z</time>
      </trkpt>
      <trkpt lat="42.8894" lon="0.07536">
        <ele>1734.6</ele>
        <time>2021-11-27T11:09:42Z</time>
      </trkpt>
      <trkpt lat="42.8894" lon="0.07533">
        <ele>1734.6</ele>
        <time>2021-11-27T11:09:44Z</time>
      </trkpt>
      <trkpt lat="42.8894" lon="0.0753">
        <ele>1734.6</ele>
        <time>2021-11-27T11:09:47Z</time>
      </trkpt>
      <trkpt lat="42.88941" lon="0.07527">
        <ele>1734.6</ele>
        <time>2021-11-27T11:09:50Z</time>
      </trkpt>
      <trkpt lat="42.88942" lon="0.07525">
        <ele>1734.6</ele>
        <time>2021-11-27T11:09:52Z</time>
      </trkpt>
      <trkpt lat="42.88942" lon="0.07522">
        <ele>1734.6</ele>
        <time>2021-11-27T11:09:54Z</time>
      </trkpt>
      <trkpt lat="42.88943" lon="0.07519">
        <ele>1734.6</ele>
        <time>2021-11-27T11:09:57Z</time>
      </trkpt>
      <trkpt lat="42.88944" lon="0.07517">
        <ele>1735.4</ele>
        <time>2021-11-27T11:09:59Z</time>
      </trkpt>
      <trkpt lat="42.88945" lon="0.07515">
        <ele>1735.4</ele>
        <time>2021-11-27T11:10:01Z</time>
      </trkpt>
      <trkpt lat="42.88945" lon="0.07511">
        <ele>1735.4</ele>
        <time>2021-11-27T11:10:03Z</time>
      </trkpt>
      <trkpt lat="42.88945" lon="0.07508">
        <ele>1735.4</ele>
        <time>2021-11-27T11:10:07Z</time>
      </trkpt>
      <trkpt lat="42.88946" lon="0.07505">
        <ele>1735.4</ele>
        <time>2021-11-27T11:10:10Z</time>
      </trkpt>
      <trkpt lat="42.88947" lon="0.07503">
        <ele>1735.4</ele>
        <time>2021-11-27T11:10:12Z</time>
      </trkpt>
      <trkpt lat="42.88947" lon="0.075">
        <ele>1735.4</ele>
        <time>2021-11-27T11:10:14Z</time>
      </trkpt>
      <trkpt lat="42.88947" lon="0.07496">
        <ele>1735.4</ele>
        <time>2021-11-27T11:10:16Z</time>
      </trkpt>
      <trkpt lat="42.88946" lon="0.07493">
        <ele>1737</ele>
        <time>2021-11-27T11:10:19Z</time>
      </trkpt>
      <trkpt lat="42.88946" lon="0.0749">
        <ele>1737</ele>
        <time>2021-11-27T11:10:21Z</time>
      </trkpt>
      <trkpt lat="42.88947" lon="0.07487">
        <ele>1737</ele>
        <time>2021-11-27T11:10:23Z</time>
      </trkpt>
      <trkpt lat="42.88948" lon="0.07485">
        <ele>1737</ele>
        <time>2021-11-27T11:10:25Z</time>
      </trkpt>
      <trkpt lat="42.88948" lon="0.07482">
        <ele>1737</ele>
        <time>2021-11-27T11:10:28Z</time>
      </trkpt>
      <trkpt lat="42.88948" lon="0.07478">
        <ele>1737</ele>
        <time>2021-11-27T11:10:31Z</time>
      </trkpt>
      <trkpt lat="42.88948" lon="0.07475">
        <ele>1737</ele>
        <time>2021-11-27T11:10:34Z</time>
      </trkpt>
      <trkpt lat="42.88948" lon="0.07473">
        <ele>1737</ele>
        <time>2021-11-27T11:10:36Z</time>
      </trkpt>
      <trkpt lat="42.88947" lon="0.07469">
        <ele>1738.6</ele>
        <time>2021-11-27T11:10:39Z</time>
      </trkpt>
      <trkpt lat="42.88948" lon="0.07466">
        <ele>1738.6</ele>
        <time>2021-11-27T11:10:42Z</time>
      </trkpt>
      <trkpt lat="42.88948" lon="0.07463">
        <ele>1738.6</ele>
        <time>2021-11-27T11:10:45Z</time>
      </trkpt>
      <trkpt lat="42.88948" lon="0.0746">
        <ele>1738.6</ele>
        <time>2021-11-27T11:10:48Z</time>
      </trkpt>
      <trkpt lat="42.88949" lon="0.07457">
        <ele>1738.6</ele>
        <time>2021-11-27T11:10:51Z</time>
      </trkpt>
      <trkpt lat="42.88949" lon="0.07454">
        <ele>1738.6</ele>
        <time>2021-11-27T11:10:54Z</time>
      </trkpt>
      <trkpt lat="42.88949" lon="0.07451">
        <ele>1738.6</ele>
        <time>2021-11-27T11:10:57Z</time>
      </trkpt>
      <trkpt lat="42.88949" lon="0.07448">
        <ele>1738.6</ele>
        <time>2021-11-27T11:11:00Z</time>
      </trkpt>
      <trkpt lat="42.88949" lon="0.07445">
        <ele>1738.6</ele>
        <time>2021-11-27T11:11:03Z</time>
      </trkpt>
      <trkpt lat="42.88949" lon="0.07442">
        <ele>1738.6</ele>
        <time>2021-11-27T11:11:07Z</time>
      </trkpt>
      <trkpt lat="42.88949" lon="0.07438">
        <ele>1738.6</ele>
        <time>2021-11-27T11:11:10Z</time>
      </trkpt>
      <trkpt lat="42.88948" lon="0.07436">
        <ele>1738.6</ele>
        <time>2021-11-27T11:11:12Z</time>
      </trkpt>
      <trkpt lat="42.88949" lon="0.07434">
        <ele>1738.6</ele>
        <time>2021-11-27T11:11:14Z</time>
      </trkpt>
      <trkpt lat="42.88949" lon="0.07431">
        <ele>1738.6</ele>
        <time>2021-11-27T11:11:17Z</time>
      </trkpt>
      <trkpt lat="42.88948" lon="0.07427">
        <ele>1738.6</ele>
        <time>2021-11-27T11:11:20Z</time>
      </trkpt>
      <trkpt lat="42.88948" lon="0.07424">
        <ele>1738.6</ele>
        <time>2021-11-27T11:11:23Z</time>
      </trkpt>
      <trkpt lat="42.88948" lon="0.07421">
        <ele>1738.6</ele>
        <time>2021-11-27T11:11:26Z</time>
      </trkpt>
      <trkpt lat="42.88948" lon="0.07418">
        <ele>1742.2</ele>
        <time>2021-11-27T11:11:29Z</time>
      </trkpt>
      <trkpt lat="42.88948" lon="0.07415">
        <ele>1742.2</ele>
        <time>2021-11-27T11:11:32Z</time>
      </trkpt>
      <trkpt lat="42.88948" lon="0.07412">
        <ele>1742.2</ele>
        <time>2021-11-27T11:11:35Z</time>
      </trkpt>
      <trkpt lat="42.88948" lon="0.07409">
        <ele>1742.2</ele>
        <time>2021-11-27T11:11:38Z</time>
      </trkpt>
      <trkpt lat="42.88948" lon="0.07406">
        <ele>1742.2</ele>
        <time>2021-11-27T11:11:41Z</time>
      </trkpt>
      <trkpt lat="42.88948" lon="0.07402">
        <ele>1742.2</ele>
        <time>2021-11-27T11:11:44Z</time>
      </trkpt>
      <trkpt lat="42.88948" lon="0.074">
        <ele>1742.2</ele>
        <time>2021-11-27T11:11:47Z</time>
      </trkpt>
      <trkpt lat="42.88948" lon="0.07397">
        <ele>1742.2</ele>
        <time>2021-11-27T11:11:50Z</time>
      </trkpt>
      <trkpt lat="42.88946" lon="0.07394">
        <ele>1742.2</ele>
        <time>2021-11-27T11:11:53Z</time>
      </trkpt>
      <trkpt lat="42.88945" lon="0.07391">
        <ele>1742.2</ele>
        <time>2021-11-27T11:11:57Z</time>
      </trkpt>
      <trkpt lat="42.88945" lon="0.07388">
        <ele>1742.2</ele>
        <time>2021-11-27T11:12:00Z</time>
      </trkpt>
      <trkpt lat="42.88944" lon="0.07386">
        <ele>1742.2</ele>
        <time>2021-11-27T11:12:03Z</time>
      </trkpt>
      <trkpt lat="42.88943" lon="0.07384">
        <ele>1742.2</ele>
        <time>2021-11-27T11:12:06Z</time>
      </trkpt>
      <trkpt lat="42.88942" lon="0.07381">
        <ele>1745</ele>
        <time>2021-11-27T11:12:09Z</time>
      </trkpt>
      <trkpt lat="42.88941" lon="0.07378">
        <ele>1745</ele>
        <time>2021-11-27T11:12:12Z</time>
      </trkpt>
      <trkpt lat="42.88941" lon="0.07375">
        <ele>1745</ele>
        <time>2021-11-27T11:13:00Z</time>
      </trkpt>
      <trkpt lat="42.8894" lon="0.07373">
        <ele>1745</ele>
        <time>2021-11-27T11:13:02Z</time>
      </trkpt>
      <trkpt lat="42.88939" lon="0.07369">
        <ele>1745</ele>
        <time>2021-11-27T11:13:08Z</time>
      </trkpt>
      <trkpt lat="42.88938" lon="0.07366">
        <ele>1745</ele>
        <time>2021-11-27T11:13:13Z</time>
      </trkpt>
      <trkpt lat="42.88938" lon="0.07364">
        <ele>1745</ele>
        <time>2021-11-27T11:13:16Z</time>
      </trkpt>
      <trkpt lat="42.88937" lon="0.07361">
        <ele>1746.2</ele>
        <time>2021-11-27T11:13:19Z</time>
      </trkpt>
      <trkpt lat="42.88938" lon="0.07358">
        <ele>1746.2</ele>
        <time>2021-11-27T11:13:22Z</time>
      </trkpt>
      <trkpt lat="42.88937" lon="0.07355">
        <ele>1746.2</ele>
        <time>2021-11-27T11:13:25Z</time>
      </trkpt>
      <trkpt lat="42.88936" lon="0.07352">
        <ele>1746.2</ele>
        <time>2021-11-27T11:13:28Z</time>
      </trkpt>
      <trkpt lat="42.88936" lon="0.07349">
        <ele>1746.2</ele>
        <time>2021-11-27T11:13:31Z</time>
      </trkpt>
      <trkpt lat="42.88935" lon="0.07346">
        <ele>1746.2</ele>
        <time>2021-11-27T11:13:34Z</time>
      </trkpt>
      <trkpt lat="42.88934" lon="0.07344">
        <ele>1746.2</ele>
        <time>2021-11-27T11:13:37Z</time>
      </trkpt>
      <trkpt lat="42.88934" lon="0.07341">
        <ele>1746.2</ele>
        <time>2021-11-27T11:13:45Z</time>
      </trkpt>
      <trkpt lat="42.88933" lon="0.07339">
        <ele>1746.2</ele>
        <time>2021-11-27T11:13:48Z</time>
      </trkpt>
      <trkpt lat="42.88933" lon="0.07336">
        <ele>1746.2</ele>
        <time>2021-11-27T11:13:51Z</time>
      </trkpt>
      <trkpt lat="42.88932" lon="0.07334">
        <ele>1746.2</ele>
        <time>2021-11-27T11:14:15Z</time>
      </trkpt>
      <trkpt lat="42.88931" lon="0.07331">
        <ele>1746.2</ele>
        <time>2021-11-27T11:14:17Z</time>
      </trkpt>
      <trkpt lat="42.8893" lon="0.07328">
        <ele>1748.2</ele>
        <time>2021-11-27T11:14:19Z</time>
      </trkpt>
      <trkpt lat="42.88929" lon="0.07324">
        <ele>1748.2</ele>
        <time>2021-11-27T11:14:21Z</time>
      </trkpt>
      <trkpt lat="42.88928" lon="0.07321">
        <ele>1748.2</ele>
        <time>2021-11-27T11:14:23Z</time>
      </trkpt>
      <trkpt lat="42.88927" lon="0.07318">
        <ele>1748.2</ele>
        <time>2021-11-27T11:14:26Z</time>
      </trkpt>
      <trkpt lat="42.88925" lon="0.07315">
        <ele>1748.8</ele>
        <time>2021-11-27T11:14:29Z</time>
      </trkpt>
      <trkpt lat="42.88923" lon="0.07314">
        <ele>1748.8</ele>
        <time>2021-11-27T11:14:31Z</time>
      </trkpt>
      <trkpt lat="42.88921" lon="0.07311">
        <ele>1748.8</ele>
        <time>2021-11-27T11:14:34Z</time>
      </trkpt>
      <trkpt lat="42.88919" lon="0.07308">
        <ele>1748.8</ele>
        <time>2021-11-27T11:14:37Z</time>
      </trkpt>
      <trkpt lat="42.88917" lon="0.07306">
        <ele>1748.8</ele>
        <time>2021-11-27T11:14:40Z</time>
      </trkpt>
      <trkpt lat="42.88916" lon="0.07304">
        <ele>1748.8</ele>
        <time>2021-11-27T11:14:43Z</time>
      </trkpt>
      <trkpt lat="42.88915" lon="0.07302">
        <ele>1748.8</ele>
        <time>2021-11-27T11:14:46Z</time>
      </trkpt>
      <trkpt lat="42.88913" lon="0.07299">
        <ele>1750.4</ele>
        <time>2021-11-27T11:14:49Z</time>
      </trkpt>
      <trkpt lat="42.88911" lon="0.07298">
        <ele>1750.4</ele>
        <time>2021-11-27T11:14:51Z</time>
      </trkpt>
      <trkpt lat="42.88909" lon="0.07297">
        <ele>1750.4</ele>
        <time>2021-11-27T11:14:53Z</time>
      </trkpt>
      <trkpt lat="42.88907" lon="0.07295">
        <ele>1750.4</ele>
        <time>2021-11-27T11:14:55Z</time>
      </trkpt>
      <trkpt lat="42.88905" lon="0.07293">
        <ele>1750.4</ele>
        <time>2021-11-27T11:14:57Z</time>
      </trkpt>
      <trkpt lat="42.88904" lon="0.07292">
        <ele>1751</ele>
        <time>2021-11-27T11:14:59Z</time>
      </trkpt>
      <trkpt lat="42.88903" lon="0.07289">
        <ele>1751</ele>
        <time>2021-11-27T11:15:01Z</time>
      </trkpt>
      <trkpt lat="42.88902" lon="0.07287">
        <ele>1751</ele>
        <time>2021-11-27T11:15:03Z</time>
      </trkpt>
      <trkpt lat="42.88902" lon="0.07284">
        <ele>1751</ele>
        <time>2021-11-27T11:15:05Z</time>
      </trkpt>
      <trkpt lat="42.88901" lon="0.07282">
        <ele>1751</ele>
        <time>2021-11-27T11:15:07Z</time>
      </trkpt>
      <trkpt lat="42.88899" lon="0.0728">
        <ele>1751.4</ele>
        <time>2021-11-27T11:15:09Z</time>
      </trkpt>
      <trkpt lat="42.88898" lon="0.07278">
        <ele>1751.4</ele>
        <time>2021-11-27T11:15:11Z</time>
      </trkpt>
      <trkpt lat="42.88896" lon="0.07275">
        <ele>1751.4</ele>
        <time>2021-11-27T11:15:14Z</time>
      </trkpt>
      <trkpt lat="42.88895" lon="0.07272">
        <ele>1751.4</ele>
        <time>2021-11-27T11:15:17Z</time>
      </trkpt>
      <trkpt lat="42.88893" lon="0.0727">
        <ele>1752</ele>
        <time>2021-11-27T11:15:19Z</time>
      </trkpt>
      <trkpt lat="42.88891" lon="0.07269">
        <ele>1752</ele>
        <time>2021-11-27T11:15:21Z</time>
      </trkpt>
      <trkpt lat="42.88889" lon="0.07268">
        <ele>1752</ele>
        <time>2021-11-27T11:15:23Z</time>
      </trkpt>
      <trkpt lat="42.88888" lon="0.07266">
        <ele>1752</ele>
        <time>2021-11-27T11:15:25Z</time>
      </trkpt>
      <trkpt lat="42.88886" lon="0.07265">
        <ele>1752</ele>
        <time>2021-11-27T11:15:27Z</time>
      </trkpt>
      <trkpt lat="42.88885" lon="0.07262">
        <ele>1752</ele>
        <time>2021-11-27T11:15:30Z</time>
      </trkpt>
      <trkpt lat="42.88883" lon="0.07259">
        <ele>1752</ele>
        <time>2021-11-27T11:15:34Z</time>
      </trkpt>
      <trkpt lat="42.88882" lon="0.07257">
        <ele>1752</ele>
        <time>2021-11-27T11:15:36Z</time>
      </trkpt>
      <trkpt lat="42.8888" lon="0.07256">
        <ele>1752</ele>
        <time>2021-11-27T11:15:38Z</time>
      </trkpt>
      <trkpt lat="42.88879" lon="0.07254">
        <ele>1752</ele>
        <time>2021-11-27T11:15:41Z</time>
      </trkpt>
      <trkpt lat="42.88877" lon="0.07252">
        <ele>1752</ele>
        <time>2021-11-27T11:15:44Z</time>
      </trkpt>
      <trkpt lat="42.88877" lon="0.07249">
        <ele>1752</ele>
        <time>2021-11-27T11:15:48Z</time>
      </trkpt>
      <trkpt lat="42.88875" lon="0.07246">
        <ele>1752</ele>
        <time>2021-11-27T11:15:51Z</time>
      </trkpt>
      <trkpt lat="42.88874" lon="0.07244">
        <ele>1752</ele>
        <time>2021-11-27T11:15:53Z</time>
      </trkpt>
      <trkpt lat="42.88874" lon="0.07241">
        <ele>1752</ele>
        <time>2021-11-27T11:15:56Z</time>
      </trkpt>
      <trkpt lat="42.88873" lon="0.07239">
        <ele>1753.8</ele>
        <time>2021-11-27T11:15:59Z</time>
      </trkpt>
      <trkpt lat="42.88871" lon="0.07236">
        <ele>1753.8</ele>
        <time>2021-11-27T11:16:03Z</time>
      </trkpt>
      <trkpt lat="42.8887" lon="0.07234">
        <ele>1753.8</ele>
        <time>2021-11-27T11:16:06Z</time>
      </trkpt>
      <trkpt lat="42.88869" lon="0.07232">
        <ele>1754.6</ele>
        <time>2021-11-27T11:16:09Z</time>
      </trkpt>
      <trkpt lat="42.88867" lon="0.0723">
        <ele>1754.6</ele>
        <time>2021-11-27T11:16:11Z</time>
      </trkpt>
      <trkpt lat="42.88866" lon="0.07227">
        <ele>1754.6</ele>
        <time>2021-11-27T11:16:14Z</time>
      </trkpt>
      <trkpt lat="42.88866" lon="0.07224">
        <ele>1754.6</ele>
        <time>2021-11-27T11:16:17Z</time>
      </trkpt>
      <trkpt lat="42.88865" lon="0.07222">
        <ele>1754.6</ele>
        <time>2021-11-27T11:16:20Z</time>
      </trkpt>
      <trkpt lat="42.88864" lon="0.0722">
        <ele>1754.6</ele>
        <time>2021-11-27T11:16:24Z</time>
      </trkpt>
      <trkpt lat="42.88862" lon="0.07219">
        <ele>1754.6</ele>
        <time>2021-11-27T11:16:26Z</time>
      </trkpt>
      <trkpt lat="42.8886" lon="0.07217">
        <ele>1756.6</ele>
        <time>2021-11-27T11:16:29Z</time>
      </trkpt>
      <trkpt lat="42.88859" lon="0.07215">
        <ele>1756.6</ele>
        <time>2021-11-27T11:16:32Z</time>
      </trkpt>
      <trkpt lat="42.88857" lon="0.07215">
        <ele>1756.6</ele>
        <time>2021-11-27T11:16:34Z</time>
      </trkpt>
      <trkpt lat="42.88855" lon="0.07213">
        <ele>1757.2</ele>
        <time>2021-11-27T11:16:39Z</time>
      </trkpt>
      <trkpt lat="42.88853" lon="0.07212">
        <ele>1757.2</ele>
        <time>2021-11-27T11:16:41Z</time>
      </trkpt>
      <trkpt lat="42.88851" lon="0.0721">
        <ele>1757.2</ele>
        <time>2021-11-27T11:16:44Z</time>
      </trkpt>
      <trkpt lat="42.88849" lon="0.07209">
        <ele>1757.2</ele>
        <time>2021-11-27T11:16:46Z</time>
      </trkpt>
      <trkpt lat="42.88846" lon="0.07207">
        <ele>1757.2</ele>
        <time>2021-11-27T11:17:33Z</time>
      </trkpt>
      <trkpt lat="42.88843" lon="0.07205">
        <ele>1757.2</ele>
        <time>2021-11-27T11:17:35Z</time>
      </trkpt>
      <trkpt lat="42.88841" lon="0.07204">
        <ele>1757.2</ele>
        <time>2021-11-27T11:17:37Z</time>
      </trkpt>
      <trkpt lat="42.88838" lon="0.07202">
        <ele>1758.8</ele>
        <time>2021-11-27T11:17:39Z</time>
      </trkpt>
      <trkpt lat="42.88835" lon="0.072">
        <ele>1758.8</ele>
        <time>2021-11-27T11:17:41Z</time>
      </trkpt>
      <trkpt lat="42.88833" lon="0.07197">
        <ele>1758.8</ele>
        <time>2021-11-27T11:17:43Z</time>
      </trkpt>
      <trkpt lat="42.88832" lon="0.07195">
        <ele>1758.8</ele>
        <time>2021-11-27T11:17:45Z</time>
      </trkpt>
      <trkpt lat="42.8883" lon="0.07193">
        <ele>1758.8</ele>
        <time>2021-11-27T11:17:47Z</time>
      </trkpt>
      <trkpt lat="42.88829" lon="0.0719">
        <ele>1759.6</ele>
        <time>2021-11-27T11:17:49Z</time>
      </trkpt>
      <trkpt lat="42.88828" lon="0.07188">
        <ele>1759.6</ele>
        <time>2021-11-27T11:17:51Z</time>
      </trkpt>
      <trkpt lat="42.88827" lon="0.07185">
        <ele>1759.6</ele>
        <time>2021-11-27T11:17:54Z</time>
      </trkpt>
      <trkpt lat="42.88826" lon="0.07183">
        <ele>1759.6</ele>
        <time>2021-11-27T11:17:56Z</time>
      </trkpt>
      <trkpt lat="42.88825" lon="0.07179">
        <ele>1761</ele>
        <time>2021-11-27T11:17:59Z</time>
      </trkpt>
      <trkpt lat="42.88823" lon="0.07177">
        <ele>1761</ele>
        <time>2021-11-27T11:18:01Z</time>
      </trkpt>
      <trkpt lat="42.88822" lon="0.07175">
        <ele>1761</ele>
        <time>2021-11-27T11:18:03Z</time>
      </trkpt>
      <trkpt lat="42.88821" lon="0.07172">
        <ele>1761</ele>
        <time>2021-11-27T11:18:06Z</time>
      </trkpt>
      <trkpt lat="42.8882" lon="0.0717">
        <ele>1761</ele>
        <time>2021-11-27T11:18:08Z</time>
      </trkpt>
      <trkpt lat="42.88818" lon="0.07168">
        <ele>1761</ele>
        <time>2021-11-27T11:18:10Z</time>
      </trkpt>
      <trkpt lat="42.88816" lon="0.07167">
        <ele>1761</ele>
        <time>2021-11-27T11:18:15Z</time>
      </trkpt>
      <trkpt lat="42.88815" lon="0.07164">
        <ele>1762.4</ele>
        <time>2021-11-27T11:18:19Z</time>
      </trkpt>
      <trkpt lat="42.88813" lon="0.07164">
        <ele>1762.4</ele>
        <time>2021-11-27T11:18:24Z</time>
      </trkpt>
      <trkpt lat="42.88811" lon="0.07162">
        <ele>1762.4</ele>
        <time>2021-11-27T11:18:28Z</time>
      </trkpt>
      <trkpt lat="42.88809" lon="0.07161">
        <ele>1762.4</ele>
        <time>2021-11-27T11:18:31Z</time>
      </trkpt>
      <trkpt lat="42.88807" lon="0.0716">
        <ele>1762.4</ele>
        <time>2021-11-27T11:18:36Z</time>
      </trkpt>
      <trkpt lat="42.88806" lon="0.07158">
        <ele>1763.4</ele>
        <time>2021-11-27T11:18:39Z</time>
      </trkpt>
      <trkpt lat="42.88804" lon="0.07157">
        <ele>1763.4</ele>
        <time>2021-11-27T11:18:42Z</time>
      </trkpt>
      <trkpt lat="42.88802" lon="0.07155">
        <ele>1763.4</ele>
        <time>2021-11-27T11:18:45Z</time>
      </trkpt>
      <trkpt lat="42.888" lon="0.07154">
        <ele>1763.4</ele>
        <time>2021-11-27T11:18:48Z</time>
      </trkpt>
      <trkpt lat="42.88798" lon="0.07153">
        <ele>1763.4</ele>
        <time>2021-11-27T11:18:51Z</time>
      </trkpt>
      <trkpt lat="42.88796" lon="0.07153">
        <ele>1763.4</ele>
        <time>2021-11-27T11:18:53Z</time>
      </trkpt>
      <trkpt lat="42.88794" lon="0.07152">
        <ele>1763.4</ele>
        <time>2021-11-27T11:18:56Z</time>
      </trkpt>
      <trkpt lat="42.88792" lon="0.07151">
        <ele>1763.4</ele>
        <time>2021-11-27T11:19:00Z</time>
      </trkpt>
      <trkpt lat="42.8879" lon="0.0715">
        <ele>1763.4</ele>
        <time>2021-11-27T11:19:02Z</time>
      </trkpt>
      <trkpt lat="42.88788" lon="0.07149">
        <ele>1763.4</ele>
        <time>2021-11-27T11:19:05Z</time>
      </trkpt>
      <trkpt lat="42.88787" lon="0.07148">
        <ele>1763.4</ele>
        <time>2021-11-27T11:19:08Z</time>
      </trkpt>
      <trkpt lat="42.88784" lon="0.07147">
        <ele>1763.4</ele>
        <time>2021-11-27T11:19:11Z</time>
      </trkpt>
      <trkpt lat="42.88782" lon="0.07145">
        <ele>1763.4</ele>
        <time>2021-11-27T11:19:14Z</time>
      </trkpt>
      <trkpt lat="42.8878" lon="0.07144">
        <ele>1763.4</ele>
        <time>2021-11-27T11:19:18Z</time>
      </trkpt>
      <trkpt lat="42.88779" lon="0.07143">
        <ele>1763.4</ele>
        <time>2021-11-27T11:19:22Z</time>
      </trkpt>
      <trkpt lat="42.88777" lon="0.07144">
        <ele>1763.4</ele>
        <time>2021-11-27T11:19:28Z</time>
      </trkpt>
      <trkpt lat="42.88777" lon="0.07147">
        <ele>1763.4</ele>
        <time>2021-11-27T11:19:33Z</time>
      </trkpt>
      <trkpt lat="42.88779" lon="0.07149">
        <ele>1763.4</ele>
        <time>2021-11-27T11:19:38Z</time>
      </trkpt>
      <trkpt lat="42.8878" lon="0.07151">
        <ele>1763.4</ele>
        <time>2021-11-27T11:19:41Z</time>
      </trkpt>
      <trkpt lat="42.88782" lon="0.07153">
        <ele>1763.4</ele>
        <time>2021-11-27T11:19:44Z</time>
      </trkpt>
      <trkpt lat="42.88783" lon="0.07155">
        <ele>1763.4</ele>
        <time>2021-11-27T11:19:47Z</time>
      </trkpt>
      <trkpt lat="42.88785" lon="0.07157">
        <ele>1763.4</ele>
        <time>2021-11-27T11:19:50Z</time>
      </trkpt>
      <trkpt lat="42.88788" lon="0.07159">
        <ele>1763.4</ele>
        <time>2021-11-27T11:19:53Z</time>
      </trkpt>
      <trkpt lat="42.88789" lon="0.0716">
        <ele>1763.4</ele>
        <time>2021-11-27T11:19:56Z</time>
      </trkpt>
      <trkpt lat="42.88792" lon="0.07162">
        <ele>1763.4</ele>
        <time>2021-11-27T11:20:00Z</time>
      </trkpt>
      <trkpt lat="42.88793" lon="0.07163">
        <ele>1763.4</ele>
        <time>2021-11-27T11:20:03Z</time>
      </trkpt>
      <trkpt lat="42.88795" lon="0.07165">
        <ele>1763.4</ele>
        <time>2021-11-27T11:20:06Z</time>
      </trkpt>
      <trkpt lat="42.88797" lon="0.07166">
        <ele>1767.6</ele>
        <time>2021-11-27T11:20:09Z</time>
      </trkpt>
      <trkpt lat="42.88799" lon="0.07168">
        <ele>1767.6</ele>
        <time>2021-11-27T11:20:13Z</time>
      </trkpt>
      <trkpt lat="42.888" lon="0.07171">
        <ele>1767.6</ele>
        <time>2021-11-27T11:20:16Z</time>
      </trkpt>
      <trkpt lat="42.88801" lon="0.07173">
        <ele>1768.4</ele>
        <time>2021-11-27T11:20:19Z</time>
      </trkpt>
      <trkpt lat="42.88802" lon="0.07176">
        <ele>1768.4</ele>
        <time>2021-11-27T11:22:51Z</time>
      </trkpt>
      <trkpt lat="42.888" lon="0.07177">
        <ele>1768.4</ele>
        <time>2021-11-27T11:22:53Z</time>
      </trkpt>
      <trkpt lat="42.88797" lon="0.07178">
        <ele>1768.4</ele>
        <time>2021-11-27T11:22:55Z</time>
      </trkpt>
      <trkpt lat="42.88794" lon="0.07178">
        <ele>1768.4</ele>
        <time>2021-11-27T11:22:57Z</time>
      </trkpt>
      <trkpt lat="42.88792" lon="0.07179">
        <ele>1769.2</ele>
        <time>2021-11-27T11:22:59Z</time>
      </trkpt>
      <trkpt lat="42.8879" lon="0.07179">
        <ele>1769.2</ele>
        <time>2021-11-27T11:23:01Z</time>
      </trkpt>
      <trkpt lat="42.88788" lon="0.07179">
        <ele>1769.2</ele>
        <time>2021-11-27T11:23:03Z</time>
      </trkpt>
      <trkpt lat="42.88785" lon="0.07178">
        <ele>1769.2</ele>
        <time>2021-11-27T11:23:05Z</time>
      </trkpt>
      <trkpt lat="42.88784" lon="0.07177">
        <ele>1769.2</ele>
        <time>2021-11-27T11:23:07Z</time>
      </trkpt>
      <trkpt lat="42.88782" lon="0.07176">
        <ele>1769.2</ele>
        <time>2021-11-27T11:23:09Z</time>
      </trkpt>
      <trkpt lat="42.8878" lon="0.07175">
        <ele>1769.2</ele>
        <time>2021-11-27T11:23:11Z</time>
      </trkpt>
      <trkpt lat="42.88777" lon="0.07174">
        <ele>1769.2</ele>
        <time>2021-11-27T11:23:14Z</time>
      </trkpt>
      <trkpt lat="42.88775" lon="0.07172">
        <ele>1769.2</ele>
        <time>2021-11-27T11:23:16Z</time>
      </trkpt>
      <trkpt lat="42.88774" lon="0.0717">
        <ele>1769.6</ele>
        <time>2021-11-27T11:23:19Z</time>
      </trkpt>
      <trkpt lat="42.88772" lon="0.07167">
        <ele>1769.6</ele>
        <time>2021-11-27T11:23:22Z</time>
      </trkpt>
      <trkpt lat="42.8877" lon="0.07165">
        <ele>1769.6</ele>
        <time>2021-11-27T11:23:24Z</time>
      </trkpt>
      <trkpt lat="42.88768" lon="0.07164">
        <ele>1769.6</ele>
        <time>2021-11-27T11:23:26Z</time>
      </trkpt>
      <trkpt lat="42.88767" lon="0.07163">
        <ele>1769.6</ele>
        <time>2021-11-27T11:23:28Z</time>
      </trkpt>
      <trkpt lat="42.88766" lon="0.0716">
        <ele>1769.6</ele>
        <time>2021-11-27T11:23:32Z</time>
      </trkpt>
      <trkpt lat="42.88765" lon="0.07158">
        <ele>1769.6</ele>
        <time>2021-11-27T11:23:34Z</time>
      </trkpt>
      <trkpt lat="42.88763" lon="0.07156">
        <ele>1769.6</ele>
        <time>2021-11-27T11:23:37Z</time>
      </trkpt>
      <trkpt lat="42.88763" lon="0.07153">
        <ele>1769.8</ele>
        <time>2021-11-27T11:23:39Z</time>
      </trkpt>
      <trkpt lat="42.88761" lon="0.0715">
        <ele>1769.8</ele>
        <time>2021-11-27T11:23:42Z</time>
      </trkpt>
      <trkpt lat="42.88759" lon="0.07149">
        <ele>1769.8</ele>
        <time>2021-11-27T11:23:44Z</time>
      </trkpt>
      <trkpt lat="42.88757" lon="0.07147">
        <ele>1769.8</ele>
        <time>2021-11-27T11:23:46Z</time>
      </trkpt>
      <trkpt lat="42.88755" lon="0.07145">
        <ele>1770.6</ele>
        <time>2021-11-27T11:23:49Z</time>
      </trkpt>
      <trkpt lat="42.88753" lon="0.07142">
        <ele>1770.6</ele>
        <time>2021-11-27T11:23:52Z</time>
      </trkpt>
      <trkpt lat="42.88751" lon="0.0714">
        <ele>1770.6</ele>
        <time>2021-11-27T11:23:55Z</time>
      </trkpt>
      <trkpt lat="42.88749" lon="0.07138">
        <ele>1770.6</ele>
        <time>2021-11-27T11:23:58Z</time>
      </trkpt>
      <trkpt lat="42.88748" lon="0.07136">
        <ele>1770.6</ele>
        <time>2021-11-27T11:24:00Z</time>
      </trkpt>
      <trkpt lat="42.88746" lon="0.07134">
        <ele>1770.6</ele>
        <time>2021-11-27T11:24:02Z</time>
      </trkpt>
      <trkpt lat="42.88746" lon="0.07131">
        <ele>1770.6</ele>
        <time>2021-11-27T11:24:05Z</time>
      </trkpt>
      <trkpt lat="42.88744" lon="0.07128">
        <ele>1770.6</ele>
        <time>2021-11-27T11:24:08Z</time>
      </trkpt>
      <trkpt lat="42.88742" lon="0.07127">
        <ele>1770.6</ele>
        <time>2021-11-27T11:24:10Z</time>
      </trkpt>
      <trkpt lat="42.88742" lon="0.07125">
        <ele>1770.6</ele>
        <time>2021-11-27T11:24:13Z</time>
      </trkpt>
      <trkpt lat="42.8874" lon="0.07123">
        <ele>1770.6</ele>
        <time>2021-11-27T11:24:15Z</time>
      </trkpt>
      <trkpt lat="42.88738" lon="0.07121">
        <ele>1770.6</ele>
        <time>2021-11-27T11:24:18Z</time>
      </trkpt>
      <trkpt lat="42.88738" lon="0.07118">
        <ele>1770.6</ele>
        <time>2021-11-27T11:24:20Z</time>
      </trkpt>
      <trkpt lat="42.88737" lon="0.07116">
        <ele>1770.6</ele>
        <time>2021-11-27T11:24:22Z</time>
      </trkpt>
      <trkpt lat="42.88735" lon="0.07114">
        <ele>1770.6</ele>
        <time>2021-11-27T11:24:25Z</time>
      </trkpt>
      <trkpt lat="42.88732" lon="0.07113">
        <ele>1770.6</ele>
        <time>2021-11-27T11:24:27Z</time>
      </trkpt>
      <trkpt lat="42.8873" lon="0.07112">
        <ele>1773.8</ele>
        <time>2021-11-27T11:24:29Z</time>
      </trkpt>
      <trkpt lat="42.88729" lon="0.0711">
        <ele>1773.8</ele>
        <time>2021-11-27T11:24:32Z</time>
      </trkpt>
      <trkpt lat="42.88728" lon="0.07108">
        <ele>1773.8</ele>
        <time>2021-11-27T11:24:35Z</time>
      </trkpt>
      <trkpt lat="42.88728" lon="0.07105">
        <ele>1774.8</ele>
        <time>2021-11-27T11:24:39Z</time>
      </trkpt>
      <trkpt lat="42.88726" lon="0.07103">
        <ele>1774.8</ele>
        <time>2021-11-27T11:24:41Z</time>
      </trkpt>
      <trkpt lat="42.88725" lon="0.07101">
        <ele>1774.8</ele>
        <time>2021-11-27T11:24:43Z</time>
      </trkpt>
      <trkpt lat="42.88723" lon="0.071">
        <ele>1774.8</ele>
        <time>2021-11-27T11:24:45Z</time>
      </trkpt>
      <trkpt lat="42.88722" lon="0.07097">
        <ele>1774.8</ele>
        <time>2021-11-27T11:24:47Z</time>
      </trkpt>
      <trkpt lat="42.8872" lon="0.07095">
        <ele>1775.2</ele>
        <time>2021-11-27T11:24:49Z</time>
      </trkpt>
      <trkpt lat="42.88718" lon="0.07094">
        <ele>1775.2</ele>
        <time>2021-11-27T11:24:51Z</time>
      </trkpt>
      <trkpt lat="42.88716" lon="0.07092">
        <ele>1775.2</ele>
        <time>2021-11-27T11:24:54Z</time>
      </trkpt>
      <trkpt lat="42.88716" lon="0.07089">
        <ele>1775.2</ele>
        <time>2021-11-27T11:24:57Z</time>
      </trkpt>
      <trkpt lat="42.88714" lon="0.07087">
        <ele>1775.2</ele>
        <time>2021-11-27T11:25:00Z</time>
      </trkpt>
      <trkpt lat="42.88712" lon="0.07085">
        <ele>1775.2</ele>
        <time>2021-11-27T11:25:02Z</time>
      </trkpt>
      <trkpt lat="42.88712" lon="0.07083">
        <ele>1775.2</ele>
        <time>2021-11-27T11:25:04Z</time>
      </trkpt>
      <trkpt lat="42.8871" lon="0.07081">
        <ele>1775.2</ele>
        <time>2021-11-27T11:25:06Z</time>
      </trkpt>
      <trkpt lat="42.88709" lon="0.07078">
        <ele>1776.8</ele>
        <time>2021-11-27T11:25:09Z</time>
      </trkpt>
      <trkpt lat="42.88707" lon="0.07076">
        <ele>1776.8</ele>
        <time>2021-11-27T11:25:11Z</time>
      </trkpt>
      <trkpt lat="42.88706" lon="0.07074">
        <ele>1776.8</ele>
        <time>2021-11-27T11:25:14Z</time>
      </trkpt>
      <trkpt lat="42.88704" lon="0.07071">
        <ele>1776.8</ele>
        <time>2021-11-27T11:25:17Z</time>
      </trkpt>
      <trkpt lat="42.88703" lon="0.07069">
        <ele>1777.8</ele>
        <time>2021-11-27T11:25:19Z</time>
      </trkpt>
      <trkpt lat="42.88702" lon="0.07067">
        <ele>1777.8</ele>
        <time>2021-11-27T11:25:22Z</time>
      </trkpt>
      <trkpt lat="42.887" lon="0.07066">
        <ele>1777.8</ele>
        <time>2021-11-27T11:25:24Z</time>
      </trkpt>
      <trkpt lat="42.88698" lon="0.07064">
        <ele>1777.8</ele>
        <time>2021-11-27T11:25:26Z</time>
      </trkpt>
      <trkpt lat="42.88697" lon="0.07061">
        <ele>1778.6</ele>
        <time>2021-11-27T11:25:29Z</time>
      </trkpt>
      <trkpt lat="42.88695" lon="0.0706">
        <ele>1778.6</ele>
        <time>2021-11-27T11:25:31Z</time>
      </trkpt>
      <trkpt lat="42.88694" lon="0.07056">
        <ele>1778.6</ele>
        <time>2021-11-27T11:25:34Z</time>
      </trkpt>
      <trkpt lat="42.88693" lon="0.07055">
        <ele>1778.6</ele>
        <time>2021-11-27T11:25:36Z</time>
      </trkpt>
      <trkpt lat="42.88691" lon="0.07053">
        <ele>1778.6</ele>
        <time>2021-11-27T11:25:38Z</time>
      </trkpt>
      <trkpt lat="42.88689" lon="0.07052">
        <ele>1778.6</ele>
        <time>2021-11-27T11:25:40Z</time>
      </trkpt>
      <trkpt lat="42.88687" lon="0.07051">
        <ele>1778.6</ele>
        <time>2021-11-27T11:25:42Z</time>
      </trkpt>
      <trkpt lat="42.88685" lon="0.0705">
        <ele>1778.6</ele>
        <time>2021-11-27T11:25:44Z</time>
      </trkpt>
      <trkpt lat="42.88683" lon="0.07048">
        <ele>1778.6</ele>
        <time>2021-11-27T11:25:47Z</time>
      </trkpt>
      <trkpt lat="42.88681" lon="0.07046">
        <ele>1779.8</ele>
        <time>2021-11-27T11:25:49Z</time>
      </trkpt>
      <trkpt lat="42.88678" lon="0.07046">
        <ele>1779.8</ele>
        <time>2021-11-27T11:25:51Z</time>
      </trkpt>
      <trkpt lat="42.88677" lon="0.07044">
        <ele>1779.8</ele>
        <time>2021-11-27T11:25:54Z</time>
      </trkpt>
      <trkpt lat="42.88676" lon="0.07041">
        <ele>1779.8</ele>
        <time>2021-11-27T11:25:57Z</time>
      </trkpt>
      <trkpt lat="42.88673" lon="0.0704">
        <ele>1780.4</ele>
        <time>2021-11-27T11:25:59Z</time>
      </trkpt>
      <trkpt lat="42.88671" lon="0.07038">
        <ele>1780.4</ele>
        <time>2021-11-27T11:26:02Z</time>
      </trkpt>
      <trkpt lat="42.88669" lon="0.07037">
        <ele>1780.4</ele>
        <time>2021-11-27T11:26:04Z</time>
      </trkpt>
      <trkpt lat="42.88667" lon="0.07036">
        <ele>1780.4</ele>
        <time>2021-11-27T11:26:06Z</time>
      </trkpt>
      <trkpt lat="42.88665" lon="0.07035">
        <ele>1780.4</ele>
        <time>2021-11-27T11:26:08Z</time>
      </trkpt>
      <trkpt lat="42.88663" lon="0.07033">
        <ele>1780.4</ele>
        <time>2021-11-27T11:26:10Z</time>
      </trkpt>
      <trkpt lat="42.88661" lon="0.07031">
        <ele>1780.4</ele>
        <time>2021-11-27T11:26:13Z</time>
      </trkpt>
      <trkpt lat="42.8866" lon="0.07029">
        <ele>1780.4</ele>
        <time>2021-11-27T11:26:16Z</time>
      </trkpt>
      <trkpt lat="42.88658" lon="0.07028">
        <ele>1780.4</ele>
        <time>2021-11-27T11:26:18Z</time>
      </trkpt>
      <trkpt lat="42.88656" lon="0.07026">
        <ele>1780.4</ele>
        <time>2021-11-27T11:26:21Z</time>
      </trkpt>
      <trkpt lat="42.88654" lon="0.07023">
        <ele>1780.4</ele>
        <time>2021-11-27T11:26:24Z</time>
      </trkpt>
      <trkpt lat="42.88653" lon="0.07022">
        <ele>1780.4</ele>
        <time>2021-11-27T11:26:27Z</time>
      </trkpt>
      <trkpt lat="42.88651" lon="0.07019">
        <ele>1780.4</ele>
        <time>2021-11-27T11:26:30Z</time>
      </trkpt>
      <trkpt lat="42.88649" lon="0.07018">
        <ele>1780.4</ele>
        <time>2021-11-27T11:26:32Z</time>
      </trkpt>
      <trkpt lat="42.88647" lon="0.07017">
        <ele>1780.4</ele>
        <time>2021-11-27T11:26:34Z</time>
      </trkpt>
      <trkpt lat="42.88645" lon="0.07016">
        <ele>1780.4</ele>
        <time>2021-11-27T11:26:36Z</time>
      </trkpt>
      <trkpt lat="42.88643" lon="0.07015">
        <ele>1782.4</ele>
        <time>2021-11-27T11:26:39Z</time>
      </trkpt>
      <trkpt lat="42.8864" lon="0.07014">
        <ele>1782.4</ele>
        <time>2021-11-27T11:26:42Z</time>
      </trkpt>
      <trkpt lat="42.88638" lon="0.07013">
        <ele>1782.6</ele>
        <time>2021-11-27T11:28:19Z</time>
      </trkpt>
      <trkpt lat="42.88635" lon="0.07013">
        <ele>1782.6</ele>
        <time>2021-11-27T11:28:21Z</time>
      </trkpt>
      <trkpt lat="42.88633" lon="0.07011">
        <ele>1782.6</ele>
        <time>2021-11-27T11:28:23Z</time>
      </trkpt>
      <trkpt lat="42.88631" lon="0.07009">
        <ele>1782.6</ele>
        <time>2021-11-27T11:28:25Z</time>
      </trkpt>
      <trkpt lat="42.88628" lon="0.07008">
        <ele>1782.6</ele>
        <time>2021-11-27T11:28:27Z</time>
      </trkpt>
      <trkpt lat="42.88627" lon="0.07007">
        <ele>1781.8</ele>
        <time>2021-11-27T11:28:29Z</time>
      </trkpt>
      <trkpt lat="42.88624" lon="0.07007">
        <ele>1781.8</ele>
        <time>2021-11-27T11:28:31Z</time>
      </trkpt>
      <trkpt lat="42.88621" lon="0.07005">
        <ele>1781.8</ele>
        <time>2021-11-27T11:28:33Z</time>
      </trkpt>
      <trkpt lat="42.88617" lon="0.07004">
        <ele>1781.8</ele>
        <time>2021-11-27T11:28:36Z</time>
      </trkpt>
      <trkpt lat="42.88615" lon="0.07003">
        <ele>1781.8</ele>
        <time>2021-11-27T11:28:38Z</time>
      </trkpt>
      <trkpt lat="42.88612" lon="0.07003">
        <ele>1781.8</ele>
        <time>2021-11-27T11:28:40Z</time>
      </trkpt>
      <trkpt lat="42.8861" lon="0.07001">
        <ele>1781.8</ele>
        <time>2021-11-27T11:28:43Z</time>
      </trkpt>
      <trkpt lat="42.88608" lon="0.07">
        <ele>1781.8</ele>
        <time>2021-11-27T11:28:46Z</time>
      </trkpt>
      <trkpt lat="42.88605" lon="0.07">
        <ele>1781.8</ele>
        <time>2021-11-27T11:28:48Z</time>
      </trkpt>
      <trkpt lat="42.88603" lon="0.07">
        <ele>1781.8</ele>
        <time>2021-11-27T11:28:52Z</time>
      </trkpt>
      <trkpt lat="42.88601" lon="0.07">
        <ele>1781.8</ele>
        <time>2021-11-27T11:28:54Z</time>
      </trkpt>
      <trkpt lat="42.88598" lon="0.07001">
        <ele>1781.8</ele>
        <time>2021-11-27T11:28:56Z</time>
      </trkpt>
      <trkpt lat="42.88596" lon="0.07001">
        <ele>1781.8</ele>
        <time>2021-11-27T11:28:58Z</time>
      </trkpt>
      <trkpt lat="42.88595" lon="0.07001">
        <ele>1781.8</ele>
        <time>2021-11-27T11:29:00Z</time>
      </trkpt>
      <trkpt lat="42.88592" lon="0.07">
        <ele>1781.8</ele>
        <time>2021-11-27T11:29:03Z</time>
      </trkpt>
      <trkpt lat="42.8859" lon="0.06999">
        <ele>1781.8</ele>
        <time>2021-11-27T11:29:06Z</time>
      </trkpt>
      <trkpt lat="42.88588" lon="0.06999">
        <ele>1781.8</ele>
        <time>2021-11-27T11:29:07Z</time>
      </trkpt>
      <trkpt lat="42.88585" lon="0.07">
        <ele>1781.6</ele>
        <time>2021-11-27T11:29:09Z</time>
      </trkpt>
      <trkpt lat="42.88583" lon="0.07">
        <ele>1781.6</ele>
        <time>2021-11-27T11:29:12Z</time>
      </trkpt>
      <trkpt lat="42.88581" lon="0.06999">
        <ele>1781.6</ele>
        <time>2021-11-27T11:29:15Z</time>
      </trkpt>
      <trkpt lat="42.88579" lon="0.06999">
        <ele>1782.2</ele>
        <time>2021-11-27T11:29:19Z</time>
      </trkpt>
      <trkpt lat="42.88576" lon="0.06999">
        <ele>1782.2</ele>
        <time>2021-11-27T11:29:21Z</time>
      </trkpt>
      <trkpt lat="42.88574" lon="0.06999">
        <ele>1782.2</ele>
        <time>2021-11-27T11:29:23Z</time>
      </trkpt>
      <trkpt lat="42.88572" lon="0.06998">
        <ele>1782.2</ele>
        <time>2021-11-27T11:29:25Z</time>
      </trkpt>
      <trkpt lat="42.8857" lon="0.06998">
        <ele>1782.2</ele>
        <time>2021-11-27T11:29:27Z</time>
      </trkpt>
      <trkpt lat="42.88567" lon="0.06998">
        <ele>1782.2</ele>
        <time>2021-11-27T11:29:30Z</time>
      </trkpt>
      <trkpt lat="42.88565" lon="0.06997">
        <ele>1782.2</ele>
        <time>2021-11-27T11:29:34Z</time>
      </trkpt>
      <trkpt lat="42.88563" lon="0.06996">
        <ele>1782.2</ele>
        <time>2021-11-27T11:29:36Z</time>
      </trkpt>
      <trkpt lat="42.88561" lon="0.06995">
        <ele>1782.2</ele>
        <time>2021-11-27T11:29:38Z</time>
      </trkpt>
      <trkpt lat="42.88559" lon="0.06995">
        <ele>1782.2</ele>
        <time>2021-11-27T11:29:40Z</time>
      </trkpt>
      <trkpt lat="42.88557" lon="0.06994">
        <ele>1782.2</ele>
        <time>2021-11-27T11:29:42Z</time>
      </trkpt>
      <trkpt lat="42.88554" lon="0.06994">
        <ele>1782.2</ele>
        <time>2021-11-27T11:29:45Z</time>
      </trkpt>
      <trkpt lat="42.88552" lon="0.06994">
        <ele>1782.2</ele>
        <time>2021-11-27T11:29:47Z</time>
      </trkpt>
      <trkpt lat="42.8855" lon="0.06994">
        <ele>1784.2</ele>
        <time>2021-11-27T11:29:49Z</time>
      </trkpt>
      <trkpt lat="42.88548" lon="0.06994">
        <ele>1784.2</ele>
        <time>2021-11-27T11:29:51Z</time>
      </trkpt>
      <trkpt lat="42.88546" lon="0.06995">
        <ele>1784.2</ele>
        <time>2021-11-27T11:29:53Z</time>
      </trkpt>
      <trkpt lat="42.88544" lon="0.06993">
        <ele>1784.2</ele>
        <time>2021-11-27T11:29:56Z</time>
      </trkpt>
      <trkpt lat="42.88542" lon="0.06993">
        <ele>1784.2</ele>
        <time>2021-11-27T11:29:58Z</time>
      </trkpt>
      <trkpt lat="42.8854" lon="0.06994">
        <ele>1784.2</ele>
        <time>2021-11-27T11:30:01Z</time>
      </trkpt>
      <trkpt lat="42.88538" lon="0.06994">
        <ele>1784.2</ele>
        <time>2021-11-27T11:30:03Z</time>
      </trkpt>
      <trkpt lat="42.88535" lon="0.06993">
        <ele>1784.2</ele>
        <time>2021-11-27T11:30:05Z</time>
      </trkpt>
      <trkpt lat="42.88533" lon="0.06993">
        <ele>1784.2</ele>
        <time>2021-11-27T11:30:07Z</time>
      </trkpt>
      <trkpt lat="42.88531" lon="0.06993">
        <ele>1784.4</ele>
        <time>2021-11-27T11:30:09Z</time>
      </trkpt>
      <trkpt lat="42.88529" lon="0.06992">
        <ele>1784.4</ele>
        <time>2021-11-27T11:30:11Z</time>
      </trkpt>
      <trkpt lat="42.88527" lon="0.06991">
        <ele>1784.4</ele>
        <time>2021-11-27T11:30:14Z</time>
      </trkpt>
      <trkpt lat="42.88525" lon="0.0699">
        <ele>1784.4</ele>
        <time>2021-11-27T11:30:16Z</time>
      </trkpt>
      <trkpt lat="42.88522" lon="0.06989">
        <ele>1784.6</ele>
        <time>2021-11-27T11:30:19Z</time>
      </trkpt>
      <trkpt lat="42.8852" lon="0.06991">
        <ele>1784.6</ele>
        <time>2021-11-27T11:30:22Z</time>
      </trkpt>
      <trkpt lat="42.88518" lon="0.0699">
        <ele>1784.6</ele>
        <time>2021-11-27T11:30:28Z</time>
      </trkpt>
      <trkpt lat="42.88516" lon="0.0699">
        <ele>1784.6</ele>
        <time>2021-11-27T11:30:30Z</time>
      </trkpt>
      <trkpt lat="42.88514" lon="0.06989">
        <ele>1784.6</ele>
        <time>2021-11-27T11:30:32Z</time>
      </trkpt>
      <trkpt lat="42.88512" lon="0.06987">
        <ele>1784.6</ele>
        <time>2021-11-27T11:30:34Z</time>
      </trkpt>
      <trkpt lat="42.8851" lon="0.06985">
        <ele>1784.6</ele>
        <time>2021-11-27T11:30:36Z</time>
      </trkpt>
      <trkpt lat="42.88508" lon="0.06984">
        <ele>1785.4</ele>
        <time>2021-11-27T11:30:39Z</time>
      </trkpt>
      <trkpt lat="42.88506" lon="0.06984">
        <ele>1785.4</ele>
        <time>2021-11-27T11:30:42Z</time>
      </trkpt>
      <trkpt lat="42.88504" lon="0.06984">
        <ele>1785.4</ele>
        <time>2021-11-27T11:30:44Z</time>
      </trkpt>
      <trkpt lat="42.88502" lon="0.06983">
        <ele>1785.4</ele>
        <time>2021-11-27T11:30:46Z</time>
      </trkpt>
      <trkpt lat="42.885" lon="0.06982">
        <ele>1785.4</ele>
        <time>2021-11-27T11:30:48Z</time>
      </trkpt>
      <trkpt lat="42.88498" lon="0.06982">
        <ele>1785.4</ele>
        <time>2021-11-27T11:30:50Z</time>
      </trkpt>
      <trkpt lat="42.88496" lon="0.06982">
        <ele>1785.4</ele>
        <time>2021-11-27T11:30:55Z</time>
      </trkpt>
      <trkpt lat="42.88493" lon="0.06982">
        <ele>1785.4</ele>
        <time>2021-11-27T11:30:57Z</time>
      </trkpt>
      <trkpt lat="42.88491" lon="0.06982">
        <ele>1785.4</ele>
        <time>2021-11-27T11:31:00Z</time>
      </trkpt>
      <trkpt lat="42.88489" lon="0.0698">
        <ele>1785.4</ele>
        <time>2021-11-27T11:31:02Z</time>
      </trkpt>
      <trkpt lat="42.88487" lon="0.0698">
        <ele>1785.4</ele>
        <time>2021-11-27T11:31:03Z</time>
      </trkpt>
      <trkpt lat="42.88484" lon="0.0698">
        <ele>1785.4</ele>
        <time>2021-11-27T11:31:05Z</time>
      </trkpt>
      <trkpt lat="42.88482" lon="0.0698">
        <ele>1785.4</ele>
        <time>2021-11-27T11:31:07Z</time>
      </trkpt>
      <trkpt lat="42.8848" lon="0.0698">
        <ele>1785.4</ele>
        <time>2021-11-27T11:31:10Z</time>
      </trkpt>
      <trkpt lat="42.88477" lon="0.06979">
        <ele>1785.4</ele>
        <time>2021-11-27T11:31:13Z</time>
      </trkpt>
      <trkpt lat="42.88475" lon="0.06978">
        <ele>1785.4</ele>
        <time>2021-11-27T11:31:16Z</time>
      </trkpt>
      <trkpt lat="42.88473" lon="0.06979">
        <ele>1788.2</ele>
        <time>2021-11-27T11:31:19Z</time>
      </trkpt>
      <trkpt lat="42.88471" lon="0.06978">
        <ele>1788.2</ele>
        <time>2021-11-27T11:31:22Z</time>
      </trkpt>
      <trkpt lat="42.88468" lon="0.06977">
        <ele>1788.2</ele>
        <time>2021-11-27T11:31:25Z</time>
      </trkpt>
      <trkpt lat="42.88466" lon="0.06977">
        <ele>1788.2</ele>
        <time>2021-11-27T11:31:27Z</time>
      </trkpt>
      <trkpt lat="42.88464" lon="0.06977">
        <ele>1788.2</ele>
        <time>2021-11-27T11:31:28Z</time>
      </trkpt>
      <trkpt lat="42.88462" lon="0.06976">
        <ele>1788.2</ele>
        <time>2021-11-27T11:31:31Z</time>
      </trkpt>
      <trkpt lat="42.8846" lon="0.06975">
        <ele>1788.2</ele>
        <time>2021-11-27T11:31:33Z</time>
      </trkpt>
      <trkpt lat="42.88458" lon="0.06974">
        <ele>1788.2</ele>
        <time>2021-11-27T11:31:38Z</time>
      </trkpt>
      <trkpt lat="42.88456" lon="0.06973">
        <ele>1788.2</ele>
        <time>2021-11-27T11:31:40Z</time>
      </trkpt>
      <trkpt lat="42.88454" lon="0.06972">
        <ele>1788.2</ele>
        <time>2021-11-27T11:31:43Z</time>
      </trkpt>
      <trkpt lat="42.88452" lon="0.06972">
        <ele>1788.2</ele>
        <time>2021-11-27T11:31:45Z</time>
      </trkpt>
      <trkpt lat="42.8845" lon="0.06972">
        <ele>1788.2</ele>
        <time>2021-11-27T11:31:47Z</time>
      </trkpt>
      <trkpt lat="42.88448" lon="0.06971">
        <ele>1790.8</ele>
        <time>2021-11-27T11:31:49Z</time>
      </trkpt>
      <trkpt lat="42.88446" lon="0.0697">
        <ele>1790.8</ele>
        <time>2021-11-27T11:31:51Z</time>
      </trkpt>
      <trkpt lat="42.88444" lon="0.0697">
        <ele>1790.8</ele>
        <time>2021-11-27T11:31:54Z</time>
      </trkpt>
      <trkpt lat="42.88442" lon="0.06969">
        <ele>1790.8</ele>
        <time>2021-11-27T11:31:58Z</time>
      </trkpt>
      <trkpt lat="42.8844" lon="0.06968">
        <ele>1790.8</ele>
        <time>2021-11-27T11:32:00Z</time>
      </trkpt>
      <trkpt lat="42.88439" lon="0.06966">
        <ele>1790.8</ele>
        <time>2021-11-27T11:32:31Z</time>
      </trkpt>
      <trkpt lat="42.88436" lon="0.06964">
        <ele>1790.8</ele>
        <time>2021-11-27T11:32:33Z</time>
      </trkpt>
      <trkpt lat="42.88435" lon="0.06963">
        <ele>1790.8</ele>
        <time>2021-11-27T11:32:34Z</time>
      </trkpt>
      <trkpt lat="42.88433" lon="0.06962">
        <ele>1790.8</ele>
        <time>2021-11-27T11:32:35Z</time>
      </trkpt>
      <trkpt lat="42.88431" lon="0.06961">
        <ele>1790.8</ele>
        <time>2021-11-27T11:32:36Z</time>
      </trkpt>
      <trkpt lat="42.88428" lon="0.0696">
        <ele>1790.8</ele>
        <time>2021-11-27T11:32:37Z</time>
      </trkpt>
      <trkpt lat="42.88426" lon="0.0696">
        <ele>1790.8</ele>
        <time>2021-11-27T11:32:38Z</time>
      </trkpt>
      <trkpt lat="42.88424" lon="0.06958">
        <ele>1790.8</ele>
        <time>2021-11-27T11:32:40Z</time>
      </trkpt>
      <trkpt lat="42.88422" lon="0.06956">
        <ele>1790.8</ele>
        <time>2021-11-27T11:32:42Z</time>
      </trkpt>
      <trkpt lat="42.8842" lon="0.06954">
        <ele>1790.8</ele>
        <time>2021-11-27T11:32:44Z</time>
      </trkpt>
      <trkpt lat="42.88419" lon="0.06953">
        <ele>1790.8</ele>
        <time>2021-11-27T11:32:46Z</time>
      </trkpt>
      <trkpt lat="42.88418" lon="0.06951">
        <ele>1790.8</ele>
        <time>2021-11-27T11:32:48Z</time>
      </trkpt>
      <trkpt lat="42.88416" lon="0.06948">
        <ele>1790.8</ele>
        <time>2021-11-27T11:32:51Z</time>
      </trkpt>
      <trkpt lat="42.88418" lon="0.06951">
        <ele>1790.8</ele>
        <time>2021-11-27T11:33:31Z</time>
      </trkpt>
      <trkpt lat="42.88419" lon="0.06954">
        <ele>1790.8</ele>
        <time>2021-11-27T11:33:33Z</time>
      </trkpt>
      <trkpt lat="42.8842" lon="0.06956">
        <ele>1790.8</ele>
        <time>2021-11-27T11:33:35Z</time>
      </trkpt>
      <trkpt lat="42.88421" lon="0.06958">
        <ele>1790.8</ele>
        <time>2021-11-27T11:33:37Z</time>
      </trkpt>
      <trkpt lat="42.88423" lon="0.06961">
        <ele>1790.8</ele>
        <time>2021-11-27T11:33:40Z</time>
      </trkpt>
      <trkpt lat="42.88425" lon="0.06962">
        <ele>1790.8</ele>
        <time>2021-11-27T11:33:42Z</time>
      </trkpt>
      <trkpt lat="42.88426" lon="0.06963">
        <ele>1790.8</ele>
        <time>2021-11-27T11:33:44Z</time>
      </trkpt>
      <trkpt lat="42.88427" lon="0.06966">
        <ele>1790.8</ele>
        <time>2021-11-27T11:33:47Z</time>
      </trkpt>
      <trkpt lat="42.88429" lon="0.06968">
        <ele>1790.8</ele>
        <time>2021-11-27T11:33:52Z</time>
      </trkpt>
      <trkpt lat="42.8843" lon="0.06971">
        <ele>1790.8</ele>
        <time>2021-11-27T11:33:54Z</time>
      </trkpt>
      <trkpt lat="42.88431" lon="0.06974">
        <ele>1790.8</ele>
        <time>2021-11-27T11:33:56Z</time>
      </trkpt>
      <trkpt lat="42.88433" lon="0.06976">
        <ele>1797.2</ele>
        <time>2021-11-27T11:33:59Z</time>
      </trkpt>
      <trkpt lat="42.88435" lon="0.06978">
        <ele>1797.2</ele>
        <time>2021-11-27T11:34:02Z</time>
      </trkpt>
      <trkpt lat="42.88437" lon="0.06979">
        <ele>1797.2</ele>
        <time>2021-11-27T11:34:05Z</time>
      </trkpt>
      <trkpt lat="42.88439" lon="0.06981">
        <ele>1797.4</ele>
        <time>2021-11-27T11:34:09Z</time>
      </trkpt>
      <trkpt lat="42.88441" lon="0.06983">
        <ele>1797.4</ele>
        <time>2021-11-27T11:34:12Z</time>
      </trkpt>
      <trkpt lat="42.88443" lon="0.06984">
        <ele>1797.4</ele>
        <time>2021-11-27T11:34:15Z</time>
      </trkpt>
      <trkpt lat="42.88445" lon="0.06985">
        <ele>1797.4</ele>
        <time>2021-11-27T11:34:18Z</time>
      </trkpt>
      <trkpt lat="42.88446" lon="0.06987">
        <ele>1797.4</ele>
        <time>2021-11-27T11:34:21Z</time>
      </trkpt>
      <trkpt lat="42.88448" lon="0.06988">
        <ele>1797.4</ele>
        <time>2021-11-27T11:34:25Z</time>
      </trkpt>
      <trkpt lat="42.8845" lon="0.06989">
        <ele>1797.4</ele>
        <time>2021-11-27T11:34:27Z</time>
      </trkpt>
      <trkpt lat="42.88452" lon="0.0699">
        <ele>1797.4</ele>
        <time>2021-11-27T11:34:30Z</time>
      </trkpt>
      <trkpt lat="42.88454" lon="0.06991">
        <ele>1797.4</ele>
        <time>2021-11-27T11:34:33Z</time>
      </trkpt>
      <trkpt lat="42.88456" lon="0.06993">
        <ele>1797.4</ele>
        <time>2021-11-27T11:34:36Z</time>
      </trkpt>
      <trkpt lat="42.88458" lon="0.06994">
        <ele>1800.4</ele>
        <time>2021-11-27T11:34:39Z</time>
      </trkpt>
      <trkpt lat="42.8846" lon="0.06996">
        <ele>1800.4</ele>
        <time>2021-11-27T11:34:43Z</time>
      </trkpt>
      <trkpt lat="42.88462" lon="0.06999">
        <ele>1800.4</ele>
        <time>2021-11-27T11:34:46Z</time>
      </trkpt>
      <trkpt lat="42.88464" lon="0.07">
        <ele>1801.6</ele>
        <time>2021-11-27T11:34:49Z</time>
      </trkpt>
      <trkpt lat="42.88466" lon="0.07003">
        <ele>1801.6</ele>
        <time>2021-11-27T11:34:53Z</time>
      </trkpt>
      <trkpt lat="42.88468" lon="0.07003">
        <ele>1801.6</ele>
        <time>2021-11-27T11:34:55Z</time>
      </trkpt>
      <trkpt lat="42.88469" lon="0.07003">
        <ele>1802.2</ele>
        <time>2021-11-27T11:34:59Z</time>
      </trkpt>
      <trkpt lat="42.88471" lon="0.07006">
        <ele>1802.2</ele>
        <time>2021-11-27T11:35:02Z</time>
      </trkpt>
      <trkpt lat="42.88473" lon="0.07008">
        <ele>1802.2</ele>
        <time>2021-11-27T11:35:05Z</time>
      </trkpt>
      <trkpt lat="42.88474" lon="0.07011">
        <ele>1803</ele>
        <time>2021-11-27T11:35:09Z</time>
      </trkpt>
      <trkpt lat="42.88476" lon="0.0701">
        <ele>1803</ele>
        <time>2021-11-27T11:35:11Z</time>
      </trkpt>
      <trkpt lat="42.88478" lon="0.0701">
        <ele>1803</ele>
        <time>2021-11-27T11:35:14Z</time>
      </trkpt>
      <trkpt lat="42.8848" lon="0.07012">
        <ele>1803</ele>
        <time>2021-11-27T11:35:18Z</time>
      </trkpt>
      <trkpt lat="42.88482" lon="0.07012">
        <ele>1803</ele>
        <time>2021-11-27T11:35:21Z</time>
      </trkpt>
      <trkpt lat="42.88484" lon="0.07012">
        <ele>1803</ele>
        <time>2021-11-27T11:35:25Z</time>
      </trkpt>
      <trkpt lat="42.88485" lon="0.07014">
        <ele>1803</ele>
        <time>2021-11-27T11:35:28Z</time>
      </trkpt>
      <trkpt lat="42.88487" lon="0.07016">
        <ele>1803</ele>
        <time>2021-11-27T11:35:31Z</time>
      </trkpt>
      <trkpt lat="42.8849" lon="0.07017">
        <ele>1803</ele>
        <time>2021-11-27T11:35:34Z</time>
      </trkpt>
      <trkpt lat="42.88492" lon="0.07017">
        <ele>1803</ele>
        <time>2021-11-27T11:35:38Z</time>
      </trkpt>
      <trkpt lat="42.88494" lon="0.07017">
        <ele>1803</ele>
        <time>2021-11-27T11:35:40Z</time>
      </trkpt>
      <trkpt lat="42.88496" lon="0.07016">
        <ele>1803</ele>
        <time>2021-11-27T11:35:42Z</time>
      </trkpt>
      <trkpt lat="42.88497" lon="0.07019">
        <ele>1803</ele>
        <time>2021-11-27T11:35:46Z</time>
      </trkpt>
      <trkpt lat="42.885" lon="0.07019">
        <ele>1807.2</ele>
        <time>2021-11-27T11:35:49Z</time>
      </trkpt>
      <trkpt lat="42.88501" lon="0.07021">
        <ele>1807.2</ele>
        <time>2021-11-27T11:35:54Z</time>
      </trkpt>
      <trkpt lat="42.88503" lon="0.07023">
        <ele>1807.2</ele>
        <time>2021-11-27T11:35:57Z</time>
      </trkpt>
      <trkpt lat="42.88505" lon="0.07024">
        <ele>1808.2</ele>
        <time>2021-11-27T11:35:59Z</time>
      </trkpt>
      <trkpt lat="42.88508" lon="0.07026">
        <ele>1808.2</ele>
        <time>2021-11-27T11:36:02Z</time>
      </trkpt>
      <trkpt lat="42.88509" lon="0.07028">
        <ele>1808.2</ele>
        <time>2021-11-27T11:36:05Z</time>
      </trkpt>
      <trkpt lat="42.8851" lon="0.0703">
        <ele>1808.2</ele>
        <time>2021-11-27T11:36:07Z</time>
      </trkpt>
      <trkpt lat="42.88512" lon="0.07033">
        <ele>1808.2</ele>
        <time>2021-11-27T11:36:10Z</time>
      </trkpt>
      <trkpt lat="42.88514" lon="0.07034">
        <ele>1808.2</ele>
        <time>2021-11-27T11:36:13Z</time>
      </trkpt>
      <trkpt lat="42.88516" lon="0.07035">
        <ele>1808.2</ele>
        <time>2021-11-27T11:36:15Z</time>
      </trkpt>
      <trkpt lat="42.88517" lon="0.07037">
        <ele>1808.2</ele>
        <time>2021-11-27T11:36:17Z</time>
      </trkpt>
      <trkpt lat="42.8852" lon="0.07039">
        <ele>1808.2</ele>
        <time>2021-11-27T11:36:20Z</time>
      </trkpt>
      <trkpt lat="42.88521" lon="0.07041">
        <ele>1808.2</ele>
        <time>2021-11-27T11:36:22Z</time>
      </trkpt>
      <trkpt lat="42.88522" lon="0.07043">
        <ele>1808.2</ele>
        <time>2021-11-27T11:36:24Z</time>
      </trkpt>
      <trkpt lat="42.88524" lon="0.07045">
        <ele>1808.2</ele>
        <time>2021-11-27T11:36:27Z</time>
      </trkpt>
      <trkpt lat="42.88525" lon="0.07045">
        <ele>1810.6</ele>
        <time>2021-11-27T11:36:29Z</time>
      </trkpt>
      <trkpt lat="42.88527" lon="0.07047">
        <ele>1810.6</ele>
        <time>2021-11-27T11:36:33Z</time>
      </trkpt>
      <trkpt lat="42.88529" lon="0.07048">
        <ele>1810.6</ele>
        <time>2021-11-27T11:36:37Z</time>
      </trkpt>
      <trkpt lat="42.88531" lon="0.07049">
        <ele>1810.6</ele>
        <time>2021-11-27T11:36:41Z</time>
      </trkpt>
      <trkpt lat="42.88533" lon="0.0705">
        <ele>1810.6</ele>
        <time>2021-11-27T11:36:46Z</time>
      </trkpt>
      <trkpt lat="42.88535" lon="0.07053">
        <ele>1810.6</ele>
        <time>2021-11-27T11:36:50Z</time>
      </trkpt>
      <trkpt lat="42.88537" lon="0.07054">
        <ele>1810.6</ele>
        <time>2021-11-27T11:36:53Z</time>
      </trkpt>
      <trkpt lat="42.8854" lon="0.07055">
        <ele>1810.6</ele>
        <time>2021-11-27T11:36:57Z</time>
      </trkpt>
      <trkpt lat="42.88541" lon="0.07057">
        <ele>1810.6</ele>
        <time>2021-11-27T11:37:00Z</time>
      </trkpt>
      <trkpt lat="42.88542" lon="0.07059">
        <ele>1810.6</ele>
        <time>2021-11-27T11:37:05Z</time>
      </trkpt>
      <trkpt lat="42.88544" lon="0.0706">
        <ele>1810.6</ele>
        <time>2021-11-27T11:37:07Z</time>
      </trkpt>
      <trkpt lat="42.88546" lon="0.07061">
        <ele>1814.4</ele>
        <time>2021-11-27T11:37:09Z</time>
      </trkpt>
      <trkpt lat="42.88548" lon="0.07063">
        <ele>1814.4</ele>
        <time>2021-11-27T11:37:11Z</time>
      </trkpt>
      <trkpt lat="42.88549" lon="0.07064">
        <ele>1814.4</ele>
        <time>2021-11-27T11:37:14Z</time>
      </trkpt>
      <trkpt lat="42.88551" lon="0.07066">
        <ele>1814.4</ele>
        <time>2021-11-27T11:37:17Z</time>
      </trkpt>
      <trkpt lat="42.88552" lon="0.07068">
        <ele>1815.4</ele>
        <time>2021-11-27T11:37:19Z</time>
      </trkpt>
      <trkpt lat="42.88554" lon="0.0707">
        <ele>1815.4</ele>
        <time>2021-11-27T11:37:21Z</time>
      </trkpt>
      <trkpt lat="42.88556" lon="0.07071">
        <ele>1815.4</ele>
        <time>2021-11-27T11:37:23Z</time>
      </trkpt>
      <trkpt lat="42.88557" lon="0.07072">
        <ele>1815.4</ele>
        <time>2021-11-27T11:37:25Z</time>
      </trkpt>
      <trkpt lat="42.8856" lon="0.07073">
        <ele>1815.4</ele>
        <time>2021-11-27T11:37:28Z</time>
      </trkpt>
      <trkpt lat="42.88562" lon="0.07073">
        <ele>1815.4</ele>
        <time>2021-11-27T11:37:30Z</time>
      </trkpt>
      <trkpt lat="42.88564" lon="0.07075">
        <ele>1815.4</ele>
        <time>2021-11-27T11:37:34Z</time>
      </trkpt>
      <trkpt lat="42.88565" lon="0.07077">
        <ele>1815.4</ele>
        <time>2021-11-27T11:37:37Z</time>
      </trkpt>
      <trkpt lat="42.88567" lon="0.07079">
        <ele>1816.4</ele>
        <time>2021-11-27T11:37:39Z</time>
      </trkpt>
      <trkpt lat="42.88569" lon="0.07081">
        <ele>1816.4</ele>
        <time>2021-11-27T11:37:41Z</time>
      </trkpt>
      <trkpt lat="42.8857" lon="0.07083">
        <ele>1816.4</ele>
        <time>2021-11-27T11:37:43Z</time>
      </trkpt>
      <trkpt lat="42.8857" lon="0.07086">
        <ele>1816.4</ele>
        <time>2021-11-27T11:37:46Z</time>
      </trkpt>
      <trkpt lat="42.88572" lon="0.07087">
        <ele>1816.4</ele>
        <time>2021-11-27T11:37:48Z</time>
      </trkpt>
      <trkpt lat="42.88573" lon="0.07089">
        <ele>1816.4</ele>
        <time>2021-11-27T11:37:50Z</time>
      </trkpt>
      <trkpt lat="42.88575" lon="0.07091">
        <ele>1816.4</ele>
        <time>2021-11-27T11:37:52Z</time>
      </trkpt>
      <trkpt lat="42.88577" lon="0.07092">
        <ele>1816.4</ele>
        <time>2021-11-27T11:37:55Z</time>
      </trkpt>
      <trkpt lat="42.88578" lon="0.07095">
        <ele>1818.2</ele>
        <time>2021-11-27T11:37:59Z</time>
      </trkpt>
      <trkpt lat="42.88579" lon="0.07097">
        <ele>1818.2</ele>
        <time>2021-11-27T11:38:03Z</time>
      </trkpt>
      <trkpt lat="42.8858" lon="0.07098">
        <ele>1818.2</ele>
        <time>2021-11-27T11:38:05Z</time>
      </trkpt>
      <trkpt lat="42.88582" lon="0.07101">
        <ele>1818.2</ele>
        <time>2021-11-27T11:38:08Z</time>
      </trkpt>
      <trkpt lat="42.88584" lon="0.07103">
        <ele>1818.2</ele>
        <time>2021-11-27T11:38:11Z</time>
      </trkpt>
      <trkpt lat="42.88585" lon="0.07105">
        <ele>1818.2</ele>
        <time>2021-11-27T11:38:15Z</time>
      </trkpt>
      <trkpt lat="42.88587" lon="0.07106">
        <ele>1818.2</ele>
        <time>2021-11-27T11:38:17Z</time>
      </trkpt>
      <trkpt lat="42.88588" lon="0.07109">
        <ele>1818.2</ele>
        <time>2021-11-27T11:38:21Z</time>
      </trkpt>
      <trkpt lat="42.88588" lon="0.07111">
        <ele>1818.2</ele>
        <time>2021-11-27T11:38:27Z</time>
      </trkpt>
      <trkpt lat="42.8859" lon="0.07113">
        <ele>1818.2</ele>
        <time>2021-11-27T11:38:34Z</time>
      </trkpt>
      <trkpt lat="42.88592" lon="0.07116">
        <ele>1818.2</ele>
        <time>2021-11-27T11:38:38Z</time>
      </trkpt>
      <trkpt lat="42.88593" lon="0.07118">
        <ele>1818.2</ele>
        <time>2021-11-27T11:38:41Z</time>
      </trkpt>
      <trkpt lat="42.88595" lon="0.0712">
        <ele>1818.2</ele>
        <time>2021-11-27T11:38:44Z</time>
      </trkpt>
      <trkpt lat="42.88596" lon="0.07122">
        <ele>1818.2</ele>
        <time>2021-11-27T11:38:48Z</time>
      </trkpt>
      <trkpt lat="42.88597" lon="0.07124">
        <ele>1818.2</ele>
        <time>2021-11-27T11:38:51Z</time>
      </trkpt>
      <trkpt lat="42.88598" lon="0.07127">
        <ele>1818.2</ele>
        <time>2021-11-27T11:38:54Z</time>
      </trkpt>
      <trkpt lat="42.886" lon="0.0713">
        <ele>1818.2</ele>
        <time>2021-11-27T11:38:58Z</time>
      </trkpt>
      <trkpt lat="42.88601" lon="0.07132">
        <ele>1818.2</ele>
        <time>2021-11-27T11:39:01Z</time>
      </trkpt>
      <trkpt lat="42.88602" lon="0.07135">
        <ele>1818.2</ele>
        <time>2021-11-27T11:39:05Z</time>
      </trkpt>
      <trkpt lat="42.88603" lon="0.07138">
        <ele>1818.2</ele>
        <time>2021-11-27T11:39:08Z</time>
      </trkpt>
      <trkpt lat="42.88603" lon="0.0714">
        <ele>1818.2</ele>
        <time>2021-11-27T11:39:11Z</time>
      </trkpt>
      <trkpt lat="42.88604" lon="0.07142">
        <ele>1818.2</ele>
        <time>2021-11-27T11:39:13Z</time>
      </trkpt>
      <trkpt lat="42.88605" lon="0.07144">
        <ele>1818.2</ele>
        <time>2021-11-27T11:39:16Z</time>
      </trkpt>
      <trkpt lat="42.88607" lon="0.07146">
        <ele>1818.2</ele>
        <time>2021-11-27T11:39:20Z</time>
      </trkpt>
      <trkpt lat="42.88608" lon="0.07149">
        <ele>1818.2</ele>
        <time>2021-11-27T11:39:33Z</time>
      </trkpt>
      <trkpt lat="42.88609" lon="0.07151">
        <ele>1818.2</ele>
        <time>2021-11-27T11:39:37Z</time>
      </trkpt>
      <trkpt lat="42.8861" lon="0.07154">
        <ele>1818.2</ele>
        <time>2021-11-27T11:39:41Z</time>
      </trkpt>
      <trkpt lat="42.8861" lon="0.07157">
        <ele>1818.2</ele>
        <time>2021-11-27T11:39:45Z</time>
      </trkpt>
      <trkpt lat="42.88611" lon="0.07159">
        <ele>1818.2</ele>
        <time>2021-11-27T11:39:48Z</time>
      </trkpt>
      <trkpt lat="42.88612" lon="0.07162">
        <ele>1818.2</ele>
        <time>2021-11-27T11:39:52Z</time>
      </trkpt>
      <trkpt lat="42.88613" lon="0.07165">
        <ele>1818.2</ele>
        <time>2021-11-27T11:39:56Z</time>
      </trkpt>
      <trkpt lat="42.88613" lon="0.07168">
        <ele>1826.6</ele>
        <time>2021-11-27T11:39:59Z</time>
      </trkpt>
      <trkpt lat="42.88614" lon="0.07171">
        <ele>1826.6</ele>
        <time>2021-11-27T11:40:03Z</time>
      </trkpt>
      <trkpt lat="42.88615" lon="0.07174">
        <ele>1826.6</ele>
        <time>2021-11-27T11:40:07Z</time>
      </trkpt>
      <trkpt lat="42.88617" lon="0.07176">
        <ele>1826.6</ele>
        <time>2021-11-27T11:40:10Z</time>
      </trkpt>
      <trkpt lat="42.88619" lon="0.07178">
        <ele>1826.6</ele>
        <time>2021-11-27T11:40:13Z</time>
      </trkpt>
      <trkpt lat="42.88618" lon="0.07181">
        <ele>1826.6</ele>
        <time>2021-11-27T11:40:17Z</time>
      </trkpt>
      <trkpt lat="42.88619" lon="0.07184">
        <ele>1826.6</ele>
        <time>2021-11-27T11:40:21Z</time>
      </trkpt>
      <trkpt lat="42.8862" lon="0.07187">
        <ele>1826.6</ele>
        <time>2021-11-27T11:40:26Z</time>
      </trkpt>
      <trkpt lat="42.8862" lon="0.07189">
        <ele>1826.6</ele>
        <time>2021-11-27T11:40:30Z</time>
      </trkpt>
      <trkpt lat="42.8862" lon="0.07192">
        <ele>1826.6</ele>
        <time>2021-11-27T11:40:34Z</time>
      </trkpt>
      <trkpt lat="42.88621" lon="0.07195">
        <ele>1826.6</ele>
        <time>2021-11-27T11:40:38Z</time>
      </trkpt>
      <trkpt lat="42.88621" lon="0.07198">
        <ele>1826.6</ele>
        <time>2021-11-27T11:40:42Z</time>
      </trkpt>
      <trkpt lat="42.88621" lon="0.07201">
        <ele>1826.6</ele>
        <time>2021-11-27T11:40:46Z</time>
      </trkpt>
      <trkpt lat="42.88621" lon="0.07204">
        <ele>1826.6</ele>
        <time>2021-11-27T11:40:50Z</time>
      </trkpt>
      <trkpt lat="42.88621" lon="0.07207">
        <ele>1826.6</ele>
        <time>2021-11-27T11:40:54Z</time>
      </trkpt>
      <trkpt lat="42.88621" lon="0.0721">
        <ele>1826.6</ele>
        <time>2021-11-27T11:40:58Z</time>
      </trkpt>
      <trkpt lat="42.88623" lon="0.07212">
        <ele>1826.6</ele>
        <time>2021-11-27T11:41:00Z</time>
      </trkpt>
      <trkpt lat="42.88625" lon="0.07214">
        <ele>1826.6</ele>
        <time>2021-11-27T11:41:03Z</time>
      </trkpt>
      <trkpt lat="42.88625" lon="0.07217">
        <ele>1826.6</ele>
        <time>2021-11-27T11:41:06Z</time>
      </trkpt>
      <trkpt lat="42.88626" lon="0.07219">
        <ele>1832</ele>
        <time>2021-11-27T11:41:09Z</time>
      </trkpt>
      <trkpt lat="42.88627" lon="0.07222">
        <ele>1832</ele>
        <time>2021-11-27T11:41:12Z</time>
      </trkpt>
      <trkpt lat="42.88627" lon="0.07224">
        <ele>1832</ele>
        <time>2021-11-27T11:41:15Z</time>
      </trkpt>
      <trkpt lat="42.88627" lon="0.07228">
        <ele>1833</ele>
        <time>2021-11-27T11:41:19Z</time>
      </trkpt>
      <trkpt lat="42.88628" lon="0.07231">
        <ele>1833</ele>
        <time>2021-11-27T11:41:23Z</time>
      </trkpt>
      <trkpt lat="42.88627" lon="0.07234">
        <ele>1833</ele>
        <time>2021-11-27T11:41:26Z</time>
      </trkpt>
      <trkpt lat="42.88627" lon="0.07236">
        <ele>1833.8</ele>
        <time>2021-11-27T11:41:29Z</time>
      </trkpt>
      <trkpt lat="42.88628" lon="0.07239">
        <ele>1833.8</ele>
        <time>2021-11-27T11:41:34Z</time>
      </trkpt>
      <trkpt lat="42.88628" lon="0.07242">
        <ele>1833.8</ele>
        <time>2021-11-27T11:42:35Z</time>
      </trkpt>
      <trkpt lat="42.88628" lon="0.07245">
        <ele>1833.8</ele>
        <time>2021-11-27T11:42:37Z</time>
      </trkpt>
      <trkpt lat="42.8863" lon="0.07247">
        <ele>1836.4</ele>
        <time>2021-11-27T11:42:39Z</time>
      </trkpt>
      <trkpt lat="42.88631" lon="0.07251">
        <ele>1836.4</ele>
        <time>2021-11-27T11:42:41Z</time>
      </trkpt>
      <trkpt lat="42.88632" lon="0.07253">
        <ele>1836.4</ele>
        <time>2021-11-27T11:42:43Z</time>
      </trkpt>
      <trkpt lat="42.88632" lon="0.07256">
        <ele>1836.4</ele>
        <time>2021-11-27T11:42:46Z</time>
      </trkpt>
      <trkpt lat="42.88633" lon="0.07259">
        <ele>1836.4</ele>
        <time>2021-11-27T11:42:48Z</time>
      </trkpt>
      <trkpt lat="42.88633" lon="0.07261">
        <ele>1836.4</ele>
        <time>2021-11-27T11:42:51Z</time>
      </trkpt>
      <trkpt lat="42.88635" lon="0.07264">
        <ele>1836.4</ele>
        <time>2021-11-27T11:42:54Z</time>
      </trkpt>
      <trkpt lat="42.88635" lon="0.07267">
        <ele>1836.4</ele>
        <time>2021-11-27T11:42:57Z</time>
      </trkpt>
      <trkpt lat="42.88636" lon="0.0727">
        <ele>1838.2</ele>
        <time>2021-11-27T11:42:59Z</time>
      </trkpt>
      <trkpt lat="42.88637" lon="0.07272">
        <ele>1838.2</ele>
        <time>2021-11-27T11:43:02Z</time>
      </trkpt>
      <trkpt lat="42.88638" lon="0.07275">
        <ele>1838.2</ele>
        <time>2021-11-27T11:43:05Z</time>
      </trkpt>
      <trkpt lat="42.88637" lon="0.07277">
        <ele>1838.2</ele>
        <time>2021-11-27T11:43:08Z</time>
      </trkpt>
      <trkpt lat="42.88639" lon="0.0728">
        <ele>1838.2</ele>
        <time>2021-11-27T11:43:10Z</time>
      </trkpt>
      <trkpt lat="42.88641" lon="0.07281">
        <ele>1838.2</ele>
        <time>2021-11-27T11:43:11Z</time>
      </trkpt>
      <trkpt lat="42.88642" lon="0.07284">
        <ele>1838.2</ele>
        <time>2021-11-27T11:43:15Z</time>
      </trkpt>
      <trkpt lat="42.88642" lon="0.07287">
        <ele>1838.2</ele>
        <time>2021-11-27T11:43:18Z</time>
      </trkpt>
      <trkpt lat="42.88643" lon="0.0729">
        <ele>1838.2</ele>
        <time>2021-11-27T11:43:20Z</time>
      </trkpt>
      <trkpt lat="42.88643" lon="0.07293">
        <ele>1838.2</ele>
        <time>2021-11-27T11:43:23Z</time>
      </trkpt>
      <trkpt lat="42.88644" lon="0.07295">
        <ele>1838.2</ele>
        <time>2021-11-27T11:43:25Z</time>
      </trkpt>
      <trkpt lat="42.88644" lon="0.07298">
        <ele>1838.2</ele>
        <time>2021-11-27T11:43:28Z</time>
      </trkpt>
      <trkpt lat="42.88645" lon="0.07301">
        <ele>1838.2</ele>
        <time>2021-11-27T11:43:31Z</time>
      </trkpt>
      <trkpt lat="42.88647" lon="0.07305">
        <ele>1838.2</ele>
        <time>2021-11-27T11:43:34Z</time>
      </trkpt>
      <trkpt lat="42.88648" lon="0.07307">
        <ele>1838.2</ele>
        <time>2021-11-27T11:43:37Z</time>
      </trkpt>
      <trkpt lat="42.88648" lon="0.0731">
        <ele>1838.2</ele>
        <time>2021-11-27T11:43:40Z</time>
      </trkpt>
      <trkpt lat="42.88649" lon="0.07312">
        <ele>1838.2</ele>
        <time>2021-11-27T11:43:43Z</time>
      </trkpt>
      <trkpt lat="42.88649" lon="0.07315">
        <ele>1838.2</ele>
        <time>2021-11-27T11:43:46Z</time>
      </trkpt>
      <trkpt lat="42.88651" lon="0.07318">
        <ele>1838.2</ele>
        <time>2021-11-27T11:43:50Z</time>
      </trkpt>
      <trkpt lat="42.88652" lon="0.0732">
        <ele>1838.2</ele>
        <time>2021-11-27T11:43:54Z</time>
      </trkpt>
      <trkpt lat="42.88653" lon="0.07322">
        <ele>1838.2</ele>
        <time>2021-11-27T11:43:58Z</time>
      </trkpt>
      <trkpt lat="42.88654" lon="0.07324">
        <ele>1838.2</ele>
        <time>2021-11-27T11:44:01Z</time>
      </trkpt>
      <trkpt lat="42.88655" lon="0.07327">
        <ele>1838.2</ele>
        <time>2021-11-27T11:44:04Z</time>
      </trkpt>
      <trkpt lat="42.88656" lon="0.07329">
        <ele>1838.2</ele>
        <time>2021-11-27T11:44:07Z</time>
      </trkpt>
      <trkpt lat="42.88657" lon="0.07332">
        <ele>1838.2</ele>
        <time>2021-11-27T11:44:11Z</time>
      </trkpt>
      <trkpt lat="42.88658" lon="0.07334">
        <ele>1838.2</ele>
        <time>2021-11-27T11:44:13Z</time>
      </trkpt>
      <trkpt lat="42.88659" lon="0.07336">
        <ele>1838.2</ele>
        <time>2021-11-27T11:45:07Z</time>
      </trkpt>
      <trkpt lat="42.88661" lon="0.07339">
        <ele>1844.4</ele>
        <time>2021-11-27T11:45:09Z</time>
      </trkpt>
      <trkpt lat="42.88661" lon="0.07341">
        <ele>1844.4</ele>
        <time>2021-11-27T11:45:11Z</time>
      </trkpt>
      <trkpt lat="42.88663" lon="0.07344">
        <ele>1844.4</ele>
        <time>2021-11-27T11:45:13Z</time>
      </trkpt>
      <trkpt lat="42.88664" lon="0.07347">
        <ele>1844.4</ele>
        <time>2021-11-27T11:45:15Z</time>
      </trkpt>
      <trkpt lat="42.88665" lon="0.0735">
        <ele>1844.4</ele>
        <time>2021-11-27T11:45:18Z</time>
      </trkpt>
      <trkpt lat="42.88665" lon="0.07353">
        <ele>1844.4</ele>
        <time>2021-11-27T11:45:21Z</time>
      </trkpt>
      <trkpt lat="42.88667" lon="0.07355">
        <ele>1844.4</ele>
        <time>2021-11-27T11:45:23Z</time>
      </trkpt>
      <trkpt lat="42.88667" lon="0.07358">
        <ele>1844.4</ele>
        <time>2021-11-27T11:45:26Z</time>
      </trkpt>
      <trkpt lat="42.88668" lon="0.0736">
        <ele>1845.8</ele>
        <time>2021-11-27T11:45:29Z</time>
      </trkpt>
      <trkpt lat="42.88669" lon="0.07363">
        <ele>1845.8</ele>
        <time>2021-11-27T11:45:32Z</time>
      </trkpt>
      <trkpt lat="42.8867" lon="0.07365">
        <ele>1845.8</ele>
        <time>2021-11-27T11:45:34Z</time>
      </trkpt>
      <trkpt lat="42.8867" lon="0.07369">
        <ele>1845.8</ele>
        <time>2021-11-27T11:45:37Z</time>
      </trkpt>
      <trkpt lat="42.8867" lon="0.07372">
        <ele>1845.8</ele>
        <time>2021-11-27T11:45:40Z</time>
      </trkpt>
      <trkpt lat="42.88671" lon="0.07374">
        <ele>1845.8</ele>
        <time>2021-11-27T11:45:43Z</time>
      </trkpt>
      <trkpt lat="42.88673" lon="0.07377">
        <ele>1845.8</ele>
        <time>2021-11-27T11:45:46Z</time>
      </trkpt>
      <trkpt lat="42.88674" lon="0.0738">
        <ele>1848</ele>
        <time>2021-11-27T11:45:49Z</time>
      </trkpt>
      <trkpt lat="42.88675" lon="0.07383">
        <ele>1848</ele>
        <time>2021-11-27T11:45:52Z</time>
      </trkpt>
      <trkpt lat="42.88676" lon="0.07385">
        <ele>1848</ele>
        <time>2021-11-27T11:45:55Z</time>
      </trkpt>
      <trkpt lat="42.88675" lon="0.07388">
        <ele>1848</ele>
        <time>2021-11-27T11:46:34Z</time>
      </trkpt>
      <trkpt lat="42.88676" lon="0.07392">
        <ele>1848</ele>
        <time>2021-11-27T11:46:36Z</time>
      </trkpt>
      <trkpt lat="42.88676" lon="0.07396">
        <ele>1848</ele>
        <time>2021-11-27T11:46:38Z</time>
      </trkpt>
      <trkpt lat="42.88676" lon="0.074">
        <ele>1848</ele>
        <time>2021-11-27T11:46:40Z</time>
      </trkpt>
      <trkpt lat="42.88677" lon="0.07403">
        <ele>1848</ele>
        <time>2021-11-27T11:46:41Z</time>
      </trkpt>
      <trkpt lat="42.88678" lon="0.07407">
        <ele>1848</ele>
        <time>2021-11-27T11:46:43Z</time>
      </trkpt>
      <trkpt lat="42.88679" lon="0.0741">
        <ele>1848</ele>
        <time>2021-11-27T11:46:46Z</time>
      </trkpt>
      <trkpt lat="42.8868" lon="0.07412">
        <ele>1852</ele>
        <time>2021-11-27T11:46:49Z</time>
      </trkpt>
      <trkpt lat="42.88681" lon="0.07414">
        <ele>1852</ele>
        <time>2021-11-27T11:46:52Z</time>
      </trkpt>
      <trkpt lat="42.88681" lon="0.07417">
        <ele>1852</ele>
        <time>2021-11-27T11:46:55Z</time>
      </trkpt>
      <trkpt lat="42.88681" lon="0.0742">
        <ele>1853.4</ele>
        <time>2021-11-27T11:46:59Z</time>
      </trkpt>
      <trkpt lat="42.88681" lon="0.07423">
        <ele>1853.4</ele>
        <time>2021-11-27T11:47:03Z</time>
      </trkpt>
      <trkpt lat="42.88682" lon="0.07426">
        <ele>1853.4</ele>
        <time>2021-11-27T11:47:07Z</time>
      </trkpt>
      <trkpt lat="42.88681" lon="0.07428">
        <ele>1853.4</ele>
        <time>2021-11-27T11:47:11Z</time>
      </trkpt>
      <trkpt lat="42.88682" lon="0.0743">
        <ele>1853.4</ele>
        <time>2021-11-27T11:47:14Z</time>
      </trkpt>
      <trkpt lat="42.88682" lon="0.07434">
        <ele>1853.4</ele>
        <time>2021-11-27T11:47:17Z</time>
      </trkpt>
      <trkpt lat="42.88684" lon="0.07436">
        <ele>1853.4</ele>
        <time>2021-11-27T11:47:21Z</time>
      </trkpt>
      <trkpt lat="42.88684" lon="0.07439">
        <ele>1853.4</ele>
        <time>2021-11-27T11:47:25Z</time>
      </trkpt>
      <trkpt lat="42.88684" lon="0.07442">
        <ele>1853.4</ele>
        <time>2021-11-27T11:48:16Z</time>
      </trkpt>
      <trkpt lat="42.88684" lon="0.07446">
        <ele>1853.4</ele>
        <time>2021-11-27T11:48:18Z</time>
      </trkpt>
      <trkpt lat="42.88683" lon="0.0745">
        <ele>1853.4</ele>
        <time>2021-11-27T11:48:20Z</time>
      </trkpt>
      <trkpt lat="42.88683" lon="0.07454">
        <ele>1853.4</ele>
        <time>2021-11-27T11:48:22Z</time>
      </trkpt>
      <trkpt lat="42.88683" lon="0.07459">
        <ele>1853.4</ele>
        <time>2021-11-27T11:48:24Z</time>
      </trkpt>
      <trkpt lat="42.88683" lon="0.07461">
        <ele>1853.4</ele>
        <time>2021-11-27T11:48:28Z</time>
      </trkpt>
      <trkpt lat="42.88682" lon="0.07465">
        <ele>1853.4</ele>
        <time>2021-11-27T11:50:03Z</time>
      </trkpt>
      <trkpt lat="42.88681" lon="0.07469">
        <ele>1853.4</ele>
        <time>2021-11-27T11:50:05Z</time>
      </trkpt>
      <trkpt lat="42.88681" lon="0.07472">
        <ele>1853.4</ele>
        <time>2021-11-27T11:50:07Z</time>
      </trkpt>
      <trkpt lat="42.8868" lon="0.07475">
        <ele>1860.2</ele>
        <time>2021-11-27T11:50:09Z</time>
      </trkpt>
      <trkpt lat="42.8868" lon="0.07478">
        <ele>1860.2</ele>
        <time>2021-11-27T11:50:12Z</time>
      </trkpt>
      <trkpt lat="42.88678" lon="0.07481">
        <ele>1860.2</ele>
        <time>2021-11-27T11:50:15Z</time>
      </trkpt>
      <trkpt lat="42.88677" lon="0.07483">
        <ele>1860.2</ele>
        <time>2021-11-27T11:50:18Z</time>
      </trkpt>
      <trkpt lat="42.88675" lon="0.07485">
        <ele>1860.2</ele>
        <time>2021-11-27T11:50:22Z</time>
      </trkpt>
      <trkpt lat="42.88674" lon="0.07488">
        <ele>1860.2</ele>
        <time>2021-11-27T11:50:25Z</time>
      </trkpt>
      <trkpt lat="42.88673" lon="0.07489">
        <ele>1860.2</ele>
        <time>2021-11-27T11:50:28Z</time>
      </trkpt>
      <trkpt lat="42.88671" lon="0.07491">
        <ele>1860.2</ele>
        <time>2021-11-27T11:50:30Z</time>
      </trkpt>
      <trkpt lat="42.88669" lon="0.07492">
        <ele>1860.2</ele>
        <time>2021-11-27T11:50:33Z</time>
      </trkpt>
      <trkpt lat="42.88667" lon="0.07495">
        <ele>1860.2</ele>
        <time>2021-11-27T11:51:13Z</time>
      </trkpt>
      <trkpt lat="42.88665" lon="0.07497">
        <ele>1860.2</ele>
        <time>2021-11-27T11:51:15Z</time>
      </trkpt>
      <trkpt lat="42.88663" lon="0.07499">
        <ele>1860.2</ele>
        <time>2021-11-27T11:51:17Z</time>
      </trkpt>
      <trkpt lat="42.88661" lon="0.075">
        <ele>1860.2</ele>
        <time>2021-11-27T11:51:18Z</time>
      </trkpt>
      <trkpt lat="42.8866" lon="0.07502">
        <ele>1860.2</ele>
        <time>2021-11-27T11:51:24Z</time>
      </trkpt>
      <trkpt lat="42.88658" lon="0.07503">
        <ele>1860.2</ele>
        <time>2021-11-27T11:51:27Z</time>
      </trkpt>
      <trkpt lat="42.88657" lon="0.07505">
        <ele>1860.2</ele>
        <time>2021-11-27T11:51:46Z</time>
      </trkpt>
      <trkpt lat="42.88655" lon="0.07509">
        <ele>1860.2</ele>
        <time>2021-11-27T11:51:48Z</time>
      </trkpt>
      <trkpt lat="42.88654" lon="0.07512">
        <ele>1860.2</ele>
        <time>2021-11-27T11:51:50Z</time>
      </trkpt>
      <trkpt lat="42.88653" lon="0.07516">
        <ele>1860.2</ele>
        <time>2021-11-27T11:51:52Z</time>
      </trkpt>
      <trkpt lat="42.88651" lon="0.07519">
        <ele>1860.2</ele>
        <time>2021-11-27T11:51:54Z</time>
      </trkpt>
      <trkpt lat="42.8865" lon="0.07522">
        <ele>1860.2</ele>
        <time>2021-11-27T11:51:56Z</time>
      </trkpt>
      <trkpt lat="42.88648" lon="0.07524">
        <ele>1864.2</ele>
        <time>2021-11-27T11:51:59Z</time>
      </trkpt>
      <trkpt lat="42.88646" lon="0.07525">
        <ele>1864.2</ele>
        <time>2021-11-27T11:52:01Z</time>
      </trkpt>
      <trkpt lat="42.88645" lon="0.07527">
        <ele>1864.2</ele>
        <time>2021-11-27T11:52:04Z</time>
      </trkpt>
      <trkpt lat="42.88644" lon="0.07529">
        <ele>1864.2</ele>
        <time>2021-11-27T11:52:08Z</time>
      </trkpt>
      <trkpt lat="42.88644" lon="0.07532">
        <ele>1864.2</ele>
        <time>2021-11-27T11:52:12Z</time>
      </trkpt>
      <trkpt lat="42.88644" lon="0.07535">
        <ele>1864.2</ele>
        <time>2021-11-27T11:52:16Z</time>
      </trkpt>
      <trkpt lat="42.88644" lon="0.07538">
        <ele>1864.8</ele>
        <time>2021-11-27T11:52:19Z</time>
      </trkpt>
      <trkpt lat="42.88643" lon="0.07541">
        <ele>1864.8</ele>
        <time>2021-11-27T11:52:23Z</time>
      </trkpt>
      <trkpt lat="42.88643" lon="0.07543">
        <ele>1864.8</ele>
        <time>2021-11-27T11:52:27Z</time>
      </trkpt>
      <trkpt lat="42.8864" lon="0.07544">
        <ele>1864.8</ele>
        <time>2021-11-27T11:52:31Z</time>
      </trkpt>
      <trkpt lat="42.88638" lon="0.07544">
        <ele>1864.8</ele>
        <time>2021-11-27T11:52:40Z</time>
      </trkpt>
      <trkpt lat="42.88633" lon="0.0754">
        <ele>1864.8</ele>
        <time>2021-11-27T11:59:46Z</time>
      </trkpt>
      <trkpt lat="42.88631" lon="0.07539">
        <ele>1864.8</ele>
        <time>2021-11-27T11:59:49Z</time>
      </trkpt>
      <trkpt lat="42.88633" lon="0.07537">
        <ele>1864.8</ele>
        <time>2021-11-27T12:06:44Z</time>
      </trkpt>
      <trkpt lat="42.88635" lon="0.07535">
        <ele>1864.8</ele>
        <time>2021-11-27T12:06:45Z</time>
      </trkpt>
      <trkpt lat="42.88636" lon="0.07533">
        <ele>1864.8</ele>
        <time>2021-11-27T12:06:46Z</time>
      </trkpt>
      <trkpt lat="42.88639" lon="0.07532">
        <ele>1864.8</ele>
        <time>2021-11-27T12:06:48Z</time>
      </trkpt>
      <trkpt lat="42.88642" lon="0.07532">
        <ele>1864.8</ele>
        <time>2021-11-27T12:06:50Z</time>
      </trkpt>
      <trkpt lat="42.88645" lon="0.07531">
        <ele>1864.8</ele>
        <time>2021-11-27T12:06:52Z</time>
      </trkpt>
      <trkpt lat="42.88647" lon="0.07532">
        <ele>1864.8</ele>
        <time>2021-11-27T12:06:56Z</time>
      </trkpt>
      <trkpt lat="42.88649" lon="0.07534">
        <ele>1864.8</ele>
        <time>2021-11-27T12:07:12Z</time>
      </trkpt>
      <trkpt lat="42.88651" lon="0.07535">
        <ele>1864.8</ele>
        <time>2021-11-27T12:07:13Z</time>
      </trkpt>
      <trkpt lat="42.88652" lon="0.07538">
        <ele>1864.8</ele>
        <time>2021-11-27T12:07:14Z</time>
      </trkpt>
      <trkpt lat="42.88654" lon="0.07541">
        <ele>1864.8</ele>
        <time>2021-11-27T12:07:15Z</time>
      </trkpt>
      <trkpt lat="42.88657" lon="0.07544">
        <ele>1864.8</ele>
        <time>2021-11-27T12:07:16Z</time>
      </trkpt>
      <trkpt lat="42.8866" lon="0.07548">
        <ele>1864.8</ele>
        <time>2021-11-27T12:07:17Z</time>
      </trkpt>
      <trkpt lat="42.88665" lon="0.07553">
        <ele>1864.8</ele>
        <time>2021-11-27T12:07:18Z</time>
      </trkpt>
      <trkpt lat="42.88668" lon="0.07558">
        <ele>1860.8</ele>
        <time>2021-11-27T12:07:19Z</time>
      </trkpt>
      <trkpt lat="42.88673" lon="0.07564">
        <ele>1860.8</ele>
        <time>2021-11-27T12:07:20Z</time>
      </trkpt>
      <trkpt lat="42.88676" lon="0.07568">
        <ele>1860.8</ele>
        <time>2021-11-27T12:07:21Z</time>
      </trkpt>
      <trkpt lat="42.88679" lon="0.07572">
        <ele>1860.8</ele>
        <time>2021-11-27T12:07:22Z</time>
      </trkpt>
      <trkpt lat="42.88682" lon="0.07577">
        <ele>1860.8</ele>
        <time>2021-11-27T12:07:23Z</time>
      </trkpt>
      <trkpt lat="42.88683" lon="0.07581">
        <ele>1860.8</ele>
        <time>2021-11-27T12:07:24Z</time>
      </trkpt>
      <trkpt lat="42.88683" lon="0.07586">
        <ele>1860.8</ele>
        <time>2021-11-27T12:07:25Z</time>
      </trkpt>
      <trkpt lat="42.88684" lon="0.0759">
        <ele>1860.8</ele>
        <time>2021-11-27T12:07:26Z</time>
      </trkpt>
      <trkpt lat="42.88684" lon="0.07593">
        <ele>1860.8</ele>
        <time>2021-11-27T12:07:27Z</time>
      </trkpt>
      <trkpt lat="42.88684" lon="0.07596">
        <ele>1850.2</ele>
        <time>2021-11-27T12:07:29Z</time>
      </trkpt>
      <trkpt lat="42.88686" lon="0.07597">
        <ele>1847.2</ele>
        <time>2021-11-27T12:07:39Z</time>
      </trkpt>
      <trkpt lat="42.88685" lon="0.07599">
        <ele>1847.2</ele>
        <time>2021-11-27T12:07:42Z</time>
      </trkpt>
      <trkpt lat="42.88684" lon="0.07602">
        <ele>1847.2</ele>
        <time>2021-11-27T12:07:45Z</time>
      </trkpt>
      <trkpt lat="42.88683" lon="0.07606">
        <ele>1847.2</ele>
        <time>2021-11-27T12:07:47Z</time>
      </trkpt>
      <trkpt lat="42.88681" lon="0.07609">
        <ele>1847.2</ele>
        <time>2021-11-27T12:07:48Z</time>
      </trkpt>
      <trkpt lat="42.88678" lon="0.07613">
        <ele>1846.6</ele>
        <time>2021-11-27T12:07:49Z</time>
      </trkpt>
      <trkpt lat="42.88676" lon="0.07617">
        <ele>1846.6</ele>
        <time>2021-11-27T12:07:50Z</time>
      </trkpt>
      <trkpt lat="42.88674" lon="0.07622">
        <ele>1846.6</ele>
        <time>2021-11-27T12:07:51Z</time>
      </trkpt>
      <trkpt lat="42.88672" lon="0.07628">
        <ele>1846.6</ele>
        <time>2021-11-27T12:07:52Z</time>
      </trkpt>
      <trkpt lat="42.8867" lon="0.07633">
        <ele>1846.6</ele>
        <time>2021-11-27T12:07:53Z</time>
      </trkpt>
      <trkpt lat="42.88668" lon="0.0764">
        <ele>1846.6</ele>
        <time>2021-11-27T12:07:54Z</time>
      </trkpt>
      <trkpt lat="42.88666" lon="0.07646">
        <ele>1846.6</ele>
        <time>2021-11-27T12:07:55Z</time>
      </trkpt>
      <trkpt lat="42.88664" lon="0.07652">
        <ele>1846.6</ele>
        <time>2021-11-27T12:07:56Z</time>
      </trkpt>
      <trkpt lat="42.88662" lon="0.07659">
        <ele>1846.6</ele>
        <time>2021-11-27T12:07:57Z</time>
      </trkpt>
      <trkpt lat="42.8866" lon="0.07666">
        <ele>1846.6</ele>
        <time>2021-11-27T12:07:58Z</time>
      </trkpt>
      <trkpt lat="42.88658" lon="0.07672">
        <ele>1838</ele>
        <time>2021-11-27T12:07:59Z</time>
      </trkpt>
      <trkpt lat="42.88657" lon="0.07678">
        <ele>1838</ele>
        <time>2021-11-27T12:08:00Z</time>
      </trkpt>
      <trkpt lat="42.88656" lon="0.07682">
        <ele>1838</ele>
        <time>2021-11-27T12:08:01Z</time>
      </trkpt>
      <trkpt lat="42.88656" lon="0.07685">
        <ele>1838</ele>
        <time>2021-11-27T12:08:03Z</time>
      </trkpt>
      <trkpt lat="42.88653" lon="0.07688">
        <ele>1838</ele>
        <time>2021-11-27T12:08:28Z</time>
      </trkpt>
      <trkpt lat="42.88651" lon="0.07689">
        <ele>1826.4</ele>
        <time>2021-11-27T12:08:29Z</time>
      </trkpt>
      <trkpt lat="42.88648" lon="0.07691">
        <ele>1826.4</ele>
        <time>2021-11-27T12:08:30Z</time>
      </trkpt>
      <trkpt lat="42.88645" lon="0.07694">
        <ele>1826.4</ele>
        <time>2021-11-27T12:08:31Z</time>
      </trkpt>
      <trkpt lat="42.88642" lon="0.07698">
        <ele>1826.4</ele>
        <time>2021-11-27T12:08:32Z</time>
      </trkpt>
      <trkpt lat="42.88639" lon="0.07703">
        <ele>1826.4</ele>
        <time>2021-11-27T12:08:33Z</time>
      </trkpt>
      <trkpt lat="42.88636" lon="0.07708">
        <ele>1826.4</ele>
        <time>2021-11-27T12:08:34Z</time>
      </trkpt>
      <trkpt lat="42.88634" lon="0.07713">
        <ele>1826.4</ele>
        <time>2021-11-27T12:08:35Z</time>
      </trkpt>
      <trkpt lat="42.8863" lon="0.07717">
        <ele>1826.4</ele>
        <time>2021-11-27T12:08:36Z</time>
      </trkpt>
      <trkpt lat="42.88626" lon="0.0772">
        <ele>1826.4</ele>
        <time>2021-11-27T12:08:37Z</time>
      </trkpt>
      <trkpt lat="42.88622" lon="0.07723">
        <ele>1826.4</ele>
        <time>2021-11-27T12:08:38Z</time>
      </trkpt>
      <trkpt lat="42.88618" lon="0.07726">
        <ele>1816.6</ele>
        <time>2021-11-27T12:08:39Z</time>
      </trkpt>
      <trkpt lat="42.88614" lon="0.0773">
        <ele>1816.6</ele>
        <time>2021-11-27T12:08:40Z</time>
      </trkpt>
      <trkpt lat="42.8861" lon="0.07734">
        <ele>1816.6</ele>
        <time>2021-11-27T12:08:41Z</time>
      </trkpt>
      <trkpt lat="42.88607" lon="0.07739">
        <ele>1816.6</ele>
        <time>2021-11-27T12:08:42Z</time>
      </trkpt>
      <trkpt lat="42.88606" lon="0.07742">
        <ele>1816.6</ele>
        <time>2021-11-27T12:08:43Z</time>
      </trkpt>
      <trkpt lat="42.88607" lon="0.07745">
        <ele>1816.6</ele>
        <time>2021-11-27T12:08:44Z</time>
      </trkpt>
      <trkpt lat="42.88606" lon="0.07747">
        <ele>1816.6</ele>
        <time>2021-11-27T12:08:57Z</time>
      </trkpt>
      <trkpt lat="42.88607" lon="0.0775">
        <ele>1816.6</ele>
        <time>2021-11-27T12:09:07Z</time>
      </trkpt>
      <trkpt lat="42.88609" lon="0.07753">
        <ele>1816.6</ele>
        <time>2021-11-27T12:09:08Z</time>
      </trkpt>
      <trkpt lat="42.88612" lon="0.07757">
        <ele>1801</ele>
        <time>2021-11-27T12:09:09Z</time>
      </trkpt>
      <trkpt lat="42.88615" lon="0.07761">
        <ele>1801</ele>
        <time>2021-11-27T12:09:10Z</time>
      </trkpt>
      <trkpt lat="42.88619" lon="0.07764">
        <ele>1801</ele>
        <time>2021-11-27T12:09:11Z</time>
      </trkpt>
      <trkpt lat="42.88622" lon="0.07767">
        <ele>1801</ele>
        <time>2021-11-27T12:09:12Z</time>
      </trkpt>
      <trkpt lat="42.88625" lon="0.07771">
        <ele>1801</ele>
        <time>2021-11-27T12:09:13Z</time>
      </trkpt>
      <trkpt lat="42.88628" lon="0.07777">
        <ele>1801</ele>
        <time>2021-11-27T12:09:14Z</time>
      </trkpt>
      <trkpt lat="42.88632" lon="0.07781">
        <ele>1801</ele>
        <time>2021-11-27T12:09:15Z</time>
      </trkpt>
      <trkpt lat="42.88636" lon="0.07785">
        <ele>1801</ele>
        <time>2021-11-27T12:09:16Z</time>
      </trkpt>
      <trkpt lat="42.88641" lon="0.07789">
        <ele>1801</ele>
        <time>2021-11-27T12:09:17Z</time>
      </trkpt>
      <trkpt lat="42.88645" lon="0.07793">
        <ele>1801</ele>
        <time>2021-11-27T12:09:18Z</time>
      </trkpt>
      <trkpt lat="42.88649" lon="0.07797">
        <ele>1786.4</ele>
        <time>2021-11-27T12:09:19Z</time>
      </trkpt>
      <trkpt lat="42.88653" lon="0.078">
        <ele>1786.4</ele>
        <time>2021-11-27T12:09:20Z</time>
      </trkpt>
      <trkpt lat="42.88656" lon="0.07802">
        <ele>1786.4</ele>
        <time>2021-11-27T12:09:21Z</time>
      </trkpt>
      <trkpt lat="42.88659" lon="0.07805">
        <ele>1786.4</ele>
        <time>2021-11-27T12:09:22Z</time>
      </trkpt>
      <trkpt lat="42.88661" lon="0.07807">
        <ele>1786.4</ele>
        <time>2021-11-27T12:09:23Z</time>
      </trkpt>
      <trkpt lat="42.88665" lon="0.07809">
        <ele>1786.4</ele>
        <time>2021-11-27T12:09:24Z</time>
      </trkpt>
      <trkpt lat="42.88668" lon="0.07811">
        <ele>1786.4</ele>
        <time>2021-11-27T12:09:25Z</time>
      </trkpt>
      <trkpt lat="42.88671" lon="0.07813">
        <ele>1786.4</ele>
        <time>2021-11-27T12:09:26Z</time>
      </trkpt>
      <trkpt lat="42.88674" lon="0.07814">
        <ele>1786.4</ele>
        <time>2021-11-27T12:09:27Z</time>
      </trkpt>
      <trkpt lat="42.88676" lon="0.07814">
        <ele>1786.4</ele>
        <time>2021-11-27T12:09:28Z</time>
      </trkpt>
      <trkpt lat="42.88678" lon="0.07815">
        <ele>1775.8</ele>
        <time>2021-11-27T12:09:29Z</time>
      </trkpt>
      <trkpt lat="42.88681" lon="0.07815">
        <ele>1775.8</ele>
        <time>2021-11-27T12:09:30Z</time>
      </trkpt>
      <trkpt lat="42.88683" lon="0.07815">
        <ele>1775.8</ele>
        <time>2021-11-27T12:09:31Z</time>
      </trkpt>
      <trkpt lat="42.88686" lon="0.07816">
        <ele>1775.8</ele>
        <time>2021-11-27T12:09:32Z</time>
      </trkpt>
      <trkpt lat="42.88689" lon="0.07816">
        <ele>1775.8</ele>
        <time>2021-11-27T12:09:33Z</time>
      </trkpt>
      <trkpt lat="42.88692" lon="0.07816">
        <ele>1775.8</ele>
        <time>2021-11-27T12:09:34Z</time>
      </trkpt>
      <trkpt lat="42.88696" lon="0.07816">
        <ele>1775.8</ele>
        <time>2021-11-27T12:09:35Z</time>
      </trkpt>
      <trkpt lat="42.88701" lon="0.07813">
        <ele>1775.8</ele>
        <time>2021-11-27T12:09:36Z</time>
      </trkpt>
      <trkpt lat="42.88705" lon="0.07811">
        <ele>1775.8</ele>
        <time>2021-11-27T12:09:37Z</time>
      </trkpt>
      <trkpt lat="42.88708" lon="0.0781">
        <ele>1775.8</ele>
        <time>2021-11-27T12:09:38Z</time>
      </trkpt>
      <trkpt lat="42.88712" lon="0.07808">
        <ele>1771.2</ele>
        <time>2021-11-27T12:09:39Z</time>
      </trkpt>
      <trkpt lat="42.88715" lon="0.07806">
        <ele>1771.2</ele>
        <time>2021-11-27T12:09:40Z</time>
      </trkpt>
      <trkpt lat="42.88719" lon="0.07805">
        <ele>1771.2</ele>
        <time>2021-11-27T12:09:41Z</time>
      </trkpt>
      <trkpt lat="42.88723" lon="0.07803">
        <ele>1771.2</ele>
        <time>2021-11-27T12:09:42Z</time>
      </trkpt>
      <trkpt lat="42.88727" lon="0.078">
        <ele>1771.2</ele>
        <time>2021-11-27T12:09:43Z</time>
      </trkpt>
      <trkpt lat="42.8873" lon="0.07798">
        <ele>1771.2</ele>
        <time>2021-11-27T12:09:44Z</time>
      </trkpt>
      <trkpt lat="42.88734" lon="0.07795">
        <ele>1771.2</ele>
        <time>2021-11-27T12:09:45Z</time>
      </trkpt>
      <trkpt lat="42.88739" lon="0.07792">
        <ele>1771.2</ele>
        <time>2021-11-27T12:09:46Z</time>
      </trkpt>
      <trkpt lat="42.88743" lon="0.07788">
        <ele>1771.2</ele>
        <time>2021-11-27T12:09:47Z</time>
      </trkpt>
      <trkpt lat="42.88747" lon="0.07784">
        <ele>1771.2</ele>
        <time>2021-11-27T12:09:48Z</time>
      </trkpt>
      <trkpt lat="42.88752" lon="0.0778">
        <ele>1765.4</ele>
        <time>2021-11-27T12:09:49Z</time>
      </trkpt>
      <trkpt lat="42.88756" lon="0.07776">
        <ele>1765.4</ele>
        <time>2021-11-27T12:09:50Z</time>
      </trkpt>
      <trkpt lat="42.88761" lon="0.07771">
        <ele>1765.4</ele>
        <time>2021-11-27T12:09:51Z</time>
      </trkpt>
      <trkpt lat="42.88765" lon="0.07768">
        <ele>1765.4</ele>
        <time>2021-11-27T12:09:52Z</time>
      </trkpt>
      <trkpt lat="42.88771" lon="0.07764">
        <ele>1765.4</ele>
        <time>2021-11-27T12:09:53Z</time>
      </trkpt>
      <trkpt lat="42.88776" lon="0.07762">
        <ele>1765.4</ele>
        <time>2021-11-27T12:09:54Z</time>
      </trkpt>
      <trkpt lat="42.88781" lon="0.0776">
        <ele>1765.4</ele>
        <time>2021-11-27T12:09:55Z</time>
      </trkpt>
      <trkpt lat="42.88786" lon="0.07758">
        <ele>1765.4</ele>
        <time>2021-11-27T12:09:56Z</time>
      </trkpt>
      <trkpt lat="42.88791" lon="0.07756">
        <ele>1765.4</ele>
        <time>2021-11-27T12:09:57Z</time>
      </trkpt>
      <trkpt lat="42.88796" lon="0.07755">
        <ele>1765.4</ele>
        <time>2021-11-27T12:09:58Z</time>
      </trkpt>
      <trkpt lat="42.88801" lon="0.07754">
        <ele>1758</ele>
        <time>2021-11-27T12:09:59Z</time>
      </trkpt>
      <trkpt lat="42.88806" lon="0.07754">
        <ele>1758</ele>
        <time>2021-11-27T12:10:00Z</time>
      </trkpt>
      <trkpt lat="42.88809" lon="0.07754">
        <ele>1758</ele>
        <time>2021-11-27T12:10:01Z</time>
      </trkpt>
      <trkpt lat="42.88814" lon="0.07754">
        <ele>1758</ele>
        <time>2021-11-27T12:10:02Z</time>
      </trkpt>
      <trkpt lat="42.88816" lon="0.07754">
        <ele>1758</ele>
        <time>2021-11-27T12:10:03Z</time>
      </trkpt>
      <trkpt lat="42.88819" lon="0.07755">
        <ele>1758</ele>
        <time>2021-11-27T12:10:04Z</time>
      </trkpt>
      <trkpt lat="42.88822" lon="0.07756">
        <ele>1758</ele>
        <time>2021-11-27T12:10:06Z</time>
      </trkpt>
      <trkpt lat="42.88824" lon="0.07756">
        <ele>1758</ele>
        <time>2021-11-27T12:10:08Z</time>
      </trkpt>
      <trkpt lat="42.88822" lon="0.07757">
        <ele>1758</ele>
        <time>2021-11-27T12:10:23Z</time>
      </trkpt>
      <trkpt lat="42.88825" lon="0.07755">
        <ele>1758</ele>
        <time>2021-11-27T12:10:48Z</time>
      </trkpt>
      <trkpt lat="42.88828" lon="0.07754">
        <ele>1751</ele>
        <time>2021-11-27T12:10:49Z</time>
      </trkpt>
      <trkpt lat="42.88831" lon="0.07752">
        <ele>1751</ele>
        <time>2021-11-27T12:10:50Z</time>
      </trkpt>
      <trkpt lat="42.88835" lon="0.07751">
        <ele>1751</ele>
        <time>2021-11-27T12:10:51Z</time>
      </trkpt>
      <trkpt lat="42.88839" lon="0.07749">
        <ele>1751</ele>
        <time>2021-11-27T12:10:52Z</time>
      </trkpt>
      <trkpt lat="42.88843" lon="0.07748">
        <ele>1751</ele>
        <time>2021-11-27T12:10:53Z</time>
      </trkpt>
      <trkpt lat="42.88848" lon="0.07748">
        <ele>1751</ele>
        <time>2021-11-27T12:10:54Z</time>
      </trkpt>
      <trkpt lat="42.88852" lon="0.07749">
        <ele>1751</ele>
        <time>2021-11-27T12:10:55Z</time>
      </trkpt>
      <trkpt lat="42.88857" lon="0.07751">
        <ele>1751</ele>
        <time>2021-11-27T12:10:56Z</time>
      </trkpt>
      <trkpt lat="42.88862" lon="0.07752">
        <ele>1751</ele>
        <time>2021-11-27T12:10:57Z</time>
      </trkpt>
      <trkpt lat="42.88868" lon="0.07753">
        <ele>1751</ele>
        <time>2021-11-27T12:10:58Z</time>
      </trkpt>
      <trkpt lat="42.88873" lon="0.07755">
        <ele>1745.6</ele>
        <time>2021-11-27T12:10:59Z</time>
      </trkpt>
      <trkpt lat="42.88879" lon="0.07756">
        <ele>1745.6</ele>
        <time>2021-11-27T12:11:00Z</time>
      </trkpt>
      <trkpt lat="42.88884" lon="0.07757">
        <ele>1745.6</ele>
        <time>2021-11-27T12:11:01Z</time>
      </trkpt>
      <trkpt lat="42.8889" lon="0.07758">
        <ele>1745.6</ele>
        <time>2021-11-27T12:11:02Z</time>
      </trkpt>
      <trkpt lat="42.88896" lon="0.07761">
        <ele>1745.6</ele>
        <time>2021-11-27T12:11:03Z</time>
      </trkpt>
      <trkpt lat="42.88901" lon="0.07763">
        <ele>1745.6</ele>
        <time>2021-11-27T12:11:04Z</time>
      </trkpt>
      <trkpt lat="42.88907" lon="0.07764">
        <ele>1745.6</ele>
        <time>2021-11-27T12:11:05Z</time>
      </trkpt>
      <trkpt lat="42.88912" lon="0.07764">
        <ele>1745.6</ele>
        <time>2021-11-27T12:11:06Z</time>
      </trkpt>
      <trkpt lat="42.88916" lon="0.07765">
        <ele>1745.6</ele>
        <time>2021-11-27T12:11:07Z</time>
      </trkpt>
      <trkpt lat="42.88921" lon="0.07767">
        <ele>1745.6</ele>
        <time>2021-11-27T12:11:08Z</time>
      </trkpt>
      <trkpt lat="42.88926" lon="0.0777">
        <ele>1731</ele>
        <time>2021-11-27T12:11:09Z</time>
      </trkpt>
      <trkpt lat="42.88932" lon="0.07773">
        <ele>1731</ele>
        <time>2021-11-27T12:11:10Z</time>
      </trkpt>
      <trkpt lat="42.88938" lon="0.07775">
        <ele>1731</ele>
        <time>2021-11-27T12:11:11Z</time>
      </trkpt>
      <trkpt lat="42.88943" lon="0.07776">
        <ele>1731</ele>
        <time>2021-11-27T12:11:12Z</time>
      </trkpt>
      <trkpt lat="42.88948" lon="0.07778">
        <ele>1731</ele>
        <time>2021-11-27T12:11:13Z</time>
      </trkpt>
      <trkpt lat="42.88951" lon="0.0778">
        <ele>1731</ele>
        <time>2021-11-27T12:11:14Z</time>
      </trkpt>
      <trkpt lat="42.88955" lon="0.07781">
        <ele>1731</ele>
        <time>2021-11-27T12:11:15Z</time>
      </trkpt>
      <trkpt lat="42.88957" lon="0.07784">
        <ele>1731</ele>
        <time>2021-11-27T12:11:16Z</time>
      </trkpt>
      <trkpt lat="42.8896" lon="0.07787">
        <ele>1731</ele>
        <time>2021-11-27T12:11:17Z</time>
      </trkpt>
      <trkpt lat="42.88963" lon="0.07791">
        <ele>1731</ele>
        <time>2021-11-27T12:11:18Z</time>
      </trkpt>
      <trkpt lat="42.88965" lon="0.07795">
        <ele>1718.2</ele>
        <time>2021-11-27T12:11:19Z</time>
      </trkpt>
      <trkpt lat="42.88968" lon="0.07799">
        <ele>1718.2</ele>
        <time>2021-11-27T12:11:20Z</time>
      </trkpt>
      <trkpt lat="42.8897" lon="0.07804">
        <ele>1718.2</ele>
        <time>2021-11-27T12:11:21Z</time>
      </trkpt>
      <trkpt lat="42.88972" lon="0.07808">
        <ele>1718.2</ele>
        <time>2021-11-27T12:11:22Z</time>
      </trkpt>
      <trkpt lat="42.88972" lon="0.07811">
        <ele>1718.2</ele>
        <time>2021-11-27T12:11:23Z</time>
      </trkpt>
      <trkpt lat="42.8897" lon="0.07812">
        <ele>1718.2</ele>
        <time>2021-11-27T12:11:35Z</time>
      </trkpt>
      <trkpt lat="42.88976" lon="0.07814">
        <ele>1718.2</ele>
        <time>2021-11-27T12:12:02Z</time>
      </trkpt>
      <trkpt lat="42.8898" lon="0.07817">
        <ele>1718.2</ele>
        <time>2021-11-27T12:12:03Z</time>
      </trkpt>
      <trkpt lat="42.88984" lon="0.0782">
        <ele>1718.2</ele>
        <time>2021-11-27T12:12:04Z</time>
      </trkpt>
      <trkpt lat="42.88987" lon="0.07825">
        <ele>1718.2</ele>
        <time>2021-11-27T12:12:05Z</time>
      </trkpt>
      <trkpt lat="42.88991" lon="0.07831">
        <ele>1718.2</ele>
        <time>2021-11-27T12:12:06Z</time>
      </trkpt>
      <trkpt lat="42.88995" lon="0.07838">
        <ele>1718.2</ele>
        <time>2021-11-27T12:12:07Z</time>
      </trkpt>
      <trkpt lat="42.88997" lon="0.07846">
        <ele>1718.2</ele>
        <time>2021-11-27T12:12:08Z</time>
      </trkpt>
      <trkpt lat="42.88998" lon="0.07853">
        <ele>1704.4</ele>
        <time>2021-11-27T12:12:09Z</time>
      </trkpt>
      <trkpt lat="42.88999" lon="0.07859">
        <ele>1704.4</ele>
        <time>2021-11-27T12:12:10Z</time>
      </trkpt>
      <trkpt lat="42.89" lon="0.07865">
        <ele>1704.4</ele>
        <time>2021-11-27T12:12:11Z</time>
      </trkpt>
      <trkpt lat="42.89001" lon="0.07872">
        <ele>1704.4</ele>
        <time>2021-11-27T12:12:12Z</time>
      </trkpt>
      <trkpt lat="42.89002" lon="0.07879">
        <ele>1704.4</ele>
        <time>2021-11-27T12:12:13Z</time>
      </trkpt>
      <trkpt lat="42.89002" lon="0.07887">
        <ele>1704.4</ele>
        <time>2021-11-27T12:12:14Z</time>
      </trkpt>
      <trkpt lat="42.89002" lon="0.07895">
        <ele>1704.4</ele>
        <time>2021-11-27T12:12:15Z</time>
      </trkpt>
      <trkpt lat="42.89002" lon="0.07902">
        <ele>1704.4</ele>
        <time>2021-11-27T12:12:16Z</time>
      </trkpt>
      <trkpt lat="42.89002" lon="0.07909">
        <ele>1704.4</ele>
        <time>2021-11-27T12:12:17Z</time>
      </trkpt>
      <trkpt lat="42.89002" lon="0.07916">
        <ele>1704.4</ele>
        <time>2021-11-27T12:12:18Z</time>
      </trkpt>
      <trkpt lat="42.89" lon="0.07922">
        <ele>1689</ele>
        <time>2021-11-27T12:12:19Z</time>
      </trkpt>
      <trkpt lat="42.88999" lon="0.07927">
        <ele>1689</ele>
        <time>2021-11-27T12:12:20Z</time>
      </trkpt>
      <trkpt lat="42.89" lon="0.07929">
        <ele>1689</ele>
        <time>2021-11-27T12:12:21Z</time>
      </trkpt>
      <trkpt lat="42.89" lon="0.07932">
        <ele>1689</ele>
        <time>2021-11-27T12:12:23Z</time>
      </trkpt>
      <trkpt lat="42.89002" lon="0.07937">
        <ele>1689</ele>
        <time>2021-11-27T12:13:08Z</time>
      </trkpt>
      <trkpt lat="42.89005" lon="0.07941">
        <ele>1679</ele>
        <time>2021-11-27T12:13:09Z</time>
      </trkpt>
      <trkpt lat="42.89007" lon="0.07945">
        <ele>1679</ele>
        <time>2021-11-27T12:13:10Z</time>
      </trkpt>
      <trkpt lat="42.89011" lon="0.07948">
        <ele>1679</ele>
        <time>2021-11-27T12:13:11Z</time>
      </trkpt>
      <trkpt lat="42.89015" lon="0.07949">
        <ele>1679</ele>
        <time>2021-11-27T12:13:12Z</time>
      </trkpt>
      <trkpt lat="42.89019" lon="0.07951">
        <ele>1679</ele>
        <time>2021-11-27T12:13:13Z</time>
      </trkpt>
      <trkpt lat="42.89023" lon="0.07954">
        <ele>1679</ele>
        <time>2021-11-27T12:13:14Z</time>
      </trkpt>
      <trkpt lat="42.89027" lon="0.07956">
        <ele>1679</ele>
        <time>2021-11-27T12:13:15Z</time>
      </trkpt>
      <trkpt lat="42.89031" lon="0.07958">
        <ele>1679</ele>
        <time>2021-11-27T12:13:16Z</time>
      </trkpt>
      <trkpt lat="42.89034" lon="0.0796">
        <ele>1679</ele>
        <time>2021-11-27T12:13:17Z</time>
      </trkpt>
      <trkpt lat="42.89037" lon="0.07963">
        <ele>1679</ele>
        <time>2021-11-27T12:13:18Z</time>
      </trkpt>
      <trkpt lat="42.89039" lon="0.07967">
        <ele>1666.8</ele>
        <time>2021-11-27T12:13:19Z</time>
      </trkpt>
      <trkpt lat="42.89038" lon="0.07972">
        <ele>1666.8</ele>
        <time>2021-11-27T12:13:20Z</time>
      </trkpt>
      <trkpt lat="42.89037" lon="0.07977">
        <ele>1666.8</ele>
        <time>2021-11-27T12:13:21Z</time>
      </trkpt>
      <trkpt lat="42.89036" lon="0.0798">
        <ele>1666.8</ele>
        <time>2021-11-27T12:13:22Z</time>
      </trkpt>
      <trkpt lat="42.89039" lon="0.07978">
        <ele>1666.8</ele>
        <time>2021-11-27T12:13:42Z</time>
      </trkpt>
      <trkpt lat="42.89042" lon="0.07977">
        <ele>1666.8</ele>
        <time>2021-11-27T12:13:44Z</time>
      </trkpt>
      <trkpt lat="42.89045" lon="0.07975">
        <ele>1666.8</ele>
        <time>2021-11-27T12:13:46Z</time>
      </trkpt>
      <trkpt lat="42.89048" lon="0.07975">
        <ele>1666.8</ele>
        <time>2021-11-27T12:13:47Z</time>
      </trkpt>
      <trkpt lat="42.89051" lon="0.07974">
        <ele>1666.8</ele>
        <time>2021-11-27T12:13:48Z</time>
      </trkpt>
      <trkpt lat="42.89052" lon="0.07973">
        <ele>1652.8</ele>
        <time>2021-11-27T12:13:49Z</time>
      </trkpt>
      <trkpt lat="42.89053" lon="0.07976">
        <ele>1652.8</ele>
        <time>2021-11-27T12:13:50Z</time>
      </trkpt>
      <trkpt lat="42.89053" lon="0.07979">
        <ele>1652.8</ele>
        <time>2021-11-27T12:13:51Z</time>
      </trkpt>
      <trkpt lat="42.89052" lon="0.07982">
        <ele>1652.8</ele>
        <time>2021-11-27T12:13:52Z</time>
      </trkpt>
      <trkpt lat="42.89054" lon="0.07985">
        <ele>1652.8</ele>
        <time>2021-11-27T12:13:54Z</time>
      </trkpt>
      <trkpt lat="42.89057" lon="0.07984">
        <ele>1652.8</ele>
        <time>2021-11-27T12:13:55Z</time>
      </trkpt>
      <trkpt lat="42.8906" lon="0.07982">
        <ele>1652.8</ele>
        <time>2021-11-27T12:13:56Z</time>
      </trkpt>
      <trkpt lat="42.89062" lon="0.07981">
        <ele>1652.8</ele>
        <time>2021-11-27T12:13:57Z</time>
      </trkpt>
      <trkpt lat="42.89064" lon="0.07979">
        <ele>1652.8</ele>
        <time>2021-11-27T12:13:58Z</time>
      </trkpt>
      <trkpt lat="42.89067" lon="0.07979">
        <ele>1646.4</ele>
        <time>2021-11-27T12:13:59Z</time>
      </trkpt>
      <trkpt lat="42.8907" lon="0.07978">
        <ele>1646.4</ele>
        <time>2021-11-27T12:14:00Z</time>
      </trkpt>
      <trkpt lat="42.89073" lon="0.07977">
        <ele>1646.4</ele>
        <time>2021-11-27T12:14:01Z</time>
      </trkpt>
      <trkpt lat="42.89076" lon="0.07975">
        <ele>1646.4</ele>
        <time>2021-11-27T12:14:02Z</time>
      </trkpt>
      <trkpt lat="42.89079" lon="0.07974">
        <ele>1646.4</ele>
        <time>2021-11-27T12:14:03Z</time>
      </trkpt>
      <trkpt lat="42.89082" lon="0.07974">
        <ele>1646.4</ele>
        <time>2021-11-27T12:14:04Z</time>
      </trkpt>
      <trkpt lat="42.89086" lon="0.07974">
        <ele>1646.4</ele>
        <time>2021-11-27T12:14:05Z</time>
      </trkpt>
      <trkpt lat="42.8909" lon="0.07974">
        <ele>1646.4</ele>
        <time>2021-11-27T12:14:06Z</time>
      </trkpt>
      <trkpt lat="42.89092" lon="0.07976">
        <ele>1646.4</ele>
        <time>2021-11-27T12:14:07Z</time>
      </trkpt>
      <trkpt lat="42.89093" lon="0.07979">
        <ele>1646.4</ele>
        <time>2021-11-27T12:14:08Z</time>
      </trkpt>
      <trkpt lat="42.89094" lon="0.07981">
        <ele>1646.4</ele>
        <time>2021-11-27T12:14:11Z</time>
      </trkpt>
      <trkpt lat="42.89096" lon="0.0798">
        <ele>1646.4</ele>
        <time>2021-11-27T12:14:22Z</time>
      </trkpt>
      <trkpt lat="42.89098" lon="0.07978">
        <ele>1646.4</ele>
        <time>2021-11-27T12:14:23Z</time>
      </trkpt>
      <trkpt lat="42.89101" lon="0.07976">
        <ele>1646.4</ele>
        <time>2021-11-27T12:14:24Z</time>
      </trkpt>
      <trkpt lat="42.89103" lon="0.07975">
        <ele>1646.4</ele>
        <time>2021-11-27T12:14:25Z</time>
      </trkpt>
      <trkpt lat="42.89108" lon="0.07972">
        <ele>1646.4</ele>
        <time>2021-11-27T12:14:26Z</time>
      </trkpt>
      <trkpt lat="42.89111" lon="0.07971">
        <ele>1646.4</ele>
        <time>2021-11-27T12:14:27Z</time>
      </trkpt>
      <trkpt lat="42.89115" lon="0.0797">
        <ele>1646.4</ele>
        <time>2021-11-27T12:14:28Z</time>
      </trkpt>
      <trkpt lat="42.8912" lon="0.07969">
        <ele>1629.4</ele>
        <time>2021-11-27T12:14:29Z</time>
      </trkpt>
      <trkpt lat="42.89126" lon="0.07968">
        <ele>1629.4</ele>
        <time>2021-11-27T12:14:30Z</time>
      </trkpt>
      <trkpt lat="42.89131" lon="0.07966">
        <ele>1629.4</ele>
        <time>2021-11-27T12:14:31Z</time>
      </trkpt>
      <trkpt lat="42.89135" lon="0.07963">
        <ele>1629.4</ele>
        <time>2021-11-27T12:14:32Z</time>
      </trkpt>
      <trkpt lat="42.89138" lon="0.07961">
        <ele>1629.4</ele>
        <time>2021-11-27T12:14:33Z</time>
      </trkpt>
      <trkpt lat="42.89141" lon="0.07961">
        <ele>1629.4</ele>
        <time>2021-11-27T12:14:34Z</time>
      </trkpt>
      <trkpt lat="42.89145" lon="0.0796">
        <ele>1629.4</ele>
        <time>2021-11-27T12:14:35Z</time>
      </trkpt>
      <trkpt lat="42.89148" lon="0.07961">
        <ele>1629.4</ele>
        <time>2021-11-27T12:14:36Z</time>
      </trkpt>
      <trkpt lat="42.89151" lon="0.0796">
        <ele>1629.4</ele>
        <time>2021-11-27T12:14:37Z</time>
      </trkpt>
      <trkpt lat="42.89155" lon="0.07959">
        <ele>1629.4</ele>
        <time>2021-11-27T12:14:38Z</time>
      </trkpt>
      <trkpt lat="42.89158" lon="0.07957">
        <ele>1615.2</ele>
        <time>2021-11-27T12:14:39Z</time>
      </trkpt>
      <trkpt lat="42.89162" lon="0.07957">
        <ele>1615.2</ele>
        <time>2021-11-27T12:14:40Z</time>
      </trkpt>
      <trkpt lat="42.89164" lon="0.07958">
        <ele>1615.2</ele>
        <time>2021-11-27T12:14:41Z</time>
      </trkpt>
      <trkpt lat="42.89169" lon="0.07958">
        <ele>1615.2</ele>
        <time>2021-11-27T12:14:42Z</time>
      </trkpt>
      <trkpt lat="42.89172" lon="0.07958">
        <ele>1615.2</ele>
        <time>2021-11-27T12:14:43Z</time>
      </trkpt>
      <trkpt lat="42.89176" lon="0.0796">
        <ele>1615.2</ele>
        <time>2021-11-27T12:14:44Z</time>
      </trkpt>
      <trkpt lat="42.8918" lon="0.07962">
        <ele>1615.2</ele>
        <time>2021-11-27T12:14:45Z</time>
      </trkpt>
      <trkpt lat="42.89183" lon="0.07963">
        <ele>1615.2</ele>
        <time>2021-11-27T12:14:46Z</time>
      </trkpt>
      <trkpt lat="42.89186" lon="0.07966">
        <ele>1615.2</ele>
        <time>2021-11-27T12:14:47Z</time>
      </trkpt>
      <trkpt lat="42.89187" lon="0.07969">
        <ele>1615.2</ele>
        <time>2021-11-27T12:14:48Z</time>
      </trkpt>
      <trkpt lat="42.89187" lon="0.07972">
        <ele>1615.2</ele>
        <time>2021-11-27T12:14:50Z</time>
      </trkpt>
      <trkpt lat="42.89192" lon="0.07972">
        <ele>1615.2</ele>
        <time>2021-11-27T12:15:36Z</time>
      </trkpt>
      <trkpt lat="42.89195" lon="0.07975">
        <ele>1615.2</ele>
        <time>2021-11-27T12:15:37Z</time>
      </trkpt>
      <trkpt lat="42.89198" lon="0.07976">
        <ele>1615.2</ele>
        <time>2021-11-27T12:15:38Z</time>
      </trkpt>
      <trkpt lat="42.89201" lon="0.07979">
        <ele>1590.2</ele>
        <time>2021-11-27T12:15:39Z</time>
      </trkpt>
      <trkpt lat="42.89203" lon="0.07981">
        <ele>1590.2</ele>
        <time>2021-11-27T12:15:40Z</time>
      </trkpt>
      <trkpt lat="42.89206" lon="0.07983">
        <ele>1590.2</ele>
        <time>2021-11-27T12:15:41Z</time>
      </trkpt>
      <trkpt lat="42.89209" lon="0.07985">
        <ele>1590.2</ele>
        <time>2021-11-27T12:15:42Z</time>
      </trkpt>
      <trkpt lat="42.89213" lon="0.07987">
        <ele>1590.2</ele>
        <time>2021-11-27T12:15:43Z</time>
      </trkpt>
      <trkpt lat="42.89217" lon="0.07989">
        <ele>1590.2</ele>
        <time>2021-11-27T12:15:44Z</time>
      </trkpt>
      <trkpt lat="42.89221" lon="0.07993">
        <ele>1590.2</ele>
        <time>2021-11-27T12:15:45Z</time>
      </trkpt>
      <trkpt lat="42.89226" lon="0.07995">
        <ele>1590.2</ele>
        <time>2021-11-27T12:15:46Z</time>
      </trkpt>
      <trkpt lat="42.89229" lon="0.07995">
        <ele>1590.2</ele>
        <time>2021-11-27T12:15:47Z</time>
      </trkpt>
      <trkpt lat="42.89233" lon="0.07994">
        <ele>1590.2</ele>
        <time>2021-11-27T12:15:48Z</time>
      </trkpt>
      <trkpt lat="42.89236" lon="0.07995">
        <ele>1576.2</ele>
        <time>2021-11-27T12:15:49Z</time>
      </trkpt>
      <trkpt lat="42.89238" lon="0.08">
        <ele>1576.2</ele>
        <time>2021-11-27T12:15:50Z</time>
      </trkpt>
      <trkpt lat="42.8924" lon="0.08004">
        <ele>1576.2</ele>
        <time>2021-11-27T12:15:51Z</time>
      </trkpt>
      <trkpt lat="42.89243" lon="0.08007">
        <ele>1576.2</ele>
        <time>2021-11-27T12:15:52Z</time>
      </trkpt>
      <trkpt lat="42.89245" lon="0.08011">
        <ele>1576.2</ele>
        <time>2021-11-27T12:15:53Z</time>
      </trkpt>
      <trkpt lat="42.89247" lon="0.08016">
        <ele>1576.2</ele>
        <time>2021-11-27T12:15:54Z</time>
      </trkpt>
      <trkpt lat="42.8925" lon="0.08018">
        <ele>1576.2</ele>
        <time>2021-11-27T12:15:55Z</time>
      </trkpt>
      <trkpt lat="42.89253" lon="0.08018">
        <ele>1576.2</ele>
        <time>2021-11-27T12:15:56Z</time>
      </trkpt>
      <trkpt lat="42.89256" lon="0.08016">
        <ele>1576.2</ele>
        <time>2021-11-27T12:15:57Z</time>
      </trkpt>
      <trkpt lat="42.89259" lon="0.08013">
        <ele>1576.2</ele>
        <time>2021-11-27T12:15:58Z</time>
      </trkpt>
      <trkpt lat="42.89262" lon="0.08012">
        <ele>1560.6</ele>
        <time>2021-11-27T12:15:59Z</time>
      </trkpt>
      <trkpt lat="42.89264" lon="0.08013">
        <ele>1560.6</ele>
        <time>2021-11-27T12:16:00Z</time>
      </trkpt>
      <trkpt lat="42.89267" lon="0.08013">
        <ele>1560.6</ele>
        <time>2021-11-27T12:16:01Z</time>
      </trkpt>
      <trkpt lat="42.89271" lon="0.08014">
        <ele>1560.6</ele>
        <time>2021-11-27T12:16:02Z</time>
      </trkpt>
      <trkpt lat="42.89274" lon="0.08015">
        <ele>1560.6</ele>
        <time>2021-11-27T12:16:03Z</time>
      </trkpt>
      <trkpt lat="42.89277" lon="0.08017">
        <ele>1560.6</ele>
        <time>2021-11-27T12:16:04Z</time>
      </trkpt>
      <trkpt lat="42.89282" lon="0.08018">
        <ele>1560.6</ele>
        <time>2021-11-27T12:16:05Z</time>
      </trkpt>
      <trkpt lat="42.89287" lon="0.08019">
        <ele>1560.6</ele>
        <time>2021-11-27T12:16:06Z</time>
      </trkpt>
      <trkpt lat="42.89291" lon="0.08018">
        <ele>1560.6</ele>
        <time>2021-11-27T12:16:07Z</time>
      </trkpt>
      <trkpt lat="42.89294" lon="0.08018">
        <ele>1560.6</ele>
        <time>2021-11-27T12:16:08Z</time>
      </trkpt>
      <trkpt lat="42.89298" lon="0.08017">
        <ele>1545.6</ele>
        <time>2021-11-27T12:16:09Z</time>
      </trkpt>
      <trkpt lat="42.893" lon="0.08016">
        <ele>1545.6</ele>
        <time>2021-11-27T12:16:10Z</time>
      </trkpt>
      <trkpt lat="42.893" lon="0.08013">
        <ele>1545.6</ele>
        <time>2021-11-27T12:16:13Z</time>
      </trkpt>
      <trkpt lat="42.89302" lon="0.08014">
        <ele>1545.6</ele>
        <time>2021-11-27T12:17:01Z</time>
      </trkpt>
      <trkpt lat="42.89306" lon="0.08011">
        <ele>1545.6</ele>
        <time>2021-11-27T12:17:02Z</time>
      </trkpt>
      <trkpt lat="42.89309" lon="0.08009">
        <ele>1545.6</ele>
        <time>2021-11-27T12:17:03Z</time>
      </trkpt>
      <trkpt lat="42.89314" lon="0.08008">
        <ele>1545.6</ele>
        <time>2021-11-27T12:17:04Z</time>
      </trkpt>
      <trkpt lat="42.89318" lon="0.08006">
        <ele>1545.6</ele>
        <time>2021-11-27T12:17:05Z</time>
      </trkpt>
      <trkpt lat="42.89322" lon="0.08004">
        <ele>1545.6</ele>
        <time>2021-11-27T12:17:06Z</time>
      </trkpt>
      <trkpt lat="42.89326" lon="0.08001">
        <ele>1545.6</ele>
        <time>2021-11-27T12:17:07Z</time>
      </trkpt>
      <trkpt lat="42.89331" lon="0.07998">
        <ele>1545.6</ele>
        <time>2021-11-27T12:17:08Z</time>
      </trkpt>
      <trkpt lat="42.89335" lon="0.07995">
        <ele>1531.4</ele>
        <time>2021-11-27T12:17:09Z</time>
      </trkpt>
      <trkpt lat="42.8934" lon="0.07991">
        <ele>1531.4</ele>
        <time>2021-11-27T12:17:10Z</time>
      </trkpt>
      <trkpt lat="42.89344" lon="0.07989">
        <ele>1531.4</ele>
        <time>2021-11-27T12:17:11Z</time>
      </trkpt>
      <trkpt lat="42.89348" lon="0.07987">
        <ele>1531.4</ele>
        <time>2021-11-27T12:17:12Z</time>
      </trkpt>
      <trkpt lat="42.89352" lon="0.07985">
        <ele>1531.4</ele>
        <time>2021-11-27T12:17:13Z</time>
      </trkpt>
      <trkpt lat="42.89357" lon="0.07983">
        <ele>1531.4</ele>
        <time>2021-11-27T12:17:14Z</time>
      </trkpt>
      <trkpt lat="42.89362" lon="0.07981">
        <ele>1531.4</ele>
        <time>2021-11-27T12:17:15Z</time>
      </trkpt>
      <trkpt lat="42.89366" lon="0.07978">
        <ele>1531.4</ele>
        <time>2021-11-27T12:17:16Z</time>
      </trkpt>
      <trkpt lat="42.89371" lon="0.07975">
        <ele>1531.4</ele>
        <time>2021-11-27T12:17:17Z</time>
      </trkpt>
      <trkpt lat="42.89376" lon="0.07972">
        <ele>1531.4</ele>
        <time>2021-11-27T12:17:18Z</time>
      </trkpt>
      <trkpt lat="42.8938" lon="0.07969">
        <ele>1520.4</ele>
        <time>2021-11-27T12:17:19Z</time>
      </trkpt>
      <trkpt lat="42.89385" lon="0.07965">
        <ele>1520.4</ele>
        <time>2021-11-27T12:17:20Z</time>
      </trkpt>
      <trkpt lat="42.8939" lon="0.07962">
        <ele>1520.4</ele>
        <time>2021-11-27T12:17:21Z</time>
      </trkpt>
      <trkpt lat="42.89395" lon="0.07958">
        <ele>1520.4</ele>
        <time>2021-11-27T12:17:22Z</time>
      </trkpt>
      <trkpt lat="42.894" lon="0.07954">
        <ele>1520.4</ele>
        <time>2021-11-27T12:17:23Z</time>
      </trkpt>
      <trkpt lat="42.89405" lon="0.0795">
        <ele>1520.4</ele>
        <time>2021-11-27T12:17:24Z</time>
      </trkpt>
      <trkpt lat="42.89411" lon="0.07946">
        <ele>1520.4</ele>
        <time>2021-11-27T12:17:25Z</time>
      </trkpt>
      <trkpt lat="42.89416" lon="0.07941">
        <ele>1520.4</ele>
        <time>2021-11-27T12:17:26Z</time>
      </trkpt>
      <trkpt lat="42.8942" lon="0.07936">
        <ele>1520.4</ele>
        <time>2021-11-27T12:17:27Z</time>
      </trkpt>
      <trkpt lat="42.89426" lon="0.07931">
        <ele>1520.4</ele>
        <time>2021-11-27T12:17:28Z</time>
      </trkpt>
      <trkpt lat="42.89432" lon="0.07925">
        <ele>1507.8</ele>
        <time>2021-11-27T12:17:29Z</time>
      </trkpt>
      <trkpt lat="42.89436" lon="0.0792">
        <ele>1507.8</ele>
        <time>2021-11-27T12:17:30Z</time>
      </trkpt>
      <trkpt lat="42.8944" lon="0.07916">
        <ele>1507.8</ele>
        <time>2021-11-27T12:17:31Z</time>
      </trkpt>
      <trkpt lat="42.89443" lon="0.07912">
        <ele>1507.8</ele>
        <time>2021-11-27T12:17:32Z</time>
      </trkpt>
      <trkpt lat="42.89445" lon="0.07909">
        <ele>1507.8</ele>
        <time>2021-11-27T12:17:33Z</time>
      </trkpt>
      <trkpt lat="42.89447" lon="0.07907">
        <ele>1507.8</ele>
        <time>2021-11-27T12:17:34Z</time>
      </trkpt>
      <trkpt lat="42.89449" lon="0.07905">
        <ele>1507.8</ele>
        <time>2021-11-27T12:17:36Z</time>
      </trkpt>
      <trkpt lat="42.89451" lon="0.07901">
        <ele>1507.8</ele>
        <time>2021-11-27T12:17:38Z</time>
      </trkpt>
      <trkpt lat="42.89452" lon="0.079">
        <ele>1501.2</ele>
        <time>2021-11-27T12:17:39Z</time>
      </trkpt>
      <trkpt lat="42.89455" lon="0.07897">
        <ele>1501.2</ele>
        <time>2021-11-27T12:17:41Z</time>
      </trkpt>
      <trkpt lat="42.89457" lon="0.07894">
        <ele>1501.2</ele>
        <time>2021-11-27T12:17:43Z</time>
      </trkpt>
      <trkpt lat="42.89458" lon="0.07892">
        <ele>1501.2</ele>
        <time>2021-11-27T12:17:45Z</time>
      </trkpt>
      <trkpt lat="42.8946" lon="0.07889">
        <ele>1501.2</ele>
        <time>2021-11-27T12:17:47Z</time>
      </trkpt>
      <trkpt lat="42.89464" lon="0.07886">
        <ele>1500</ele>
        <time>2021-11-27T12:17:49Z</time>
      </trkpt>
      <trkpt lat="42.89465" lon="0.07884">
        <ele>1500</ele>
        <time>2021-11-27T12:17:50Z</time>
      </trkpt>
      <trkpt lat="42.89468" lon="0.07883">
        <ele>1500</ele>
        <time>2021-11-27T12:17:51Z</time>
      </trkpt>
      <trkpt lat="42.89469" lon="0.07881">
        <ele>1500</ele>
        <time>2021-11-27T12:17:52Z</time>
      </trkpt>
      <trkpt lat="42.89471" lon="0.0788">
        <ele>1500</ele>
        <time>2021-11-27T12:17:53Z</time>
      </trkpt>
      <trkpt lat="42.89473" lon="0.07878">
        <ele>1500</ele>
        <time>2021-11-27T12:17:54Z</time>
      </trkpt>
      <trkpt lat="42.89474" lon="0.07876">
        <ele>1500</ele>
        <time>2021-11-27T12:17:55Z</time>
      </trkpt>
      <trkpt lat="42.89476" lon="0.07875">
        <ele>1500</ele>
        <time>2021-11-27T12:17:58Z</time>
      </trkpt>
      <trkpt lat="42.89478" lon="0.07883">
        <ele>1500</ele>
        <time>2021-11-27T12:19:50Z</time>
      </trkpt>
      <trkpt lat="42.89478" lon="0.0788">
        <ele>1500</ele>
        <time>2021-11-27T12:19:56Z</time>
      </trkpt>
      <trkpt lat="42.89476" lon="0.07882">
        <ele>1500</ele>
        <time>2021-11-27T12:20:42Z</time>
      </trkpt>
      <trkpt lat="42.89476" lon="0.07885">
        <ele>1500</ele>
        <time>2021-11-27T12:20:46Z</time>
      </trkpt>
      <trkpt lat="42.89474" lon="0.07882">
        <ele>1500</ele>
        <time>2021-11-27T12:23:03Z</time>
      </trkpt>
      <trkpt lat="42.89475" lon="0.0788">
        <ele>1500</ele>
        <time>2021-11-27T12:23:38Z</time>
      </trkpt>
      <trkpt lat="42.89477" lon="0.0788">
        <ele>1500</ele>
        <time>2021-11-27T12:24:50Z</time>
      </trkpt>
      <trkpt lat="42.89473" lon="0.07889">
        <ele>1500</ele>
        <time>2021-11-27T12:27:07Z</time>
      </trkpt>
      <trkpt lat="42.89471" lon="0.07891">
        <ele>1500</ele>
        <time>2021-11-27T12:27:11Z</time>
      </trkpt>
      <trkpt lat="42.8947" lon="0.07893">
        <ele>1504.6</ele>
        <time>2021-11-27T12:27:19Z</time>
      </trkpt>
      <trkpt lat="42.89473" lon="0.07888">
        <ele>1504.6</ele>
        <time>2021-11-27T12:34:20Z</time>
      </trkpt>
      <trkpt lat="42.89468" lon="0.0789">
        <ele>1504.6</ele>
        <time>2021-11-27T12:36:34Z</time>
      </trkpt>
      <trkpt lat="42.89469" lon="0.07893">
        <ele>1511.6</ele>
        <time>2021-11-27T12:36:39Z</time>
      </trkpt>
      <trkpt lat="42.8947" lon="0.07896">
        <ele>1511.6</ele>
        <time>2021-11-27T12:36:42Z</time>
      </trkpt>
      <trkpt lat="42.89473" lon="0.07891">
        <ele>1511.6</ele>
        <time>2021-11-27T12:38:51Z</time>
      </trkpt>
      <trkpt lat="42.89473" lon="0.07894">
        <ele>1512.4</ele>
        <time>2021-11-27T12:38:59Z</time>
      </trkpt>
      <trkpt lat="42.89473" lon="0.0788">
        <ele>1512.4</ele>
        <time>2021-11-27T12:41:41Z</time>
      </trkpt>
      <trkpt lat="42.89469" lon="0.07888">
        <ele>1512.4</ele>
        <time>2021-11-27T12:45:26Z</time>
      </trkpt>
      <trkpt lat="42.89471" lon="0.07886">
        <ele>1512.4</ele>
        <time>2021-11-27T12:45:32Z</time>
      </trkpt>
      <trkpt lat="42.89473" lon="0.07884">
        <ele>1512.4</ele>
        <time>2021-11-27T12:45:36Z</time>
      </trkpt>
      <trkpt lat="42.89474" lon="0.07883">
        <ele>1514</ele>
        <time>2021-11-27T12:45:39Z</time>
      </trkpt>
      <trkpt lat="42.89476" lon="0.07883">
        <ele>1514</ele>
        <time>2021-11-27T12:45:45Z</time>
      </trkpt>
      <trkpt lat="42.89474" lon="0.07882">
        <ele>1514</ele>
        <time>2021-11-27T12:46:26Z</time>
      </trkpt>
      <trkpt lat="42.89473" lon="0.0788">
        <ele>1514</ele>
        <time>2021-11-27T12:47:20Z</time>
      </trkpt>
      <trkpt lat="42.89475" lon="0.07878">
        <ele>1514</ele>
        <time>2021-11-27T12:47:23Z</time>
      </trkpt>
      <trkpt lat="42.89475" lon="0.07875">
        <ele>1514</ele>
        <time>2021-11-27T12:47:27Z</time>
      </trkpt>
      <trkpt lat="42.89475" lon="0.07873">
        <ele>1514</ele>
        <time>2021-11-27T12:47:40Z</time>
      </trkpt>
      <trkpt lat="42.89479" lon="0.07873">
        <ele>1514</ele>
        <time>2021-11-27T12:48:53Z</time>
      </trkpt>
      <trkpt lat="42.89477" lon="0.07875">
        <ele>1514</ele>
        <time>2021-11-27T12:48:55Z</time>
      </trkpt>
      <trkpt lat="42.89474" lon="0.07878">
        <ele>1514</ele>
        <time>2021-11-27T12:48:57Z</time>
      </trkpt>
      <trkpt lat="42.89473" lon="0.0788">
        <ele>1514</ele>
        <time>2021-11-27T12:48:58Z</time>
      </trkpt>
      <trkpt lat="42.89471" lon="0.07882">
        <ele>1515.6</ele>
        <time>2021-11-27T12:48:59Z</time>
      </trkpt>
      <trkpt lat="42.89469" lon="0.07883">
        <ele>1515.6</ele>
        <time>2021-11-27T12:49:00Z</time>
      </trkpt>
      <trkpt lat="42.89468" lon="0.07886">
        <ele>1515.6</ele>
        <time>2021-11-27T12:49:01Z</time>
      </trkpt>
      <trkpt lat="42.89466" lon="0.07887">
        <ele>1515.6</ele>
        <time>2021-11-27T12:49:03Z</time>
      </trkpt>
      <trkpt lat="42.89463" lon="0.07889">
        <ele>1515.6</ele>
        <time>2021-11-27T12:49:05Z</time>
      </trkpt>
      <trkpt lat="42.89461" lon="0.07892">
        <ele>1515.6</ele>
        <time>2021-11-27T12:49:07Z</time>
      </trkpt>
      <trkpt lat="42.8946" lon="0.07894">
        <ele>1516.6</ele>
        <time>2021-11-27T12:49:09Z</time>
      </trkpt>
      <trkpt lat="42.89459" lon="0.07896">
        <ele>1516.6</ele>
        <time>2021-11-27T12:49:11Z</time>
      </trkpt>
      <trkpt lat="42.89457" lon="0.07899">
        <ele>1516.6</ele>
        <time>2021-11-27T12:49:13Z</time>
      </trkpt>
      <trkpt lat="42.89456" lon="0.07902">
        <ele>1516.6</ele>
        <time>2021-11-27T12:49:15Z</time>
      </trkpt>
      <trkpt lat="42.89455" lon="0.07904">
        <ele>1516.6</ele>
        <time>2021-11-27T12:49:17Z</time>
      </trkpt>
      <trkpt lat="42.89454" lon="0.07907">
        <ele>1518.2</ele>
        <time>2021-11-27T12:49:19Z</time>
      </trkpt>
      <trkpt lat="42.89453" lon="0.07909">
        <ele>1518.2</ele>
        <time>2021-11-27T12:49:21Z</time>
      </trkpt>
      <trkpt lat="42.89453" lon="0.07912">
        <ele>1518.2</ele>
        <time>2021-11-27T12:49:23Z</time>
      </trkpt>
      <trkpt lat="42.89453" lon="0.07915">
        <ele>1518.2</ele>
        <time>2021-11-27T12:49:25Z</time>
      </trkpt>
      <trkpt lat="42.89452" lon="0.07918">
        <ele>1518.2</ele>
        <time>2021-11-27T12:49:27Z</time>
      </trkpt>
      <trkpt lat="42.89451" lon="0.07921">
        <ele>1518.2</ele>
        <time>2021-11-27T12:49:29Z</time>
      </trkpt>
      <trkpt lat="42.8945" lon="0.07923">
        <ele>1518.2</ele>
        <time>2021-11-27T12:49:32Z</time>
      </trkpt>
      <trkpt lat="42.89451" lon="0.07926">
        <ele>1518.2</ele>
        <time>2021-11-27T12:49:42Z</time>
      </trkpt>
      <trkpt lat="42.89451" lon="0.07929">
        <ele>1518.2</ele>
        <time>2021-11-27T12:49:44Z</time>
      </trkpt>
      <trkpt lat="42.8945" lon="0.07932">
        <ele>1518.2</ele>
        <time>2021-11-27T12:49:46Z</time>
      </trkpt>
      <trkpt lat="42.8945" lon="0.07936">
        <ele>1518.2</ele>
        <time>2021-11-27T12:49:48Z</time>
      </trkpt>
      <trkpt lat="42.8945" lon="0.07939">
        <ele>1518.2</ele>
        <time>2021-11-27T12:49:50Z</time>
      </trkpt>
      <trkpt lat="42.89449" lon="0.07942">
        <ele>1518.2</ele>
        <time>2021-11-27T12:49:52Z</time>
      </trkpt>
      <trkpt lat="42.89449" lon="0.07945">
        <ele>1518.2</ele>
        <time>2021-11-27T12:49:55Z</time>
      </trkpt>
      <trkpt lat="42.89449" lon="0.07947">
        <ele>1518.2</ele>
        <time>2021-11-27T12:50:06Z</time>
      </trkpt>
      <trkpt lat="42.8945" lon="0.07949">
        <ele>1518.2</ele>
        <time>2021-11-27T12:50:15Z</time>
      </trkpt>
      <trkpt lat="42.8945" lon="0.07953">
        <ele>1518.2</ele>
        <time>2021-11-27T12:50:18Z</time>
      </trkpt>
      <trkpt lat="42.8945" lon="0.07956">
        <ele>1518.2</ele>
        <time>2021-11-27T12:50:21Z</time>
      </trkpt>
      <trkpt lat="42.8945" lon="0.07959">
        <ele>1518.2</ele>
        <time>2021-11-27T12:50:24Z</time>
      </trkpt>
      <trkpt lat="42.8945" lon="0.07962">
        <ele>1518.2</ele>
        <time>2021-11-27T12:50:27Z</time>
      </trkpt>
      <trkpt lat="42.89448" lon="0.07965">
        <ele>1518.2</ele>
        <time>2021-11-27T12:50:30Z</time>
      </trkpt>
      <trkpt lat="42.89448" lon="0.07967">
        <ele>1518.2</ele>
        <time>2021-11-27T12:50:36Z</time>
      </trkpt>
      <trkpt lat="42.89447" lon="0.0797">
        <ele>1518.2</ele>
        <time>2021-11-27T12:50:40Z</time>
      </trkpt>
      <trkpt lat="42.89447" lon="0.07973">
        <ele>1518.2</ele>
        <time>2021-11-27T12:50:43Z</time>
      </trkpt>
      <trkpt lat="42.89447" lon="0.07975">
        <ele>1518.2</ele>
        <time>2021-11-27T12:50:46Z</time>
      </trkpt>
      <trkpt lat="42.89447" lon="0.07978">
        <ele>1517</ele>
        <time>2021-11-27T12:50:49Z</time>
      </trkpt>
      <trkpt lat="42.89447" lon="0.07981">
        <ele>1517</ele>
        <time>2021-11-27T12:50:52Z</time>
      </trkpt>
      <trkpt lat="42.89447" lon="0.07984">
        <ele>1517</ele>
        <time>2021-11-27T12:50:55Z</time>
      </trkpt>
      <trkpt lat="42.89447" lon="0.07986">
        <ele>1517</ele>
        <time>2021-11-27T12:50:58Z</time>
      </trkpt>
      <trkpt lat="42.89448" lon="0.07989">
        <ele>1517</ele>
        <time>2021-11-27T12:51:01Z</time>
      </trkpt>
      <trkpt lat="42.89448" lon="0.07992">
        <ele>1517</ele>
        <time>2021-11-27T12:51:05Z</time>
      </trkpt>
      <trkpt lat="42.89448" lon="0.07995">
        <ele>1517</ele>
        <time>2021-11-27T12:51:16Z</time>
      </trkpt>
      <trkpt lat="42.89448" lon="0.07998">
        <ele>1517.6</ele>
        <time>2021-11-27T12:51:19Z</time>
      </trkpt>
      <trkpt lat="42.89448" lon="0.08001">
        <ele>1517.6</ele>
        <time>2021-11-27T12:51:23Z</time>
      </trkpt>
      <trkpt lat="42.89446" lon="0.08003">
        <ele>1517.6</ele>
        <time>2021-11-27T12:51:26Z</time>
      </trkpt>
      <trkpt lat="42.89445" lon="0.08005">
        <ele>1517.6</ele>
        <time>2021-11-27T12:51:28Z</time>
      </trkpt>
      <trkpt lat="42.89445" lon="0.08007">
        <ele>1517.6</ele>
        <time>2021-11-27T12:51:31Z</time>
      </trkpt>
      <trkpt lat="42.89446" lon="0.0801">
        <ele>1517.6</ele>
        <time>2021-11-27T12:51:34Z</time>
      </trkpt>
      <trkpt lat="42.89447" lon="0.08014">
        <ele>1517.6</ele>
        <time>2021-11-27T12:51:37Z</time>
      </trkpt>
      <trkpt lat="42.89447" lon="0.08017">
        <ele>1518.2</ele>
        <time>2021-11-27T12:51:39Z</time>
      </trkpt>
      <trkpt lat="42.89448" lon="0.0802">
        <ele>1518.2</ele>
        <time>2021-11-27T12:51:41Z</time>
      </trkpt>
      <trkpt lat="42.89449" lon="0.08022">
        <ele>1518.2</ele>
        <time>2021-11-27T12:51:43Z</time>
      </trkpt>
      <trkpt lat="42.89449" lon="0.08025">
        <ele>1518.2</ele>
        <time>2021-11-27T12:51:46Z</time>
      </trkpt>
      <trkpt lat="42.89449" lon="0.08029">
        <ele>1518.2</ele>
        <time>2021-11-27T12:51:49Z</time>
      </trkpt>
      <trkpt lat="42.8945" lon="0.08032">
        <ele>1518.2</ele>
        <time>2021-11-27T12:51:52Z</time>
      </trkpt>
      <trkpt lat="42.89451" lon="0.08035">
        <ele>1518.2</ele>
        <time>2021-11-27T12:51:54Z</time>
      </trkpt>
      <trkpt lat="42.89451" lon="0.08038">
        <ele>1518.2</ele>
        <time>2021-11-27T12:51:57Z</time>
      </trkpt>
      <trkpt lat="42.89451" lon="0.08042">
        <ele>1518.2</ele>
        <time>2021-11-27T12:52:00Z</time>
      </trkpt>
      <trkpt lat="42.89451" lon="0.08044">
        <ele>1518.2</ele>
        <time>2021-11-27T12:52:02Z</time>
      </trkpt>
      <trkpt lat="42.8945" lon="0.08048">
        <ele>1518.2</ele>
        <time>2021-11-27T12:52:05Z</time>
      </trkpt>
      <trkpt lat="42.8945" lon="0.08051">
        <ele>1518.2</ele>
        <time>2021-11-27T12:52:08Z</time>
      </trkpt>
      <trkpt lat="42.89449" lon="0.08054">
        <ele>1518.2</ele>
        <time>2021-11-27T12:52:11Z</time>
      </trkpt>
      <trkpt lat="42.89449" lon="0.08057">
        <ele>1518.2</ele>
        <time>2021-11-27T12:52:13Z</time>
      </trkpt>
      <trkpt lat="42.89449" lon="0.0806">
        <ele>1518.2</ele>
        <time>2021-11-27T12:52:15Z</time>
      </trkpt>
      <trkpt lat="42.89448" lon="0.08063">
        <ele>1518.2</ele>
        <time>2021-11-27T12:52:17Z</time>
      </trkpt>
      <trkpt lat="42.89448" lon="0.08067">
        <ele>1518.2</ele>
        <time>2021-11-27T12:52:20Z</time>
      </trkpt>
      <trkpt lat="42.89448" lon="0.0807">
        <ele>1518.2</ele>
        <time>2021-11-27T12:52:22Z</time>
      </trkpt>
      <trkpt lat="42.89447" lon="0.08072">
        <ele>1518.2</ele>
        <time>2021-11-27T12:52:24Z</time>
      </trkpt>
      <trkpt lat="42.89447" lon="0.08075">
        <ele>1518.2</ele>
        <time>2021-11-27T12:52:26Z</time>
      </trkpt>
      <trkpt lat="42.89447" lon="0.08077">
        <ele>1518.2</ele>
        <time>2021-11-27T12:52:28Z</time>
      </trkpt>
      <trkpt lat="42.89446" lon="0.08081">
        <ele>1518.2</ele>
        <time>2021-11-27T12:52:31Z</time>
      </trkpt>
      <trkpt lat="42.89447" lon="0.08083">
        <ele>1518.2</ele>
        <time>2021-11-27T12:52:33Z</time>
      </trkpt>
      <trkpt lat="42.89446" lon="0.08086">
        <ele>1518.2</ele>
        <time>2021-11-27T12:52:35Z</time>
      </trkpt>
      <trkpt lat="42.89445" lon="0.08089">
        <ele>1518.2</ele>
        <time>2021-11-27T12:52:38Z</time>
      </trkpt>
      <trkpt lat="42.89445" lon="0.08092">
        <ele>1518.2</ele>
        <time>2021-11-27T12:52:40Z</time>
      </trkpt>
      <trkpt lat="42.89444" lon="0.08096">
        <ele>1518.2</ele>
        <time>2021-11-27T12:52:43Z</time>
      </trkpt>
      <trkpt lat="42.89444" lon="0.08098">
        <ele>1518.2</ele>
        <time>2021-11-27T12:52:45Z</time>
      </trkpt>
      <trkpt lat="42.89444" lon="0.08102">
        <ele>1518.2</ele>
        <time>2021-11-27T12:52:48Z</time>
      </trkpt>
      <trkpt lat="42.89443" lon="0.08105">
        <ele>1518.2</ele>
        <time>2021-11-27T12:52:51Z</time>
      </trkpt>
      <trkpt lat="42.89443" lon="0.08107">
        <ele>1518.2</ele>
        <time>2021-11-27T12:52:53Z</time>
      </trkpt>
      <trkpt lat="42.89441" lon="0.0811">
        <ele>1518.2</ele>
        <time>2021-11-27T12:52:56Z</time>
      </trkpt>
      <trkpt lat="42.89441" lon="0.08114">
        <ele>1519.6</ele>
        <time>2021-11-27T12:52:59Z</time>
      </trkpt>
      <trkpt lat="42.8944" lon="0.08117">
        <ele>1519.6</ele>
        <time>2021-11-27T12:53:02Z</time>
      </trkpt>
      <trkpt lat="42.89439" lon="0.0812">
        <ele>1519.6</ele>
        <time>2021-11-27T12:53:05Z</time>
      </trkpt>
      <trkpt lat="42.89439" lon="0.08123">
        <ele>1519.6</ele>
        <time>2021-11-27T12:53:08Z</time>
      </trkpt>
      <trkpt lat="42.89438" lon="0.08126">
        <ele>1519.6</ele>
        <time>2021-11-27T12:53:10Z</time>
      </trkpt>
      <trkpt lat="42.89437" lon="0.08129">
        <ele>1519.6</ele>
        <time>2021-11-27T12:53:13Z</time>
      </trkpt>
      <trkpt lat="42.89437" lon="0.08132">
        <ele>1519.6</ele>
        <time>2021-11-27T12:53:16Z</time>
      </trkpt>
      <trkpt lat="42.89436" lon="0.08136">
        <ele>1520.4</ele>
        <time>2021-11-27T12:53:19Z</time>
      </trkpt>
      <trkpt lat="42.89435" lon="0.08138">
        <ele>1520.4</ele>
        <time>2021-11-27T12:53:21Z</time>
      </trkpt>
      <trkpt lat="42.89435" lon="0.08142">
        <ele>1520.4</ele>
        <time>2021-11-27T12:53:24Z</time>
      </trkpt>
      <trkpt lat="42.89434" lon="0.08145">
        <ele>1520.4</ele>
        <time>2021-11-27T12:53:27Z</time>
      </trkpt>
      <trkpt lat="42.89434" lon="0.08148">
        <ele>1520.6</ele>
        <time>2021-11-27T12:53:29Z</time>
      </trkpt>
      <trkpt lat="42.89433" lon="0.08151">
        <ele>1520.6</ele>
        <time>2021-11-27T12:53:32Z</time>
      </trkpt>
      <trkpt lat="42.89431" lon="0.08153">
        <ele>1520.6</ele>
        <time>2021-11-27T12:53:35Z</time>
      </trkpt>
      <trkpt lat="42.8943" lon="0.08155">
        <ele>1520.6</ele>
        <time>2021-11-27T12:53:37Z</time>
      </trkpt>
      <trkpt lat="42.89429" lon="0.08158">
        <ele>1520.6</ele>
        <time>2021-11-27T12:53:40Z</time>
      </trkpt>
      <trkpt lat="42.89428" lon="0.08161">
        <ele>1520.6</ele>
        <time>2021-11-27T12:53:43Z</time>
      </trkpt>
      <trkpt lat="42.89427" lon="0.08164">
        <ele>1520.6</ele>
        <time>2021-11-27T12:53:46Z</time>
      </trkpt>
      <trkpt lat="42.89426" lon="0.08166">
        <ele>1521.4</ele>
        <time>2021-11-27T12:53:49Z</time>
      </trkpt>
      <trkpt lat="42.89425" lon="0.08169">
        <ele>1521.4</ele>
        <time>2021-11-27T12:53:52Z</time>
      </trkpt>
      <trkpt lat="42.89423" lon="0.08172">
        <ele>1521.4</ele>
        <time>2021-11-27T12:53:55Z</time>
      </trkpt>
      <trkpt lat="42.89422" lon="0.08175">
        <ele>1521.4</ele>
        <time>2021-11-27T12:53:58Z</time>
      </trkpt>
      <trkpt lat="42.89421" lon="0.08177">
        <ele>1521.4</ele>
        <time>2021-11-27T12:54:01Z</time>
      </trkpt>
      <trkpt lat="42.8942" lon="0.0818">
        <ele>1521.4</ele>
        <time>2021-11-27T12:54:04Z</time>
      </trkpt>
      <trkpt lat="42.89419" lon="0.08183">
        <ele>1521.4</ele>
        <time>2021-11-27T12:54:07Z</time>
      </trkpt>
      <trkpt lat="42.89417" lon="0.08185">
        <ele>1521.6</ele>
        <time>2021-11-27T12:54:09Z</time>
      </trkpt>
      <trkpt lat="42.89416" lon="0.08189">
        <ele>1521.6</ele>
        <time>2021-11-27T12:54:12Z</time>
      </trkpt>
      <trkpt lat="42.89415" lon="0.08192">
        <ele>1521.6</ele>
        <time>2021-11-27T12:54:15Z</time>
      </trkpt>
      <trkpt lat="42.89414" lon="0.08195">
        <ele>1521.6</ele>
        <time>2021-11-27T12:54:18Z</time>
      </trkpt>
      <trkpt lat="42.89413" lon="0.08198">
        <ele>1521.6</ele>
        <time>2021-11-27T12:54:21Z</time>
      </trkpt>
      <trkpt lat="42.89412" lon="0.082">
        <ele>1521.6</ele>
        <time>2021-11-27T12:54:23Z</time>
      </trkpt>
      <trkpt lat="42.89411" lon="0.08202">
        <ele>1521.6</ele>
        <time>2021-11-27T12:54:25Z</time>
      </trkpt>
      <trkpt lat="42.89409" lon="0.08205">
        <ele>1521.6</ele>
        <time>2021-11-27T12:54:27Z</time>
      </trkpt>
      <trkpt lat="42.89408" lon="0.08208">
        <ele>1521.6</ele>
        <time>2021-11-27T12:54:30Z</time>
      </trkpt>
      <trkpt lat="42.89406" lon="0.08211">
        <ele>1521.6</ele>
        <time>2021-11-27T12:54:33Z</time>
      </trkpt>
      <trkpt lat="42.89405" lon="0.08213">
        <ele>1521.6</ele>
        <time>2021-11-27T12:54:36Z</time>
      </trkpt>
      <trkpt lat="42.89404" lon="0.08215">
        <ele>1521.6</ele>
        <time>2021-11-27T12:54:38Z</time>
      </trkpt>
      <trkpt lat="42.89402" lon="0.08217">
        <ele>1521.6</ele>
        <time>2021-11-27T12:54:40Z</time>
      </trkpt>
      <trkpt lat="42.89401" lon="0.08221">
        <ele>1521.6</ele>
        <time>2021-11-27T12:54:43Z</time>
      </trkpt>
      <trkpt lat="42.89399" lon="0.08223">
        <ele>1521.6</ele>
        <time>2021-11-27T12:54:46Z</time>
      </trkpt>
      <trkpt lat="42.89398" lon="0.08226">
        <ele>1521.8</ele>
        <time>2021-11-27T12:54:49Z</time>
      </trkpt>
      <trkpt lat="42.89397" lon="0.08229">
        <ele>1521.8</ele>
        <time>2021-11-27T12:54:52Z</time>
      </trkpt>
      <trkpt lat="42.89396" lon="0.08231">
        <ele>1521.8</ele>
        <time>2021-11-27T12:54:55Z</time>
      </trkpt>
      <trkpt lat="42.89395" lon="0.08234">
        <ele>1521.8</ele>
        <time>2021-11-27T12:54:57Z</time>
      </trkpt>
      <trkpt lat="42.89394" lon="0.08236">
        <ele>1521.6</ele>
        <time>2021-11-27T12:54:59Z</time>
      </trkpt>
      <trkpt lat="42.89394" lon="0.0824">
        <ele>1521.6</ele>
        <time>2021-11-27T12:55:02Z</time>
      </trkpt>
      <trkpt lat="42.89393" lon="0.08243">
        <ele>1521.6</ele>
        <time>2021-11-27T12:55:05Z</time>
      </trkpt>
      <trkpt lat="42.89393" lon="0.08246">
        <ele>1521.6</ele>
        <time>2021-11-27T12:55:08Z</time>
      </trkpt>
      <trkpt lat="42.89393" lon="0.08249">
        <ele>1521.6</ele>
        <time>2021-11-27T12:55:11Z</time>
      </trkpt>
      <trkpt lat="42.89394" lon="0.08251">
        <ele>1521.6</ele>
        <time>2021-11-27T12:55:14Z</time>
      </trkpt>
      <trkpt lat="42.89395" lon="0.08253">
        <ele>1521.6</ele>
        <time>2021-11-27T12:55:16Z</time>
      </trkpt>
      <trkpt lat="42.89396" lon="0.08256">
        <ele>1522.6</ele>
        <time>2021-11-27T12:55:19Z</time>
      </trkpt>
      <trkpt lat="42.89397" lon="0.08258">
        <ele>1522.6</ele>
        <time>2021-11-27T12:55:21Z</time>
      </trkpt>
      <trkpt lat="42.89398" lon="0.0826">
        <ele>1522.6</ele>
        <time>2021-11-27T12:55:24Z</time>
      </trkpt>
      <trkpt lat="42.89399" lon="0.08263">
        <ele>1522.6</ele>
        <time>2021-11-27T12:55:28Z</time>
      </trkpt>
      <trkpt lat="42.89401" lon="0.08265">
        <ele>1522.6</ele>
        <time>2021-11-27T12:55:31Z</time>
      </trkpt>
      <trkpt lat="42.89403" lon="0.08265">
        <ele>1522.6</ele>
        <time>2021-11-27T12:55:33Z</time>
      </trkpt>
      <trkpt lat="42.89405" lon="0.08266">
        <ele>1522.6</ele>
        <time>2021-11-27T12:55:36Z</time>
      </trkpt>
      <trkpt lat="42.89407" lon="0.08268">
        <ele>1524</ele>
        <time>2021-11-27T12:55:39Z</time>
      </trkpt>
      <trkpt lat="42.89409" lon="0.08268">
        <ele>1524</ele>
        <time>2021-11-27T12:55:42Z</time>
      </trkpt>
      <trkpt lat="42.89411" lon="0.08269">
        <ele>1524</ele>
        <time>2021-11-27T12:55:45Z</time>
      </trkpt>
      <trkpt lat="42.89413" lon="0.08269">
        <ele>1524</ele>
        <time>2021-11-27T12:55:48Z</time>
      </trkpt>
      <trkpt lat="42.89415" lon="0.08269">
        <ele>1524</ele>
        <time>2021-11-27T12:55:50Z</time>
      </trkpt>
      <trkpt lat="42.89417" lon="0.08269">
        <ele>1524</ele>
        <time>2021-11-27T12:55:52Z</time>
      </trkpt>
      <trkpt lat="42.89419" lon="0.0827">
        <ele>1524</ele>
        <time>2021-11-27T12:55:55Z</time>
      </trkpt>
      <trkpt lat="42.89421" lon="0.08269">
        <ele>1526</ele>
        <time>2021-11-27T12:55:59Z</time>
      </trkpt>
      <trkpt lat="42.89424" lon="0.08269">
        <ele>1526</ele>
        <time>2021-11-27T12:56:02Z</time>
      </trkpt>
      <trkpt lat="42.89426" lon="0.08268">
        <ele>1526</ele>
        <time>2021-11-27T12:56:05Z</time>
      </trkpt>
      <trkpt lat="42.89428" lon="0.08269">
        <ele>1526</ele>
        <time>2021-11-27T12:56:08Z</time>
      </trkpt>
      <trkpt lat="42.8943" lon="0.0827">
        <ele>1526</ele>
        <time>2021-11-27T12:56:11Z</time>
      </trkpt>
      <trkpt lat="42.89432" lon="0.0827">
        <ele>1526</ele>
        <time>2021-11-27T12:56:13Z</time>
      </trkpt>
      <trkpt lat="42.89434" lon="0.0827">
        <ele>1526</ele>
        <time>2021-11-27T12:56:16Z</time>
      </trkpt>
      <trkpt lat="42.89436" lon="0.08271">
        <ele>1528</ele>
        <time>2021-11-27T12:56:19Z</time>
      </trkpt>
      <trkpt lat="42.89439" lon="0.08271">
        <ele>1528</ele>
        <time>2021-11-27T12:56:23Z</time>
      </trkpt>
      <trkpt lat="42.89441" lon="0.08272">
        <ele>1528</ele>
        <time>2021-11-27T12:56:26Z</time>
      </trkpt>
      <trkpt lat="42.89443" lon="0.08274">
        <ele>1528.8</ele>
        <time>2021-11-27T12:56:29Z</time>
      </trkpt>
      <trkpt lat="42.89444" lon="0.08274">
        <ele>1528.8</ele>
        <time>2021-11-27T12:56:32Z</time>
      </trkpt>
      <trkpt lat="42.89447" lon="0.08275">
        <ele>1528.8</ele>
        <time>2021-11-27T12:56:35Z</time>
      </trkpt>
      <trkpt lat="42.89448" lon="0.08277">
        <ele>1528.8</ele>
        <time>2021-11-27T12:56:38Z</time>
      </trkpt>
      <trkpt lat="42.89451" lon="0.08278">
        <ele>1528.8</ele>
        <time>2021-11-27T12:56:42Z</time>
      </trkpt>
      <trkpt lat="42.89452" lon="0.0828">
        <ele>1528.8</ele>
        <time>2021-11-27T12:56:45Z</time>
      </trkpt>
      <trkpt lat="42.89455" lon="0.08281">
        <ele>1528.8</ele>
        <time>2021-11-27T12:56:48Z</time>
      </trkpt>
      <trkpt lat="42.89456" lon="0.08283">
        <ele>1528.8</ele>
        <time>2021-11-27T12:56:50Z</time>
      </trkpt>
      <trkpt lat="42.89458" lon="0.08284">
        <ele>1528.8</ele>
        <time>2021-11-27T12:56:52Z</time>
      </trkpt>
      <trkpt lat="42.8946" lon="0.08286">
        <ele>1528.8</ele>
        <time>2021-11-27T12:56:55Z</time>
      </trkpt>
      <trkpt lat="42.89462" lon="0.08288">
        <ele>1528.8</ele>
        <time>2021-11-27T12:56:57Z</time>
      </trkpt>
      <trkpt lat="42.89464" lon="0.0829">
        <ele>1528.8</ele>
        <time>2021-11-27T12:57:00Z</time>
      </trkpt>
      <trkpt lat="42.89467" lon="0.08294">
        <ele>1528.8</ele>
        <time>2021-11-27T12:57:03Z</time>
      </trkpt>
      <trkpt lat="42.89468" lon="0.08296">
        <ele>1528.8</ele>
        <time>2021-11-27T12:57:05Z</time>
      </trkpt>
      <trkpt lat="42.8947" lon="0.08298">
        <ele>1528.8</ele>
        <time>2021-11-27T12:57:07Z</time>
      </trkpt>
      <trkpt lat="42.89471" lon="0.083">
        <ele>1531.6</ele>
        <time>2021-11-27T12:57:09Z</time>
      </trkpt>
      <trkpt lat="42.89472" lon="0.08304">
        <ele>1531.6</ele>
        <time>2021-11-27T12:57:12Z</time>
      </trkpt>
      <trkpt lat="42.89473" lon="0.08307">
        <ele>1531.6</ele>
        <time>2021-11-27T12:57:14Z</time>
      </trkpt>
      <trkpt lat="42.89474" lon="0.08309">
        <ele>1531.6</ele>
        <time>2021-11-27T12:57:16Z</time>
      </trkpt>
      <trkpt lat="42.89475" lon="0.08312">
        <ele>1532.6</ele>
        <time>2021-11-27T12:57:19Z</time>
      </trkpt>
      <trkpt lat="42.89476" lon="0.08314">
        <ele>1532.6</ele>
        <time>2021-11-27T12:57:21Z</time>
      </trkpt>
      <trkpt lat="42.89478" lon="0.08316">
        <ele>1532.6</ele>
        <time>2021-11-27T12:57:23Z</time>
      </trkpt>
      <trkpt lat="42.89479" lon="0.08319">
        <ele>1532.6</ele>
        <time>2021-11-27T12:57:26Z</time>
      </trkpt>
      <trkpt lat="42.8948" lon="0.08322">
        <ele>1532.6</ele>
        <time>2021-11-27T12:57:28Z</time>
      </trkpt>
      <trkpt lat="42.8948" lon="0.08325">
        <ele>1532.6</ele>
        <time>2021-11-27T12:57:30Z</time>
      </trkpt>
      <trkpt lat="42.89481" lon="0.08327">
        <ele>1532.6</ele>
        <time>2021-11-27T12:57:32Z</time>
      </trkpt>
      <trkpt lat="42.89483" lon="0.08329">
        <ele>1532.6</ele>
        <time>2021-11-27T12:57:34Z</time>
      </trkpt>
      <trkpt lat="42.89484" lon="0.08331">
        <ele>1532.6</ele>
        <time>2021-11-27T12:57:37Z</time>
      </trkpt>
      <trkpt lat="42.89486" lon="0.08331">
        <ele>1532.6</ele>
        <time>2021-11-27T12:57:40Z</time>
      </trkpt>
      <trkpt lat="42.89489" lon="0.08331">
        <ele>1532.6</ele>
        <time>2021-11-27T12:57:42Z</time>
      </trkpt>
      <trkpt lat="42.8949" lon="0.08329">
        <ele>1532.6</ele>
        <time>2021-11-27T12:57:45Z</time>
      </trkpt>
      <trkpt lat="42.89492" lon="0.08328">
        <ele>1532.6</ele>
        <time>2021-11-27T12:57:47Z</time>
      </trkpt>
      <trkpt lat="42.89494" lon="0.08326">
        <ele>1532.6</ele>
        <time>2021-11-27T12:57:50Z</time>
      </trkpt>
      <trkpt lat="42.89496" lon="0.08326">
        <ele>1532.6</ele>
        <time>2021-11-27T12:57:52Z</time>
      </trkpt>
      <trkpt lat="42.89498" lon="0.08324">
        <ele>1532.6</ele>
        <time>2021-11-27T12:57:54Z</time>
      </trkpt>
      <trkpt lat="42.895" lon="0.08322">
        <ele>1532.6</ele>
        <time>2021-11-27T12:57:57Z</time>
      </trkpt>
      <trkpt lat="42.89503" lon="0.0832">
        <ele>1532.6</ele>
        <time>2021-11-27T12:58:00Z</time>
      </trkpt>
      <trkpt lat="42.89505" lon="0.0832">
        <ele>1532.6</ele>
        <time>2021-11-27T12:58:02Z</time>
      </trkpt>
      <trkpt lat="42.89507" lon="0.08319">
        <ele>1532.6</ele>
        <time>2021-11-27T12:58:04Z</time>
      </trkpt>
      <trkpt lat="42.89509" lon="0.08317">
        <ele>1532.6</ele>
        <time>2021-11-27T12:58:06Z</time>
      </trkpt>
      <trkpt lat="42.89511" lon="0.08316">
        <ele>1532.6</ele>
        <time>2021-11-27T12:58:08Z</time>
      </trkpt>
      <trkpt lat="42.89514" lon="0.08315">
        <ele>1532.6</ele>
        <time>2021-11-27T12:58:10Z</time>
      </trkpt>
      <trkpt lat="42.89515" lon="0.08311">
        <ele>1532.6</ele>
        <time>2021-11-27T12:58:13Z</time>
      </trkpt>
      <trkpt lat="42.89517" lon="0.0831">
        <ele>1532.6</ele>
        <time>2021-11-27T12:58:15Z</time>
      </trkpt>
      <trkpt lat="42.89519" lon="0.08308">
        <ele>1532.6</ele>
        <time>2021-11-27T12:58:17Z</time>
      </trkpt>
      <trkpt lat="42.89521" lon="0.08307">
        <ele>1534</ele>
        <time>2021-11-27T12:58:19Z</time>
      </trkpt>
      <trkpt lat="42.89524" lon="0.08305">
        <ele>1534</ele>
        <time>2021-11-27T12:58:21Z</time>
      </trkpt>
      <trkpt lat="42.89526" lon="0.08304">
        <ele>1534</ele>
        <time>2021-11-27T12:58:23Z</time>
      </trkpt>
      <trkpt lat="42.89528" lon="0.08304">
        <ele>1534</ele>
        <time>2021-11-27T12:58:25Z</time>
      </trkpt>
      <trkpt lat="42.8953" lon="0.08302">
        <ele>1534</ele>
        <time>2021-11-27T12:58:27Z</time>
      </trkpt>
      <trkpt lat="42.89531" lon="0.083">
        <ele>1534</ele>
        <time>2021-11-27T12:58:30Z</time>
      </trkpt>
      <trkpt lat="42.89533" lon="0.08298">
        <ele>1534</ele>
        <time>2021-11-27T12:58:32Z</time>
      </trkpt>
      <trkpt lat="42.89535" lon="0.08297">
        <ele>1534</ele>
        <time>2021-11-27T12:58:34Z</time>
      </trkpt>
      <trkpt lat="42.89537" lon="0.08294">
        <ele>1534</ele>
        <time>2021-11-27T12:58:37Z</time>
      </trkpt>
      <trkpt lat="42.89539" lon="0.08293">
        <ele>1534.2</ele>
        <time>2021-11-27T12:58:39Z</time>
      </trkpt>
      <trkpt lat="42.89541" lon="0.08292">
        <ele>1534.2</ele>
        <time>2021-11-27T12:58:41Z</time>
      </trkpt>
      <trkpt lat="42.89543" lon="0.0829">
        <ele>1534.2</ele>
        <time>2021-11-27T12:58:43Z</time>
      </trkpt>
      <trkpt lat="42.89545" lon="0.08289">
        <ele>1534.2</ele>
        <time>2021-11-27T12:58:45Z</time>
      </trkpt>
      <trkpt lat="42.89547" lon="0.08287">
        <ele>1534.2</ele>
        <time>2021-11-27T12:58:47Z</time>
      </trkpt>
      <trkpt lat="42.89548" lon="0.08286">
        <ele>1534.4</ele>
        <time>2021-11-27T12:58:49Z</time>
      </trkpt>
      <trkpt lat="42.8955" lon="0.08284">
        <ele>1534.4</ele>
        <time>2021-11-27T12:58:52Z</time>
      </trkpt>
      <trkpt lat="42.89552" lon="0.08282">
        <ele>1534.4</ele>
        <time>2021-11-27T12:58:54Z</time>
      </trkpt>
      <trkpt lat="42.89554" lon="0.0828">
        <ele>1534.4</ele>
        <time>2021-11-27T12:58:57Z</time>
      </trkpt>
      <trkpt lat="42.89555" lon="0.08278">
        <ele>1534.4</ele>
        <time>2021-11-27T12:59:00Z</time>
      </trkpt>
      <trkpt lat="42.89556" lon="0.08277">
        <ele>1534.4</ele>
        <time>2021-11-27T12:59:02Z</time>
      </trkpt>
      <trkpt lat="42.89558" lon="0.08274">
        <ele>1534.4</ele>
        <time>2021-11-27T12:59:04Z</time>
      </trkpt>
      <trkpt lat="42.89559" lon="0.08272">
        <ele>1534.4</ele>
        <time>2021-11-27T12:59:06Z</time>
      </trkpt>
      <trkpt lat="42.89561" lon="0.0827">
        <ele>1534.4</ele>
        <time>2021-11-27T12:59:08Z</time>
      </trkpt>
      <trkpt lat="42.89563" lon="0.08269">
        <ele>1534.4</ele>
        <time>2021-11-27T12:59:11Z</time>
      </trkpt>
      <trkpt lat="42.89565" lon="0.08266">
        <ele>1534.4</ele>
        <time>2021-11-27T12:59:14Z</time>
      </trkpt>
      <trkpt lat="42.89567" lon="0.08264">
        <ele>1534.4</ele>
        <time>2021-11-27T12:59:16Z</time>
      </trkpt>
      <trkpt lat="42.89569" lon="0.08261">
        <ele>1534.4</ele>
        <time>2021-11-27T12:59:18Z</time>
      </trkpt>
      <trkpt lat="42.8957" lon="0.08259">
        <ele>1534.4</ele>
        <time>2021-11-27T12:59:20Z</time>
      </trkpt>
      <trkpt lat="42.89572" lon="0.08257">
        <ele>1534.4</ele>
        <time>2021-11-27T12:59:23Z</time>
      </trkpt>
      <trkpt lat="42.89574" lon="0.08255">
        <ele>1534.4</ele>
        <time>2021-11-27T12:59:25Z</time>
      </trkpt>
      <trkpt lat="42.89575" lon="0.08253">
        <ele>1534.4</ele>
        <time>2021-11-27T12:59:27Z</time>
      </trkpt>
      <trkpt lat="42.89578" lon="0.08252">
        <ele>1535.6</ele>
        <time>2021-11-27T12:59:29Z</time>
      </trkpt>
      <trkpt lat="42.8958" lon="0.08251">
        <ele>1535.6</ele>
        <time>2021-11-27T12:59:31Z</time>
      </trkpt>
      <trkpt lat="42.89582" lon="0.08249">
        <ele>1535.6</ele>
        <time>2021-11-27T12:59:34Z</time>
      </trkpt>
      <trkpt lat="42.89584" lon="0.08249">
        <ele>1535.6</ele>
        <time>2021-11-27T12:59:36Z</time>
      </trkpt>
      <trkpt lat="42.89586" lon="0.08248">
        <ele>1535.6</ele>
        <time>2021-11-27T12:59:38Z</time>
      </trkpt>
      <trkpt lat="42.89588" lon="0.08247">
        <ele>1535.6</ele>
        <time>2021-11-27T12:59:40Z</time>
      </trkpt>
      <trkpt lat="42.8959" lon="0.08248">
        <ele>1535.6</ele>
        <time>2021-11-27T12:59:42Z</time>
      </trkpt>
      <trkpt lat="42.89592" lon="0.08247">
        <ele>1535.6</ele>
        <time>2021-11-27T12:59:44Z</time>
      </trkpt>
      <trkpt lat="42.89594" lon="0.08247">
        <ele>1535.6</ele>
        <time>2021-11-27T12:59:46Z</time>
      </trkpt>
      <trkpt lat="42.89596" lon="0.08245">
        <ele>1535.6</ele>
        <time>2021-11-27T12:59:48Z</time>
      </trkpt>
      <trkpt lat="42.89598" lon="0.08243">
        <ele>1535.6</ele>
        <time>2021-11-27T12:59:51Z</time>
      </trkpt>
      <trkpt lat="42.896" lon="0.08243">
        <ele>1535.6</ele>
        <time>2021-11-27T12:59:53Z</time>
      </trkpt>
      <trkpt lat="42.89601" lon="0.08241">
        <ele>1535.6</ele>
        <time>2021-11-27T12:59:55Z</time>
      </trkpt>
      <trkpt lat="42.89604" lon="0.08239">
        <ele>1535.6</ele>
        <time>2021-11-27T12:59:58Z</time>
      </trkpt>
      <trkpt lat="42.89606" lon="0.08238">
        <ele>1535.6</ele>
        <time>2021-11-27T13:00:00Z</time>
      </trkpt>
      <trkpt lat="42.89608" lon="0.08236">
        <ele>1535.6</ele>
        <time>2021-11-27T13:00:02Z</time>
      </trkpt>
      <trkpt lat="42.8961" lon="0.08235">
        <ele>1535.6</ele>
        <time>2021-11-27T13:00:04Z</time>
      </trkpt>
      <trkpt lat="42.89612" lon="0.08235">
        <ele>1535.6</ele>
        <time>2021-11-27T13:00:06Z</time>
      </trkpt>
      <trkpt lat="42.89614" lon="0.08235">
        <ele>1535.6</ele>
        <time>2021-11-27T13:00:08Z</time>
      </trkpt>
      <trkpt lat="42.89616" lon="0.08235">
        <ele>1535.6</ele>
        <time>2021-11-27T13:00:11Z</time>
      </trkpt>
      <trkpt lat="42.89618" lon="0.08234">
        <ele>1535.6</ele>
        <time>2021-11-27T13:00:13Z</time>
      </trkpt>
      <trkpt lat="42.8962" lon="0.08234">
        <ele>1535.6</ele>
        <time>2021-11-27T13:00:15Z</time>
      </trkpt>
      <trkpt lat="42.89622" lon="0.08233">
        <ele>1535.6</ele>
        <time>2021-11-27T13:00:17Z</time>
      </trkpt>
      <trkpt lat="42.89624" lon="0.08233">
        <ele>1536.8</ele>
        <time>2021-11-27T13:00:19Z</time>
      </trkpt>
      <trkpt lat="42.89627" lon="0.08234">
        <ele>1536.8</ele>
        <time>2021-11-27T13:00:21Z</time>
      </trkpt>
      <trkpt lat="42.89629" lon="0.08233">
        <ele>1536.8</ele>
        <time>2021-11-27T13:00:23Z</time>
      </trkpt>
      <trkpt lat="42.89632" lon="0.08231">
        <ele>1536.8</ele>
        <time>2021-11-27T13:00:26Z</time>
      </trkpt>
      <trkpt lat="42.89634" lon="0.0823">
        <ele>1536.8</ele>
        <time>2021-11-27T13:00:28Z</time>
      </trkpt>
      <trkpt lat="42.89636" lon="0.08228">
        <ele>1536.8</ele>
        <time>2021-11-27T13:00:30Z</time>
      </trkpt>
      <trkpt lat="42.89639" lon="0.08227">
        <ele>1536.8</ele>
        <time>2021-11-27T13:00:32Z</time>
      </trkpt>
      <trkpt lat="42.89641" lon="0.08226">
        <ele>1536.8</ele>
        <time>2021-11-27T13:00:33Z</time>
      </trkpt>
      <trkpt lat="42.89644" lon="0.08223">
        <ele>1536.8</ele>
        <time>2021-11-27T13:00:35Z</time>
      </trkpt>
      <trkpt lat="42.89644" lon="0.0822">
        <ele>1536.8</ele>
        <time>2021-11-27T13:00:37Z</time>
      </trkpt>
      <trkpt lat="42.89646" lon="0.08218">
        <ele>1535.8</ele>
        <time>2021-11-27T13:00:39Z</time>
      </trkpt>
      <trkpt lat="42.89648" lon="0.08216">
        <ele>1535.8</ele>
        <time>2021-11-27T13:00:41Z</time>
      </trkpt>
      <trkpt lat="42.8965" lon="0.08215">
        <ele>1535.8</ele>
        <time>2021-11-27T13:00:43Z</time>
      </trkpt>
      <trkpt lat="42.89652" lon="0.08213">
        <ele>1535.8</ele>
        <time>2021-11-27T13:00:45Z</time>
      </trkpt>
      <trkpt lat="42.89654" lon="0.08211">
        <ele>1535.8</ele>
        <time>2021-11-27T13:00:46Z</time>
      </trkpt>
      <trkpt lat="42.89656" lon="0.0821">
        <ele>1535.8</ele>
        <time>2021-11-27T13:00:47Z</time>
      </trkpt>
      <trkpt lat="42.89659" lon="0.08208">
        <ele>1534.8</ele>
        <time>2021-11-27T13:00:49Z</time>
      </trkpt>
      <trkpt lat="42.89661" lon="0.08206">
        <ele>1534.8</ele>
        <time>2021-11-27T13:00:50Z</time>
      </trkpt>
      <trkpt lat="42.89662" lon="0.08203">
        <ele>1534.8</ele>
        <time>2021-11-27T13:00:51Z</time>
      </trkpt>
      <trkpt lat="42.89664" lon="0.08201">
        <ele>1534.8</ele>
        <time>2021-11-27T13:00:52Z</time>
      </trkpt>
      <trkpt lat="42.89666" lon="0.08199">
        <ele>1534.8</ele>
        <time>2021-11-27T13:00:53Z</time>
      </trkpt>
      <trkpt lat="42.89668" lon="0.08197">
        <ele>1534.8</ele>
        <time>2021-11-27T13:00:54Z</time>
      </trkpt>
      <trkpt lat="42.8967" lon="0.08196">
        <ele>1534.8</ele>
        <time>2021-11-27T13:00:55Z</time>
      </trkpt>
      <trkpt lat="42.89672" lon="0.08195">
        <ele>1534.8</ele>
        <time>2021-11-27T13:00:56Z</time>
      </trkpt>
      <trkpt lat="42.89674" lon="0.08195">
        <ele>1534.8</ele>
        <time>2021-11-27T13:00:57Z</time>
      </trkpt>
      <trkpt lat="42.89676" lon="0.08195">
        <ele>1534.8</ele>
        <time>2021-11-27T13:00:58Z</time>
      </trkpt>
      <trkpt lat="42.89678" lon="0.08194">
        <ele>1533.2</ele>
        <time>2021-11-27T13:00:59Z</time>
      </trkpt>
      <trkpt lat="42.89681" lon="0.08194">
        <ele>1533.2</ele>
        <time>2021-11-27T13:01:00Z</time>
      </trkpt>
      <trkpt lat="42.89683" lon="0.08195">
        <ele>1533.2</ele>
        <time>2021-11-27T13:01:01Z</time>
      </trkpt>
      <trkpt lat="42.89685" lon="0.08197">
        <ele>1533.2</ele>
        <time>2021-11-27T13:01:02Z</time>
      </trkpt>
      <trkpt lat="42.89688" lon="0.08198">
        <ele>1533.2</ele>
        <time>2021-11-27T13:01:03Z</time>
      </trkpt>
      <trkpt lat="42.8969" lon="0.08198">
        <ele>1533.2</ele>
        <time>2021-11-27T13:01:04Z</time>
      </trkpt>
      <trkpt lat="42.89692" lon="0.08199">
        <ele>1533.2</ele>
        <time>2021-11-27T13:01:05Z</time>
      </trkpt>
      <trkpt lat="42.89694" lon="0.082">
        <ele>1533.2</ele>
        <time>2021-11-27T13:01:06Z</time>
      </trkpt>
      <trkpt lat="42.89696" lon="0.08201">
        <ele>1533.2</ele>
        <time>2021-11-27T13:01:07Z</time>
      </trkpt>
      <trkpt lat="42.897" lon="0.08202">
        <ele>1530.8</ele>
        <time>2021-11-27T13:01:09Z</time>
      </trkpt>
      <trkpt lat="42.89703" lon="0.08205">
        <ele>1530.8</ele>
        <time>2021-11-27T13:01:11Z</time>
      </trkpt>
      <trkpt lat="42.89705" lon="0.08205">
        <ele>1530.8</ele>
        <time>2021-11-27T13:01:12Z</time>
      </trkpt>
      <trkpt lat="42.89708" lon="0.08207">
        <ele>1530.8</ele>
        <time>2021-11-27T13:01:14Z</time>
      </trkpt>
      <trkpt lat="42.89711" lon="0.08208">
        <ele>1530.8</ele>
        <time>2021-11-27T13:01:15Z</time>
      </trkpt>
      <trkpt lat="42.89713" lon="0.0821">
        <ele>1530.8</ele>
        <time>2021-11-27T13:01:16Z</time>
      </trkpt>
      <trkpt lat="42.89715" lon="0.08211">
        <ele>1530.8</ele>
        <time>2021-11-27T13:01:17Z</time>
      </trkpt>
      <trkpt lat="42.89717" lon="0.08211">
        <ele>1530.8</ele>
        <time>2021-11-27T13:01:18Z</time>
      </trkpt>
      <trkpt lat="42.8972" lon="0.08213">
        <ele>1527.8</ele>
        <time>2021-11-27T13:01:19Z</time>
      </trkpt>
      <trkpt lat="42.89723" lon="0.08214">
        <ele>1527.8</ele>
        <time>2021-11-27T13:01:20Z</time>
      </trkpt>
      <trkpt lat="42.89727" lon="0.08215">
        <ele>1527.8</ele>
        <time>2021-11-27T13:01:21Z</time>
      </trkpt>
      <trkpt lat="42.8973" lon="0.08217">
        <ele>1527.8</ele>
        <time>2021-11-27T13:01:22Z</time>
      </trkpt>
      <trkpt lat="42.89733" lon="0.08218">
        <ele>1527.8</ele>
        <time>2021-11-27T13:01:23Z</time>
      </trkpt>
      <trkpt lat="42.89735" lon="0.08219">
        <ele>1527.8</ele>
        <time>2021-11-27T13:01:24Z</time>
      </trkpt>
      <trkpt lat="42.89739" lon="0.0822">
        <ele>1527.8</ele>
        <time>2021-11-27T13:01:25Z</time>
      </trkpt>
      <trkpt lat="42.89741" lon="0.08221">
        <ele>1527.8</ele>
        <time>2021-11-27T13:01:26Z</time>
      </trkpt>
      <trkpt lat="42.89745" lon="0.08223">
        <ele>1527.8</ele>
        <time>2021-11-27T13:01:27Z</time>
      </trkpt>
      <trkpt lat="42.89748" lon="0.08224">
        <ele>1527.8</ele>
        <time>2021-11-27T13:01:28Z</time>
      </trkpt>
      <trkpt lat="42.89751" lon="0.08225">
        <ele>1524</ele>
        <time>2021-11-27T13:01:29Z</time>
      </trkpt>
      <trkpt lat="42.89754" lon="0.08227">
        <ele>1524</ele>
        <time>2021-11-27T13:01:30Z</time>
      </trkpt>
      <trkpt lat="42.89756" lon="0.08228">
        <ele>1524</ele>
        <time>2021-11-27T13:01:31Z</time>
      </trkpt>
      <trkpt lat="42.89759" lon="0.08229">
        <ele>1524</ele>
        <time>2021-11-27T13:01:32Z</time>
      </trkpt>
      <trkpt lat="42.89761" lon="0.0823">
        <ele>1524</ele>
        <time>2021-11-27T13:01:33Z</time>
      </trkpt>
      <trkpt lat="42.89764" lon="0.08231">
        <ele>1524</ele>
        <time>2021-11-27T13:01:34Z</time>
      </trkpt>
      <trkpt lat="42.89767" lon="0.08232">
        <ele>1524</ele>
        <time>2021-11-27T13:01:35Z</time>
      </trkpt>
      <trkpt lat="42.8977" lon="0.08233">
        <ele>1524</ele>
        <time>2021-11-27T13:01:36Z</time>
      </trkpt>
      <trkpt lat="42.89773" lon="0.08234">
        <ele>1524</ele>
        <time>2021-11-27T13:01:37Z</time>
      </trkpt>
      <trkpt lat="42.89776" lon="0.08236">
        <ele>1524</ele>
        <time>2021-11-27T13:01:38Z</time>
      </trkpt>
      <trkpt lat="42.8978" lon="0.08237">
        <ele>1520.6</ele>
        <time>2021-11-27T13:01:39Z</time>
      </trkpt>
      <trkpt lat="42.89783" lon="0.08238">
        <ele>1520.6</ele>
        <time>2021-11-27T13:01:40Z</time>
      </trkpt>
      <trkpt lat="42.89786" lon="0.08239">
        <ele>1520.6</ele>
        <time>2021-11-27T13:01:41Z</time>
      </trkpt>
      <trkpt lat="42.89789" lon="0.0824">
        <ele>1520.6</ele>
        <time>2021-11-27T13:01:42Z</time>
      </trkpt>
      <trkpt lat="42.89792" lon="0.08241">
        <ele>1520.6</ele>
        <time>2021-11-27T13:01:43Z</time>
      </trkpt>
      <trkpt lat="42.89795" lon="0.08241">
        <ele>1520.6</ele>
        <time>2021-11-27T13:01:44Z</time>
      </trkpt>
      <trkpt lat="42.89797" lon="0.08242">
        <ele>1520.6</ele>
        <time>2021-11-27T13:01:45Z</time>
      </trkpt>
      <trkpt lat="42.898" lon="0.08242">
        <ele>1520.6</ele>
        <time>2021-11-27T13:01:46Z</time>
      </trkpt>
      <trkpt lat="42.89803" lon="0.08243">
        <ele>1520.6</ele>
        <time>2021-11-27T13:01:47Z</time>
      </trkpt>
      <trkpt lat="42.89806" lon="0.08244">
        <ele>1520.6</ele>
        <time>2021-11-27T13:01:48Z</time>
      </trkpt>
      <trkpt lat="42.89809" lon="0.08245">
        <ele>1517.2</ele>
        <time>2021-11-27T13:01:49Z</time>
      </trkpt>
      <trkpt lat="42.89812" lon="0.08246">
        <ele>1517.2</ele>
        <time>2021-11-27T13:01:50Z</time>
      </trkpt>
      <trkpt lat="42.89815" lon="0.08247">
        <ele>1517.2</ele>
        <time>2021-11-27T13:01:51Z</time>
      </trkpt>
      <trkpt lat="42.89817" lon="0.08247">
        <ele>1517.2</ele>
        <time>2021-11-27T13:01:52Z</time>
      </trkpt>
      <trkpt lat="42.8982" lon="0.08247">
        <ele>1517.2</ele>
        <time>2021-11-27T13:01:53Z</time>
      </trkpt>
      <trkpt lat="42.89824" lon="0.08248">
        <ele>1517.2</ele>
        <time>2021-11-27T13:01:54Z</time>
      </trkpt>
      <trkpt lat="42.89827" lon="0.08249">
        <ele>1517.2</ele>
        <time>2021-11-27T13:01:55Z</time>
      </trkpt>
      <trkpt lat="42.89831" lon="0.08249">
        <ele>1517.2</ele>
        <time>2021-11-27T13:01:56Z</time>
      </trkpt>
      <trkpt lat="42.89834" lon="0.0825">
        <ele>1517.2</ele>
        <time>2021-11-27T13:01:57Z</time>
      </trkpt>
      <trkpt lat="42.89838" lon="0.08251">
        <ele>1517.2</ele>
        <time>2021-11-27T13:01:58Z</time>
      </trkpt>
      <trkpt lat="42.89841" lon="0.08252">
        <ele>1514</ele>
        <time>2021-11-27T13:01:59Z</time>
      </trkpt>
      <trkpt lat="42.89844" lon="0.08253">
        <ele>1514</ele>
        <time>2021-11-27T13:02:00Z</time>
      </trkpt>
      <trkpt lat="42.89848" lon="0.08254">
        <ele>1514</ele>
        <time>2021-11-27T13:02:01Z</time>
      </trkpt>
      <trkpt lat="42.89852" lon="0.08256">
        <ele>1514</ele>
        <time>2021-11-27T13:02:02Z</time>
      </trkpt>
      <trkpt lat="42.89856" lon="0.08257">
        <ele>1514</ele>
        <time>2021-11-27T13:02:03Z</time>
      </trkpt>
      <trkpt lat="42.89858" lon="0.08259">
        <ele>1514</ele>
        <time>2021-11-27T13:02:04Z</time>
      </trkpt>
      <trkpt lat="42.89861" lon="0.0826">
        <ele>1514</ele>
        <time>2021-11-27T13:02:05Z</time>
      </trkpt>
      <trkpt lat="42.89864" lon="0.08261">
        <ele>1514</ele>
        <time>2021-11-27T13:02:06Z</time>
      </trkpt>
      <trkpt lat="42.89867" lon="0.08262">
        <ele>1514</ele>
        <time>2021-11-27T13:02:07Z</time>
      </trkpt>
      <trkpt lat="42.8987" lon="0.08264">
        <ele>1514</ele>
        <time>2021-11-27T13:02:08Z</time>
      </trkpt>
      <trkpt lat="42.89872" lon="0.08265">
        <ele>1510</ele>
        <time>2021-11-27T13:02:09Z</time>
      </trkpt>
      <trkpt lat="42.89875" lon="0.08266">
        <ele>1510</ele>
        <time>2021-11-27T13:02:10Z</time>
      </trkpt>
      <trkpt lat="42.89878" lon="0.08268">
        <ele>1510</ele>
        <time>2021-11-27T13:02:11Z</time>
      </trkpt>
      <trkpt lat="42.89881" lon="0.08269">
        <ele>1510</ele>
        <time>2021-11-27T13:02:12Z</time>
      </trkpt>
      <trkpt lat="42.89884" lon="0.0827">
        <ele>1510</ele>
        <time>2021-11-27T13:02:13Z</time>
      </trkpt>
      <trkpt lat="42.89886" lon="0.0827">
        <ele>1510</ele>
        <time>2021-11-27T13:02:14Z</time>
      </trkpt>
      <trkpt lat="42.89888" lon="0.08272">
        <ele>1510</ele>
        <time>2021-11-27T13:02:15Z</time>
      </trkpt>
      <trkpt lat="42.8989" lon="0.08273">
        <ele>1510</ele>
        <time>2021-11-27T13:02:16Z</time>
      </trkpt>
      <trkpt lat="42.89892" lon="0.08274">
        <ele>1510</ele>
        <time>2021-11-27T13:02:17Z</time>
      </trkpt>
      <trkpt lat="42.89894" lon="0.08276">
        <ele>1510</ele>
        <time>2021-11-27T13:02:18Z</time>
      </trkpt>
      <trkpt lat="42.89897" lon="0.08278">
        <ele>1506.4</ele>
        <time>2021-11-27T13:02:19Z</time>
      </trkpt>
      <trkpt lat="42.89899" lon="0.0828">
        <ele>1506.4</ele>
        <time>2021-11-27T13:02:20Z</time>
      </trkpt>
      <trkpt lat="42.89901" lon="0.08281">
        <ele>1506.4</ele>
        <time>2021-11-27T13:02:21Z</time>
      </trkpt>
      <trkpt lat="42.89904" lon="0.08283">
        <ele>1506.4</ele>
        <time>2021-11-27T13:02:22Z</time>
      </trkpt>
      <trkpt lat="42.89906" lon="0.08286">
        <ele>1506.4</ele>
        <time>2021-11-27T13:02:23Z</time>
      </trkpt>
      <trkpt lat="42.89908" lon="0.08289">
        <ele>1506.4</ele>
        <time>2021-11-27T13:02:24Z</time>
      </trkpt>
      <trkpt lat="42.8991" lon="0.08291">
        <ele>1506.4</ele>
        <time>2021-11-27T13:02:25Z</time>
      </trkpt>
      <trkpt lat="42.89912" lon="0.08293">
        <ele>1506.4</ele>
        <time>2021-11-27T13:02:26Z</time>
      </trkpt>
      <trkpt lat="42.89914" lon="0.08295">
        <ele>1506.4</ele>
        <time>2021-11-27T13:02:27Z</time>
      </trkpt>
      <trkpt lat="42.89916" lon="0.08297">
        <ele>1506.4</ele>
        <time>2021-11-27T13:02:28Z</time>
      </trkpt>
      <trkpt lat="42.89919" lon="0.08299">
        <ele>1503.6</ele>
        <time>2021-11-27T13:02:29Z</time>
      </trkpt>
      <trkpt lat="42.89921" lon="0.08301">
        <ele>1503.6</ele>
        <time>2021-11-27T13:02:30Z</time>
      </trkpt>
      <trkpt lat="42.89922" lon="0.08304">
        <ele>1503.6</ele>
        <time>2021-11-27T13:02:31Z</time>
      </trkpt>
      <trkpt lat="42.89924" lon="0.08306">
        <ele>1503.6</ele>
        <time>2021-11-27T13:02:32Z</time>
      </trkpt>
      <trkpt lat="42.89925" lon="0.08308">
        <ele>1503.6</ele>
        <time>2021-11-27T13:02:33Z</time>
      </trkpt>
      <trkpt lat="42.89928" lon="0.0831">
        <ele>1503.6</ele>
        <time>2021-11-27T13:02:34Z</time>
      </trkpt>
      <trkpt lat="42.8993" lon="0.08312">
        <ele>1503.6</ele>
        <time>2021-11-27T13:02:35Z</time>
      </trkpt>
      <trkpt lat="42.89932" lon="0.08314">
        <ele>1503.6</ele>
        <time>2021-11-27T13:02:36Z</time>
      </trkpt>
      <trkpt lat="42.89933" lon="0.08316">
        <ele>1503.6</ele>
        <time>2021-11-27T13:02:37Z</time>
      </trkpt>
      <trkpt lat="42.89935" lon="0.0832">
        <ele>1501.4</ele>
        <time>2021-11-27T13:02:39Z</time>
      </trkpt>
      <trkpt lat="42.89936" lon="0.08323">
        <ele>1501.4</ele>
        <time>2021-11-27T13:02:40Z</time>
      </trkpt>
      <trkpt lat="42.89938" lon="0.08326">
        <ele>1501.4</ele>
        <time>2021-11-27T13:02:41Z</time>
      </trkpt>
      <trkpt lat="42.89939" lon="0.08329">
        <ele>1501.4</ele>
        <time>2021-11-27T13:02:42Z</time>
      </trkpt>
      <trkpt lat="42.89941" lon="0.08332">
        <ele>1501.4</ele>
        <time>2021-11-27T13:02:43Z</time>
      </trkpt>
      <trkpt lat="42.89942" lon="0.08336">
        <ele>1501.4</ele>
        <time>2021-11-27T13:02:44Z</time>
      </trkpt>
      <trkpt lat="42.89942" lon="0.08339">
        <ele>1501.4</ele>
        <time>2021-11-27T13:02:45Z</time>
      </trkpt>
      <trkpt lat="42.89943" lon="0.08342">
        <ele>1501.4</ele>
        <time>2021-11-27T13:02:46Z</time>
      </trkpt>
      <trkpt lat="42.89944" lon="0.08345">
        <ele>1501.4</ele>
        <time>2021-11-27T13:02:47Z</time>
      </trkpt>
      <trkpt lat="42.89945" lon="0.08348">
        <ele>1501.4</ele>
        <time>2021-11-27T13:02:48Z</time>
      </trkpt>
      <trkpt lat="42.89946" lon="0.0835">
        <ele>1499.6</ele>
        <time>2021-11-27T13:02:49Z</time>
      </trkpt>
      <trkpt lat="42.89946" lon="0.08353">
        <ele>1499.6</ele>
        <time>2021-11-27T13:02:50Z</time>
      </trkpt>
      <trkpt lat="42.89946" lon="0.08356">
        <ele>1499.6</ele>
        <time>2021-11-27T13:02:51Z</time>
      </trkpt>
      <trkpt lat="42.89947" lon="0.0836">
        <ele>1499.6</ele>
        <time>2021-11-27T13:02:52Z</time>
      </trkpt>
      <trkpt lat="42.89948" lon="0.08363">
        <ele>1499.6</ele>
        <time>2021-11-27T13:02:53Z</time>
      </trkpt>
      <trkpt lat="42.89948" lon="0.08366">
        <ele>1499.6</ele>
        <time>2021-11-27T13:02:54Z</time>
      </trkpt>
      <trkpt lat="42.89949" lon="0.08369">
        <ele>1499.6</ele>
        <time>2021-11-27T13:02:55Z</time>
      </trkpt>
      <trkpt lat="42.89949" lon="0.08372">
        <ele>1499.6</ele>
        <time>2021-11-27T13:02:56Z</time>
      </trkpt>
      <trkpt lat="42.89949" lon="0.08375">
        <ele>1499.6</ele>
        <time>2021-11-27T13:02:57Z</time>
      </trkpt>
      <trkpt lat="42.8995" lon="0.08377">
        <ele>1499.6</ele>
        <time>2021-11-27T13:02:58Z</time>
      </trkpt>
      <trkpt lat="42.89951" lon="0.0838">
        <ele>1497.8</ele>
        <time>2021-11-27T13:02:59Z</time>
      </trkpt>
      <trkpt lat="42.89953" lon="0.08385">
        <ele>1497.8</ele>
        <time>2021-11-27T13:03:01Z</time>
      </trkpt>
      <trkpt lat="42.89954" lon="0.08387">
        <ele>1497.8</ele>
        <time>2021-11-27T13:03:02Z</time>
      </trkpt>
      <trkpt lat="42.89955" lon="0.08389">
        <ele>1497.8</ele>
        <time>2021-11-27T13:03:03Z</time>
      </trkpt>
      <trkpt lat="42.89956" lon="0.08394">
        <ele>1497.8</ele>
        <time>2021-11-27T13:03:05Z</time>
      </trkpt>
      <trkpt lat="42.89957" lon="0.08396">
        <ele>1497.8</ele>
        <time>2021-11-27T13:03:06Z</time>
      </trkpt>
      <trkpt lat="42.89957" lon="0.08399">
        <ele>1497.8</ele>
        <time>2021-11-27T13:03:07Z</time>
      </trkpt>
      <trkpt lat="42.89959" lon="0.08401">
        <ele>1497.8</ele>
        <time>2021-11-27T13:03:08Z</time>
      </trkpt>
      <trkpt lat="42.8996" lon="0.08405">
        <ele>1497.8</ele>
        <time>2021-11-27T13:03:10Z</time>
      </trkpt>
      <trkpt lat="42.89961" lon="0.0841">
        <ele>1497.8</ele>
        <time>2021-11-27T13:03:12Z</time>
      </trkpt>
      <trkpt lat="42.89961" lon="0.08413">
        <ele>1497.8</ele>
        <time>2021-11-27T13:03:13Z</time>
      </trkpt>
      <trkpt lat="42.89962" lon="0.08416">
        <ele>1497.8</ele>
        <time>2021-11-27T13:03:14Z</time>
      </trkpt>
      <trkpt lat="42.89962" lon="0.08419">
        <ele>1497.8</ele>
        <time>2021-11-27T13:03:15Z</time>
      </trkpt>
      <trkpt lat="42.89963" lon="0.08422">
        <ele>1497.8</ele>
        <time>2021-11-27T13:03:16Z</time>
      </trkpt>
      <trkpt lat="42.89963" lon="0.08425">
        <ele>1497.8</ele>
        <time>2021-11-27T13:03:17Z</time>
      </trkpt>
      <trkpt lat="42.89964" lon="0.08429">
        <ele>1497.8</ele>
        <time>2021-11-27T13:03:18Z</time>
      </trkpt>
      <trkpt lat="42.89964" lon="0.08432">
        <ele>1494</ele>
        <time>2021-11-27T13:03:19Z</time>
      </trkpt>
      <trkpt lat="42.89965" lon="0.08434">
        <ele>1494</ele>
        <time>2021-11-27T13:03:20Z</time>
      </trkpt>
      <trkpt lat="42.89966" lon="0.08437">
        <ele>1494</ele>
        <time>2021-11-27T13:03:21Z</time>
      </trkpt>
      <trkpt lat="42.89967" lon="0.0844">
        <ele>1494</ele>
        <time>2021-11-27T13:03:22Z</time>
      </trkpt>
      <trkpt lat="42.89967" lon="0.08442">
        <ele>1494</ele>
        <time>2021-11-27T13:03:23Z</time>
      </trkpt>
      <trkpt lat="42.89968" lon="0.08445">
        <ele>1494</ele>
        <time>2021-11-27T13:03:24Z</time>
      </trkpt>
      <trkpt lat="42.8997" lon="0.08447">
        <ele>1494</ele>
        <time>2021-11-27T13:03:25Z</time>
      </trkpt>
      <trkpt lat="42.89971" lon="0.0845">
        <ele>1494</ele>
        <time>2021-11-27T13:03:26Z</time>
      </trkpt>
      <trkpt lat="42.89972" lon="0.08453">
        <ele>1494</ele>
        <time>2021-11-27T13:03:27Z</time>
      </trkpt>
      <trkpt lat="42.89973" lon="0.08455">
        <ele>1494</ele>
        <time>2021-11-27T13:03:28Z</time>
      </trkpt>
      <trkpt lat="42.89974" lon="0.08458">
        <ele>1491.8</ele>
        <time>2021-11-27T13:03:29Z</time>
      </trkpt>
      <trkpt lat="42.89975" lon="0.08461">
        <ele>1491.8</ele>
        <time>2021-11-27T13:03:30Z</time>
      </trkpt>
      <trkpt lat="42.89977" lon="0.08464">
        <ele>1491.8</ele>
        <time>2021-11-27T13:03:31Z</time>
      </trkpt>
      <trkpt lat="42.89979" lon="0.08467">
        <ele>1491.8</ele>
        <time>2021-11-27T13:03:32Z</time>
      </trkpt>
      <trkpt lat="42.8998" lon="0.08469">
        <ele>1491.8</ele>
        <time>2021-11-27T13:03:33Z</time>
      </trkpt>
      <trkpt lat="42.89981" lon="0.08473">
        <ele>1491.8</ele>
        <time>2021-11-27T13:03:34Z</time>
      </trkpt>
      <trkpt lat="42.89983" lon="0.08476">
        <ele>1491.8</ele>
        <time>2021-11-27T13:03:35Z</time>
      </trkpt>
      <trkpt lat="42.89985" lon="0.08479">
        <ele>1491.8</ele>
        <time>2021-11-27T13:03:36Z</time>
      </trkpt>
      <trkpt lat="42.89988" lon="0.08482">
        <ele>1491.8</ele>
        <time>2021-11-27T13:03:37Z</time>
      </trkpt>
      <trkpt lat="42.89991" lon="0.08485">
        <ele>1491.8</ele>
        <time>2021-11-27T13:03:38Z</time>
      </trkpt>
      <trkpt lat="42.89993" lon="0.08489">
        <ele>1489.4</ele>
        <time>2021-11-27T13:03:39Z</time>
      </trkpt>
      <trkpt lat="42.89995" lon="0.08492">
        <ele>1489.4</ele>
        <time>2021-11-27T13:03:40Z</time>
      </trkpt>
      <trkpt lat="42.89997" lon="0.08495">
        <ele>1489.4</ele>
        <time>2021-11-27T13:03:41Z</time>
      </trkpt>
      <trkpt lat="42.89999" lon="0.08498">
        <ele>1489.4</ele>
        <time>2021-11-27T13:03:42Z</time>
      </trkpt>
      <trkpt lat="42.90001" lon="0.08501">
        <ele>1489.4</ele>
        <time>2021-11-27T13:03:43Z</time>
      </trkpt>
      <trkpt lat="42.90002" lon="0.08504">
        <ele>1489.4</ele>
        <time>2021-11-27T13:03:44Z</time>
      </trkpt>
      <trkpt lat="42.90004" lon="0.08508">
        <ele>1489.4</ele>
        <time>2021-11-27T13:03:45Z</time>
      </trkpt>
      <trkpt lat="42.90005" lon="0.08511">
        <ele>1489.4</ele>
        <time>2021-11-27T13:03:46Z</time>
      </trkpt>
      <trkpt lat="42.90007" lon="0.08514">
        <ele>1489.4</ele>
        <time>2021-11-27T13:03:47Z</time>
      </trkpt>
      <trkpt lat="42.90008" lon="0.08517">
        <ele>1489.4</ele>
        <time>2021-11-27T13:03:48Z</time>
      </trkpt>
      <trkpt lat="42.90008" lon="0.0852">
        <ele>1486.8</ele>
        <time>2021-11-27T13:03:49Z</time>
      </trkpt>
      <trkpt lat="42.90009" lon="0.08523">
        <ele>1486.8</ele>
        <time>2021-11-27T13:03:50Z</time>
      </trkpt>
      <trkpt lat="42.90011" lon="0.08526">
        <ele>1486.8</ele>
        <time>2021-11-27T13:03:51Z</time>
      </trkpt>
      <trkpt lat="42.90012" lon="0.0853">
        <ele>1486.8</ele>
        <time>2021-11-27T13:03:52Z</time>
      </trkpt>
      <trkpt lat="42.90013" lon="0.08533">
        <ele>1486.8</ele>
        <time>2021-11-27T13:03:53Z</time>
      </trkpt>
      <trkpt lat="42.90015" lon="0.08536">
        <ele>1486.8</ele>
        <time>2021-11-27T13:03:54Z</time>
      </trkpt>
      <trkpt lat="42.90016" lon="0.0854">
        <ele>1486.8</ele>
        <time>2021-11-27T13:03:55Z</time>
      </trkpt>
      <trkpt lat="42.90017" lon="0.08544">
        <ele>1486.8</ele>
        <time>2021-11-27T13:03:56Z</time>
      </trkpt>
      <trkpt lat="42.90018" lon="0.08548">
        <ele>1486.8</ele>
        <time>2021-11-27T13:03:57Z</time>
      </trkpt>
      <trkpt lat="42.90019" lon="0.08551">
        <ele>1486.8</ele>
        <time>2021-11-27T13:03:58Z</time>
      </trkpt>
      <trkpt lat="42.90019" lon="0.08555">
        <ele>1483.6</ele>
        <time>2021-11-27T13:03:59Z</time>
      </trkpt>
      <trkpt lat="42.9002" lon="0.08559">
        <ele>1483.6</ele>
        <time>2021-11-27T13:04:00Z</time>
      </trkpt>
      <trkpt lat="42.90022" lon="0.08563">
        <ele>1483.6</ele>
        <time>2021-11-27T13:04:01Z</time>
      </trkpt>
      <trkpt lat="42.90024" lon="0.08566">
        <ele>1483.6</ele>
        <time>2021-11-27T13:04:02Z</time>
      </trkpt>
      <trkpt lat="42.90027" lon="0.0857">
        <ele>1483.6</ele>
        <time>2021-11-27T13:04:03Z</time>
      </trkpt>
      <trkpt lat="42.90029" lon="0.08574">
        <ele>1483.6</ele>
        <time>2021-11-27T13:04:04Z</time>
      </trkpt>
      <trkpt lat="42.90028" lon="0.08578">
        <ele>1483.6</ele>
        <time>2021-11-27T13:04:05Z</time>
      </trkpt>
      <trkpt lat="42.90029" lon="0.08582">
        <ele>1483.6</ele>
        <time>2021-11-27T13:04:06Z</time>
      </trkpt>
      <trkpt lat="42.90031" lon="0.08586">
        <ele>1483.6</ele>
        <time>2021-11-27T13:04:07Z</time>
      </trkpt>
      <trkpt lat="42.90032" lon="0.08589">
        <ele>1483.6</ele>
        <time>2021-11-27T13:04:08Z</time>
      </trkpt>
      <trkpt lat="42.90033" lon="0.08592">
        <ele>1480.4</ele>
        <time>2021-11-27T13:04:09Z</time>
      </trkpt>
      <trkpt lat="42.90035" lon="0.08596">
        <ele>1480.4</ele>
        <time>2021-11-27T13:04:10Z</time>
      </trkpt>
      <trkpt lat="42.90036" lon="0.08599">
        <ele>1480.4</ele>
        <time>2021-11-27T13:04:11Z</time>
      </trkpt>
      <trkpt lat="42.90037" lon="0.08602">
        <ele>1480.4</ele>
        <time>2021-11-27T13:04:12Z</time>
      </trkpt>
      <trkpt lat="42.90038" lon="0.08605">
        <ele>1480.4</ele>
        <time>2021-11-27T13:04:13Z</time>
      </trkpt>
      <trkpt lat="42.90039" lon="0.08608">
        <ele>1480.4</ele>
        <time>2021-11-27T13:04:14Z</time>
      </trkpt>
      <trkpt lat="42.9004" lon="0.08611">
        <ele>1480.4</ele>
        <time>2021-11-27T13:04:15Z</time>
      </trkpt>
      <trkpt lat="42.90041" lon="0.08615">
        <ele>1480.4</ele>
        <time>2021-11-27T13:04:16Z</time>
      </trkpt>
      <trkpt lat="42.90045" lon="0.08618">
        <ele>1480.4</ele>
        <time>2021-11-27T13:04:17Z</time>
      </trkpt>
      <trkpt lat="42.90047" lon="0.08621">
        <ele>1480.4</ele>
        <time>2021-11-27T13:04:18Z</time>
      </trkpt>
      <trkpt lat="42.90049" lon="0.08624">
        <ele>1477.4</ele>
        <time>2021-11-27T13:04:19Z</time>
      </trkpt>
      <trkpt lat="42.90051" lon="0.08627">
        <ele>1477.4</ele>
        <time>2021-11-27T13:04:20Z</time>
      </trkpt>
      <trkpt lat="42.90055" lon="0.08629">
        <ele>1477.4</ele>
        <time>2021-11-27T13:04:21Z</time>
      </trkpt>
      <trkpt lat="42.90057" lon="0.08633">
        <ele>1477.4</ele>
        <time>2021-11-27T13:04:22Z</time>
      </trkpt>
      <trkpt lat="42.90058" lon="0.08636">
        <ele>1477.4</ele>
        <time>2021-11-27T13:04:23Z</time>
      </trkpt>
      <trkpt lat="42.90059" lon="0.08638">
        <ele>1477.4</ele>
        <time>2021-11-27T13:04:24Z</time>
      </trkpt>
      <trkpt lat="42.9006" lon="0.08641">
        <ele>1477.4</ele>
        <time>2021-11-27T13:04:25Z</time>
      </trkpt>
      <trkpt lat="42.9006" lon="0.08644">
        <ele>1477.4</ele>
        <time>2021-11-27T13:04:26Z</time>
      </trkpt>
      <trkpt lat="42.9006" lon="0.08646">
        <ele>1477.4</ele>
        <time>2021-11-27T13:04:27Z</time>
      </trkpt>
      <trkpt lat="42.90061" lon="0.08648">
        <ele>1477.4</ele>
        <time>2021-11-27T13:04:28Z</time>
      </trkpt>
      <trkpt lat="42.90063" lon="0.08651">
        <ele>1475</ele>
        <time>2021-11-27T13:04:29Z</time>
      </trkpt>
      <trkpt lat="42.90065" lon="0.08655">
        <ele>1475</ele>
        <time>2021-11-27T13:04:31Z</time>
      </trkpt>
      <trkpt lat="42.90067" lon="0.08658">
        <ele>1475</ele>
        <time>2021-11-27T13:04:32Z</time>
      </trkpt>
      <trkpt lat="42.90068" lon="0.08661">
        <ele>1475</ele>
        <time>2021-11-27T13:04:33Z</time>
      </trkpt>
      <trkpt lat="42.9007" lon="0.08664">
        <ele>1475</ele>
        <time>2021-11-27T13:04:34Z</time>
      </trkpt>
      <trkpt lat="42.90071" lon="0.08667">
        <ele>1475</ele>
        <time>2021-11-27T13:04:35Z</time>
      </trkpt>
      <trkpt lat="42.90073" lon="0.0867">
        <ele>1475</ele>
        <time>2021-11-27T13:04:36Z</time>
      </trkpt>
      <trkpt lat="42.90074" lon="0.08673">
        <ele>1475</ele>
        <time>2021-11-27T13:04:37Z</time>
      </trkpt>
      <trkpt lat="42.90075" lon="0.08676">
        <ele>1475</ele>
        <time>2021-11-27T13:04:38Z</time>
      </trkpt>
      <trkpt lat="42.90076" lon="0.08679">
        <ele>1472.6</ele>
        <time>2021-11-27T13:04:39Z</time>
      </trkpt>
      <trkpt lat="42.90076" lon="0.08682">
        <ele>1472.6</ele>
        <time>2021-11-27T13:04:40Z</time>
      </trkpt>
      <trkpt lat="42.90077" lon="0.08685">
        <ele>1472.6</ele>
        <time>2021-11-27T13:04:41Z</time>
      </trkpt>
      <trkpt lat="42.90078" lon="0.08688">
        <ele>1472.6</ele>
        <time>2021-11-27T13:04:42Z</time>
      </trkpt>
      <trkpt lat="42.90079" lon="0.08691">
        <ele>1472.6</ele>
        <time>2021-11-27T13:04:43Z</time>
      </trkpt>
      <trkpt lat="42.90081" lon="0.08695">
        <ele>1472.6</ele>
        <time>2021-11-27T13:04:44Z</time>
      </trkpt>
      <trkpt lat="42.90083" lon="0.08698">
        <ele>1472.6</ele>
        <time>2021-11-27T13:04:45Z</time>
      </trkpt>
      <trkpt lat="42.90086" lon="0.08701">
        <ele>1472.6</ele>
        <time>2021-11-27T13:04:46Z</time>
      </trkpt>
      <trkpt lat="42.90089" lon="0.08703">
        <ele>1472.6</ele>
        <time>2021-11-27T13:04:47Z</time>
      </trkpt>
      <trkpt lat="42.9009" lon="0.08706">
        <ele>1472.6</ele>
        <time>2021-11-27T13:04:48Z</time>
      </trkpt>
      <trkpt lat="42.90091" lon="0.08708">
        <ele>1470.2</ele>
        <time>2021-11-27T13:04:49Z</time>
      </trkpt>
      <trkpt lat="42.90092" lon="0.08711">
        <ele>1470.2</ele>
        <time>2021-11-27T13:04:50Z</time>
      </trkpt>
      <trkpt lat="42.90093" lon="0.08713">
        <ele>1470.2</ele>
        <time>2021-11-27T13:04:51Z</time>
      </trkpt>
      <trkpt lat="42.90094" lon="0.08715">
        <ele>1470.2</ele>
        <time>2021-11-27T13:04:52Z</time>
      </trkpt>
      <trkpt lat="42.90096" lon="0.08717">
        <ele>1470.2</ele>
        <time>2021-11-27T13:04:53Z</time>
      </trkpt>
      <trkpt lat="42.90097" lon="0.0872">
        <ele>1470.2</ele>
        <time>2021-11-27T13:04:54Z</time>
      </trkpt>
      <trkpt lat="42.90098" lon="0.08721">
        <ele>1470.2</ele>
        <time>2021-11-27T13:04:55Z</time>
      </trkpt>
      <trkpt lat="42.901" lon="0.08723">
        <ele>1470.2</ele>
        <time>2021-11-27T13:04:56Z</time>
      </trkpt>
      <trkpt lat="42.90103" lon="0.08727">
        <ele>1470.2</ele>
        <time>2021-11-27T13:04:58Z</time>
      </trkpt>
      <trkpt lat="42.90104" lon="0.08729">
        <ele>1467.4</ele>
        <time>2021-11-27T13:04:59Z</time>
      </trkpt>
      <trkpt lat="42.90107" lon="0.08733">
        <ele>1467.4</ele>
        <time>2021-11-27T13:05:01Z</time>
      </trkpt>
      <trkpt lat="42.90108" lon="0.08735">
        <ele>1467.4</ele>
        <time>2021-11-27T13:05:02Z</time>
      </trkpt>
      <trkpt lat="42.9011" lon="0.08737">
        <ele>1467.4</ele>
        <time>2021-11-27T13:05:03Z</time>
      </trkpt>
      <trkpt lat="42.90111" lon="0.08739">
        <ele>1467.4</ele>
        <time>2021-11-27T13:05:04Z</time>
      </trkpt>
      <trkpt lat="42.90113" lon="0.08742">
        <ele>1467.4</ele>
        <time>2021-11-27T13:05:05Z</time>
      </trkpt>
      <trkpt lat="42.90114" lon="0.08744">
        <ele>1467.4</ele>
        <time>2021-11-27T13:05:06Z</time>
      </trkpt>
      <trkpt lat="42.90116" lon="0.08746">
        <ele>1467.4</ele>
        <time>2021-11-27T13:05:07Z</time>
      </trkpt>
      <trkpt lat="42.90118" lon="0.08749">
        <ele>1467.4</ele>
        <time>2021-11-27T13:05:08Z</time>
      </trkpt>
      <trkpt lat="42.9012" lon="0.08751">
        <ele>1465.8</ele>
        <time>2021-11-27T13:05:09Z</time>
      </trkpt>
      <trkpt lat="42.90123" lon="0.08755">
        <ele>1465.8</ele>
        <time>2021-11-27T13:05:11Z</time>
      </trkpt>
      <trkpt lat="42.90124" lon="0.08757">
        <ele>1465.8</ele>
        <time>2021-11-27T13:05:12Z</time>
      </trkpt>
      <trkpt lat="42.90126" lon="0.0876">
        <ele>1465.8</ele>
        <time>2021-11-27T13:05:14Z</time>
      </trkpt>
      <trkpt lat="42.90127" lon="0.08763">
        <ele>1465.8</ele>
        <time>2021-11-27T13:05:15Z</time>
      </trkpt>
      <trkpt lat="42.90128" lon="0.08765">
        <ele>1465.8</ele>
        <time>2021-11-27T13:05:16Z</time>
      </trkpt>
      <trkpt lat="42.9013" lon="0.08767">
        <ele>1465.8</ele>
        <time>2021-11-27T13:05:17Z</time>
      </trkpt>
      <trkpt lat="42.90131" lon="0.0877">
        <ele>1465.8</ele>
        <time>2021-11-27T13:05:18Z</time>
      </trkpt>
      <trkpt lat="42.90132" lon="0.08772">
        <ele>1464.6</ele>
        <time>2021-11-27T13:05:19Z</time>
      </trkpt>
      <trkpt lat="42.90134" lon="0.08774">
        <ele>1464.6</ele>
        <time>2021-11-27T13:05:20Z</time>
      </trkpt>
      <trkpt lat="42.90136" lon="0.08779">
        <ele>1464.6</ele>
        <time>2021-11-27T13:05:22Z</time>
      </trkpt>
      <trkpt lat="42.90138" lon="0.0878">
        <ele>1464.6</ele>
        <time>2021-11-27T13:05:23Z</time>
      </trkpt>
      <trkpt lat="42.9014" lon="0.08784">
        <ele>1464.6</ele>
        <time>2021-11-27T13:05:25Z</time>
      </trkpt>
      <trkpt lat="42.90142" lon="0.08788">
        <ele>1464.6</ele>
        <time>2021-11-27T13:05:27Z</time>
      </trkpt>
      <trkpt lat="42.90143" lon="0.08792">
        <ele>1463.6</ele>
        <time>2021-11-27T13:05:29Z</time>
      </trkpt>
      <trkpt lat="42.90144" lon="0.08795">
        <ele>1463.6</ele>
        <time>2021-11-27T13:05:30Z</time>
      </trkpt>
      <trkpt lat="42.90146" lon="0.08797">
        <ele>1463.6</ele>
        <time>2021-11-27T13:05:31Z</time>
      </trkpt>
      <trkpt lat="42.90147" lon="0.08799">
        <ele>1463.6</ele>
        <time>2021-11-27T13:05:32Z</time>
      </trkpt>
      <trkpt lat="42.90148" lon="0.08801">
        <ele>1463.6</ele>
        <time>2021-11-27T13:05:33Z</time>
      </trkpt>
      <trkpt lat="42.9015" lon="0.08803">
        <ele>1463.6</ele>
        <time>2021-11-27T13:05:34Z</time>
      </trkpt>
      <trkpt lat="42.9015" lon="0.08806">
        <ele>1463.6</ele>
        <time>2021-11-27T13:05:35Z</time>
      </trkpt>
      <trkpt lat="42.90153" lon="0.08809">
        <ele>1463.6</ele>
        <time>2021-11-27T13:05:37Z</time>
      </trkpt>
      <trkpt lat="42.90155" lon="0.08811">
        <ele>1463.6</ele>
        <time>2021-11-27T13:05:38Z</time>
      </trkpt>
      <trkpt lat="42.90156" lon="0.08813">
        <ele>1462.4</ele>
        <time>2021-11-27T13:05:39Z</time>
      </trkpt>
      <trkpt lat="42.90157" lon="0.08818">
        <ele>1462.4</ele>
        <time>2021-11-27T13:05:41Z</time>
      </trkpt>
      <trkpt lat="42.90159" lon="0.08822">
        <ele>1462.4</ele>
        <time>2021-11-27T13:05:43Z</time>
      </trkpt>
      <trkpt lat="42.9016" lon="0.08824">
        <ele>1462.4</ele>
        <time>2021-11-27T13:05:44Z</time>
      </trkpt>
      <trkpt lat="42.90161" lon="0.08827">
        <ele>1462.4</ele>
        <time>2021-11-27T13:05:45Z</time>
      </trkpt>
      <trkpt lat="42.90161" lon="0.08829">
        <ele>1462.4</ele>
        <time>2021-11-27T13:05:46Z</time>
      </trkpt>
      <trkpt lat="42.90162" lon="0.08834">
        <ele>1462.4</ele>
        <time>2021-11-27T13:05:48Z</time>
      </trkpt>
      <trkpt lat="42.90163" lon="0.08838">
        <ele>1462.4</ele>
        <time>2021-11-27T13:05:50Z</time>
      </trkpt>
      <trkpt lat="42.90164" lon="0.08841">
        <ele>1462.4</ele>
        <time>2021-11-27T13:05:51Z</time>
      </trkpt>
      <trkpt lat="42.90164" lon="0.08844">
        <ele>1462.4</ele>
        <time>2021-11-27T13:05:52Z</time>
      </trkpt>
      <trkpt lat="42.90164" lon="0.08848">
        <ele>1462.4</ele>
        <time>2021-11-27T13:05:54Z</time>
      </trkpt>
      <trkpt lat="42.90164" lon="0.08851">
        <ele>1462.4</ele>
        <time>2021-11-27T13:05:55Z</time>
      </trkpt>
      <trkpt lat="42.90165" lon="0.08853">
        <ele>1462.4</ele>
        <time>2021-11-27T13:05:56Z</time>
      </trkpt>
      <trkpt lat="42.90165" lon="0.08855">
        <ele>1462.4</ele>
        <time>2021-11-27T13:05:57Z</time>
      </trkpt>
      <trkpt lat="42.90166" lon="0.08858">
        <ele>1462.4</ele>
        <time>2021-11-27T13:05:58Z</time>
      </trkpt>
      <trkpt lat="42.90166" lon="0.08861">
        <ele>1459.2</ele>
        <time>2021-11-27T13:05:59Z</time>
      </trkpt>
      <trkpt lat="42.90166" lon="0.08863">
        <ele>1459.2</ele>
        <time>2021-11-27T13:06:00Z</time>
      </trkpt>
      <trkpt lat="42.90166" lon="0.08866">
        <ele>1459.2</ele>
        <time>2021-11-27T13:06:01Z</time>
      </trkpt>
      <trkpt lat="42.90167" lon="0.08869">
        <ele>1459.2</ele>
        <time>2021-11-27T13:06:02Z</time>
      </trkpt>
      <trkpt lat="42.90167" lon="0.08871">
        <ele>1459.2</ele>
        <time>2021-11-27T13:06:03Z</time>
      </trkpt>
      <trkpt lat="42.90167" lon="0.08874">
        <ele>1459.2</ele>
        <time>2021-11-27T13:06:04Z</time>
      </trkpt>
      <trkpt lat="42.90168" lon="0.08879">
        <ele>1459.2</ele>
        <time>2021-11-27T13:06:06Z</time>
      </trkpt>
      <trkpt lat="42.9017" lon="0.08884">
        <ele>1459.2</ele>
        <time>2021-11-27T13:06:08Z</time>
      </trkpt>
      <trkpt lat="42.9017" lon="0.08888">
        <ele>1459.2</ele>
        <time>2021-11-27T13:06:10Z</time>
      </trkpt>
      <trkpt lat="42.90171" lon="0.08892">
        <ele>1459.2</ele>
        <time>2021-11-27T13:06:12Z</time>
      </trkpt>
      <trkpt lat="42.90172" lon="0.08895">
        <ele>1459.2</ele>
        <time>2021-11-27T13:06:14Z</time>
      </trkpt>
      <trkpt lat="42.90173" lon="0.089">
        <ele>1459.2</ele>
        <time>2021-11-27T13:06:16Z</time>
      </trkpt>
      <trkpt lat="42.90173" lon="0.08902">
        <ele>1459.2</ele>
        <time>2021-11-27T13:06:17Z</time>
      </trkpt>
      <trkpt lat="42.90174" lon="0.08907">
        <ele>1457.2</ele>
        <time>2021-11-27T13:06:19Z</time>
      </trkpt>
      <trkpt lat="42.90176" lon="0.08908">
        <ele>1457.2</ele>
        <time>2021-11-27T13:06:20Z</time>
      </trkpt>
      <trkpt lat="42.90177" lon="0.08912">
        <ele>1457.2</ele>
        <time>2021-11-27T13:06:22Z</time>
      </trkpt>
      <trkpt lat="42.90178" lon="0.08916">
        <ele>1457.2</ele>
        <time>2021-11-27T13:06:24Z</time>
      </trkpt>
      <trkpt lat="42.90178" lon="0.0892">
        <ele>1457.2</ele>
        <time>2021-11-27T13:06:26Z</time>
      </trkpt>
      <trkpt lat="42.90179" lon="0.08923">
        <ele>1457.2</ele>
        <time>2021-11-27T13:06:28Z</time>
      </trkpt>
      <trkpt lat="42.9018" lon="0.08926">
        <ele>1456.2</ele>
        <time>2021-11-27T13:06:29Z</time>
      </trkpt>
      <trkpt lat="42.9018" lon="0.0893">
        <ele>1456.2</ele>
        <time>2021-11-27T13:06:31Z</time>
      </trkpt>
      <trkpt lat="42.90181" lon="0.08934">
        <ele>1456.2</ele>
        <time>2021-11-27T13:06:33Z</time>
      </trkpt>
      <trkpt lat="42.90182" lon="0.08937">
        <ele>1456.2</ele>
        <time>2021-11-27T13:06:35Z</time>
      </trkpt>
      <trkpt lat="42.90184" lon="0.08941">
        <ele>1456.2</ele>
        <time>2021-11-27T13:06:37Z</time>
      </trkpt>
      <trkpt lat="42.90184" lon="0.08945">
        <ele>1456</ele>
        <time>2021-11-27T13:06:39Z</time>
      </trkpt>
      <trkpt lat="42.90186" lon="0.08947">
        <ele>1456</ele>
        <time>2021-11-27T13:06:40Z</time>
      </trkpt>
      <trkpt lat="42.90187" lon="0.0895">
        <ele>1456</ele>
        <time>2021-11-27T13:06:42Z</time>
      </trkpt>
      <trkpt lat="42.90188" lon="0.08953">
        <ele>1456</ele>
        <time>2021-11-27T13:06:44Z</time>
      </trkpt>
      <trkpt lat="42.90188" lon="0.08957">
        <ele>1456</ele>
        <time>2021-11-27T13:06:46Z</time>
      </trkpt>
      <trkpt lat="42.9019" lon="0.08959">
        <ele>1456</ele>
        <time>2021-11-27T13:06:47Z</time>
      </trkpt>
      <trkpt lat="42.90191" lon="0.08961">
        <ele>1456</ele>
        <time>2021-11-27T13:06:48Z</time>
      </trkpt>
      <trkpt lat="42.90192" lon="0.08965">
        <ele>1456</ele>
        <time>2021-11-27T13:06:50Z</time>
      </trkpt>
      <trkpt lat="42.90193" lon="0.08967">
        <ele>1456</ele>
        <time>2021-11-27T13:06:52Z</time>
      </trkpt>
      <trkpt lat="42.90193" lon="0.08971">
        <ele>1456</ele>
        <time>2021-11-27T13:06:55Z</time>
      </trkpt>
      <trkpt lat="42.90193" lon="0.08973">
        <ele>1456</ele>
        <time>2021-11-27T13:06:57Z</time>
      </trkpt>
      <trkpt lat="42.90192" lon="0.08976">
        <ele>1454.4</ele>
        <time>2021-11-27T13:06:59Z</time>
      </trkpt>
      <trkpt lat="42.90193" lon="0.0898">
        <ele>1454.4</ele>
        <time>2021-11-27T13:07:01Z</time>
      </trkpt>
      <trkpt lat="42.90194" lon="0.08984">
        <ele>1454.4</ele>
        <time>2021-11-27T13:07:03Z</time>
      </trkpt>
      <trkpt lat="42.90193" lon="0.08986">
        <ele>1453.8</ele>
        <time>2021-11-27T13:07:19Z</time>
      </trkpt>
      <trkpt lat="42.90191" lon="0.08987">
        <ele>1453.8</ele>
        <time>2021-11-27T13:07:46Z</time>
      </trkpt>
      <trkpt lat="42.90192" lon="0.08991">
        <ele>1453.8</ele>
        <time>2021-11-27T13:07:48Z</time>
      </trkpt>
      <trkpt lat="42.90193" lon="0.08996">
        <ele>1453.8</ele>
        <time>2021-11-27T13:07:50Z</time>
      </trkpt>
      <trkpt lat="42.90193" lon="0.08998">
        <ele>1453.8</ele>
        <time>2021-11-27T13:07:51Z</time>
      </trkpt>
      <trkpt lat="42.90193" lon="0.09001">
        <ele>1453.8</ele>
        <time>2021-11-27T13:07:52Z</time>
      </trkpt>
      <trkpt lat="42.90194" lon="0.09006">
        <ele>1453.8</ele>
        <time>2021-11-27T13:07:54Z</time>
      </trkpt>
      <trkpt lat="42.90194" lon="0.09008">
        <ele>1453.8</ele>
        <time>2021-11-27T13:07:55Z</time>
      </trkpt>
      <trkpt lat="42.90196" lon="0.0901">
        <ele>1453.8</ele>
        <time>2021-11-27T13:07:56Z</time>
      </trkpt>
      <trkpt lat="42.90197" lon="0.09014">
        <ele>1453.8</ele>
        <time>2021-11-27T13:07:58Z</time>
      </trkpt>
      <trkpt lat="42.90199" lon="0.09018">
        <ele>1453.8</ele>
        <time>2021-11-27T13:08:00Z</time>
      </trkpt>
      <trkpt lat="42.90201" lon="0.09021">
        <ele>1453.8</ele>
        <time>2021-11-27T13:08:02Z</time>
      </trkpt>
      <trkpt lat="42.90201" lon="0.09024">
        <ele>1453.8</ele>
        <time>2021-11-27T13:08:03Z</time>
      </trkpt>
      <trkpt lat="42.90202" lon="0.09028">
        <ele>1453.8</ele>
        <time>2021-11-27T13:08:05Z</time>
      </trkpt>
      <trkpt lat="42.90202" lon="0.09032">
        <ele>1453.8</ele>
        <time>2021-11-27T13:08:07Z</time>
      </trkpt>
      <trkpt lat="42.90203" lon="0.09035">
        <ele>1453.8</ele>
        <time>2021-11-27T13:08:08Z</time>
      </trkpt>
      <trkpt lat="42.90204" lon="0.09038">
        <ele>1453.8</ele>
        <time>2021-11-27T13:08:10Z</time>
      </trkpt>
      <trkpt lat="42.90204" lon="0.09041">
        <ele>1453.8</ele>
        <time>2021-11-27T13:08:12Z</time>
      </trkpt>
      <trkpt lat="42.90207" lon="0.09045">
        <ele>1453.8</ele>
        <time>2021-11-27T13:08:14Z</time>
      </trkpt>
      <trkpt lat="42.90208" lon="0.09049">
        <ele>1453.8</ele>
        <time>2021-11-27T13:08:16Z</time>
      </trkpt>
      <trkpt lat="42.90207" lon="0.09054">
        <ele>1453.8</ele>
        <time>2021-11-27T13:08:18Z</time>
      </trkpt>
      <trkpt lat="42.90207" lon="0.09058">
        <ele>1453.8</ele>
        <time>2021-11-27T13:08:20Z</time>
      </trkpt>
      <trkpt lat="42.90207" lon="0.09061">
        <ele>1453.8</ele>
        <time>2021-11-27T13:08:21Z</time>
      </trkpt>
      <trkpt lat="42.90207" lon="0.09065">
        <ele>1453.8</ele>
        <time>2021-11-27T13:08:23Z</time>
      </trkpt>
      <trkpt lat="42.90207" lon="0.09068">
        <ele>1453.8</ele>
        <time>2021-11-27T13:08:24Z</time>
      </trkpt>
      <trkpt lat="42.90208" lon="0.0907">
        <ele>1453.8</ele>
        <time>2021-11-27T13:08:25Z</time>
      </trkpt>
      <trkpt lat="42.90208" lon="0.09075">
        <ele>1453.8</ele>
        <time>2021-11-27T13:08:27Z</time>
      </trkpt>
      <trkpt lat="42.90208" lon="0.09078">
        <ele>1453.8</ele>
        <time>2021-11-27T13:08:28Z</time>
      </trkpt>
      <trkpt lat="42.90208" lon="0.09081">
        <ele>1451.4</ele>
        <time>2021-11-27T13:08:29Z</time>
      </trkpt>
      <trkpt lat="42.90208" lon="0.09085">
        <ele>1451.4</ele>
        <time>2021-11-27T13:08:31Z</time>
      </trkpt>
      <trkpt lat="42.90209" lon="0.09089">
        <ele>1451.4</ele>
        <time>2021-11-27T13:08:33Z</time>
      </trkpt>
      <trkpt lat="42.90209" lon="0.09094">
        <ele>1451.4</ele>
        <time>2021-11-27T13:08:35Z</time>
      </trkpt>
      <trkpt lat="42.90209" lon="0.09096">
        <ele>1451.4</ele>
        <time>2021-11-27T13:08:36Z</time>
      </trkpt>
      <trkpt lat="42.90209" lon="0.09099">
        <ele>1451.4</ele>
        <time>2021-11-27T13:08:37Z</time>
      </trkpt>
      <trkpt lat="42.90209" lon="0.09101">
        <ele>1451.4</ele>
        <time>2021-11-27T13:08:38Z</time>
      </trkpt>
      <trkpt lat="42.9021" lon="0.09104">
        <ele>1449.8</ele>
        <time>2021-11-27T13:08:39Z</time>
      </trkpt>
      <trkpt lat="42.9021" lon="0.09107">
        <ele>1449.8</ele>
        <time>2021-11-27T13:08:40Z</time>
      </trkpt>
      <trkpt lat="42.9021" lon="0.0911">
        <ele>1449.8</ele>
        <time>2021-11-27T13:08:41Z</time>
      </trkpt>
      <trkpt lat="42.90211" lon="0.09112">
        <ele>1449.8</ele>
        <time>2021-11-27T13:08:42Z</time>
      </trkpt>
      <trkpt lat="42.90212" lon="0.09117">
        <ele>1449.8</ele>
        <time>2021-11-27T13:08:44Z</time>
      </trkpt>
      <trkpt lat="42.90212" lon="0.0912">
        <ele>1449.8</ele>
        <time>2021-11-27T13:08:45Z</time>
      </trkpt>
      <trkpt lat="42.90212" lon="0.09123">
        <ele>1449.8</ele>
        <time>2021-11-27T13:08:46Z</time>
      </trkpt>
      <trkpt lat="42.90213" lon="0.09126">
        <ele>1449.8</ele>
        <time>2021-11-27T13:08:47Z</time>
      </trkpt>
      <trkpt lat="42.90214" lon="0.0913">
        <ele>1449.8</ele>
        <time>2021-11-27T13:08:48Z</time>
      </trkpt>
      <trkpt lat="42.90215" lon="0.09133">
        <ele>1447.6</ele>
        <time>2021-11-27T13:08:49Z</time>
      </trkpt>
      <trkpt lat="42.90216" lon="0.09137">
        <ele>1447.6</ele>
        <time>2021-11-27T13:08:50Z</time>
      </trkpt>
      <trkpt lat="42.90217" lon="0.09141">
        <ele>1447.6</ele>
        <time>2021-11-27T13:08:51Z</time>
      </trkpt>
      <trkpt lat="42.90218" lon="0.09144">
        <ele>1447.6</ele>
        <time>2021-11-27T13:08:52Z</time>
      </trkpt>
      <trkpt lat="42.9022" lon="0.09148">
        <ele>1447.6</ele>
        <time>2021-11-27T13:08:53Z</time>
      </trkpt>
      <trkpt lat="42.90221" lon="0.09152">
        <ele>1447.6</ele>
        <time>2021-11-27T13:08:54Z</time>
      </trkpt>
      <trkpt lat="42.90222" lon="0.09156">
        <ele>1447.6</ele>
        <time>2021-11-27T13:08:55Z</time>
      </trkpt>
      <trkpt lat="42.90223" lon="0.0916">
        <ele>1447.6</ele>
        <time>2021-11-27T13:08:56Z</time>
      </trkpt>
      <trkpt lat="42.90224" lon="0.09165">
        <ele>1447.6</ele>
        <time>2021-11-27T13:08:57Z</time>
      </trkpt>
      <trkpt lat="42.90226" lon="0.09169">
        <ele>1447.6</ele>
        <time>2021-11-27T13:08:58Z</time>
      </trkpt>
      <trkpt lat="42.90228" lon="0.09173">
        <ele>1444.4</ele>
        <time>2021-11-27T13:08:59Z</time>
      </trkpt>
      <trkpt lat="42.90229" lon="0.09177">
        <ele>1444.4</ele>
        <time>2021-11-27T13:09:00Z</time>
      </trkpt>
      <trkpt lat="42.90231" lon="0.09181">
        <ele>1444.4</ele>
        <time>2021-11-27T13:09:01Z</time>
      </trkpt>
      <trkpt lat="42.90232" lon="0.09185">
        <ele>1444.4</ele>
        <time>2021-11-27T13:09:02Z</time>
      </trkpt>
      <trkpt lat="42.90234" lon="0.09188">
        <ele>1444.4</ele>
        <time>2021-11-27T13:09:03Z</time>
      </trkpt>
      <trkpt lat="42.90236" lon="0.09191">
        <ele>1444.4</ele>
        <time>2021-11-27T13:09:04Z</time>
      </trkpt>
      <trkpt lat="42.90238" lon="0.09194">
        <ele>1444.4</ele>
        <time>2021-11-27T13:09:05Z</time>
      </trkpt>
      <trkpt lat="42.90239" lon="0.09198">
        <ele>1444.4</ele>
        <time>2021-11-27T13:09:06Z</time>
      </trkpt>
      <trkpt lat="42.9024" lon="0.09201">
        <ele>1444.4</ele>
        <time>2021-11-27T13:09:07Z</time>
      </trkpt>
      <trkpt lat="42.90242" lon="0.09204">
        <ele>1444.4</ele>
        <time>2021-11-27T13:09:08Z</time>
      </trkpt>
      <trkpt lat="42.90244" lon="0.09208">
        <ele>1441</ele>
        <time>2021-11-27T13:09:09Z</time>
      </trkpt>
      <trkpt lat="42.90246" lon="0.09211">
        <ele>1441</ele>
        <time>2021-11-27T13:09:10Z</time>
      </trkpt>
      <trkpt lat="42.90248" lon="0.09214">
        <ele>1441</ele>
        <time>2021-11-27T13:09:11Z</time>
      </trkpt>
      <trkpt lat="42.9025" lon="0.09217">
        <ele>1441</ele>
        <time>2021-11-27T13:09:12Z</time>
      </trkpt>
      <trkpt lat="42.90251" lon="0.09221">
        <ele>1441</ele>
        <time>2021-11-27T13:09:13Z</time>
      </trkpt>
      <trkpt lat="42.90252" lon="0.09224">
        <ele>1441</ele>
        <time>2021-11-27T13:09:14Z</time>
      </trkpt>
      <trkpt lat="42.90253" lon="0.09227">
        <ele>1441</ele>
        <time>2021-11-27T13:09:15Z</time>
      </trkpt>
      <trkpt lat="42.90254" lon="0.0923">
        <ele>1441</ele>
        <time>2021-11-27T13:09:16Z</time>
      </trkpt>
      <trkpt lat="42.90256" lon="0.09233">
        <ele>1441</ele>
        <time>2021-11-27T13:09:17Z</time>
      </trkpt>
      <trkpt lat="42.90257" lon="0.09237">
        <ele>1441</ele>
        <time>2021-11-27T13:09:18Z</time>
      </trkpt>
      <trkpt lat="42.90258" lon="0.09241">
        <ele>1437.6</ele>
        <time>2021-11-27T13:09:19Z</time>
      </trkpt>
      <trkpt lat="42.90259" lon="0.09245">
        <ele>1437.6</ele>
        <time>2021-11-27T13:09:20Z</time>
      </trkpt>
      <trkpt lat="42.90259" lon="0.09249">
        <ele>1437.6</ele>
        <time>2021-11-27T13:09:21Z</time>
      </trkpt>
      <trkpt lat="42.9026" lon="0.09252">
        <ele>1437.6</ele>
        <time>2021-11-27T13:09:22Z</time>
      </trkpt>
      <trkpt lat="42.90261" lon="0.09256">
        <ele>1437.6</ele>
        <time>2021-11-27T13:09:23Z</time>
      </trkpt>
      <trkpt lat="42.90263" lon="0.0926">
        <ele>1437.6</ele>
        <time>2021-11-27T13:09:24Z</time>
      </trkpt>
      <trkpt lat="42.90265" lon="0.09264">
        <ele>1437.6</ele>
        <time>2021-11-27T13:09:25Z</time>
      </trkpt>
      <trkpt lat="42.90267" lon="0.09267">
        <ele>1437.6</ele>
        <time>2021-11-27T13:09:26Z</time>
      </trkpt>
      <trkpt lat="42.90268" lon="0.0927">
        <ele>1437.6</ele>
        <time>2021-11-27T13:09:27Z</time>
      </trkpt>
      <trkpt lat="42.90269" lon="0.09274">
        <ele>1437.6</ele>
        <time>2021-11-27T13:09:28Z</time>
      </trkpt>
      <trkpt lat="42.90271" lon="0.09277">
        <ele>1434</ele>
        <time>2021-11-27T13:09:29Z</time>
      </trkpt>
      <trkpt lat="42.90273" lon="0.09281">
        <ele>1434</ele>
        <time>2021-11-27T13:09:30Z</time>
      </trkpt>
      <trkpt lat="42.90274" lon="0.09284">
        <ele>1434</ele>
        <time>2021-11-27T13:09:31Z</time>
      </trkpt>
      <trkpt lat="42.90276" lon="0.09287">
        <ele>1434</ele>
        <time>2021-11-27T13:09:32Z</time>
      </trkpt>
      <trkpt lat="42.90277" lon="0.0929">
        <ele>1434</ele>
        <time>2021-11-27T13:09:33Z</time>
      </trkpt>
      <trkpt lat="42.90278" lon="0.09293">
        <ele>1434</ele>
        <time>2021-11-27T13:09:34Z</time>
      </trkpt>
      <trkpt lat="42.9028" lon="0.09296">
        <ele>1434</ele>
        <time>2021-11-27T13:09:35Z</time>
      </trkpt>
      <trkpt lat="42.90282" lon="0.09299">
        <ele>1434</ele>
        <time>2021-11-27T13:09:36Z</time>
      </trkpt>
      <trkpt lat="42.90283" lon="0.09302">
        <ele>1434</ele>
        <time>2021-11-27T13:09:37Z</time>
      </trkpt>
      <trkpt lat="42.90285" lon="0.09305">
        <ele>1434</ele>
        <time>2021-11-27T13:09:38Z</time>
      </trkpt>
      <trkpt lat="42.90286" lon="0.09308">
        <ele>1431</ele>
        <time>2021-11-27T13:09:39Z</time>
      </trkpt>
      <trkpt lat="42.90288" lon="0.09311">
        <ele>1431</ele>
        <time>2021-11-27T13:09:40Z</time>
      </trkpt>
      <trkpt lat="42.90289" lon="0.09313">
        <ele>1431</ele>
        <time>2021-11-27T13:09:41Z</time>
      </trkpt>
      <trkpt lat="42.90291" lon="0.09316">
        <ele>1431</ele>
        <time>2021-11-27T13:09:42Z</time>
      </trkpt>
      <trkpt lat="42.90292" lon="0.09319">
        <ele>1431</ele>
        <time>2021-11-27T13:09:43Z</time>
      </trkpt>
      <trkpt lat="42.90294" lon="0.09322">
        <ele>1431</ele>
        <time>2021-11-27T13:09:44Z</time>
      </trkpt>
      <trkpt lat="42.90296" lon="0.09325">
        <ele>1431</ele>
        <time>2021-11-27T13:09:45Z</time>
      </trkpt>
      <trkpt lat="42.90297" lon="0.09328">
        <ele>1431</ele>
        <time>2021-11-27T13:09:46Z</time>
      </trkpt>
      <trkpt lat="42.90299" lon="0.09332">
        <ele>1431</ele>
        <time>2021-11-27T13:09:47Z</time>
      </trkpt>
      <trkpt lat="42.903" lon="0.09335">
        <ele>1431</ele>
        <time>2021-11-27T13:09:48Z</time>
      </trkpt>
      <trkpt lat="42.90301" lon="0.09339">
        <ele>1428.4</ele>
        <time>2021-11-27T13:09:49Z</time>
      </trkpt>
      <trkpt lat="42.90302" lon="0.09342">
        <ele>1428.4</ele>
        <time>2021-11-27T13:09:50Z</time>
      </trkpt>
      <trkpt lat="42.90303" lon="0.09346">
        <ele>1428.4</ele>
        <time>2021-11-27T13:09:51Z</time>
      </trkpt>
      <trkpt lat="42.90305" lon="0.09349">
        <ele>1428.4</ele>
        <time>2021-11-27T13:09:52Z</time>
      </trkpt>
      <trkpt lat="42.90306" lon="0.09352">
        <ele>1428.4</ele>
        <time>2021-11-27T13:09:53Z</time>
      </trkpt>
      <trkpt lat="42.90307" lon="0.09355">
        <ele>1428.4</ele>
        <time>2021-11-27T13:09:54Z</time>
      </trkpt>
      <trkpt lat="42.90308" lon="0.09358">
        <ele>1428.4</ele>
        <time>2021-11-27T13:09:55Z</time>
      </trkpt>
      <trkpt lat="42.90308" lon="0.0936">
        <ele>1428.4</ele>
        <time>2021-11-27T13:09:56Z</time>
      </trkpt>
      <trkpt lat="42.90309" lon="0.09363">
        <ele>1428.4</ele>
        <time>2021-11-27T13:09:57Z</time>
      </trkpt>
      <trkpt lat="42.90309" lon="0.09365">
        <ele>1428.4</ele>
        <time>2021-11-27T13:09:58Z</time>
      </trkpt>
      <trkpt lat="42.90311" lon="0.09367">
        <ele>1426</ele>
        <time>2021-11-27T13:09:59Z</time>
      </trkpt>
      <trkpt lat="42.90311" lon="0.0937">
        <ele>1426</ele>
        <time>2021-11-27T13:10:00Z</time>
      </trkpt>
      <trkpt lat="42.90312" lon="0.09372">
        <ele>1426</ele>
        <time>2021-11-27T13:10:01Z</time>
      </trkpt>
      <trkpt lat="42.90313" lon="0.09375">
        <ele>1426</ele>
        <time>2021-11-27T13:10:02Z</time>
      </trkpt>
      <trkpt lat="42.90313" lon="0.09377">
        <ele>1426</ele>
        <time>2021-11-27T13:10:03Z</time>
      </trkpt>
      <trkpt lat="42.90314" lon="0.0938">
        <ele>1426</ele>
        <time>2021-11-27T13:10:04Z</time>
      </trkpt>
      <trkpt lat="42.90315" lon="0.09382">
        <ele>1426</ele>
        <time>2021-11-27T13:10:05Z</time>
      </trkpt>
      <trkpt lat="42.90316" lon="0.09386">
        <ele>1426</ele>
        <time>2021-11-27T13:10:07Z</time>
      </trkpt>
      <trkpt lat="42.90316" lon="0.09389">
        <ele>1426</ele>
        <time>2021-11-27T13:10:08Z</time>
      </trkpt>
      <trkpt lat="42.90318" lon="0.09392">
        <ele>1426</ele>
        <time>2021-11-27T13:10:10Z</time>
      </trkpt>
      <trkpt lat="42.90319" lon="0.09394">
        <ele>1426</ele>
        <time>2021-11-27T13:10:11Z</time>
      </trkpt>
      <trkpt lat="42.9032" lon="0.09398">
        <ele>1426</ele>
        <time>2021-11-27T13:10:13Z</time>
      </trkpt>
      <trkpt lat="42.9032" lon="0.09401">
        <ele>1426</ele>
        <time>2021-11-27T13:10:14Z</time>
      </trkpt>
      <trkpt lat="42.90321" lon="0.09405">
        <ele>1426</ele>
        <time>2021-11-27T13:10:16Z</time>
      </trkpt>
      <trkpt lat="42.90323" lon="0.09408">
        <ele>1426</ele>
        <time>2021-11-27T13:10:17Z</time>
      </trkpt>
      <trkpt lat="42.90323" lon="0.0941">
        <ele>1426</ele>
        <time>2021-11-27T13:10:18Z</time>
      </trkpt>
      <trkpt lat="42.90324" lon="0.09413">
        <ele>1424</ele>
        <time>2021-11-27T13:10:19Z</time>
      </trkpt>
      <trkpt lat="42.90324" lon="0.09415">
        <ele>1424</ele>
        <time>2021-11-27T13:10:20Z</time>
      </trkpt>
      <trkpt lat="42.90326" lon="0.09419">
        <ele>1424</ele>
        <time>2021-11-27T13:10:22Z</time>
      </trkpt>
      <trkpt lat="42.90327" lon="0.09421">
        <ele>1424</ele>
        <time>2021-11-27T13:10:24Z</time>
      </trkpt>
      <trkpt lat="42.90327" lon="0.09423">
        <ele>1424</ele>
        <time>2021-11-27T13:10:26Z</time>
      </trkpt>
      <trkpt lat="42.90329" lon="0.09426">
        <ele>1424</ele>
        <time>2021-11-27T13:10:28Z</time>
      </trkpt>
      <trkpt lat="42.90329" lon="0.09428">
        <ele>1424</ele>
        <time>2021-11-27T13:10:31Z</time>
      </trkpt>
      <trkpt lat="42.9033" lon="0.09431">
        <ele>1424</ele>
        <time>2021-11-27T13:10:34Z</time>
      </trkpt>
      <trkpt lat="42.9033" lon="0.09434">
        <ele>1424</ele>
        <time>2021-11-27T13:10:37Z</time>
      </trkpt>
      <trkpt lat="42.90331" lon="0.09438">
        <ele>1424</ele>
        <time>2021-11-27T13:10:40Z</time>
      </trkpt>
      <trkpt lat="42.90331" lon="0.0944">
        <ele>1424</ele>
        <time>2021-11-27T13:10:42Z</time>
      </trkpt>
      <trkpt lat="42.90332" lon="0.09443">
        <ele>1424</ele>
        <time>2021-11-27T13:10:48Z</time>
      </trkpt>
      <trkpt lat="42.90332" lon="0.09445">
        <ele>1424</ele>
        <time>2021-11-27T13:10:51Z</time>
      </trkpt>
      <trkpt lat="42.90332" lon="0.09448">
        <ele>1424</ele>
        <time>2021-11-27T13:10:53Z</time>
      </trkpt>
      <trkpt lat="42.90332" lon="0.09451">
        <ele>1424</ele>
        <time>2021-11-27T13:10:56Z</time>
      </trkpt>
      <trkpt lat="42.90331" lon="0.09454">
        <ele>1424</ele>
        <time>2021-11-27T13:10:58Z</time>
      </trkpt>
      <trkpt lat="42.90332" lon="0.09456">
        <ele>1424</ele>
        <time>2021-11-27T13:11:00Z</time>
      </trkpt>
      <trkpt lat="42.90331" lon="0.09459">
        <ele>1424</ele>
        <time>2021-11-27T13:11:03Z</time>
      </trkpt>
      <trkpt lat="42.90331" lon="0.09462">
        <ele>1424</ele>
        <time>2021-11-27T13:11:05Z</time>
      </trkpt>
      <trkpt lat="42.90332" lon="0.09465">
        <ele>1424</ele>
        <time>2021-11-27T13:11:07Z</time>
      </trkpt>
      <trkpt lat="42.90333" lon="0.09468">
        <ele>1424</ele>
        <time>2021-11-27T13:11:09Z</time>
      </trkpt>
      <trkpt lat="42.90333" lon="0.09471">
        <ele>1424</ele>
        <time>2021-11-27T13:11:12Z</time>
      </trkpt>
      <trkpt lat="42.90333" lon="0.09474">
        <ele>1424</ele>
        <time>2021-11-27T13:11:15Z</time>
      </trkpt>
      <trkpt lat="42.90332" lon="0.09477">
        <ele>1424</ele>
        <time>2021-11-27T13:11:18Z</time>
      </trkpt>
      <trkpt lat="42.90332" lon="0.09481">
        <ele>1424</ele>
        <time>2021-11-27T13:11:21Z</time>
      </trkpt>
      <trkpt lat="42.90332" lon="0.09484">
        <ele>1424</ele>
        <time>2021-11-27T13:11:24Z</time>
      </trkpt>
      <trkpt lat="42.90333" lon="0.09487">
        <ele>1424</ele>
        <time>2021-11-27T13:11:27Z</time>
      </trkpt>
      <trkpt lat="42.90333" lon="0.0949">
        <ele>1424</ele>
        <time>2021-11-27T13:11:30Z</time>
      </trkpt>
      <trkpt lat="42.90333" lon="0.09493">
        <ele>1424</ele>
        <time>2021-11-27T13:11:32Z</time>
      </trkpt>
      <trkpt lat="42.90334" lon="0.09495">
        <ele>1424</ele>
        <time>2021-11-27T13:11:34Z</time>
      </trkpt>
      <trkpt lat="42.90333" lon="0.09498">
        <ele>1424</ele>
        <time>2021-11-27T13:11:36Z</time>
      </trkpt>
      <trkpt lat="42.90332" lon="0.095">
        <ele>1424</ele>
        <time>2021-11-27T13:11:38Z</time>
      </trkpt>
      <trkpt lat="42.90332" lon="0.09502">
        <ele>1424</ele>
        <time>2021-11-27T13:11:40Z</time>
      </trkpt>
      <trkpt lat="42.90332" lon="0.09505">
        <ele>1424</ele>
        <time>2021-11-27T13:11:43Z</time>
      </trkpt>
      <trkpt lat="42.90331" lon="0.09508">
        <ele>1424</ele>
        <time>2021-11-27T13:11:48Z</time>
      </trkpt>
      <trkpt lat="42.90331" lon="0.09511">
        <ele>1424</ele>
        <time>2021-11-27T13:11:51Z</time>
      </trkpt>
      <trkpt lat="42.90331" lon="0.09514">
        <ele>1424</ele>
        <time>2021-11-27T13:11:54Z</time>
      </trkpt>
      <trkpt lat="42.90331" lon="0.09518">
        <ele>1424</ele>
        <time>2021-11-27T13:11:57Z</time>
      </trkpt>
      <trkpt lat="42.90331" lon="0.09521">
        <ele>1424</ele>
        <time>2021-11-27T13:12:00Z</time>
      </trkpt>
      <trkpt lat="42.90332" lon="0.09524">
        <ele>1424</ele>
        <time>2021-11-27T13:12:03Z</time>
      </trkpt>
      <trkpt lat="42.90332" lon="0.09527">
        <ele>1424</ele>
        <time>2021-11-27T13:12:05Z</time>
      </trkpt>
      <trkpt lat="42.90332" lon="0.0953">
        <ele>1424</ele>
        <time>2021-11-27T13:12:08Z</time>
      </trkpt>
      <trkpt lat="42.90332" lon="0.09533">
        <ele>1424</ele>
        <time>2021-11-27T13:12:11Z</time>
      </trkpt>
      <trkpt lat="42.90332" lon="0.09536">
        <ele>1424</ele>
        <time>2021-11-27T13:12:13Z</time>
      </trkpt>
      <trkpt lat="42.90332" lon="0.09539">
        <ele>1424</ele>
        <time>2021-11-27T13:12:16Z</time>
      </trkpt>
      <trkpt lat="42.90332" lon="0.09543">
        <ele>1426.6</ele>
        <time>2021-11-27T13:12:19Z</time>
      </trkpt>
      <trkpt lat="42.90332" lon="0.09545">
        <ele>1426.6</ele>
        <time>2021-11-27T13:12:21Z</time>
      </trkpt>
      <trkpt lat="42.90332" lon="0.09548">
        <ele>1426.6</ele>
        <time>2021-11-27T13:12:24Z</time>
      </trkpt>
      <trkpt lat="42.90332" lon="0.09551">
        <ele>1426.6</ele>
        <time>2021-11-27T13:12:27Z</time>
      </trkpt>
      <trkpt lat="42.90332" lon="0.09554">
        <ele>1427</ele>
        <time>2021-11-27T13:12:29Z</time>
      </trkpt>
      <trkpt lat="42.90332" lon="0.09557">
        <ele>1427</ele>
        <time>2021-11-27T13:12:32Z</time>
      </trkpt>
      <trkpt lat="42.90332" lon="0.0956">
        <ele>1427</ele>
        <time>2021-11-27T13:12:35Z</time>
      </trkpt>
      <trkpt lat="42.90332" lon="0.09563">
        <ele>1427</ele>
        <time>2021-11-27T13:12:38Z</time>
      </trkpt>
      <trkpt lat="42.90332" lon="0.09565">
        <ele>1427</ele>
        <time>2021-11-27T13:12:41Z</time>
      </trkpt>
      <trkpt lat="42.90332" lon="0.09569">
        <ele>1427</ele>
        <time>2021-11-27T13:12:48Z</time>
      </trkpt>
      <trkpt lat="42.90332" lon="0.09571">
        <ele>1427</ele>
        <time>2021-11-27T13:12:50Z</time>
      </trkpt>
      <trkpt lat="42.90332" lon="0.09574">
        <ele>1427</ele>
        <time>2021-11-27T13:12:53Z</time>
      </trkpt>
      <trkpt lat="42.90332" lon="0.09577">
        <ele>1427</ele>
        <time>2021-11-27T13:12:55Z</time>
      </trkpt>
      <trkpt lat="42.90332" lon="0.0958">
        <ele>1427</ele>
        <time>2021-11-27T13:12:58Z</time>
      </trkpt>
      <trkpt lat="42.90332" lon="0.09584">
        <ele>1427</ele>
        <time>2021-11-27T13:13:01Z</time>
      </trkpt>
      <trkpt lat="42.90332" lon="0.09587">
        <ele>1427</ele>
        <time>2021-11-27T13:13:04Z</time>
      </trkpt>
      <trkpt lat="42.90333" lon="0.0959">
        <ele>1427</ele>
        <time>2021-11-27T13:13:07Z</time>
      </trkpt>
      <trkpt lat="42.90333" lon="0.09593">
        <ele>1427</ele>
        <time>2021-11-27T13:13:10Z</time>
      </trkpt>
      <trkpt lat="42.90332" lon="0.09597">
        <ele>1427</ele>
        <time>2021-11-27T13:13:13Z</time>
      </trkpt>
      <trkpt lat="42.90333" lon="0.096">
        <ele>1427</ele>
        <time>2021-11-27T13:13:16Z</time>
      </trkpt>
      <trkpt lat="42.90333" lon="0.09603">
        <ele>1428.2</ele>
        <time>2021-11-27T13:13:19Z</time>
      </trkpt>
      <trkpt lat="42.90332" lon="0.09607">
        <ele>1428.2</ele>
        <time>2021-11-27T13:13:22Z</time>
      </trkpt>
      <trkpt lat="42.90332" lon="0.09611">
        <ele>1428.2</ele>
        <time>2021-11-27T13:13:25Z</time>
      </trkpt>
      <trkpt lat="42.90332" lon="0.09613">
        <ele>1428.2</ele>
        <time>2021-11-27T13:13:27Z</time>
      </trkpt>
      <trkpt lat="42.90332" lon="0.09617">
        <ele>1428.2</ele>
        <time>2021-11-27T13:13:30Z</time>
      </trkpt>
      <trkpt lat="42.90332" lon="0.0962">
        <ele>1428.2</ele>
        <time>2021-11-27T13:13:33Z</time>
      </trkpt>
      <trkpt lat="42.90332" lon="0.09623">
        <ele>1428.2</ele>
        <time>2021-11-27T13:13:36Z</time>
      </trkpt>
      <trkpt lat="42.90331" lon="0.09625">
        <ele>1428.2</ele>
        <time>2021-11-27T13:13:40Z</time>
      </trkpt>
      <trkpt lat="42.90331" lon="0.09628">
        <ele>1428.2</ele>
        <time>2021-11-27T13:13:43Z</time>
      </trkpt>
      <trkpt lat="42.90331" lon="0.09631">
        <ele>1428.2</ele>
        <time>2021-11-27T13:13:46Z</time>
      </trkpt>
      <trkpt lat="42.90331" lon="0.09633">
        <ele>1428.8</ele>
        <time>2021-11-27T13:13:49Z</time>
      </trkpt>
      <trkpt lat="42.90331" lon="0.09636">
        <ele>1428.8</ele>
        <time>2021-11-27T13:13:52Z</time>
      </trkpt>
      <trkpt lat="42.9033" lon="0.09639">
        <ele>1428.8</ele>
        <time>2021-11-27T13:13:55Z</time>
      </trkpt>
      <trkpt lat="42.90329" lon="0.09642">
        <ele>1428.8</ele>
        <time>2021-11-27T13:13:58Z</time>
      </trkpt>
      <trkpt lat="42.9033" lon="0.09645">
        <ele>1428.8</ele>
        <time>2021-11-27T13:14:01Z</time>
      </trkpt>
      <trkpt lat="42.90331" lon="0.09648">
        <ele>1428.8</ele>
        <time>2021-11-27T13:14:04Z</time>
      </trkpt>
      <trkpt lat="42.90331" lon="0.09652">
        <ele>1428.8</ele>
        <time>2021-11-27T13:14:07Z</time>
      </trkpt>
      <trkpt lat="42.90332" lon="0.09655">
        <ele>1428.8</ele>
        <time>2021-11-27T13:14:10Z</time>
      </trkpt>
      <trkpt lat="42.90332" lon="0.09658">
        <ele>1428.8</ele>
        <time>2021-11-27T13:14:12Z</time>
      </trkpt>
      <trkpt lat="42.90332" lon="0.09661">
        <ele>1428.8</ele>
        <time>2021-11-27T13:14:15Z</time>
      </trkpt>
      <trkpt lat="42.90333" lon="0.09664">
        <ele>1428.8</ele>
        <time>2021-11-27T13:14:18Z</time>
      </trkpt>
      <trkpt lat="42.90332" lon="0.09667">
        <ele>1428.8</ele>
        <time>2021-11-27T13:14:21Z</time>
      </trkpt>
      <trkpt lat="42.90332" lon="0.09669">
        <ele>1428.8</ele>
        <time>2021-11-27T13:14:23Z</time>
      </trkpt>
      <trkpt lat="42.90331" lon="0.09672">
        <ele>1428.8</ele>
        <time>2021-11-27T13:14:26Z</time>
      </trkpt>
      <trkpt lat="42.90332" lon="0.09675">
        <ele>1430.6</ele>
        <time>2021-11-27T13:14:29Z</time>
      </trkpt>
      <trkpt lat="42.90332" lon="0.09679">
        <ele>1430.6</ele>
        <time>2021-11-27T13:14:32Z</time>
      </trkpt>
      <trkpt lat="42.90332" lon="0.09682">
        <ele>1430.6</ele>
        <time>2021-11-27T13:14:35Z</time>
      </trkpt>
      <trkpt lat="42.90332" lon="0.09685">
        <ele>1430.6</ele>
        <time>2021-11-27T13:14:38Z</time>
      </trkpt>
      <trkpt lat="42.90333" lon="0.09688">
        <ele>1430.6</ele>
        <time>2021-11-27T13:14:41Z</time>
      </trkpt>
      <trkpt lat="42.90333" lon="0.0969">
        <ele>1430.6</ele>
        <time>2021-11-27T13:14:43Z</time>
      </trkpt>
      <trkpt lat="42.90333" lon="0.09693">
        <ele>1430.6</ele>
        <time>2021-11-27T13:14:45Z</time>
      </trkpt>
      <trkpt lat="42.90334" lon="0.09695">
        <ele>1430.6</ele>
        <time>2021-11-27T13:14:47Z</time>
      </trkpt>
      <trkpt lat="42.90335" lon="0.09698">
        <ele>1430.6</ele>
        <time>2021-11-27T13:14:50Z</time>
      </trkpt>
      <trkpt lat="42.90335" lon="0.09701">
        <ele>1430.6</ele>
        <time>2021-11-27T13:14:53Z</time>
      </trkpt>
      <trkpt lat="42.90335" lon="0.09705">
        <ele>1430.6</ele>
        <time>2021-11-27T13:14:56Z</time>
      </trkpt>
      <trkpt lat="42.90335" lon="0.09708">
        <ele>1431.6</ele>
        <time>2021-11-27T13:14:59Z</time>
      </trkpt>
      <trkpt lat="42.90335" lon="0.09711">
        <ele>1431.6</ele>
        <time>2021-11-27T13:15:02Z</time>
      </trkpt>
      <trkpt lat="42.90335" lon="0.09714">
        <ele>1431.6</ele>
        <time>2021-11-27T13:15:04Z</time>
      </trkpt>
      <trkpt lat="42.90335" lon="0.09717">
        <ele>1431.6</ele>
        <time>2021-11-27T13:15:07Z</time>
      </trkpt>
      <trkpt lat="42.90335" lon="0.0972">
        <ele>1431.6</ele>
        <time>2021-11-27T13:15:10Z</time>
      </trkpt>
      <trkpt lat="42.90336" lon="0.09724">
        <ele>1431.6</ele>
        <time>2021-11-27T13:15:13Z</time>
      </trkpt>
      <trkpt lat="42.90336" lon="0.09727">
        <ele>1431.6</ele>
        <time>2021-11-27T13:15:16Z</time>
      </trkpt>
      <trkpt lat="42.90336" lon="0.0973">
        <ele>1431.6</ele>
        <time>2021-11-27T13:15:18Z</time>
      </trkpt>
      <trkpt lat="42.90336" lon="0.09732">
        <ele>1431.6</ele>
        <time>2021-11-27T13:15:20Z</time>
      </trkpt>
      <trkpt lat="42.90336" lon="0.09735">
        <ele>1431.6</ele>
        <time>2021-11-27T13:15:23Z</time>
      </trkpt>
      <trkpt lat="42.90335" lon="0.09739">
        <ele>1431.6</ele>
        <time>2021-11-27T13:15:26Z</time>
      </trkpt>
      <trkpt lat="42.90337" lon="0.09742">
        <ele>1433</ele>
        <time>2021-11-27T13:15:29Z</time>
      </trkpt>
      <trkpt lat="42.90336" lon="0.09744">
        <ele>1433</ele>
        <time>2021-11-27T13:15:31Z</time>
      </trkpt>
      <trkpt lat="42.90336" lon="0.09748">
        <ele>1433</ele>
        <time>2021-11-27T13:15:34Z</time>
      </trkpt>
      <trkpt lat="42.90337" lon="0.0975">
        <ele>1433</ele>
        <time>2021-11-27T13:15:36Z</time>
      </trkpt>
      <trkpt lat="42.90338" lon="0.09753">
        <ele>1433.2</ele>
        <time>2021-11-27T13:15:39Z</time>
      </trkpt>
      <trkpt lat="42.90339" lon="0.09756">
        <ele>1433.2</ele>
        <time>2021-11-27T13:15:42Z</time>
      </trkpt>
      <trkpt lat="42.90339" lon="0.09758">
        <ele>1433.2</ele>
        <time>2021-11-27T13:15:45Z</time>
      </trkpt>
      <trkpt lat="42.90338" lon="0.09761">
        <ele>1433.2</ele>
        <time>2021-11-27T13:15:48Z</time>
      </trkpt>
      <trkpt lat="42.90337" lon="0.09764">
        <ele>1433.2</ele>
        <time>2021-11-27T13:15:51Z</time>
      </trkpt>
      <trkpt lat="42.90338" lon="0.09767">
        <ele>1433.2</ele>
        <time>2021-11-27T13:15:54Z</time>
      </trkpt>
      <trkpt lat="42.90338" lon="0.0977">
        <ele>1433.2</ele>
        <time>2021-11-27T13:15:57Z</time>
      </trkpt>
      <trkpt lat="42.90339" lon="0.09774">
        <ele>1433.2</ele>
        <time>2021-11-27T13:16:00Z</time>
      </trkpt>
      <trkpt lat="42.9034" lon="0.09776">
        <ele>1433.2</ele>
        <time>2021-11-27T13:16:02Z</time>
      </trkpt>
      <trkpt lat="42.9034" lon="0.0978">
        <ele>1433.2</ele>
        <time>2021-11-27T13:16:05Z</time>
      </trkpt>
      <trkpt lat="42.9034" lon="0.09783">
        <ele>1433.2</ele>
        <time>2021-11-27T13:16:08Z</time>
      </trkpt>
      <trkpt lat="42.90341" lon="0.09785">
        <ele>1433.2</ele>
        <time>2021-11-27T13:16:10Z</time>
      </trkpt>
      <trkpt lat="42.90341" lon="0.09789">
        <ele>1433.2</ele>
        <time>2021-11-27T13:16:13Z</time>
      </trkpt>
      <trkpt lat="42.90341" lon="0.09791">
        <ele>1433.2</ele>
        <time>2021-11-27T13:16:15Z</time>
      </trkpt>
      <trkpt lat="42.90342" lon="0.09794">
        <ele>1433.2</ele>
        <time>2021-11-27T13:16:18Z</time>
      </trkpt>
      <trkpt lat="42.90342" lon="0.09797">
        <ele>1433.2</ele>
        <time>2021-11-27T13:16:22Z</time>
      </trkpt>
      <trkpt lat="42.90343" lon="0.098">
        <ele>1433.2</ele>
        <time>2021-11-27T13:16:25Z</time>
      </trkpt>
      <trkpt lat="42.90343" lon="0.09802">
        <ele>1433.2</ele>
        <time>2021-11-27T13:16:28Z</time>
      </trkpt>
      <trkpt lat="42.90343" lon="0.09805">
        <ele>1433.2</ele>
        <time>2021-11-27T13:16:31Z</time>
      </trkpt>
      <trkpt lat="42.90344" lon="0.09807">
        <ele>1433.2</ele>
        <time>2021-11-27T13:16:33Z</time>
      </trkpt>
      <trkpt lat="42.90343" lon="0.0981">
        <ele>1433.2</ele>
        <time>2021-11-27T13:16:36Z</time>
      </trkpt>
      <trkpt lat="42.90344" lon="0.09813">
        <ele>1435.4</ele>
        <time>2021-11-27T13:16:39Z</time>
      </trkpt>
      <trkpt lat="42.90344" lon="0.09816">
        <ele>1435.4</ele>
        <time>2021-11-27T13:16:41Z</time>
      </trkpt>
      <trkpt lat="42.90344" lon="0.09819">
        <ele>1435.4</ele>
        <time>2021-11-27T13:16:44Z</time>
      </trkpt>
      <trkpt lat="42.90345" lon="0.09822">
        <ele>1435.4</ele>
        <time>2021-11-27T13:16:47Z</time>
      </trkpt>
      <trkpt lat="42.90345" lon="0.09826">
        <ele>1435.4</ele>
        <time>2021-11-27T13:16:50Z</time>
      </trkpt>
      <trkpt lat="42.90345" lon="0.09828">
        <ele>1435.4</ele>
        <time>2021-11-27T13:16:52Z</time>
      </trkpt>
      <trkpt lat="42.90345" lon="0.09831">
        <ele>1435.4</ele>
        <time>2021-11-27T13:16:54Z</time>
      </trkpt>
      <trkpt lat="42.90345" lon="0.09833">
        <ele>1435.4</ele>
        <time>2021-11-27T13:16:56Z</time>
      </trkpt>
      <trkpt lat="42.90344" lon="0.09836">
        <ele>1435.4</ele>
        <time>2021-11-27T13:16:58Z</time>
      </trkpt>
      <trkpt lat="42.90345" lon="0.09839">
        <ele>1435.4</ele>
        <time>2021-11-27T13:17:01Z</time>
      </trkpt>
      <trkpt lat="42.90345" lon="0.09842">
        <ele>1435.4</ele>
        <time>2021-11-27T13:17:04Z</time>
      </trkpt>
      <trkpt lat="42.90346" lon="0.09846">
        <ele>1435.4</ele>
        <time>2021-11-27T13:17:07Z</time>
      </trkpt>
      <trkpt lat="42.90346" lon="0.09849">
        <ele>1435.4</ele>
        <time>2021-11-27T13:17:10Z</time>
      </trkpt>
      <trkpt lat="42.90346" lon="0.09852">
        <ele>1435.4</ele>
        <time>2021-11-27T13:17:13Z</time>
      </trkpt>
      <trkpt lat="42.90346" lon="0.09855">
        <ele>1435.4</ele>
        <time>2021-11-27T13:17:16Z</time>
      </trkpt>
      <trkpt lat="42.90347" lon="0.09857">
        <ele>1435.4</ele>
        <time>2021-11-27T13:17:18Z</time>
      </trkpt>
      <trkpt lat="42.90347" lon="0.0986">
        <ele>1435.4</ele>
        <time>2021-11-27T13:17:21Z</time>
      </trkpt>
      <trkpt lat="42.90347" lon="0.09864">
        <ele>1435.4</ele>
        <time>2021-11-27T13:17:24Z</time>
      </trkpt>
      <trkpt lat="42.90347" lon="0.09867">
        <ele>1435.4</ele>
        <time>2021-11-27T13:17:27Z</time>
      </trkpt>
      <trkpt lat="42.90347" lon="0.0987">
        <ele>1435.4</ele>
        <time>2021-11-27T13:17:30Z</time>
      </trkpt>
      <trkpt lat="42.90348" lon="0.09873">
        <ele>1435.4</ele>
        <time>2021-11-27T13:17:33Z</time>
      </trkpt>
      <trkpt lat="42.90348" lon="0.09876">
        <ele>1435.4</ele>
        <time>2021-11-27T13:17:35Z</time>
      </trkpt>
      <trkpt lat="42.90348" lon="0.09879">
        <ele>1435.4</ele>
        <time>2021-11-27T13:17:38Z</time>
      </trkpt>
      <trkpt lat="42.90349" lon="0.09881">
        <ele>1435.4</ele>
        <time>2021-11-27T13:17:41Z</time>
      </trkpt>
      <trkpt lat="42.90349" lon="0.09884">
        <ele>1435.4</ele>
        <time>2021-11-27T13:17:44Z</time>
      </trkpt>
      <trkpt lat="42.9035" lon="0.09887">
        <ele>1435.4</ele>
        <time>2021-11-27T13:17:47Z</time>
      </trkpt>
      <trkpt lat="42.9035" lon="0.0989">
        <ele>1435.4</ele>
        <time>2021-11-27T13:17:50Z</time>
      </trkpt>
      <trkpt lat="42.90349" lon="0.09892">
        <ele>1435.4</ele>
        <time>2021-11-27T13:17:52Z</time>
      </trkpt>
      <trkpt lat="42.90349" lon="0.09895">
        <ele>1435.4</ele>
        <time>2021-11-27T13:17:54Z</time>
      </trkpt>
      <trkpt lat="42.90349" lon="0.09898">
        <ele>1435.4</ele>
        <time>2021-11-27T13:17:57Z</time>
      </trkpt>
      <trkpt lat="42.90349" lon="0.09901">
        <ele>1435.4</ele>
        <time>2021-11-27T13:18:00Z</time>
      </trkpt>
      <trkpt lat="42.90349" lon="0.09904">
        <ele>1435.4</ele>
        <time>2021-11-27T13:18:03Z</time>
      </trkpt>
      <trkpt lat="42.90349" lon="0.09907">
        <ele>1435.4</ele>
        <time>2021-11-27T13:18:06Z</time>
      </trkpt>
      <trkpt lat="42.9035" lon="0.0991">
        <ele>1440.8</ele>
        <time>2021-11-27T13:18:09Z</time>
      </trkpt>
      <trkpt lat="42.9035" lon="0.09913">
        <ele>1440.8</ele>
        <time>2021-11-27T13:18:12Z</time>
      </trkpt>
      <trkpt lat="42.9035" lon="0.09916">
        <ele>1440.8</ele>
        <time>2021-11-27T13:18:15Z</time>
      </trkpt>
      <trkpt lat="42.90351" lon="0.09919">
        <ele>1440.8</ele>
        <time>2021-11-27T13:18:18Z</time>
      </trkpt>
      <trkpt lat="42.90351" lon="0.09922">
        <ele>1440.8</ele>
        <time>2021-11-27T13:18:21Z</time>
      </trkpt>
      <trkpt lat="42.90351" lon="0.09925">
        <ele>1440.8</ele>
        <time>2021-11-27T13:18:24Z</time>
      </trkpt>
      <trkpt lat="42.90351" lon="0.09928">
        <ele>1440.8</ele>
        <time>2021-11-27T13:18:27Z</time>
      </trkpt>
      <trkpt lat="42.90352" lon="0.09931">
        <ele>1440.8</ele>
        <time>2021-11-27T13:18:30Z</time>
      </trkpt>
      <trkpt lat="42.90352" lon="0.09934">
        <ele>1440.8</ele>
        <time>2021-11-27T13:18:33Z</time>
      </trkpt>
      <trkpt lat="42.90353" lon="0.09937">
        <ele>1440.8</ele>
        <time>2021-11-27T13:18:35Z</time>
      </trkpt>
      <trkpt lat="42.90353" lon="0.0994">
        <ele>1440.8</ele>
        <time>2021-11-27T13:18:38Z</time>
      </trkpt>
      <trkpt lat="42.90353" lon="0.09944">
        <ele>1440.8</ele>
        <time>2021-11-27T13:18:41Z</time>
      </trkpt>
      <trkpt lat="42.90353" lon="0.09947">
        <ele>1440.8</ele>
        <time>2021-11-27T13:18:44Z</time>
      </trkpt>
      <trkpt lat="42.90353" lon="0.0995">
        <ele>1440.8</ele>
        <time>2021-11-27T13:18:47Z</time>
      </trkpt>
      <trkpt lat="42.90353" lon="0.09953">
        <ele>1440.8</ele>
        <time>2021-11-27T13:18:50Z</time>
      </trkpt>
      <trkpt lat="42.90353" lon="0.09957">
        <ele>1440.8</ele>
        <time>2021-11-27T13:18:53Z</time>
      </trkpt>
      <trkpt lat="42.90353" lon="0.0996">
        <ele>1440.8</ele>
        <time>2021-11-27T13:18:56Z</time>
      </trkpt>
      <trkpt lat="42.90352" lon="0.09963">
        <ele>1444.2</ele>
        <time>2021-11-27T13:18:59Z</time>
      </trkpt>
      <trkpt lat="42.90353" lon="0.09966">
        <ele>1444.2</ele>
        <time>2021-11-27T13:19:02Z</time>
      </trkpt>
      <trkpt lat="42.90353" lon="0.09968">
        <ele>1444.2</ele>
        <time>2021-11-27T13:19:04Z</time>
      </trkpt>
      <trkpt lat="42.90353" lon="0.09971">
        <ele>1444.2</ele>
        <time>2021-11-27T13:19:07Z</time>
      </trkpt>
      <trkpt lat="42.90354" lon="0.09974">
        <ele>1445.2</ele>
        <time>2021-11-27T13:19:09Z</time>
      </trkpt>
      <trkpt lat="42.90353" lon="0.09976">
        <ele>1445.2</ele>
        <time>2021-11-27T13:19:11Z</time>
      </trkpt>
      <trkpt lat="42.90353" lon="0.09979">
        <ele>1445.2</ele>
        <time>2021-11-27T13:19:14Z</time>
      </trkpt>
      <trkpt lat="42.90353" lon="0.09983">
        <ele>1445.2</ele>
        <time>2021-11-27T13:19:17Z</time>
      </trkpt>
      <trkpt lat="42.90353" lon="0.09986">
        <ele>1445.2</ele>
        <time>2021-11-27T13:19:20Z</time>
      </trkpt>
      <trkpt lat="42.90352" lon="0.09989">
        <ele>1445.2</ele>
        <time>2021-11-27T13:19:23Z</time>
      </trkpt>
      <trkpt lat="42.90352" lon="0.09991">
        <ele>1445.2</ele>
        <time>2021-11-27T13:19:26Z</time>
      </trkpt>
      <trkpt lat="42.90352" lon="0.09994">
        <ele>1446.8</ele>
        <time>2021-11-27T13:19:29Z</time>
      </trkpt>
      <trkpt lat="42.90352" lon="0.09997">
        <ele>1446.8</ele>
        <time>2021-11-27T13:19:32Z</time>
      </trkpt>
      <trkpt lat="42.90353" lon="0.1">
        <ele>1446.8</ele>
        <time>2021-11-27T13:19:35Z</time>
      </trkpt>
      <trkpt lat="42.90352" lon="0.10004">
        <ele>1446.8</ele>
        <time>2021-11-27T13:19:38Z</time>
      </trkpt>
      <trkpt lat="42.90351" lon="0.10006">
        <ele>1446.8</ele>
        <time>2021-11-27T13:19:40Z</time>
      </trkpt>
      <trkpt lat="42.90351" lon="0.10009">
        <ele>1446.8</ele>
        <time>2021-11-27T13:19:43Z</time>
      </trkpt>
      <trkpt lat="42.90351" lon="0.10012">
        <ele>1446.8</ele>
        <time>2021-11-27T13:19:46Z</time>
      </trkpt>
      <trkpt lat="42.90351" lon="0.10015">
        <ele>1448.8</ele>
        <time>2021-11-27T13:19:49Z</time>
      </trkpt>
      <trkpt lat="42.9035" lon="0.10018">
        <ele>1448.8</ele>
        <time>2021-11-27T13:19:52Z</time>
      </trkpt>
      <trkpt lat="42.90349" lon="0.1002">
        <ele>1448.8</ele>
        <time>2021-11-27T13:19:55Z</time>
      </trkpt>
      <trkpt lat="42.90348" lon="0.10024">
        <ele>1448.8</ele>
        <time>2021-11-27T13:19:58Z</time>
      </trkpt>
      <trkpt lat="42.90347" lon="0.10026">
        <ele>1448.8</ele>
        <time>2021-11-27T13:20:00Z</time>
      </trkpt>
      <trkpt lat="42.90345" lon="0.10029">
        <ele>1448.8</ele>
        <time>2021-11-27T13:20:03Z</time>
      </trkpt>
      <trkpt lat="42.90344" lon="0.10032">
        <ele>1448.8</ele>
        <time>2021-11-27T13:20:06Z</time>
      </trkpt>
      <trkpt lat="42.90342" lon="0.10034">
        <ele>1450.4</ele>
        <time>2021-11-27T13:20:09Z</time>
      </trkpt>
      <trkpt lat="42.90341" lon="0.10036">
        <ele>1450.4</ele>
        <time>2021-11-27T13:20:11Z</time>
      </trkpt>
      <trkpt lat="42.9034" lon="0.10039">
        <ele>1450.4</ele>
        <time>2021-11-27T13:20:14Z</time>
      </trkpt>
      <trkpt lat="42.90338" lon="0.10041">
        <ele>1450.4</ele>
        <time>2021-11-27T13:20:17Z</time>
      </trkpt>
      <trkpt lat="42.90337" lon="0.10044">
        <ele>1450.4</ele>
        <time>2021-11-27T13:20:20Z</time>
      </trkpt>
      <trkpt lat="42.90335" lon="0.10046">
        <ele>1450.4</ele>
        <time>2021-11-27T13:20:22Z</time>
      </trkpt>
      <trkpt lat="42.90334" lon="0.10049">
        <ele>1450.4</ele>
        <time>2021-11-27T13:20:25Z</time>
      </trkpt>
      <trkpt lat="42.90332" lon="0.10051">
        <ele>1450.4</ele>
        <time>2021-11-27T13:20:28Z</time>
      </trkpt>
      <trkpt lat="42.90331" lon="0.10053">
        <ele>1450.4</ele>
        <time>2021-11-27T13:20:31Z</time>
      </trkpt>
      <trkpt lat="42.9033" lon="0.10056">
        <ele>1450.4</ele>
        <time>2021-11-27T13:20:34Z</time>
      </trkpt>
      <trkpt lat="42.90329" lon="0.10059">
        <ele>1450.4</ele>
        <time>2021-11-27T13:20:37Z</time>
      </trkpt>
      <trkpt lat="42.90327" lon="0.10061">
        <ele>1450.4</ele>
        <time>2021-11-27T13:20:40Z</time>
      </trkpt>
      <trkpt lat="42.90326" lon="0.10063">
        <ele>1450.4</ele>
        <time>2021-11-27T13:20:43Z</time>
      </trkpt>
      <trkpt lat="42.90325" lon="0.10066">
        <ele>1450.4</ele>
        <time>2021-11-27T13:20:45Z</time>
      </trkpt>
      <trkpt lat="42.90324" lon="0.10068">
        <ele>1450.4</ele>
        <time>2021-11-27T13:20:48Z</time>
      </trkpt>
      <trkpt lat="42.90324" lon="0.1007">
        <ele>1450.4</ele>
        <time>2021-11-27T13:20:50Z</time>
      </trkpt>
      <trkpt lat="42.90323" lon="0.10073">
        <ele>1450.4</ele>
        <time>2021-11-27T13:20:53Z</time>
      </trkpt>
      <trkpt lat="42.90323" lon="0.10077">
        <ele>1450.4</ele>
        <time>2021-11-27T13:20:56Z</time>
      </trkpt>
      <trkpt lat="42.90322" lon="0.10079">
        <ele>1453.4</ele>
        <time>2021-11-27T13:20:59Z</time>
      </trkpt>
      <trkpt lat="42.90321" lon="0.10082">
        <ele>1453.4</ele>
        <time>2021-11-27T13:21:02Z</time>
      </trkpt>
      <trkpt lat="42.9032" lon="0.10086">
        <ele>1453.4</ele>
        <time>2021-11-27T13:21:05Z</time>
      </trkpt>
      <trkpt lat="42.9032" lon="0.10089">
        <ele>1453.4</ele>
        <time>2021-11-27T13:21:08Z</time>
      </trkpt>
      <trkpt lat="42.9032" lon="0.10092">
        <ele>1453.4</ele>
        <time>2021-11-27T13:21:11Z</time>
      </trkpt>
      <trkpt lat="42.9032" lon="0.10095">
        <ele>1453.4</ele>
        <time>2021-11-27T13:21:14Z</time>
      </trkpt>
      <trkpt lat="42.9032" lon="0.10099">
        <ele>1453.4</ele>
        <time>2021-11-27T13:21:17Z</time>
      </trkpt>
      <trkpt lat="42.9032" lon="0.10102">
        <ele>1454.4</ele>
        <time>2021-11-27T13:21:19Z</time>
      </trkpt>
      <trkpt lat="42.9032" lon="0.10104">
        <ele>1454.4</ele>
        <time>2021-11-27T13:21:21Z</time>
      </trkpt>
      <trkpt lat="42.9032" lon="0.10107">
        <ele>1454.4</ele>
        <time>2021-11-27T13:21:24Z</time>
      </trkpt>
      <trkpt lat="42.90321" lon="0.1011">
        <ele>1454.4</ele>
        <time>2021-11-27T13:21:26Z</time>
      </trkpt>
      <trkpt lat="42.90321" lon="0.10113">
        <ele>1454.2</ele>
        <time>2021-11-27T13:21:29Z</time>
      </trkpt>
      <trkpt lat="42.90322" lon="0.10115">
        <ele>1454.2</ele>
        <time>2021-11-27T13:21:31Z</time>
      </trkpt>
      <trkpt lat="42.90323" lon="0.10118">
        <ele>1454.2</ele>
        <time>2021-11-27T13:21:34Z</time>
      </trkpt>
      <trkpt lat="42.90323" lon="0.10122">
        <ele>1454.2</ele>
        <time>2021-11-27T13:21:37Z</time>
      </trkpt>
      <trkpt lat="42.90324" lon="0.10124">
        <ele>1454.2</ele>
        <time>2021-11-27T13:21:39Z</time>
      </trkpt>
      <trkpt lat="42.90324" lon="0.10127">
        <ele>1454.2</ele>
        <time>2021-11-27T13:21:42Z</time>
      </trkpt>
      <trkpt lat="42.90325" lon="0.1013">
        <ele>1454.2</ele>
        <time>2021-11-27T13:21:44Z</time>
      </trkpt>
      <trkpt lat="42.90326" lon="0.10132">
        <ele>1454.2</ele>
        <time>2021-11-27T13:21:47Z</time>
      </trkpt>
      <trkpt lat="42.90327" lon="0.10135">
        <ele>1454.4</ele>
        <time>2021-11-27T13:21:49Z</time>
      </trkpt>
      <trkpt lat="42.90327" lon="0.10138">
        <ele>1454.4</ele>
        <time>2021-11-27T13:21:52Z</time>
      </trkpt>
      <trkpt lat="42.90328" lon="0.10141">
        <ele>1454.4</ele>
        <time>2021-11-27T13:21:54Z</time>
      </trkpt>
      <trkpt lat="42.90328" lon="0.10144">
        <ele>1454.4</ele>
        <time>2021-11-27T13:21:57Z</time>
      </trkpt>
      <trkpt lat="42.90329" lon="0.10146">
        <ele>1454.2</ele>
        <time>2021-11-27T13:21:59Z</time>
      </trkpt>
      <trkpt lat="42.90329" lon="0.10149">
        <ele>1454.2</ele>
        <time>2021-11-27T13:22:02Z</time>
      </trkpt>
      <trkpt lat="42.9033" lon="0.10152">
        <ele>1454.2</ele>
        <time>2021-11-27T13:22:05Z</time>
      </trkpt>
      <trkpt lat="42.9033" lon="0.10155">
        <ele>1454.2</ele>
        <time>2021-11-27T13:22:07Z</time>
      </trkpt>
      <trkpt lat="42.9033" lon="0.10157">
        <ele>1454.2</ele>
        <time>2021-11-27T13:22:10Z</time>
      </trkpt>
      <trkpt lat="42.90331" lon="0.10161">
        <ele>1454.2</ele>
        <time>2021-11-27T13:22:13Z</time>
      </trkpt>
      <trkpt lat="42.90331" lon="0.10163">
        <ele>1454.2</ele>
        <time>2021-11-27T13:22:16Z</time>
      </trkpt>
      <trkpt lat="42.90331" lon="0.10167">
        <ele>1455</ele>
        <time>2021-11-27T13:22:19Z</time>
      </trkpt>
      <trkpt lat="42.90331" lon="0.1017">
        <ele>1455</ele>
        <time>2021-11-27T13:22:22Z</time>
      </trkpt>
      <trkpt lat="42.90331" lon="0.10173">
        <ele>1455</ele>
        <time>2021-11-27T13:22:25Z</time>
      </trkpt>
      <trkpt lat="42.90332" lon="0.10177">
        <ele>1455</ele>
        <time>2021-11-27T13:22:28Z</time>
      </trkpt>
      <trkpt lat="42.90332" lon="0.1018">
        <ele>1455</ele>
        <time>2021-11-27T13:22:31Z</time>
      </trkpt>
      <trkpt lat="42.90332" lon="0.10182">
        <ele>1455</ele>
        <time>2021-11-27T13:22:33Z</time>
      </trkpt>
      <trkpt lat="42.90333" lon="0.10185">
        <ele>1455</ele>
        <time>2021-11-27T13:22:36Z</time>
      </trkpt>
      <trkpt lat="42.90333" lon="0.10188">
        <ele>1456.2</ele>
        <time>2021-11-27T13:22:39Z</time>
      </trkpt>
      <trkpt lat="42.90333" lon="0.10191">
        <ele>1456.2</ele>
        <time>2021-11-27T13:22:42Z</time>
      </trkpt>
      <trkpt lat="42.90333" lon="0.10194">
        <ele>1456.2</ele>
        <time>2021-11-27T13:22:44Z</time>
      </trkpt>
      <trkpt lat="42.90334" lon="0.10197">
        <ele>1456.2</ele>
        <time>2021-11-27T13:22:47Z</time>
      </trkpt>
      <trkpt lat="42.90334" lon="0.102">
        <ele>1456.6</ele>
        <time>2021-11-27T13:22:49Z</time>
      </trkpt>
      <trkpt lat="42.90335" lon="0.10203">
        <ele>1456.6</ele>
        <time>2021-11-27T13:22:52Z</time>
      </trkpt>
      <trkpt lat="42.90335" lon="0.10205">
        <ele>1456.6</ele>
        <time>2021-11-27T13:22:54Z</time>
      </trkpt>
      <trkpt lat="42.90334" lon="0.10208">
        <ele>1456.6</ele>
        <time>2021-11-27T13:22:57Z</time>
      </trkpt>
      <trkpt lat="42.90333" lon="0.1021">
        <ele>1456.6</ele>
        <time>2021-11-27T13:23:00Z</time>
      </trkpt>
      <trkpt lat="42.90333" lon="0.10213">
        <ele>1456.6</ele>
        <time>2021-11-27T13:23:03Z</time>
      </trkpt>
      <trkpt lat="42.90333" lon="0.10216">
        <ele>1456.6</ele>
        <time>2021-11-27T13:23:05Z</time>
      </trkpt>
      <trkpt lat="42.90334" lon="0.10219">
        <ele>1456.6</ele>
        <time>2021-11-27T13:23:08Z</time>
      </trkpt>
      <trkpt lat="42.90334" lon="0.10222">
        <ele>1456.6</ele>
        <time>2021-11-27T13:23:11Z</time>
      </trkpt>
      <trkpt lat="42.90336" lon="0.10225">
        <ele>1456.6</ele>
        <time>2021-11-27T13:23:13Z</time>
      </trkpt>
      <trkpt lat="42.90337" lon="0.10228">
        <ele>1456.6</ele>
        <time>2021-11-27T13:23:16Z</time>
      </trkpt>
      <trkpt lat="42.90339" lon="0.1023">
        <ele>1457.8</ele>
        <time>2021-11-27T13:23:19Z</time>
      </trkpt>
      <trkpt lat="42.9034" lon="0.10233">
        <ele>1457.8</ele>
        <time>2021-11-27T13:23:22Z</time>
      </trkpt>
      <trkpt lat="42.90341" lon="0.10236">
        <ele>1457.8</ele>
        <time>2021-11-27T13:23:25Z</time>
      </trkpt>
      <trkpt lat="42.90342" lon="0.10238">
        <ele>1457.8</ele>
        <time>2021-11-27T13:23:27Z</time>
      </trkpt>
      <trkpt lat="42.90343" lon="0.10241">
        <ele>1457.8</ele>
        <time>2021-11-27T13:23:30Z</time>
      </trkpt>
      <trkpt lat="42.90345" lon="0.10243">
        <ele>1457.8</ele>
        <time>2021-11-27T13:23:32Z</time>
      </trkpt>
      <trkpt lat="42.90346" lon="0.10244">
        <ele>1457.8</ele>
        <time>2021-11-27T13:23:34Z</time>
      </trkpt>
      <trkpt lat="42.90348" lon="0.10246">
        <ele>1457.8</ele>
        <time>2021-11-27T13:23:37Z</time>
      </trkpt>
      <trkpt lat="42.90349" lon="0.10249">
        <ele>1457.8</ele>
        <time>2021-11-27T13:23:40Z</time>
      </trkpt>
      <trkpt lat="42.90351" lon="0.10251">
        <ele>1457.8</ele>
        <time>2021-11-27T13:23:43Z</time>
      </trkpt>
      <trkpt lat="42.90352" lon="0.10253">
        <ele>1457.8</ele>
        <time>2021-11-27T13:23:45Z</time>
      </trkpt>
      <trkpt lat="42.90354" lon="0.10256">
        <ele>1457.8</ele>
        <time>2021-11-27T13:23:48Z</time>
      </trkpt>
      <trkpt lat="42.90355" lon="0.10258">
        <ele>1457.8</ele>
        <time>2021-11-27T13:23:51Z</time>
      </trkpt>
      <trkpt lat="42.90356" lon="0.1026">
        <ele>1457.8</ele>
        <time>2021-11-27T13:23:54Z</time>
      </trkpt>
      <trkpt lat="42.90358" lon="0.10262">
        <ele>1457.8</ele>
        <time>2021-11-27T13:23:57Z</time>
      </trkpt>
      <trkpt lat="42.9036" lon="0.10264">
        <ele>1457.8</ele>
        <time>2021-11-27T13:24:00Z</time>
      </trkpt>
      <trkpt lat="42.90361" lon="0.10266">
        <ele>1457.8</ele>
        <time>2021-11-27T13:24:03Z</time>
      </trkpt>
      <trkpt lat="42.90358" lon="0.1027">
        <ele>1457.8</ele>
        <time>2021-11-27T13:25:18Z</time>
      </trkpt>
      <trkpt lat="42.90356" lon="0.1027">
        <ele>1457.8</ele>
        <time>2021-11-27T13:25:23Z</time>
      </trkpt>
      <trkpt lat="42.90355" lon="0.10272">
        <ele>1457.8</ele>
        <time>2021-11-27T13:31:14Z</time>
      </trkpt>
      <trkpt lat="42.90353" lon="0.10272">
        <ele>1457.8</ele>
        <time>2021-11-27T13:32:01Z</time>
      </trkpt>
      <trkpt lat="42.90351" lon="0.10271">
        <ele>1457.8</ele>
        <time>2021-11-27T13:32:03Z</time>
      </trkpt>
      <trkpt lat="42.90348" lon="0.10269">
        <ele>1457.8</ele>
        <time>2021-11-27T13:32:05Z</time>
      </trkpt>
      <trkpt lat="42.90346" lon="0.10267">
        <ele>1457.8</ele>
        <time>2021-11-27T13:32:07Z</time>
      </trkpt>
      <trkpt lat="42.90343" lon="0.10265">
        <ele>1459</ele>
        <time>2021-11-27T13:32:09Z</time>
      </trkpt>
      <trkpt lat="42.90341" lon="0.10263">
        <ele>1459</ele>
        <time>2021-11-27T13:32:11Z</time>
      </trkpt>
      <trkpt lat="42.9034" lon="0.10259">
        <ele>1459</ele>
        <time>2021-11-27T13:32:13Z</time>
      </trkpt>
      <trkpt lat="42.90339" lon="0.10256">
        <ele>1459</ele>
        <time>2021-11-27T13:32:15Z</time>
      </trkpt>
      <trkpt lat="42.90338" lon="0.10253">
        <ele>1459</ele>
        <time>2021-11-27T13:32:17Z</time>
      </trkpt>
      <trkpt lat="42.90337" lon="0.10248">
        <ele>1458.4</ele>
        <time>2021-11-27T13:32:19Z</time>
      </trkpt>
      <trkpt lat="42.90336" lon="0.10244">
        <ele>1458.4</ele>
        <time>2021-11-27T13:32:21Z</time>
      </trkpt>
      <trkpt lat="42.90335" lon="0.1024">
        <ele>1458.4</ele>
        <time>2021-11-27T13:32:23Z</time>
      </trkpt>
      <trkpt lat="42.90334" lon="0.10236">
        <ele>1458.4</ele>
        <time>2021-11-27T13:32:25Z</time>
      </trkpt>
      <trkpt lat="42.90332" lon="0.10233">
        <ele>1458.4</ele>
        <time>2021-11-27T13:32:27Z</time>
      </trkpt>
      <trkpt lat="42.90331" lon="0.10231">
        <ele>1457.2</ele>
        <time>2021-11-27T13:32:29Z</time>
      </trkpt>
      <trkpt lat="42.9033" lon="0.10228">
        <ele>1457.2</ele>
        <time>2021-11-27T13:32:31Z</time>
      </trkpt>
      <trkpt lat="42.90329" lon="0.10225">
        <ele>1457.2</ele>
        <time>2021-11-27T13:32:33Z</time>
      </trkpt>
      <trkpt lat="42.90327" lon="0.10224">
        <ele>1457.2</ele>
        <time>2021-11-27T13:32:35Z</time>
      </trkpt>
      <trkpt lat="42.90325" lon="0.10223">
        <ele>1457</ele>
        <time>2021-11-27T13:32:39Z</time>
      </trkpt>
      <trkpt lat="42.90323" lon="0.10222">
        <ele>1457</ele>
        <time>2021-11-27T13:32:42Z</time>
      </trkpt>
      <trkpt lat="42.9032" lon="0.10222">
        <ele>1457</ele>
        <time>2021-11-27T13:32:44Z</time>
      </trkpt>
      <trkpt lat="42.90317" lon="0.10223">
        <ele>1457</ele>
        <time>2021-11-27T13:32:47Z</time>
      </trkpt>
      <trkpt lat="42.90316" lon="0.10225">
        <ele>1457</ele>
        <time>2021-11-27T13:32:53Z</time>
      </trkpt>
      <trkpt lat="42.90317" lon="0.10227">
        <ele>1457</ele>
        <time>2021-11-27T13:32:56Z</time>
      </trkpt>
      <trkpt lat="42.90317" lon="0.10224">
        <ele>1457.4</ele>
        <time>2021-11-27T13:32:59Z</time>
      </trkpt>
      <trkpt lat="42.90318" lon="0.10222">
        <ele>1457.4</ele>
        <time>2021-11-27T13:33:07Z</time>
      </trkpt>
      <trkpt lat="42.9032" lon="0.10222">
        <ele>1457.4</ele>
        <time>2021-11-27T13:33:13Z</time>
      </trkpt>
    </trkseg>
  </trk>
</gpx>